GFSSE_sfc_wetblb_015.txt.gz
Wetbulb
70.18 70.93 71.57 72.10 71.98 71.86 71.37 71.18 71.29 71.35 71.71 71.58 71.14 70.45 69.94 69.54 68.76 69.30 69.42 69.10 68.89 67.52 67.29 66.73 66.31 66.02 65.54 65.19 64.91 65.03 65.09 65.46 65.86 66.61 66.95 67.89 69.09 69.56 69.27 68.89 69.52 67.37 68.55
70.87 70.86 70.86 71.59 71.69 71.44 71.28 71.51 71.43 71.72 71.62 70.67 70.21 69.87 69.25 68.51 68.15 68.27 68.51 68.41 67.79 66.61 65.95 65.37 64.97 64.36 63.91 63.80 64.08 64.46 64.29 63.94 64.09 65.19 66.86 68.47 69.29 69.53 68.90 68.23 69.15 68.01 68.02
71.11 71.05 70.49 71.04 71.39 71.46 71.35 71.67 71.91 71.61 70.87 70.26 69.52 68.91 68.18 67.76 67.83 67.47 67.54 67.71 66.40 65.34 64.75 64.35 63.67 63.47 64.28 64.29 64.23 64.09 64.04 64.00 64.45 65.26 66.01 67.18 68.62 68.34 67.82 68.96 68.47 67.84 67.81
71.24 69.81 69.43 70.67 70.88 71.32 71.27 71.35 71.20 71.21 70.43 69.60 68.74 68.13 67.37 67.17 66.73 66.54 66.37 66.76 65.41 64.68 63.93 63.39 63.03 63.78 63.71 63.39 63.38 63.31 63.67 64.05 65.16 66.16 65.06 64.26 67.89 68.33 67.98 67.72 67.58 67.06 67.28
71.02 70.55 69.86 70.16 70.11 70.56 70.62 70.61 70.98 70.78 70.64 69.80 69.01 67.73 67.05 66.43 65.91 65.66 65.39 65.16 65.14 64.86 64.55 63.92 63.74 63.75 63.95 64.14 63.38 62.72 63.31 64.00 65.18 64.57 64.26 65.11 66.25 67.74 67.81 66.47 67.34 67.50 66.78
70.32 71.14 68.82 69.37 69.76 70.07 70.24 70.46 70.38 70.78 70.01 69.72 69.05 67.40 66.39 65.41 64.76 64.50 64.67 65.07 65.13 64.68 64.35 63.91 63.77 63.83 64.09 64.57 64.32 63.05 63.11 64.37 63.50 60.69 62.00 65.01 64.83 67.13 67.61 66.56 66.06 65.81 66.51
68.73 69.57 69.20 68.27 68.86 69.23 69.52 70.21 70.52 70.00 69.80 69.18 67.95 66.97 65.80 64.33 63.83 64.08 64.49 64.87 64.87 64.48 64.30 64.17 64.16 64.21 64.35 64.41 64.25 63.88 63.26 63.00 62.98 61.09 60.97 62.36 64.57 66.07 66.72 66.87 66.20 65.26 64.97
69.20 69.84 69.13 68.42 68.81 68.07 69.57 69.74 69.53 69.30 69.03 68.51 67.68 66.53 65.07 64.54 64.35 64.13 64.21 64.25 64.38 64.35 64.47 64.36 64.48 64.69 64.73 64.57 64.22 63.78 63.60 63.19 63.19 61.57 61.16 61.69 64.80 64.97 64.58 65.37 65.72 64.98 64.40
67.87 69.45 70.04 69.59 68.88 68.34 68.35 68.20 68.15 68.32 68.08 67.83 67.07 66.09 64.78 64.69 64.98 64.59 64.55 64.69 64.54 64.47 64.74 64.79 64.64 65.01 64.95 64.62 64.16 63.97 63.87 64.28 63.14 62.02 61.49 61.19 62.88 64.15 64.52 64.31 64.45 64.31 63.98
68.40 69.91 70.21 69.81 70.03 70.13 69.76 67.73 67.65 67.62 67.46 67.12 66.24 65.19 64.90 65.04 64.45 64.00 64.28 64.83 64.81 64.85 65.20 65.62 65.63 65.49 65.09 65.33 64.47 63.37 63.28 63.61 62.28 61.65 62.62 62.26 62.98 63.27 63.41 63.97 64.05 64.01 64.14
68.74 69.31 69.57 69.53 69.33 69.39 69.04 68.17 67.41 67.48 66.99 66.39 66.06 64.95 64.29 66.04 66.02 65.39 64.37 64.52 64.85 64.62 64.57 64.74 64.19 64.28 64.56 64.72 65.12 63.16 63.10 61.35 61.53 60.63 61.99 61.61 62.62 63.52 63.68 63.09 63.45 64.48 64.34
66.99 67.50 69.17 69.00 68.92 68.80 66.95 67.78 67.01 65.52 65.85 66.48 67.03 66.61 66.61 67.03 67.00 64.10 64.40 64.45 64.39 64.12 64.68 64.16 63.57 63.79 63.65 62.99 62.90 64.92 61.04 61.05 60.23 59.80 60.14 61.25 61.94 63.18 63.73 63.45 63.48 63.79 63.95
67.72 67.24 68.23 69.46 69.58 67.38 66.56 66.11 65.39 65.41 66.38 67.39 67.78 67.36 67.49 67.12 67.71 66.50 65.57 66.04 66.17 63.41 64.72 63.97 63.95 63.22 63.21 62.69 61.73 61.61 60.72 60.18 59.00 58.78 59.79 60.74 61.22 62.29 62.86 62.98 62.73 62.73 62.35
66.43 67.48 67.20 67.53 68.88 67.43 66.11 65.17 65.18 65.69 66.66 66.57 67.35 67.79 67.68 66.53 66.81 66.02 64.84 65.22 65.52 64.65 63.93 63.65 62.89 63.17 62.44 61.52 60.55 60.10 59.68 58.88 58.19 58.15 58.98 59.35 59.17 59.70 60.75 60.61 60.14 59.83 59.68
64.53 66.17 66.70 67.65 67.18 66.66 65.74 65.83 66.81 66.90 66.82 66.91 66.89 65.88 66.05 65.90 65.36 64.53 64.45 64.48 64.01 63.40 62.98 62.47 61.87 60.73 59.65 59.83 59.68 58.62 58.37 57.90 57.91 57.11 58.18 57.47 57.26 57.19 57.43 58.03 57.99 58.01 57.70
64.51 65.84 66.74 66.47 66.72 66.04 65.99 67.12 65.67 64.77 64.36 63.70 64.13 64.56 65.34 65.23 64.54 62.19 62.10 62.49 61.58 62.04 60.86 60.11 59.05 58.24 58.01 58.69 58.04 57.90 57.36 57.26 57.20 57.14 56.56 57.35 56.18 55.45 54.79 54.71 54.91 55.50 55.81
65.31 66.73 66.42 66.79 66.45 66.12 66.82 64.44 62.96 61.13 61.85 61.58 62.73 64.31 63.76 63.72 62.26 61.13 60.63 59.80 58.56 60.39 59.71 59.14 58.88 57.87 56.81 56.61 56.55 56.31 55.90 55.90 56.01 55.82 55.38 57.31 55.30 54.05 53.33 52.72 52.34 52.50 53.05
65.96 67.12 67.21 66.05 66.38 66.75 65.32 63.37 61.72 62.15 62.34 60.49 59.49 59.80 59.24 59.59 59.69 59.07 58.25 59.08 58.90 58.08 57.62 57.12 56.32 55.35 54.73 54.39 54.18 54.25 53.87 53.77 54.28 54.71 54.28 55.74 55.67 55.31 52.17 51.46 51.09 51.02 50.53
65.56 67.28 66.78 66.81 66.38 65.52 64.61 63.57 64.42 63.66 62.93 61.64 60.59 60.07 59.46 58.66 59.05 59.42 58.65 57.87 58.05 57.07 56.62 55.76 55.08 54.64 53.40 53.04 52.47 52.72 53.47 52.69 53.55 52.58 52.60 54.39 54.95 53.83 52.77 53.84 52.83 52.34 49.23
65.93 67.56 67.38 66.69 65.64 64.55 63.52 64.28 64.44 63.36 61.97 61.33 61.08 59.81 59.07 58.37 57.86 58.25 58.00 56.99 56.55 55.71 55.27 55.09 54.23 54.12 52.97 52.15 50.33 50.58 51.93 51.36 51.69 51.97 51.94 53.62 53.10 52.09 51.50 51.08 50.31 49.56 50.83
66.52 66.80 64.62 64.06 64.19 64.32 64.23 63.22 61.08 59.99 60.53 60.29 59.32 58.18 57.74 57.20 56.54 56.47 56.35 56.16 55.95 54.64 54.11 54.13 53.09 51.40 49.43 50.68 48.46 48.74 48.77 50.24 51.73 50.94 51.14 51.64 51.26 51.24 50.98 49.61 48.69 47.30 47.35
65.60 65.83 63.94 64.62 64.40 64.97 63.92 62.19 61.49 61.32 60.76 58.82 57.96 57.35 56.68 56.38 56.01 55.47 55.35 54.73 54.59 53.23 53.00 52.17 51.12 49.24 48.78 49.28 46.29 45.90 42.34 44.51 47.42 48.67 48.94 48.89 50.49 49.04 48.30 47.65 46.87 45.92 45.92
64.23 64.63 64.65 64.48 64.34 63.17 62.21 61.91 61.63 60.41 58.27 57.06 56.67 56.23 55.86 55.70 55.15 54.84 54.59 54.07 53.61 52.46 50.14 50.89 50.22 49.26 46.22 47.54 48.22 44.54 40.16 38.85 41.78 45.03 45.99 46.52 48.77 46.57 46.40 45.65 45.05 44.51 44.62
63.41 63.86 62.89 62.07 61.16 61.14 60.79 59.28 58.49 58.41 56.19 56.09 55.98 55.79 55.55 55.35 54.78 54.08 53.04 52.68 52.04 51.07 49.94 49.53 49.45 48.38 47.16 44.37 45.98 46.18 45.85 43.76 38.83 37.51 42.34 43.19 44.23 43.89 45.38 44.06 43.39 43.32 43.20
60.82 60.64 60.48 59.30 58.11 58.49 58.89 58.84 57.77 56.06 55.52 55.05 55.52 53.27 53.62 52.67 51.00 49.66 49.06 48.97 49.40 50.06 50.09 49.74 49.01 47.90 47.09 45.31 44.12 43.16 42.71 42.03 41.73 38.10 34.99 37.80 40.85 41.95 42.42 42.48 42.60 42.34 42.73
58.69 58.48 58.14 57.42 57.09 57.54 57.30 56.80 55.65 53.96 52.63 51.51 49.52 48.03 47.48 47.26 47.45 47.78 47.40 48.04 48.23 48.94 49.31 49.07 48.51 47.45 46.15 44.87 43.89 42.64 40.64 38.55 37.56 37.24 35.60 36.21 37.21 39.20 40.85 41.59 42.76 42.43 43.28

GFSSE_sfc_wetblb_018.txt.gz
Wetbulb
66.99 69.77 71.42 71.86 71.90 71.73 71.41 71.25 71.29 71.43 71.69 71.70 71.34 70.78 70.09 69.16 69.70 69.80 69.46 69.01 68.44 67.04 66.30 65.82 65.18 64.55 64.49 64.75 64.86 64.82 64.55 64.35 64.98 66.04 67.85 68.92 69.42 69.42 68.61 68.99 69.21 66.57 69.12
68.45 69.27 70.98 71.33 71.36 71.48 71.25 71.32 71.54 71.53 71.67 71.26 70.70 70.02 69.58 69.17 69.17 69.29 68.80 68.38 67.78 66.22 65.31 64.64 64.55 65.18 64.86 64.75 64.85 64.74 64.74 65.49 66.20 66.23 66.53 68.40 69.05 68.77 68.37 69.09 69.15 67.77 69.12
67.93 69.09 70.02 70.98 71.19 71.18 71.41 71.94 71.70 71.62 71.14 70.29 69.19 69.12 68.68 67.82 67.41 67.92 68.05 67.31 67.04 65.16 64.34 63.97 64.79 64.10 63.85 63.60 63.69 63.93 64.24 65.89 66.45 66.97 66.74 65.49 66.47 68.32 68.13 69.02 68.53 68.34 68.87
68.34 68.30 69.39 70.66 70.90 71.24 71.43 71.54 71.41 71.04 70.31 69.68 68.68 67.92 67.99 67.01 66.56 66.58 67.05 66.81 66.85 65.29 64.60 64.68 64.73 64.45 64.07 63.67 63.82 63.79 64.84 65.69 65.66 66.19 62.41 64.86 66.23 68.37 67.35 67.04 67.64 67.07 67.75
68.23 68.79 69.81 69.93 69.79 70.53 70.69 70.51 70.61 70.44 69.80 69.08 68.51 67.18 66.35 65.86 65.54 65.49 67.00 66.95 66.42 65.23 65.08 64.88 64.84 64.71 64.74 65.54 65.52 65.32 65.12 65.08 65.06 63.87 61.32 62.39 63.03 67.42 67.38 66.64 65.49 66.16 67.11
69.38 68.96 68.94 68.62 68.71 69.64 69.91 70.70 70.41 69.91 69.15 68.72 68.18 67.66 65.74 64.90 64.78 65.67 66.93 66.74 65.55 65.32 65.21 65.13 65.07 64.94 65.72 65.56 65.51 65.26 65.29 64.87 64.34 58.13 59.58 63.41 63.71 67.34 67.07 66.88 66.63 66.30 66.37
67.27 67.74 68.08 67.41 68.59 69.38 70.35 70.48 69.82 69.31 68.75 68.25 67.82 66.64 65.94 64.59 64.87 65.56 66.46 66.30 65.34 65.07 65.02 64.91 65.01 65.53 65.71 65.53 65.40 65.00 64.71 64.30 61.45 57.28 58.64 61.08 62.65 65.81 65.12 66.00 65.66 65.39 65.46
67.49 68.30 67.34 67.69 68.72 69.18 69.47 69.38 68.91 68.47 68.23 67.83 67.07 66.27 65.92 65.84 65.98 66.20 66.12 66.15 66.10 66.07 66.10 65.74 65.93 65.85 65.77 65.46 64.96 64.48 64.04 64.11 61.28 59.64 58.87 60.63 65.56 65.51 64.73 64.73 66.04 65.89 65.63
67.54 67.34 67.01 67.78 68.45 68.23 67.72 67.72 67.51 67.61 67.47 67.34 66.78 65.99 65.89 65.87 65.84 66.27 66.38 66.20 66.15 66.07 66.13 66.32 66.25 66.02 66.11 65.84 65.25 64.23 63.58 63.46 60.09 59.28 60.67 59.96 65.30 64.71 64.41 64.45 65.31 65.78 65.56
65.60 66.92 66.47 66.99 68.61 67.69 66.88 66.80 66.50 66.65 66.51 66.36 65.72 65.13 64.74 65.12 65.28 65.38 65.80 65.91 66.04 65.65 65.70 65.91 65.84 65.39 65.55 65.45 64.99 64.24 63.61 63.04 57.31 58.31 58.94 60.52 64.60 64.43 64.15 63.64 63.85 65.80 65.87
62.09 66.00 67.20 67.76 67.73 67.97 66.92 66.65 66.62 66.81 66.15 65.66 64.72 64.44 63.17 63.68 63.79 64.25 64.80 65.18 65.21 64.78 64.79 65.17 64.33 64.01 64.12 63.88 64.64 64.79 64.54 57.08 56.86 57.24 57.64 63.12 64.41 64.55 64.40 64.15 64.15 64.29 64.61
61.69 65.60 66.71 67.33 67.45 67.50 66.38 65.58 64.34 64.10 63.48 64.66 64.40 63.29 64.85 65.11 63.61 62.96 64.69 64.64 65.41 64.65 64.33 64.85 64.36 63.92 63.63 59.92 60.09 62.71 57.69 57.77 56.45 56.49 57.69 62.81 63.29 63.60 63.77 63.62 63.51 63.38 63.17
65.37 65.99 66.74 67.30 67.02 65.54 64.51 65.03 63.38 64.65 65.35 65.82 65.87 65.98 65.89 65.68 65.58 64.22 64.53 63.49 63.59 63.97 63.33 62.61 62.15 61.77 60.29 59.50 58.24 57.83 57.48 56.03 54.62 55.12 58.89 61.60 61.62 61.73 61.90 61.39 61.27 60.86 60.28
65.39 65.77 66.74 66.86 67.69 64.90 64.75 64.14 64.49 65.06 65.89 65.94 66.42 65.42 66.14 65.56 65.18 64.27 63.58 62.67 62.25 61.17 61.47 60.80 59.79 59.88 57.83 57.83 57.85 56.94 56.38 55.08 54.14 53.80 57.21 59.74 60.39 59.19 59.40 59.33 59.15 59.01 58.58
64.46 65.44 65.79 67.10 65.93 65.34 64.59 65.75 65.46 64.60 63.96 64.50 64.20 64.85 64.47 63.84 62.99 62.12 61.28 60.94 61.46 59.68 58.68 57.53 57.08 56.32 55.59 56.05 56.85 56.28 55.08 54.43 54.54 53.52 54.22 58.14 58.54 57.51 57.34 57.65 57.65 57.39 57.09
64.31 64.34 65.16 65.03 65.13 65.54 65.82 64.82 63.17 62.67 62.02 62.07 62.75 63.62 63.99 63.67 62.43 60.60 60.33 59.06 58.03 58.14 56.73 56.03 55.72 55.13 54.61 54.34 53.88 54.92 54.40 53.39 53.30 53.75 52.13 53.85 56.81 56.70 55.55 55.61 55.44 55.03 54.67
64.12 64.74 64.83 64.90 65.04 65.00 64.99 63.65 61.76 61.58 61.88 61.02 61.67 62.04 61.77 61.88 60.46 59.42 57.83 56.91 55.66 56.91 56.19 55.33 54.21 53.60 52.60 52.65 51.59 51.93 52.06 51.38 51.02 51.85 52.04 50.62 53.89 55.30 54.10 53.21 52.87 52.97 52.50
64.39 64.22 64.99 64.91 64.89 65.51 63.87 62.46 62.41 61.88 61.40 60.68 59.44 59.32 58.91 58.89 58.26 56.99 55.91 56.92 55.83 55.50 54.69 53.46 52.60 51.53 50.67 50.47 49.60 49.56 49.77 49.87 49.38 50.39 50.89 50.22 51.95 52.24 53.21 53.70 52.41 51.90 50.78
64.99 65.16 64.47 65.43 65.16 64.29 63.05 62.85 62.97 62.52 61.61 60.29 59.83 58.79 58.27 57.53 57.66 56.49 55.43 55.45 54.60 54.05 53.59 53.12 51.58 50.81 49.57 48.52 48.51 47.27 47.73 46.97 48.02 49.47 48.04 48.74 50.13 49.39 49.96 53.28 53.45 52.21 50.28
65.77 65.92 65.09 65.27 64.80 63.76 63.04 63.22 63.48 62.60 61.24 60.30 59.43 57.70 57.74 56.34 56.59 55.53 55.61 53.71 53.47 52.74 51.79 51.49 50.53 50.29 48.93 46.31 47.91 46.64 46.31 46.66 46.22 46.85 47.61 49.39 50.20 50.45 49.07 47.78 46.43 46.13 50.09
65.83 65.45 64.71 63.04 63.19 63.26 62.36 61.77 61.37 59.14 58.99 58.73 56.90 56.91 56.32 55.34 55.13 54.03 53.59 53.55 52.93 51.06 50.88 50.11 48.31 46.45 45.98 46.26 43.54 43.38 43.78 44.64 44.62 44.09 44.44 44.42 45.63 47.04 48.31 47.68 45.24 43.52 42.58
65.16 65.08 64.16 63.14 62.63 63.60 63.67 61.71 60.02 59.22 58.96 56.88 56.14 55.37 55.24 54.95 54.08 53.73 52.88 51.71 51.54 50.19 49.22 48.33 46.54 45.37 44.93 45.06 41.42 40.57 37.67 39.64 41.95 43.19 42.34 43.36 42.00 45.37 44.90 43.74 42.98 42.79 41.37
62.74 63.83 62.97 63.23 63.49 64.12 61.62 60.70 60.02 57.84 56.30 54.68 54.61 53.84 53.71 54.01 53.39 52.69 52.19 50.98 49.99 48.73 46.90 46.56 45.67 45.18 42.49 42.85 43.47 39.50 36.01 33.77 37.48 40.19 40.43 40.81 40.17 40.22 41.04 41.88 41.65 41.82 40.26
62.08 63.94 63.93 63.74 62.89 60.82 60.73 59.23 57.81 55.26 53.28 54.15 53.94 53.52 53.07 53.64 52.27 49.44 48.52 47.74 47.01 48.03 46.74 46.40 46.43 44.46 43.34 40.31 41.17 43.76 40.33 38.21 33.10 32.51 36.48 37.28 38.09 38.79 38.20 38.99 38.90 39.79 39.63
63.21 62.68 61.24 60.06 59.39 59.07 58.41 58.22 56.40 54.23 53.75 53.20 51.85 50.42 49.30 47.75 47.88 46.98 46.24 45.94 45.30 45.12 45.72 46.08 45.69 43.74 42.56 41.42 40.03 38.73 37.32 36.78 36.21 32.07 30.29 32.03 35.95 37.01 37.82 38.22 38.29 37.80 39.10
60.08 59.30 58.41 56.71 56.61 57.47 56.56 55.09 53.60 51.01 49.50 47.16 46.13 44.95 45.71 45.71 45.13 45.78 45.87 44.78 45.46 45.18 44.91 45.54 44.84 43.69 42.29 41.71 40.57 39.49 36.80 34.38 33.06 32.00 30.19 30.66 31.36 34.10 35.66 37.20 37.01 36.85 37.92

GFSSE_sfc_wetblb_024.txt.gz
Wetbulb
68.99 71.18 71.83 72.09 71.86 71.66 71.44 71.37 71.10 70.64 70.50 70.31 69.99 69.53 69.12 68.46 68.34 68.31 68.04 67.46 67.34 66.43 65.58 65.18 64.86 64.73 64.82 65.24 65.65 65.56 65.49 65.73 66.98 68.51 69.09 68.74 68.67 68.49 68.14 68.50 68.74 67.08 68.75
69.73 71.11 71.20 71.32 71.39 71.70 71.73 71.31 70.67 70.48 70.18 69.95 69.36 69.19 68.95 68.12 67.88 68.02 67.47 67.23 67.39 65.93 65.56 65.53 65.66 65.34 65.43 65.46 65.54 65.82 65.78 65.54 66.62 67.74 68.83 67.67 67.69 67.70 67.53 67.54 68.76 66.67 68.07
69.31 70.66 70.52 70.62 71.03 71.60 71.60 71.39 70.60 70.26 69.78 68.80 68.39 68.44 68.02 67.21 67.12 67.59 67.14 67.21 67.35 66.42 66.14 65.85 65.58 65.42 65.44 65.47 66.16 66.76 67.31 67.01 66.76 66.85 68.12 63.80 63.81 66.98 66.33 65.89 66.86 67.25 67.44
69.62 69.65 69.56 70.42 71.02 71.41 71.08 70.66 69.74 69.24 68.68 68.66 68.07 67.04 67.24 66.87 66.82 67.51 67.42 67.17 67.49 66.28 66.00 65.85 65.56 65.27 65.18 65.80 66.57 66.47 66.86 66.63 66.45 66.56 62.17 63.38 64.47 66.59 66.31 65.18 64.62 64.67 66.59
68.20 68.80 69.30 70.17 70.51 70.93 70.52 69.79 69.14 69.02 68.62 68.19 67.64 66.84 66.89 66.79 66.52 66.80 67.37 67.13 67.15 66.09 65.79 65.57 65.33 65.26 65.51 66.15 66.30 65.80 66.04 64.96 64.21 62.37 61.05 62.10 62.26 65.02 65.17 64.46 64.05 64.12 64.49
67.07 68.12 68.86 69.51 70.06 70.15 70.03 69.40 69.03 68.33 67.66 67.24 67.03 67.64 66.92 66.73 66.56 66.96 67.20 67.30 66.04 65.80 65.59 65.38 65.27 65.25 65.79 65.86 65.99 65.58 64.57 63.50 61.42 58.24 59.38 62.60 61.45 65.69 64.98 64.61 64.24 64.08 64.27
66.98 67.41 67.80 68.18 68.82 69.38 69.45 69.03 68.49 67.75 67.12 66.85 66.93 67.24 67.29 66.94 66.45 66.80 66.84 66.84 66.31 65.54 65.14 64.98 65.30 66.05 65.68 66.04 65.96 65.29 64.58 62.80 57.13 57.93 59.12 60.63 62.05 65.34 65.09 64.86 64.70 64.51 64.20
66.16 66.75 67.09 68.19 67.64 68.01 68.53 68.15 67.49 66.88 66.45 66.39 66.83 67.05 67.21 67.03 66.87 66.99 66.86 66.87 66.57 66.16 65.97 65.60 65.33 65.33 65.19 65.49 65.41 64.84 63.74 61.71 57.76 56.67 58.38 59.35 65.48 65.26 64.78 64.81 65.03 65.63 65.17
65.22 65.61 65.17 65.71 66.56 66.60 66.73 66.75 66.41 66.06 65.99 66.02 66.29 66.23 66.30 66.13 66.26 66.65 66.77 66.65 66.28 65.80 65.22 64.63 64.60 64.64 64.70 64.55 64.69 64.11 62.04 61.39 55.87 57.33 60.37 59.81 65.89 65.13 65.05 64.87 64.93 65.04 64.96
62.36 62.98 63.24 64.85 65.47 65.71 65.06 65.82 65.83 65.17 65.14 65.57 65.67 65.46 65.14 65.61 66.23 66.02 65.72 65.82 65.55 64.80 64.77 64.20 64.27 63.86 63.74 63.89 63.97 63.53 60.09 59.79 54.28 56.36 58.11 60.45 65.85 64.50 64.73 64.91 64.12 63.55 63.45
60.38 61.08 64.30 65.00 65.11 64.49 63.88 64.49 65.20 65.18 64.70 64.60 64.70 64.63 63.08 61.69 62.26 63.22 63.56 64.57 64.24 63.74 64.01 63.68 63.79 63.77 63.32 61.65 63.63 62.62 58.23 53.12 53.83 55.33 57.39 63.74 64.01 63.56 63.79 63.09 61.95 61.57 61.23
58.89 59.92 62.12 64.63 64.63 63.50 63.46 62.80 61.76 62.18 61.32 61.01 60.68 60.94 59.81 59.53 60.15 62.50 63.59 63.89 64.01 63.09 63.48 63.51 63.68 61.30 58.42 54.81 55.07 57.06 52.77 51.88 53.79 55.03 57.09 62.71 62.50 62.08 61.78 61.15 60.45 59.95 59.42
59.69 59.89 61.39 64.19 64.01 62.43 61.58 61.01 60.82 60.57 60.28 60.28 59.80 59.89 61.06 61.30 61.25 60.91 60.77 59.97 59.78 60.01 57.05 57.24 55.06 53.71 53.15 53.16 52.77 52.67 51.86 50.68 50.42 53.62 57.36 61.09 61.66 60.70 60.48 60.06 59.45 58.82 58.06
59.78 60.42 62.32 64.42 63.92 61.75 60.85 59.77 59.21 60.41 62.76 62.33 62.41 62.52 61.73 60.41 58.34 57.74 57.58 56.96 55.69 54.20 53.12 53.41 52.32 52.43 51.28 51.41 51.18 50.41 50.00 49.49 49.12 51.25 53.49 59.76 60.73 59.04 59.28 58.94 58.60 57.71 56.66
61.14 62.52 63.44 64.31 63.97 61.32 61.04 60.57 61.37 62.58 61.42 60.81 60.90 60.94 60.27 58.94 57.35 57.13 55.37 54.29 53.64 52.56 51.85 51.30 51.00 49.93 49.41 49.34 49.15 48.94 48.33 48.07 47.01 49.06 51.04 57.41 58.78 59.13 57.96 58.30 57.17 56.10 55.45
62.52 62.87 63.77 63.97 60.55 61.20 61.45 59.77 59.08 59.02 59.64 59.86 60.01 60.18 60.01 57.90 56.01 54.48 53.10 52.56 52.02 52.15 50.87 49.66 48.75 48.34 47.82 47.75 47.77 47.16 47.05 46.34 45.92 45.65 47.28 49.50 57.23 58.49 57.74 56.58 55.40 54.67 53.85
62.81 63.40 62.82 59.70 61.58 61.17 58.90 58.44 58.06 58.44 58.10 57.65 58.41 58.85 58.02 56.56 55.23 52.98 52.46 51.04 50.18 50.27 49.22 48.91 48.26 48.06 47.41 47.50 45.60 45.17 46.40 45.20 45.63 44.61 44.30 47.20 53.40 56.68 56.83 54.57 53.23 52.54 52.24
62.32 61.74 61.56 62.82 60.56 59.12 58.38 57.61 58.16 57.24 56.11 55.29 55.27 55.78 55.73 55.64 53.85 52.45 50.29 49.39 49.34 49.62 48.63 47.74 47.40 46.70 45.93 44.29 42.64 42.12 42.55 44.09 43.38 43.54 43.00 45.75 48.85 50.04 53.67 54.25 53.05 51.73 51.25
61.84 61.76 59.38 61.34 59.41 58.47 58.35 58.28 57.95 56.76 55.15 54.78 54.59 53.36 53.18 53.04 53.60 51.15 49.30 48.67 48.75 48.17 47.29 47.08 45.75 44.81 43.79 42.61 43.43 41.64 41.02 41.66 41.45 43.49 41.82 42.66 45.68 46.96 46.54 51.15 51.37 50.58 49.14
61.12 61.55 59.94 60.93 59.09 58.68 58.56 58.33 57.58 56.20 54.88 54.90 53.24 52.05 51.32 50.67 51.86 50.05 48.72 47.91 47.96 46.74 45.49 44.83 42.87 42.87 42.69 41.47 44.54 41.88 39.72 39.95 39.64 38.99 39.48 41.64 41.29 41.79 42.23 41.97 42.21 45.21 49.13
60.04 60.07 60.72 59.48 59.27 58.60 58.04 57.65 55.81 54.35 54.06 52.62 50.34 50.68 50.23 50.05 49.64 48.54 48.02 47.44 46.65 45.60 44.35 44.02 42.09 41.05 40.59 40.43 38.47 38.45 38.45 38.45 38.17 37.97 38.34 37.32 38.02 39.49 39.67 40.50 40.24 38.69 39.43
59.64 59.81 60.32 59.97 59.39 58.71 58.14 58.03 56.76 54.23 51.47 49.90 49.39 49.13 49.34 49.28 49.09 48.97 47.23 46.14 45.40 44.39 43.26 42.71 41.46 40.27 40.42 39.28 37.04 35.59 33.09 35.44 36.57 37.31 36.14 37.03 34.41 36.49 37.43 38.97 38.47 38.58 38.05
59.08 59.97 60.05 59.65 59.65 58.84 58.25 57.18 52.89 50.99 49.28 47.94 47.05 47.37 48.24 49.04 46.84 45.04 43.47 42.16 41.76 41.77 40.90 40.53 40.63 40.03 38.22 38.45 37.64 36.11 31.72 29.89 31.28 34.46 34.11 33.36 33.48 33.68 33.79 35.54 36.32 36.64 36.23
59.38 59.41 60.05 60.26 59.77 59.32 57.83 55.14 53.81 51.91 49.15 47.38 47.11 47.07 45.12 43.83 43.31 43.24 42.35 41.32 40.70 40.40 39.60 39.73 42.81 39.84 38.65 36.85 37.40 38.98 35.30 34.29 28.98 27.35 31.48 32.21 33.25 34.32 32.99 33.66 33.87 35.37 36.02
59.67 59.76 59.96 59.44 59.25 59.48 55.04 53.95 51.94 48.27 47.27 47.20 45.21 41.49 41.15 41.34 42.12 41.98 41.21 40.23 40.11 40.40 39.98 40.86 39.88 39.53 39.05 37.83 36.96 35.78 33.76 32.16 30.67 28.39 25.62 28.36 31.01 32.43 32.61 32.67 32.58 33.06 34.63
59.76 59.41 57.76 57.40 54.21 54.22 53.45 50.82 49.13 45.85 43.62 42.45 39.82 39.15 39.68 40.59 40.40 40.01 40.53 39.15 39.56 40.11 41.01 39.94 39.34 39.27 38.35 37.89 37.39 35.84 33.53 31.75 30.52 28.79 26.45 26.98 27.00 29.74 31.37 32.09 32.20 32.48 33.34

GFSSE_sfc_wetblb_027.txt.gz
Wetbulb
68.39 70.60 71.29 71.48 71.53 71.55 71.38 70.60 69.90 69.79 69.93 69.77 69.40 68.53 68.38 67.47 67.69 67.92 67.89 67.68 67.18 66.56 65.92 66.06 66.00 65.81 66.02 66.31 66.28 65.88 65.62 67.48 68.94 69.28 68.72 67.81 67.84 67.60 67.73 67.89 67.45 66.05 68.26
69.44 70.70 70.69 70.95 71.35 71.59 71.22 70.54 69.98 69.65 69.55 68.80 68.75 68.48 68.36 67.84 67.94 67.94 67.94 67.58 67.51 66.50 66.40 66.24 65.98 66.16 66.14 66.58 66.83 66.59 65.82 66.51 68.88 68.18 67.15 67.20 66.81 66.38 66.09 66.30 67.31 66.10 67.89
69.65 70.41 70.13 70.35 71.22 71.33 71.10 70.61 70.11 69.69 68.43 67.81 67.33 67.99 67.40 67.43 67.11 67.85 67.63 67.67 67.72 67.03 66.48 66.32 66.03 65.97 66.22 66.61 68.43 68.39 67.08 67.05 67.86 67.94 66.48 62.51 62.32 65.69 65.29 64.62 64.72 66.11 67.41
69.97 69.76 69.26 70.50 70.73 71.03 70.34 69.85 69.44 68.75 68.01 67.55 66.96 67.16 67.13 67.28 66.87 67.82 67.82 67.53 67.70 67.44 66.19 66.27 66.05 65.81 65.66 66.22 66.79 66.84 67.21 67.06 66.46 65.17 62.34 62.37 62.25 64.68 64.43 64.18 64.03 64.19 65.25
69.03 68.87 69.22 70.12 70.18 70.39 69.76 69.18 68.85 68.73 68.27 67.77 67.51 66.76 66.64 67.30 66.77 67.14 67.75 67.58 67.60 66.42 66.26 66.34 66.08 65.73 66.14 65.82 65.55 65.79 65.82 65.57 64.99 62.82 60.70 60.24 60.61 63.62 64.57 64.32 63.76 63.95 63.83
68.04 68.86 69.18 69.51 69.81 69.74 69.49 69.10 68.82 68.19 67.36 67.21 67.67 68.07 67.47 67.13 66.58 67.24 67.50 67.39 66.84 66.05 65.95 65.73 65.60 66.11 66.26 65.51 65.62 65.13 64.42 63.19 61.19 58.02 58.76 61.69 61.09 64.92 65.09 64.74 64.55 64.29 64.12
67.29 67.80 68.76 68.49 69.00 69.22 69.05 68.64 68.22 67.68 67.05 67.44 67.69 67.77 67.70 67.58 66.88 67.58 67.15 67.12 66.86 65.80 65.31 65.02 65.87 65.97 65.99 65.37 64.49 64.66 63.49 62.48 57.81 57.59 58.33 60.08 62.09 65.25 65.16 65.22 65.35 65.34 65.13
65.83 67.02 67.96 68.88 68.24 68.10 68.15 67.94 67.22 66.95 66.94 67.36 67.41 67.41 67.61 67.33 67.19 67.08 67.05 66.89 66.58 66.47 66.00 65.62 65.12 65.16 65.65 65.41 63.79 63.59 62.54 61.09 57.60 56.85 58.58 59.38 65.56 64.84 65.07 65.12 64.89 64.74 64.73
64.61 64.58 66.32 66.11 67.30 67.39 66.63 66.36 65.93 66.35 66.47 66.96 67.00 66.70 66.79 66.52 66.57 66.78 66.61 66.65 66.20 65.54 65.12 64.86 64.82 64.82 65.71 65.24 63.23 62.20 61.82 61.15 55.78 58.03 60.50 60.01 65.65 64.47 65.01 64.61 64.06 63.77 63.68
62.56 62.39 62.00 63.35 63.59 64.70 64.55 65.54 65.44 65.32 65.75 66.08 66.36 66.01 65.48 65.78 66.20 66.01 65.82 65.83 65.36 64.43 64.74 64.94 64.68 64.61 63.86 64.60 62.20 61.17 61.36 58.97 54.65 56.49 58.16 60.81 64.50 63.93 63.95 63.45 63.05 62.56 62.18
60.60 60.79 62.17 62.59 64.47 64.22 63.65 64.63 64.84 65.57 65.26 65.24 64.92 64.68 63.26 61.94 61.27 61.20 63.94 64.21 63.71 63.24 63.62 64.52 63.62 62.64 60.62 61.92 61.86 59.84 57.13 53.09 53.45 55.42 57.42 63.28 63.00 63.15 62.41 61.55 61.28 60.91 60.66
59.25 60.23 62.13 62.65 63.22 63.23 63.34 62.59 61.03 61.56 61.21 61.19 61.01 60.73 59.49 59.65 60.77 61.99 62.89 63.32 63.11 63.53 62.69 62.21 60.73 59.40 56.32 52.79 53.38 54.80 50.13 51.71 52.95 54.36 55.94 62.66 61.95 61.39 61.29 60.71 60.11 59.69 59.11
58.74 58.39 61.03 63.81 63.47 61.80 61.03 60.57 60.10 59.05 58.80 58.99 59.34 58.54 58.94 59.54 60.27 59.63 59.58 59.85 56.45 58.29 54.45 54.24 52.82 51.94 51.08 50.50 49.98 49.26 49.26 49.42 48.38 51.94 54.67 60.43 61.47 60.19 60.08 59.96 59.34 58.66 57.88
57.95 58.16 59.55 62.23 62.66 61.60 60.04 59.38 58.70 59.69 61.19 61.28 59.98 61.13 59.70 58.12 57.22 56.63 55.86 54.64 53.34 52.31 51.81 51.54 50.63 49.71 48.96 49.32 48.48 47.77 47.80 46.50 45.95 49.42 52.02 58.23 59.48 58.36 58.85 58.91 58.22 57.21 56.48
57.67 58.53 59.64 62.20 62.42 61.16 59.48 58.61 60.18 62.00 60.85 60.22 60.56 60.37 59.01 57.10 56.08 55.49 53.35 52.97 51.98 51.07 50.24 49.21 48.48 48.19 47.71 47.64 46.85 46.72 46.57 45.33 44.95 45.49 46.76 54.98 57.80 58.45 57.30 58.43 57.33 56.21 55.46
59.37 59.59 60.93 62.67 62.54 60.09 59.52 59.78 60.35 59.55 59.18 59.42 59.50 59.49 58.56 56.57 54.12 52.79 51.52 51.02 50.78 49.72 48.72 47.94 47.48 47.11 46.19 45.95 44.99 45.74 44.60 44.02 43.39 43.43 44.11 45.78 56.12 58.34 57.90 56.96 55.61 54.59 54.10
60.67 61.95 62.26 62.51 60.55 59.99 59.16 58.80 58.83 58.38 58.28 57.93 58.43 58.02 56.81 55.41 53.48 51.94 49.99 49.17 49.13 48.43 47.94 47.55 47.23 46.75 45.53 45.11 43.24 43.26 43.52 43.08 42.63 41.91 42.89 44.74 50.92 55.31 56.45 54.63 53.84 52.67 52.64
61.77 61.90 62.22 62.76 60.08 58.53 57.43 57.46 57.45 56.62 56.37 55.95 56.63 56.19 55.46 53.84 52.67 49.97 48.78 48.59 48.14 47.80 47.27 46.43 45.69 44.61 43.59 42.52 41.18 40.44 41.26 41.52 41.61 40.91 41.44 45.72 48.26 48.11 50.29 53.69 52.73 51.81 51.17
62.03 61.81 59.77 60.37 58.75 58.03 56.79 57.24 56.41 55.12 54.05 54.00 53.98 53.02 53.08 53.16 51.64 48.99 48.13 47.49 47.23 46.25 45.71 45.61 43.05 42.95 41.26 40.92 42.23 40.06 39.24 39.02 39.13 41.14 39.98 40.81 41.41 44.35 44.00 49.23 50.29 49.79 48.12
60.92 61.05 59.77 59.29 58.02 57.39 57.20 56.85 55.55 54.02 53.64 53.76 51.89 51.14 50.74 51.39 50.23 48.43 47.17 46.90 46.31 44.93 43.92 42.67 41.42 41.05 40.95 40.25 42.82 40.40 37.93 37.92 37.73 37.20 36.81 39.21 38.50 38.41 39.42 39.88 38.84 39.72 47.09
59.48 59.40 59.79 58.08 57.42 57.55 56.96 55.87 53.78 52.84 52.98 51.64 50.64 49.77 49.71 49.26 48.53 47.36 46.48 45.96 45.31 44.11 42.72 42.51 40.74 40.14 39.92 38.56 37.58 37.56 36.72 36.66 36.57 35.64 35.72 35.10 36.32 36.73 37.24 37.88 37.60 36.58 37.27
59.00 59.22 59.32 58.57 57.60 57.58 57.95 56.49 55.37 53.54 51.43 49.05 48.86 48.49 48.55 48.18 47.57 47.41 45.66 44.42 43.55 42.49 41.39 41.12 40.37 39.46 39.17 38.12 36.27 34.36 32.31 34.59 35.21 35.42 33.76 34.61 32.82 34.69 35.83 36.73 35.84 36.01 35.23
57.76 58.50 59.38 58.96 58.37 57.82 57.86 56.65 52.28 49.64 48.26 47.05 46.19 46.17 46.84 47.62 45.46 43.51 42.17 41.10 40.41 40.10 39.14 38.94 39.85 39.24 37.32 37.31 36.48 35.70 30.91 29.44 30.81 33.26 32.42 32.35 32.12 32.46 32.98 34.65 34.93 35.54 34.90
57.54 58.84 59.46 59.49 58.87 58.34 57.43 56.57 54.01 51.99 48.81 46.36 45.99 45.98 42.01 42.82 42.16 41.71 41.05 40.86 40.43 40.11 39.30 39.30 41.26 38.99 37.59 36.05 36.68 37.93 34.71 33.13 29.31 27.76 30.92 31.40 32.22 33.55 31.94 32.32 32.72 34.14 34.45
58.39 58.75 59.20 59.23 59.09 58.78 57.27 56.11 53.18 50.42 47.30 46.71 44.67 40.38 39.87 40.87 41.72 41.29 41.08 40.16 39.77 40.03 39.96 39.85 39.20 38.50 38.07 37.10 36.20 35.24 33.22 31.33 29.96 28.01 25.69 28.12 30.80 32.08 31.82 31.86 31.99 32.32 33.13
58.57 58.27 58.61 58.54 58.38 58.04 57.12 54.78 51.86 47.46 45.70 43.82 39.57 39.00 39.49 39.46 39.32 40.29 39.76 40.13 41.45 42.37 39.92 39.30 38.57 38.34 37.49 36.90 36.53 35.31 33.01 31.17 30.01 27.94 25.87 26.40 26.80 29.62 30.84 32.01 31.46 31.53 32.00

GFSSE_sfc_wetblb_030.txt.gz
Wetbulb
68.31 70.27 71.05 71.36 71.26 70.84 70.19 70.01 69.79 69.80 69.85 69.73 69.11 68.52 68.47 67.95 68.06 68.21 67.73 67.59 67.74 67.94 66.89 66.84 67.09 67.30 67.63 67.31 66.57 67.65 68.52 68.94 68.72 68.40 68.08 66.89 66.94 66.75 67.38 67.42 67.41 66.44 68.35
69.28 70.20 70.37 71.00 70.99 70.55 70.26 69.74 69.59 69.38 69.30 69.20 68.81 68.30 68.13 68.08 68.25 67.86 67.90 68.01 68.31 68.04 67.19 67.29 67.51 68.29 68.45 67.94 66.83 66.95 68.34 68.67 67.86 67.46 66.53 66.32 65.91 65.54 65.15 65.50 66.92 66.49 67.65
69.19 69.78 69.71 70.38 70.82 70.38 70.15 69.91 69.60 69.37 69.06 68.35 67.89 68.13 67.94 68.08 68.06 68.16 68.06 68.06 68.30 68.30 67.18 67.07 67.84 68.17 68.47 68.58 67.88 67.91 67.95 68.11 67.38 66.72 65.49 61.46 60.79 64.59 64.48 64.20 64.84 65.35 66.27
69.42 69.31 69.25 70.36 70.31 70.18 69.85 69.64 69.17 68.89 68.84 68.25 67.94 67.79 67.94 68.01 67.69 68.47 67.99 67.61 68.09 68.28 66.76 66.39 66.25 66.26 66.41 67.43 68.24 68.39 67.73 66.63 65.75 64.57 61.41 61.16 61.47 64.88 64.61 64.34 64.28 64.24 64.32
68.87 68.49 68.89 69.91 69.93 69.87 69.52 68.94 68.46 68.42 68.18 67.91 67.82 67.44 67.29 67.47 67.56 67.79 67.87 67.66 68.34 68.11 66.44 66.25 65.86 65.47 65.75 65.88 66.13 66.74 66.19 64.98 63.84 61.65 60.49 60.56 61.14 64.09 65.12 64.88 64.31 64.57 64.28
68.31 68.09 68.75 69.02 69.48 69.39 69.26 68.93 68.61 67.96 67.26 67.47 67.58 67.82 67.86 67.93 67.03 67.91 67.62 67.67 68.13 67.87 66.22 65.99 65.50 65.50 65.87 65.69 65.46 65.15 63.97 63.36 61.41 59.02 59.94 62.23 61.55 65.11 65.59 65.45 65.25 64.99 64.56
67.52 68.28 68.33 68.09 68.75 69.12 69.32 69.03 68.25 67.65 67.39 67.79 67.98 67.86 68.01 68.06 67.86 68.04 67.61 67.50 67.29 66.96 67.03 65.99 66.32 65.78 65.19 65.45 64.96 64.82 63.94 62.14 57.51 57.77 58.94 60.95 62.68 65.08 65.26 65.13 65.00 65.04 64.87
65.40 66.49 67.26 68.53 68.20 68.30 68.35 67.85 67.23 67.24 67.81 67.71 67.61 67.75 68.01 67.90 67.62 67.63 67.34 67.15 66.68 66.14 66.14 66.36 66.32 65.92 64.61 65.05 64.40 63.28 62.24 61.32 58.29 58.37 59.81 60.33 65.32 64.75 64.59 64.37 64.25 64.16 64.25
62.65 64.76 64.72 66.54 66.78 66.77 66.62 66.57 66.34 66.79 67.30 67.45 67.30 67.38 67.24 66.89 66.82 66.94 66.93 66.45 66.13 65.79 65.76 65.66 65.80 65.82 64.52 64.24 63.97 62.73 61.83 60.98 57.26 59.22 61.10 61.16 64.81 64.07 63.98 63.57 63.20 63.15 62.91
60.81 61.92 61.47 61.87 63.08 63.33 63.88 65.35 65.64 66.23 66.42 66.76 66.64 66.11 65.60 65.96 66.38 65.93 65.78 65.70 65.43 65.45 65.42 65.14 64.97 65.25 64.08 62.94 62.82 61.86 60.00 58.37 55.73 57.90 59.53 61.47 63.93 63.26 62.93 62.34 61.87 61.86 61.85
59.34 60.15 60.39 60.46 62.30 63.08 63.23 64.35 64.96 66.20 65.94 65.50 65.33 65.01 62.71 61.87 61.64 60.43 63.61 64.09 64.03 63.79 64.58 63.68 62.59 61.68 61.26 61.22 60.12 58.38 56.64 53.02 54.07 55.99 57.74 63.01 62.78 62.50 61.75 61.05 60.64 60.39 60.01
58.05 58.93 60.12 60.22 60.37 61.97 63.63 60.95 60.41 62.42 61.60 61.12 60.92 60.19 60.21 59.67 59.06 61.03 62.61 63.45 63.65 62.58 61.86 60.96 59.73 58.17 54.78 51.48 51.09 53.13 49.95 50.85 52.65 53.95 55.28 62.01 61.72 61.39 61.05 60.23 59.80 59.25 58.95
58.06 58.86 59.59 60.11 59.86 61.84 60.94 59.76 59.15 58.90 58.87 59.30 59.23 58.63 58.46 59.29 59.05 58.85 58.49 56.37 54.74 56.34 52.54 52.23 50.96 50.16 49.42 48.70 48.16 47.70 47.02 46.83 47.76 51.55 53.78 59.89 61.06 59.79 60.14 59.65 59.06 58.46 57.71
57.23 57.89 59.34 60.66 61.73 61.50 60.52 58.97 58.17 57.77 58.02 58.04 57.92 58.86 58.84 58.43 57.29 56.26 55.28 52.65 51.93 51.48 50.41 49.68 49.03 48.62 47.71 47.49 47.31 46.81 45.95 45.06 45.04 46.83 48.97 57.27 58.83 59.48 58.72 59.12 58.35 57.60 56.97
56.65 57.95 59.89 60.73 61.75 60.89 58.70 57.91 57.78 59.37 59.41 59.12 58.96 59.53 57.42 56.47 55.42 53.36 52.07 51.24 50.13 49.94 48.86 48.06 47.49 47.16 46.26 45.74 45.86 45.27 44.88 44.24 44.05 44.37 44.73 52.38 57.28 58.40 57.39 58.52 57.46 56.71 56.02
56.77 57.14 58.41 60.37 62.07 60.32 57.64 57.77 59.60 59.56 59.40 58.96 58.88 58.03 56.96 55.70 53.05 51.44 50.54 50.24 48.93 48.35 47.77 47.27 46.63 45.78 44.48 44.30 44.11 44.14 43.80 42.58 42.44 43.56 44.81 46.02 56.47 58.02 57.91 57.64 56.16 55.25 54.62
57.39 57.78 59.01 61.06 62.06 59.39 58.17 58.78 59.04 58.18 58.30 58.24 58.26 57.71 56.02 53.94 52.03 50.16 49.09 48.51 47.82 47.56 47.15 46.59 45.96 45.11 43.71 43.94 42.21 42.70 42.56 41.80 41.47 42.10 45.34 49.09 49.89 54.29 56.06 55.20 54.13 53.34 53.46
58.52 59.53 61.04 62.60 60.41 58.35 57.85 57.92 57.78 57.28 56.90 56.88 56.68 55.80 55.03 53.08 51.34 48.95 48.54 47.89 47.47 47.03 46.07 45.26 44.33 43.38 42.37 41.92 40.35 40.04 40.26 40.70 40.63 40.99 41.68 45.69 47.03 46.07 49.32 53.73 52.53 51.71 50.28
59.80 60.66 60.91 60.83 58.74 57.56 57.02 56.96 56.36 55.54 55.24 55.36 54.50 53.92 52.69 51.67 50.16 48.82 47.81 46.84 46.00 45.37 44.75 44.28 42.47 42.03 40.51 40.89 40.87 39.22 38.77 38.27 38.36 40.03 39.16 39.90 41.80 41.57 41.59 47.57 47.83 48.61 49.02
60.06 60.48 60.02 59.12 57.70 56.98 56.44 55.72 54.28 53.19 53.83 52.94 51.60 51.55 52.15 50.13 49.30 48.01 46.68 45.81 45.18 43.94 42.53 41.74 40.85 40.63 40.79 40.05 41.78 39.33 37.43 37.36 37.26 36.40 36.69 38.55 37.93 38.40 39.29 39.86 39.46 41.67 46.06
59.21 59.00 59.07 57.38 56.60 56.73 55.70 54.12 52.49 52.30 52.50 50.64 49.87 49.83 50.54 48.86 47.84 46.50 45.64 44.86 44.18 42.74 41.96 41.94 40.50 39.77 38.70 38.26 38.08 37.59 36.94 36.75 35.96 35.46 35.56 35.59 36.46 37.04 38.13 37.94 37.87 37.47 37.88
59.68 59.64 58.81 58.11 57.00 57.29 57.10 54.71 53.90 52.89 51.41 49.41 48.56 48.30 48.30 47.51 46.67 46.37 44.45 43.23 42.56 41.55 40.64 40.65 40.28 39.08 38.67 37.63 36.30 34.45 32.64 35.06 35.79 35.33 34.43 35.14 34.28 35.39 37.06 37.32 37.33 37.29 36.33
59.04 59.01 58.96 58.09 57.33 57.46 57.10 54.93 50.62 50.95 47.99 46.67 45.71 45.77 46.35 46.70 45.48 43.43 41.80 40.32 39.70 39.47 39.07 39.38 39.59 39.14 37.21 36.87 36.45 35.81 32.29 30.40 31.62 34.20 33.77 33.53 33.61 34.04 34.73 35.99 36.59 37.38 36.73
58.35 58.86 59.30 58.45 57.44 57.37 57.42 55.45 52.76 51.89 49.12 47.47 45.38 44.89 42.12 42.27 41.24 40.75 40.74 40.37 40.11 40.24 39.48 40.65 40.87 39.68 37.84 36.27 37.01 37.44 34.96 34.23 31.45 30.19 32.57 32.61 33.18 34.09 34.20 34.61 34.83 35.75 35.78
56.73 57.63 58.53 58.19 57.93 57.35 57.46 56.43 53.60 51.61 50.61 47.94 44.55 40.01 40.16 39.80 40.38 40.83 40.73 40.61 39.77 40.63 41.98 41.77 39.61 38.14 38.07 37.01 36.58 35.96 33.97 32.23 30.69 29.33 27.58 29.67 31.85 33.13 33.62 33.60 33.62 33.83 34.21
55.92 56.62 57.80 58.82 58.07 57.55 56.77 54.66 52.95 49.72 48.99 46.33 42.58 39.26 40.47 38.25 39.27 39.56 39.63 39.21 40.97 42.84 41.04 40.26 38.90 38.25 37.60 36.96 37.15 35.66 34.33 32.24 30.80 28.92 27.16 27.54 27.86 30.86 31.93 33.07 32.97 32.91 33.10

GFSSE_sfc_wetblb_033.txt.gz
Wetbulb
68.67 69.79 70.84 71.41 71.23 70.94 70.69 70.44 70.31 70.28 70.30 70.01 69.68 69.43 68.97 68.74 68.92 68.43 68.20 68.24 68.65 68.83 67.88 68.16 68.23 68.10 67.91 69.50 68.92 67.41 67.95 68.15 68.39 68.17 67.60 66.06 65.94 66.32 67.34 67.66 68.27 67.85 68.29
69.63 69.99 70.24 70.87 70.94 70.90 70.56 70.21 70.03 69.83 69.84 69.73 69.34 68.92 68.92 68.82 68.53 68.55 68.72 68.65 68.97 68.83 68.63 69.01 69.06 68.68 68.08 68.82 68.65 68.38 67.46 67.88 67.48 66.64 66.12 65.38 65.39 65.25 65.33 65.55 67.08 67.36 67.63
69.30 69.93 70.46 70.24 70.52 70.51 70.39 70.18 69.93 69.79 69.77 69.36 69.04 69.02 68.78 68.68 68.80 68.82 68.64 68.54 68.89 69.28 69.14 69.24 69.38 68.92 68.07 68.31 69.14 68.37 67.18 66.83 66.74 66.03 65.59 63.33 63.96 65.10 64.97 64.70 64.78 65.11 65.75
69.29 69.55 69.42 69.82 69.87 70.03 69.93 69.56 69.50 69.58 69.14 69.04 68.87 69.02 68.85 68.97 69.09 68.87 68.43 68.28 68.49 69.00 68.32 68.71 69.34 69.18 68.36 68.92 68.83 67.81 66.70 65.76 65.11 65.42 63.77 63.48 63.48 65.21 65.12 64.99 64.88 64.44 64.04
69.24 69.61 69.34 69.64 69.29 69.71 69.45 69.14 68.87 68.72 68.58 68.43 68.58 68.92 68.90 68.95 69.09 68.77 68.24 68.23 68.42 68.59 67.11 67.24 67.23 67.49 67.54 67.51 67.40 66.79 65.29 64.83 64.75 64.63 64.28 64.56 64.47 65.41 65.77 65.32 64.78 64.96 64.65
69.53 69.66 69.18 69.09 69.39 69.48 69.26 69.03 68.44 68.08 67.74 67.48 68.07 68.53 68.85 68.85 68.73 68.73 68.29 68.25 68.47 68.05 66.36 65.99 66.21 65.87 66.44 66.27 66.11 65.50 64.63 63.89 64.48 63.97 64.47 65.06 64.83 65.44 65.53 65.42 65.31 65.36 65.01
68.34 69.65 69.64 68.14 68.88 69.23 69.45 68.93 68.22 67.76 67.67 67.65 67.92 68.09 68.46 68.56 68.60 68.20 68.09 68.02 67.85 67.75 66.96 65.60 65.92 66.35 65.82 65.72 65.51 64.74 63.41 62.93 62.91 63.30 63.87 64.40 64.77 64.85 64.86 64.82 64.67 64.59 64.66
66.79 67.56 68.54 68.68 68.31 68.23 68.49 67.90 67.44 67.66 67.88 67.71 67.73 67.85 68.48 68.37 67.96 67.79 67.43 66.82 67.01 67.19 67.11 66.65 65.50 65.94 65.46 65.44 64.85 63.68 62.73 62.50 62.53 62.77 63.09 63.42 65.29 64.18 64.00 63.67 63.65 63.52 63.35
63.62 65.00 66.43 66.12 66.13 66.29 66.50 66.67 66.98 67.44 67.62 67.51 67.50 67.68 67.69 67.25 66.99 66.97 66.84 66.72 66.38 66.18 66.49 66.54 65.41 65.25 65.45 64.73 63.40 62.59 62.18 62.15 62.78 62.54 61.93 62.53 64.13 63.19 62.78 62.04 62.04 62.53 62.34
61.69 62.61 62.28 62.17 63.02 62.96 64.09 65.90 66.57 66.75 66.90 67.03 67.13 66.59 65.99 66.15 66.48 66.29 65.94 65.88 66.08 66.13 66.06 66.35 65.05 64.35 63.82 63.06 60.66 59.60 59.20 60.39 62.55 62.72 62.83 62.58 63.34 62.48 61.73 61.05 61.36 61.48 61.27
59.37 58.93 59.84 59.15 60.80 62.96 64.17 65.41 66.41 66.87 66.38 65.87 65.76 65.23 64.06 64.12 64.35 63.85 64.06 64.46 65.17 64.51 64.13 63.71 62.04 61.36 60.93 60.11 59.05 58.34 59.34 59.80 60.96 61.94 62.57 63.24 62.92 62.01 61.40 60.61 60.33 60.24 59.80
56.40 57.75 58.71 59.87 60.00 63.12 62.28 62.51 64.16 64.23 63.73 63.79 63.74 63.88 63.67 64.23 63.59 63.35 63.84 63.93 63.11 61.78 60.99 60.25 58.80 57.68 57.87 56.68 56.05 56.27 55.85 57.36 58.41 59.81 61.81 61.67 61.65 61.69 60.85 60.26 59.66 59.26 58.86
56.25 57.31 58.94 58.12 58.82 61.32 62.36 60.91 61.65 61.51 62.14 62.59 62.63 62.79 62.91 63.37 63.88 63.59 62.21 60.14 59.55 58.38 56.73 56.58 55.83 55.34 55.37 55.50 54.90 54.60 54.36 54.49 55.90 58.58 58.45 58.85 60.63 60.60 60.85 59.87 59.17 58.62 57.85
57.33 58.41 58.91 59.18 58.41 60.81 62.55 60.80 60.61 61.22 60.95 61.87 61.36 62.89 63.76 62.96 62.44 61.81 58.82 58.29 57.74 56.54 56.03 55.84 55.14 54.90 54.58 54.07 53.92 53.67 53.40 53.14 53.72 54.03 54.21 56.89 58.52 59.26 60.19 59.84 58.57 57.95 56.94
57.17 58.30 58.85 59.90 59.88 62.09 61.59 60.44 60.22 60.96 61.28 62.13 62.20 63.67 63.69 62.47 61.42 58.99 57.74 57.22 56.63 56.39 55.97 55.39 55.01 54.26 53.45 52.59 52.52 52.22 51.47 51.91 52.74 53.60 54.19 56.26 57.86 58.40 57.60 59.89 58.46 57.61 55.92
57.79 57.96 59.34 59.96 62.60 62.64 60.88 60.94 61.29 62.12 62.42 62.07 62.98 63.15 62.25 61.45 58.94 57.56 57.01 56.31 55.88 56.32 55.99 55.46 54.39 53.27 52.17 51.98 51.23 50.87 50.22 50.77 52.18 53.24 53.68 56.64 56.45 58.58 58.02 58.57 57.26 56.46 55.10
57.84 59.10 60.11 61.70 64.15 63.24 60.77 60.86 61.89 62.92 63.01 62.44 62.74 61.94 61.22 59.84 58.81 57.71 56.35 55.39 55.11 55.32 54.91 54.29 53.08 52.55 51.59 50.52 49.84 49.95 49.68 49.61 50.70 52.51 54.33 55.87 56.03 55.59 57.06 56.34 54.43 53.94 54.05
58.66 59.22 60.58 62.05 63.68 63.47 61.85 61.96 62.59 62.86 63.01 62.78 62.46 61.68 60.02 58.36 57.62 57.16 55.78 55.06 54.76 54.66 53.93 52.95 52.20 51.00 50.74 50.58 49.79 48.80 48.95 48.50 48.93 50.52 53.00 54.21 53.30 53.67 53.68 53.11 52.81 51.70 50.20
59.38 60.05 60.77 62.41 63.46 63.25 62.29 62.26 62.88 62.46 62.00 62.28 61.83 61.09 59.44 57.37 56.24 56.28 55.39 54.15 54.27 52.99 52.30 51.66 50.84 50.97 49.93 49.96 48.39 48.43 47.84 47.16 46.91 47.30 49.68 50.23 49.53 49.87 50.37 48.07 48.93 48.83 48.87
60.52 61.24 61.87 62.86 63.61 63.21 61.85 61.72 61.19 60.36 59.85 60.51 60.70 59.86 58.30 56.14 55.62 54.82 53.66 53.31 52.78 51.50 50.78 50.99 50.37 49.88 50.18 50.28 47.35 46.85 46.64 46.59 46.79 46.49 46.04 46.12 46.58 47.02 47.84 47.22 47.84 47.25 46.14
61.13 61.22 62.35 62.66 62.92 61.70 60.21 59.84 59.65 58.18 58.35 57.80 58.09 57.55 56.34 55.38 54.62 54.00 52.78 52.23 52.19 51.61 50.73 50.66 49.32 48.48 48.24 48.81 47.86 47.14 45.51 45.68 45.60 45.46 46.35 46.30 44.87 45.50 46.37 47.07 47.29 46.85 45.85
60.69 61.77 62.38 62.75 62.29 61.85 61.53 60.93 60.21 58.35 58.09 56.97 55.73 56.37 55.23 54.56 53.71 52.97 52.50 51.77 51.32 50.11 49.88 49.63 48.96 47.73 48.24 47.96 46.51 45.24 42.87 43.09 44.47 43.90 44.85 44.53 44.35 45.22 44.83 44.67 45.12 45.10 45.42
60.58 61.80 62.55 62.82 62.05 61.98 61.65 60.13 57.33 56.01 55.08 53.91 53.28 53.94 53.53 53.35 53.09 52.38 51.89 50.69 49.22 48.76 47.72 48.45 48.61 47.39 45.31 45.54 45.70 45.44 41.38 40.54 42.53 44.14 42.92 43.76 43.85 44.33 44.91 44.34 43.88 43.98 44.05
61.14 62.59 63.01 62.63 61.86 61.75 61.03 59.79 57.48 57.37 55.44 55.00 53.37 53.27 52.58 52.21 51.01 50.18 48.92 48.65 48.27 48.14 47.71 47.76 47.09 45.98 46.80 44.72 45.57 45.23 45.63 44.42 40.37 38.75 43.39 43.70 43.18 42.40 43.06 43.75 43.27 43.27 43.18
61.58 62.14 62.78 62.54 61.61 61.31 59.81 60.03 58.82 58.01 56.91 53.86 51.91 50.54 49.16 48.94 48.75 47.67 48.18 48.12 47.88 47.69 47.91 48.03 46.82 46.05 46.78 45.95 45.68 45.03 44.72 43.94 42.60 39.45 36.98 39.55 42.04 43.14 43.06 42.87 42.82 42.47 42.02
61.79 61.83 62.36 61.03 60.86 60.22 59.68 59.84 58.42 57.31 53.71 51.57 48.14 46.88 46.84 47.09 46.39 47.28 47.22 47.55 47.96 47.86 47.36 46.81 44.45 44.81 45.87 45.77 45.46 44.75 43.46 41.73 40.42 39.24 37.56 38.18 37.88 40.17 41.85 42.47 41.85 41.72 42.13

GFSSE_sfc_wetblb_036.txt.gz
Wetbulb
69.45 70.72 70.93 71.72 72.12 72.04 71.86 71.54 71.30 71.03 70.93 70.67 70.24 69.97 69.82 69.65 69.31 69.03 68.88 69.29 69.55 69.80 68.73 68.59 69.53 70.31 68.29 67.62 67.91 68.09 67.94 67.80 67.75 67.47 67.14 65.96 66.15 66.51 67.21 67.63 68.71 68.30 68.46
70.40 70.28 70.45 71.11 71.65 71.72 71.55 70.96 70.53 70.48 70.48 69.92 69.75 69.68 69.51 69.21 69.04 69.08 69.27 69.42 69.77 69.25 69.21 69.04 69.08 69.58 67.58 67.41 67.22 67.27 66.67 67.11 66.69 67.07 67.02 66.06 65.80 65.70 65.78 65.77 66.95 67.24 67.70
69.57 69.92 71.21 70.49 70.83 71.09 71.07 70.64 70.36 70.33 70.04 69.77 69.65 69.31 69.16 69.23 69.55 69.18 69.28 69.45 70.18 70.10 69.58 69.26 69.15 69.09 67.61 67.39 67.80 67.14 66.33 66.18 66.25 65.87 67.24 64.13 65.05 65.88 65.68 65.08 65.74 65.26 65.94
69.89 69.67 69.36 70.10 70.21 70.48 70.10 69.91 69.96 70.02 69.65 69.48 69.38 69.33 69.41 69.58 69.50 69.41 69.16 69.53 70.26 70.95 70.26 69.44 69.44 68.88 67.80 67.74 67.54 66.78 65.86 65.27 65.96 66.79 64.57 64.57 64.58 65.60 65.72 65.45 65.19 64.95 64.69
69.69 69.36 69.91 69.70 69.75 70.03 69.73 69.55 69.25 69.08 68.96 68.96 69.09 69.50 69.70 69.60 69.53 69.36 68.89 68.79 69.33 70.10 69.51 69.38 69.32 68.57 67.73 67.50 66.93 66.21 65.53 65.33 65.65 65.33 64.63 65.19 65.10 65.40 65.79 65.74 65.76 65.27 64.84
68.91 69.45 69.33 68.82 69.26 69.64 69.61 69.24 68.95 68.54 68.27 68.23 68.84 69.40 69.53 69.65 69.41 69.28 68.75 68.62 68.78 68.65 67.60 68.07 67.78 67.25 66.93 66.47 66.34 65.33 64.97 64.76 65.64 64.24 64.86 65.21 64.67 64.83 64.80 65.13 65.19 64.86 64.81
69.04 70.13 69.54 68.13 68.93 69.22 69.35 68.94 68.47 68.08 67.96 68.20 68.52 68.77 69.01 69.21 69.36 69.01 68.50 68.34 68.19 67.79 67.13 66.44 66.54 66.64 66.41 66.25 65.29 64.30 63.59 63.72 63.08 62.95 63.99 64.09 64.65 64.05 63.92 63.85 63.98 64.26 64.12
68.44 69.55 69.14 68.56 68.81 68.54 68.29 68.02 67.56 67.57 67.73 68.03 68.26 68.37 68.74 68.66 68.36 68.32 67.98 68.03 68.01 66.99 66.68 67.05 66.54 66.15 65.89 64.83 63.54 63.23 63.04 63.76 63.07 62.43 63.31 63.61 64.40 62.96 62.74 62.65 62.84 62.80 62.77
68.08 67.53 66.59 66.35 66.50 66.72 66.53 66.99 67.03 67.46 67.82 67.93 67.90 68.14 68.04 67.26 66.97 66.92 66.95 67.15 67.28 66.99 66.30 66.19 66.18 65.90 64.59 63.38 62.72 62.61 62.55 63.03 62.96 63.04 62.49 63.13 62.91 62.12 61.67 61.50 61.71 61.97 61.83
64.12 65.43 63.72 62.73 62.71 63.29 64.98 66.42 66.93 67.12 67.25 67.49 67.56 66.99 66.23 66.33 66.44 66.43 66.20 66.60 66.88 67.16 66.13 65.36 65.54 64.65 62.58 61.49 60.68 60.32 61.19 61.99 62.37 62.36 63.01 63.22 62.73 61.77 61.24 61.04 61.24 61.06 60.80
60.81 61.45 61.67 60.62 60.69 61.33 63.16 65.81 66.84 67.17 66.70 66.32 66.13 65.29 64.31 63.83 64.03 64.79 64.86 65.88 65.41 65.38 64.75 63.37 62.41 61.95 61.35 60.14 59.33 60.08 60.49 61.10 61.08 61.56 62.46 62.91 62.14 61.63 60.96 60.60 60.36 60.15 59.89
57.84 59.10 60.05 59.09 59.08 60.10 60.69 63.75 66.03 65.72 64.82 64.81 63.92 63.82 63.70 65.12 65.05 64.46 64.74 63.44 63.09 62.59 62.24 60.66 59.89 59.89 61.58 61.22 59.29 59.57 59.43 59.70 59.77 59.96 61.70 61.20 61.75 61.49 60.79 60.07 59.75 59.49 59.26
56.65 57.39 58.45 59.55 60.37 60.25 59.97 63.09 64.37 64.33 64.19 64.14 64.19 64.04 64.25 64.07 64.42 64.58 64.11 62.87 62.18 61.69 60.33 60.34 60.33 60.85 60.51 60.06 59.28 59.01 58.61 58.35 57.99 58.20 59.13 59.06 60.83 61.62 60.89 59.96 59.08 58.85 58.22
56.06 55.96 56.83 58.20 58.19 59.83 61.06 62.06 62.49 61.87 62.33 62.55 62.80 63.56 64.18 63.63 64.79 64.64 63.60 63.14 62.22 62.13 61.30 60.99 60.04 59.71 58.92 58.57 58.28 57.71 57.31 57.01 56.59 56.21 57.12 58.03 58.67 59.70 61.08 59.96 58.96 58.15 56.96
53.05 54.61 56.28 57.99 58.55 59.76 61.18 60.11 61.15 61.58 61.62 62.03 62.90 63.52 63.90 63.84 64.97 64.37 63.05 62.69 62.14 61.50 61.33 60.26 59.41 58.86 58.15 57.45 57.27 55.97 55.07 54.74 54.55 54.58 55.81 57.86 58.29 58.73 58.51 60.10 59.03 57.60 56.10
54.24 54.99 57.23 57.91 59.08 59.40 60.05 61.60 61.59 62.35 62.79 62.80 63.93 64.90 65.55 65.18 64.39 63.11 62.27 61.48 61.27 61.52 61.01 60.43 59.34 58.35 57.64 57.35 55.63 54.24 53.32 53.23 54.12 54.83 55.24 57.07 56.88 58.65 58.08 59.36 58.41 57.12 55.52
58.13 58.09 58.44 59.41 61.51 61.43 62.19 63.16 62.27 62.29 62.54 63.55 65.51 66.18 66.04 65.15 64.00 63.34 62.31 61.42 60.86 60.51 59.94 58.78 58.24 58.05 57.19 55.44 53.32 53.59 53.67 53.17 53.53 53.52 54.95 55.58 56.44 55.49 57.65 56.53 55.48 54.69 54.25
59.96 59.50 60.48 61.39 62.51 63.63 63.51 63.10 62.27 63.91 64.04 64.70 65.21 65.93 65.34 64.57 63.89 62.84 61.45 60.78 60.24 59.77 59.10 58.34 57.59 56.52 55.98 54.93 54.22 53.62 53.78 53.66 52.99 53.58 55.19 55.64 55.28 55.22 53.85 53.17 52.92 51.72 50.73
60.25 60.47 60.54 62.66 63.93 65.03 65.22 63.84 62.82 64.71 64.58 65.88 65.61 65.36 63.93 63.04 62.50 62.60 61.24 60.17 59.99 58.61 58.08 57.06 56.14 56.31 54.02 53.83 52.72 53.85 53.60 53.16 52.05 52.08 53.52 53.94 54.11 54.80 55.23 49.10 49.54 49.29 49.01
61.40 61.45 61.88 63.20 64.23 65.20 65.23 63.83 63.24 64.82 65.96 66.18 65.81 65.32 64.26 63.03 61.91 61.95 60.68 59.29 58.74 57.25 56.58 55.89 54.56 53.96 53.42 53.43 49.86 50.61 51.54 51.48 51.43 51.66 50.61 51.01 51.93 52.40 52.03 51.32 50.66 49.25 45.95
61.70 61.95 62.56 62.96 64.39 65.01 64.23 62.02 62.03 62.76 64.39 64.80 65.48 65.14 64.07 62.73 61.27 60.65 59.24 58.16 57.78 56.87 56.16 55.49 53.83 51.34 51.99 53.24 51.01 51.02 50.61 50.20 49.73 49.88 50.65 50.78 48.91 49.17 50.09 49.08 49.03 48.84 48.33
61.54 62.37 63.00 63.58 64.50 65.14 64.88 63.10 63.90 64.21 64.33 64.39 63.77 63.07 62.63 61.33 60.62 59.44 58.49 57.50 57.53 56.05 55.19 54.07 52.35 51.56 52.88 52.16 49.80 49.11 47.21 47.89 48.72 48.73 49.08 48.25 48.73 48.38 47.94 47.21 47.74 47.36 47.36
61.66 62.20 62.90 64.30 65.40 66.01 65.72 64.16 63.60 64.26 62.89 60.90 60.51 60.57 60.34 60.06 59.37 58.31 58.27 57.58 56.87 55.83 53.69 52.80 51.93 51.55 50.84 50.74 50.62 47.58 45.15 45.17 47.33 48.54 47.55 47.60 47.36 47.31 47.83 47.02 46.69 46.38 46.37
63.09 63.88 64.15 64.46 65.48 66.10 66.01 63.84 61.98 60.90 60.71 60.98 60.28 60.16 58.16 57.23 58.11 57.69 57.31 55.94 55.48 54.10 52.70 51.81 52.43 52.49 51.07 49.68 49.84 48.72 48.79 47.06 43.01 42.96 46.92 47.04 47.35 46.35 46.97 46.74 46.47 46.53 46.22
64.10 63.91 64.92 65.09 65.55 66.17 65.77 64.76 62.76 61.83 63.08 62.24 60.25 58.52 57.60 57.18 57.15 56.67 55.03 53.39 52.91 52.83 52.05 52.46 51.79 50.87 51.56 46.94 48.22 48.92 47.68 47.20 46.48 43.32 41.11 43.57 45.79 46.08 46.72 46.18 46.41 46.17 46.06
64.82 64.44 64.74 64.79 64.97 65.56 64.27 62.40 61.86 61.83 61.91 59.88 58.43 57.14 55.67 55.80 54.74 53.04 51.20 51.88 53.27 52.09 51.98 52.33 50.53 51.09 48.48 49.28 49.06 47.88 46.18 45.22 44.46 43.30 41.79 42.33 42.21 44.28 45.35 45.42 45.52 45.55 45.46

GFSSE_sfc_wetblb_039.txt.gz
Wetbulb
70.02 71.08 71.91 72.80 72.58 72.32 72.19 71.86 71.65 71.27 71.15 70.78 70.27 70.22 70.22 70.17 69.76 69.53 69.93 70.44 70.48 70.78 70.96 70.74 68.93 67.91 67.89 68.04 67.78 67.37 67.64 67.71 67.52 67.48 67.42 66.38 66.22 66.79 67.44 67.91 68.41 67.97 68.66
71.06 71.36 71.19 72.05 72.35 72.39 72.04 71.59 71.16 70.80 70.63 70.32 70.17 70.17 70.05 69.49 69.24 69.83 70.00 70.07 70.18 70.44 70.40 69.73 67.73 67.30 67.19 66.81 66.81 66.77 66.14 66.84 67.30 67.41 67.24 66.57 66.31 65.95 65.88 65.95 66.82 66.57 67.59
69.50 70.47 71.90 71.28 71.86 71.94 71.80 71.24 70.82 70.70 70.30 70.00 69.90 69.69 69.39 69.46 69.73 69.83 70.10 70.32 70.43 70.57 69.67 68.90 67.97 67.56 67.10 66.67 66.86 66.39 65.85 65.83 65.86 66.61 68.29 63.84 64.80 66.28 66.05 66.43 66.19 65.15 65.54
69.50 70.64 72.22 70.84 71.19 71.22 70.82 70.50 70.23 70.12 70.12 69.85 69.66 69.34 69.69 69.83 70.15 70.20 70.53 70.64 70.74 70.89 69.76 68.63 67.90 67.31 66.91 66.74 66.82 66.24 65.66 65.88 65.61 66.79 64.91 64.16 64.06 66.17 66.57 65.85 65.47 65.61 65.00
67.90 69.87 70.91 69.95 70.21 70.40 70.12 69.77 69.52 69.40 69.51 69.24 69.27 69.83 69.91 69.98 69.98 70.03 70.26 70.69 70.91 70.89 69.78 68.62 67.65 66.98 66.73 67.25 66.86 66.12 65.66 65.71 65.91 65.16 63.94 63.93 63.71 65.00 65.83 65.45 65.71 65.40 65.25
66.33 67.81 68.96 69.11 69.55 69.76 69.76 69.54 69.17 68.90 68.42 68.74 69.12 69.61 69.98 69.98 69.76 69.64 69.10 69.71 70.54 70.58 69.48 68.40 66.96 66.26 66.76 66.51 66.09 65.16 64.91 65.47 65.66 64.03 63.92 63.97 63.13 64.31 64.39 64.71 64.66 65.06 64.96
66.07 67.67 69.02 68.34 69.01 69.47 69.70 69.28 68.77 68.54 68.33 68.85 69.06 69.19 69.24 69.39 69.53 69.16 68.44 68.42 68.86 69.05 68.34 67.06 66.17 66.30 66.46 65.83 64.51 64.00 64.43 65.01 62.86 63.64 63.22 62.74 63.15 63.41 63.36 63.20 63.37 63.37 63.16
68.10 68.51 68.10 68.94 68.88 68.66 68.64 68.24 68.03 67.88 68.36 68.64 68.87 69.05 69.35 69.24 68.97 68.73 68.45 67.84 68.05 67.98 67.48 67.09 66.83 66.10 65.15 64.03 63.29 63.19 64.03 64.55 62.99 63.02 63.54 62.35 63.58 62.35 62.44 62.34 62.26 62.52 62.21
67.08 67.17 67.19 66.97 67.67 67.32 66.83 66.82 67.17 67.75 68.11 68.20 68.32 68.39 68.10 67.49 67.39 67.69 67.49 67.19 66.94 66.93 66.91 66.68 66.18 65.41 63.85 63.32 62.95 62.84 62.51 63.87 63.35 63.00 62.55 62.03 62.44 61.91 61.93 61.89 61.55 61.65 61.35
65.92 65.56 66.05 66.19 67.66 67.26 66.99 66.70 66.92 67.27 67.54 67.71 67.49 66.76 66.28 66.43 66.48 66.87 66.75 67.29 66.63 66.48 66.47 65.96 65.09 63.69 62.47 61.66 61.46 61.68 61.55 63.22 62.08 62.31 62.59 62.02 62.41 61.44 61.18 61.20 61.11 60.78 60.50
62.56 63.12 62.80 62.20 63.14 64.79 64.87 66.35 66.75 67.49 67.16 66.22 66.12 65.19 63.98 63.57 64.31 65.13 65.74 66.61 66.16 65.15 65.32 64.83 63.77 62.91 61.96 61.18 60.57 59.99 60.92 60.44 60.54 60.67 62.43 62.90 62.05 61.54 61.03 60.59 60.50 60.32 59.94
58.80 59.65 60.27 59.83 60.32 60.23 63.61 65.59 65.39 66.14 65.48 64.74 63.99 63.26 63.08 65.28 65.60 64.20 64.23 64.35 64.10 63.42 62.91 62.83 62.31 62.15 61.92 61.04 59.92 60.63 59.40 59.40 59.09 59.26 61.26 61.99 62.00 61.47 60.82 60.29 59.78 59.71 59.34
58.29 57.75 58.85 59.32 58.88 59.27 59.62 62.53 63.00 64.12 64.87 64.91 64.42 65.58 65.66 64.95 64.62 64.08 62.47 62.58 62.83 62.59 60.79 59.88 59.72 62.20 61.97 61.12 60.12 59.69 58.93 58.64 57.40 57.11 59.09 59.93 61.20 61.51 60.83 60.18 59.62 59.11 58.51
56.58 56.99 57.50 58.69 58.20 59.11 58.64 59.92 62.07 61.91 63.63 63.75 63.93 64.86 65.45 64.26 65.35 64.01 63.60 63.84 63.52 62.91 62.10 62.59 61.94 61.29 60.60 59.69 59.22 58.51 57.80 56.68 55.57 55.68 57.26 58.53 58.83 60.01 61.23 60.13 59.69 58.58 57.71
54.66 55.52 56.16 57.10 56.25 57.47 58.19 59.72 61.37 61.86 62.08 62.81 63.37 63.76 63.94 64.24 65.33 64.63 64.30 63.71 63.54 63.38 62.74 61.86 60.67 60.14 59.22 58.64 58.27 56.57 55.04 54.91 54.95 54.66 56.89 58.03 58.27 58.57 59.32 60.29 59.73 58.12 56.97
54.06 55.05 56.28 57.31 58.58 58.80 57.44 58.32 59.42 60.88 61.94 62.75 62.96 63.47 64.11 64.10 66.46 64.18 63.99 63.37 63.06 63.11 62.95 62.01 60.71 59.39 58.50 58.33 56.36 54.60 53.95 53.85 54.82 55.26 55.51 56.44 58.25 58.75 58.55 60.02 59.41 57.84 56.38
53.86 55.34 55.88 56.71 57.84 57.92 57.85 59.02 59.90 61.21 61.37 61.61 62.36 66.12 65.05 65.03 66.10 65.18 64.15 63.34 63.11 63.14 62.40 61.09 59.89 58.73 57.52 56.08 54.10 54.17 54.07 53.99 54.09 53.90 54.64 55.70 56.49 56.53 57.30 57.56 58.24 56.07 55.46
55.22 55.68 55.81 56.94 57.26 59.62 60.17 62.38 61.53 62.65 62.70 62.36 64.02 65.88 65.87 65.62 65.73 65.03 63.36 63.10 63.00 62.39 61.59 60.29 58.73 57.34 56.44 55.53 54.50 54.48 54.25 53.90 53.24 53.33 54.83 54.85 54.19 55.64 54.40 53.76 53.44 52.83 51.97
57.93 58.69 57.11 59.97 59.67 62.31 62.43 63.10 62.21 62.83 62.78 62.17 64.53 66.44 66.33 65.69 65.26 65.03 63.79 63.03 62.50 61.53 60.56 59.40 57.83 56.96 54.78 54.30 53.81 54.09 54.43 53.21 52.73 51.98 53.31 53.78 53.71 53.23 54.74 51.37 51.25 50.40 49.32
60.30 59.39 59.57 61.50 62.11 63.34 62.85 63.06 62.15 61.97 63.09 64.49 65.97 65.70 65.62 64.88 64.54 64.39 63.76 62.56 62.01 60.67 59.59 58.16 56.86 56.03 54.86 54.94 52.87 52.37 53.87 53.13 52.51 52.17 51.57 51.37 52.09 52.28 51.66 52.67 51.51 50.23 48.44
60.77 59.97 60.61 61.25 62.84 63.44 62.45 61.50 60.85 59.87 62.23 64.34 66.10 65.53 65.88 65.32 64.12 64.20 63.21 61.85 61.07 59.49 58.76 57.76 56.36 54.43 53.51 55.21 53.31 54.16 53.43 52.48 51.53 51.30 51.35 50.55 50.03 50.05 50.04 49.88 49.84 49.45 48.21
60.64 60.93 60.81 61.28 62.30 63.66 64.09 62.58 61.67 62.22 62.92 64.12 65.47 65.67 65.74 65.35 63.90 63.48 62.87 61.06 60.29 58.92 57.93 56.87 55.60 53.57 54.95 55.05 52.37 52.29 49.80 50.39 50.67 50.74 50.93 49.89 50.11 49.76 48.88 49.16 48.91 48.50 48.28
61.25 61.94 62.35 63.16 63.08 64.52 64.87 63.79 62.54 63.48 64.08 63.56 63.71 63.79 64.63 64.57 63.26 62.55 61.72 60.56 59.72 58.81 56.64 56.49 54.98 54.68 53.67 54.35 53.59 50.68 47.72 46.46 48.93 51.01 49.75 49.69 49.51 48.61 49.15 48.67 48.22 47.98 47.71
62.06 63.87 63.64 64.18 64.27 64.74 65.53 63.65 62.24 61.38 61.15 62.81 63.37 63.40 63.29 62.71 61.82 60.54 59.73 60.06 59.36 58.19 57.06 55.89 54.66 55.26 53.84 51.80 53.25 52.32 51.35 49.32 45.08 44.19 49.12 49.13 49.13 48.24 48.79 48.35 48.04 47.84 47.71
63.42 64.03 64.75 64.23 64.40 65.62 65.58 65.93 64.02 62.43 63.11 64.13 63.17 62.60 62.37 60.24 59.99 59.08 59.50 59.29 58.40 56.69 56.88 55.97 54.54 54.15 52.72 51.45 51.39 51.01 50.36 49.63 48.88 44.98 43.24 46.11 48.17 48.06 47.66 47.67 47.51 47.49 47.30
64.19 64.95 65.62 64.18 63.88 64.97 66.33 65.51 64.70 63.39 62.88 62.99 62.37 60.97 60.13 59.73 59.10 59.19 58.32 57.93 56.59 54.54 54.74 54.16 54.35 53.07 53.27 51.85 50.20 50.51 48.37 46.87 46.52 46.11 44.27 44.37 44.18 46.13 47.28 47.23 46.71 46.34 46.78

GFSSE_sfc_wetblb_042.txt.gz
Wetbulb
68.56 71.34 72.13 72.47 72.53 72.15 71.97 71.60 71.36 71.19 71.25 70.85 70.76 70.57 70.49 70.35 70.37 70.74 71.06 71.03 71.45 70.93 69.15 68.80 68.22 67.80 67.37 67.16 66.94 67.13 68.10 68.00 67.57 67.66 67.58 66.47 66.55 66.66 66.90 67.88 68.00 66.79 68.39
68.93 71.75 71.44 71.96 72.23 72.44 72.10 71.68 71.25 70.96 70.82 70.71 70.61 70.34 70.05 69.93 70.66 70.74 70.37 70.47 71.13 70.88 68.53 67.92 67.44 66.83 66.17 66.21 66.42 67.16 67.49 67.68 67.37 67.26 67.28 66.49 66.33 66.56 66.57 65.71 66.84 65.42 67.11
68.27 71.62 71.96 71.47 71.99 72.09 71.82 71.61 71.16 70.77 70.66 70.63 70.34 69.88 69.73 70.37 70.39 70.32 70.22 70.27 70.98 70.05 68.20 67.81 67.35 66.69 65.70 65.68 66.86 66.70 66.53 66.58 67.47 67.47 66.69 62.86 63.81 66.29 66.26 66.34 66.24 65.32 65.51
69.39 71.27 71.65 71.29 71.43 71.49 71.20 70.68 70.44 70.56 70.44 70.26 69.76 69.64 70.20 70.41 70.63 70.83 70.46 70.25 70.56 70.16 68.17 67.79 67.22 66.46 65.86 66.33 66.58 66.52 66.81 66.81 67.35 67.11 61.92 61.80 63.25 66.62 66.24 65.68 65.86 65.72 65.30
69.00 71.06 70.98 70.52 70.40 70.84 70.59 70.20 69.76 69.77 69.55 69.33 69.36 70.07 70.41 70.46 71.10 71.07 70.72 70.39 70.59 70.10 67.99 67.56 66.84 66.21 66.22 66.44 65.87 65.65 65.78 65.98 65.59 62.89 60.46 60.77 61.23 64.17 65.13 65.57 65.44 65.52 65.14
67.32 70.44 69.11 69.37 69.84 69.98 69.94 69.77 69.45 69.14 68.75 68.61 69.28 70.05 70.39 70.66 70.73 71.04 70.50 70.44 70.76 70.03 67.73 66.87 66.18 65.87 66.51 65.61 65.08 65.42 65.80 65.78 65.50 60.68 60.09 62.16 61.02 63.85 64.28 64.21 64.17 64.24 64.36
67.86 69.17 69.25 68.30 69.21 69.80 69.77 69.61 69.19 68.80 68.65 69.01 69.32 69.40 69.65 69.80 69.67 69.66 69.73 70.05 69.93 69.34 67.64 66.33 65.73 66.11 65.84 65.03 64.67 64.91 64.80 63.96 61.23 59.85 59.25 59.60 59.83 63.12 63.21 63.25 62.97 62.69 63.24
66.75 68.52 68.59 69.23 69.04 68.83 68.69 68.79 68.26 68.43 68.69 68.93 68.97 68.89 69.45 68.92 68.49 68.65 68.78 68.72 68.72 67.94 67.34 67.01 66.42 65.75 65.04 64.34 63.66 63.29 63.58 64.53 62.37 60.40 59.24 58.92 62.73 62.50 62.60 62.42 62.29 62.19 62.26
66.47 67.38 66.78 67.27 68.04 67.33 67.20 67.17 67.34 68.06 68.31 68.48 68.71 68.66 68.19 67.70 67.57 67.39 67.70 68.13 67.88 67.15 66.80 66.22 65.70 64.95 64.12 63.35 62.28 62.04 62.71 63.51 60.22 59.96 59.73 58.74 63.14 62.04 61.99 61.73 61.55 61.21 60.99
64.88 64.95 64.68 65.02 65.35 65.91 66.34 66.62 67.19 67.27 67.47 67.30 67.16 66.65 66.37 66.62 67.03 66.68 66.54 66.90 66.89 66.68 66.29 65.77 64.81 64.00 62.84 61.65 61.02 60.41 61.46 61.77 57.77 59.22 59.00 59.99 62.60 61.61 61.42 61.21 60.97 60.69 60.36
63.50 63.58 64.53 64.55 63.52 64.96 65.86 66.77 67.25 67.68 66.84 66.34 65.98 65.19 63.79 62.82 62.14 64.74 65.70 65.97 66.17 65.58 65.33 64.85 64.00 62.67 61.49 60.79 60.48 61.13 61.11 56.47 56.19 59.49 60.14 63.59 62.37 61.73 61.11 60.61 60.32 60.15 59.87
59.61 60.36 61.60 63.16 63.73 64.34 65.36 65.71 65.83 66.10 64.95 64.41 63.42 62.82 62.75 63.22 63.51 64.17 64.58 64.42 64.36 64.42 64.51 63.72 62.81 62.17 61.05 56.20 56.03 59.89 55.37 55.73 56.60 58.94 59.52 63.16 62.24 61.78 61.03 60.29 59.99 59.71 59.64
58.01 58.90 59.81 60.06 60.78 60.87 61.73 63.25 63.13 63.04 63.18 63.26 62.78 63.76 62.86 62.66 62.43 61.82 61.69 61.12 60.20 61.11 58.41 59.20 59.11 58.09 59.06 57.38 56.72 55.78 54.93 53.88 52.76 55.59 59.31 61.66 62.44 61.79 61.11 60.29 59.83 59.22 59.10
56.14 57.54 57.87 58.74 58.88 59.48 60.32 60.90 61.87 61.93 61.97 61.87 63.36 63.66 62.72 62.64 61.48 60.54 60.58 60.87 60.31 59.85 57.50 58.23 58.94 58.46 56.92 56.68 56.14 54.85 53.25 51.66 50.84 53.85 56.74 59.59 60.06 61.28 61.56 60.64 60.06 59.09 58.78
55.15 55.55 55.55 56.56 56.44 56.73 57.46 58.10 59.58 60.65 60.93 62.04 62.57 63.22 63.16 62.46 63.18 61.76 60.95 60.84 60.13 61.04 60.38 59.02 57.88 57.20 55.99 55.60 54.34 52.45 51.68 51.45 51.16 51.83 52.40 57.95 59.09 58.85 60.76 60.92 60.34 58.83 57.89
54.34 54.56 55.55 55.88 56.21 56.37 55.69 55.87 56.85 58.81 59.68 60.82 61.62 62.12 62.93 62.97 62.90 62.43 62.57 62.21 61.32 60.74 60.39 59.02 57.75 56.20 55.02 54.55 52.49 50.98 50.64 50.65 51.14 51.08 52.19 54.05 58.42 59.76 59.50 60.67 60.19 58.88 57.89
54.20 55.10 55.29 56.18 56.06 55.18 55.92 57.34 58.22 57.93 58.62 57.78 59.68 62.48 62.86 62.26 63.84 63.23 61.53 60.96 60.91 60.76 60.17 58.43 56.72 55.27 53.70 52.81 50.92 50.34 50.89 50.41 50.55 50.05 50.72 52.66 54.92 57.24 58.57 60.75 59.29 57.74 56.84
54.17 54.67 56.06 57.72 56.27 56.13 56.47 55.56 56.08 57.44 57.51 58.09 59.50 62.67 63.26 63.34 63.93 62.90 62.19 60.92 60.95 59.74 58.71 57.41 55.90 54.26 52.83 51.26 49.75 49.45 49.30 49.60 49.10 49.36 50.73 50.79 52.28 53.11 54.70 56.75 56.28 54.72 54.01
54.72 55.28 55.73 55.48 54.80 54.52 54.98 55.40 55.88 58.02 61.11 60.18 60.41 62.38 64.19 63.89 63.63 62.92 62.15 61.63 60.70 59.46 58.49 57.18 54.90 53.70 51.02 50.16 50.63 49.45 49.22 48.66 48.63 49.77 49.56 49.84 49.21 50.05 51.10 54.16 54.01 53.34 52.13
55.67 55.53 55.63 55.11 54.40 54.80 54.61 56.48 58.76 60.55 60.32 60.38 60.15 62.89 63.26 63.51 64.18 63.13 62.42 60.91 59.53 58.53 57.12 55.73 53.19 51.83 50.91 50.25 51.99 49.98 49.60 49.00 48.03 47.21 47.35 49.36 48.19 48.34 48.56 49.32 48.34 48.27 51.59
57.38 55.38 55.86 54.74 55.69 57.40 58.16 58.72 59.25 57.66 59.20 60.30 62.55 63.14 64.07 63.58 63.09 62.19 61.57 60.27 59.39 57.95 56.30 55.71 53.21 50.40 48.58 50.14 48.42 49.81 48.94 48.98 47.64 46.98 47.23 46.76 46.62 46.90 45.97 45.50 45.11 44.97 45.90
57.09 56.85 58.04 57.50 59.02 60.35 60.63 59.39 59.69 59.09 59.29 60.93 63.06 63.92 63.89 63.41 62.71 62.05 61.36 59.36 58.78 57.05 56.39 54.08 52.78 50.28 50.61 50.80 47.79 47.44 45.09 44.76 46.26 47.54 46.29 46.67 44.87 45.80 46.06 46.08 45.25 44.94 44.01
56.77 57.20 58.09 59.45 60.29 61.27 61.81 61.49 60.51 60.39 59.48 60.03 61.27 62.75 63.25 63.35 62.66 61.40 61.38 59.41 58.29 57.46 54.93 54.29 52.92 50.94 48.73 49.53 49.49 46.44 42.74 40.71 42.59 45.44 45.84 45.04 45.06 44.10 44.26 45.11 45.25 44.90 44.25
58.88 59.25 59.40 59.88 60.28 61.54 62.63 62.33 59.44 58.19 57.61 60.17 61.34 61.74 62.33 63.06 62.44 60.76 60.30 59.06 58.42 57.04 54.72 54.00 54.17 52.29 50.75 48.40 49.55 51.27 48.47 44.69 39.81 38.41 43.34 44.43 45.28 44.88 44.12 43.61 43.67 44.58 44.24
60.20 60.33 60.69 60.77 61.44 62.07 62.49 62.95 61.42 59.24 60.64 62.37 61.47 61.55 61.23 61.22 60.47 60.41 58.31 57.21 57.29 56.71 56.26 53.50 52.32 52.27 51.84 47.56 49.46 48.92 47.49 45.19 44.51 40.58 37.51 40.75 43.17 43.74 44.20 44.39 43.18 43.14 44.16
60.64 61.08 61.70 61.59 62.07 62.75 63.08 62.99 62.11 59.67 60.75 60.86 60.34 59.39 59.61 58.42 57.88 57.97 57.61 57.22 57.07 56.43 54.24 52.64 51.90 52.04 49.23 47.90 47.29 46.68 46.69 44.19 41.72 41.18 39.33 39.79 39.27 41.41 43.31 43.37 42.50 41.72 42.11

GFSSE_sfc_wetblb_045.txt.gz
Wetbulb
64.02 70.94 71.84 72.51 72.33 72.09 71.86 71.21 70.98 70.76 70.98 70.97 70.70 70.56 71.05 71.63 71.51 71.71 70.63 70.04 70.13 69.79 68.51 67.83 67.28 67.45 67.74 67.39 67.27 68.31 68.31 67.97 67.54 67.75 67.60 66.80 66.64 66.89 67.37 67.36 67.87 66.45 68.51
63.27 70.36 70.83 72.00 72.26 72.18 71.82 71.29 70.80 70.63 70.62 70.68 70.34 70.29 71.11 71.26 71.12 71.55 70.93 69.84 69.61 69.36 67.83 66.77 66.59 67.13 67.51 67.27 67.63 68.26 68.11 67.61 67.05 67.27 66.78 66.41 66.56 66.67 66.25 65.90 66.88 65.23 66.92
64.21 65.52 70.40 71.28 71.88 71.81 71.77 71.37 70.87 70.79 70.77 70.31 70.04 70.55 70.87 70.85 70.78 71.06 70.70 69.11 69.27 69.01 67.33 66.34 66.29 66.58 66.42 66.34 67.52 67.58 67.29 66.38 66.38 66.38 66.26 63.45 63.02 66.18 66.56 65.78 66.26 65.55 65.43
63.68 63.70 69.84 70.60 71.37 71.61 71.08 70.79 70.58 70.77 70.26 69.80 70.16 70.48 70.60 70.65 70.63 70.70 70.02 68.94 69.23 68.95 66.85 66.26 66.05 66.52 66.28 66.58 66.96 66.80 66.90 65.85 65.30 64.67 61.14 61.34 63.19 65.99 66.25 66.16 65.87 65.37 65.12
68.92 68.52 69.96 70.05 70.85 71.01 70.64 70.22 70.01 69.97 69.37 69.57 70.03 70.48 70.58 70.82 70.97 70.77 69.94 69.04 69.33 68.85 66.71 66.05 65.87 65.69 65.75 65.75 65.68 65.76 66.30 65.34 64.29 62.04 59.36 59.31 60.63 64.03 65.37 65.10 64.81 65.10 64.85
67.79 68.85 69.18 69.80 70.40 70.62 70.25 70.00 69.55 68.95 68.57 69.16 69.82 70.20 70.89 71.04 71.02 70.49 69.79 69.31 69.35 68.24 66.48 65.94 65.51 64.99 65.35 64.73 64.99 65.16 65.37 64.10 62.32 59.05 58.82 60.89 59.94 63.59 63.66 63.15 64.02 64.12 63.90
66.43 65.90 68.67 68.54 69.30 69.58 69.84 69.66 69.19 68.70 68.88 69.33 69.69 70.20 70.70 71.08 70.76 70.34 69.76 69.19 68.65 68.07 66.36 65.55 64.96 65.16 64.73 64.32 64.54 64.82 64.91 63.37 59.09 58.10 57.44 57.57 59.24 63.10 63.18 62.75 62.96 62.96 62.46
66.83 67.64 68.34 69.17 68.94 68.85 68.99 68.71 68.34 68.76 69.00 68.96 69.17 69.40 69.79 69.87 70.00 70.06 69.68 68.72 68.05 67.43 66.97 66.16 65.50 64.83 64.30 64.00 63.96 63.30 63.95 62.89 59.53 58.01 57.73 57.78 62.68 62.63 62.60 62.18 61.97 61.52 61.14
66.89 66.80 66.58 67.62 68.40 67.90 67.37 67.61 67.73 68.32 68.51 68.62 68.63 68.37 68.20 68.14 68.30 68.91 68.82 68.25 67.69 67.19 66.43 65.82 65.12 64.11 63.22 62.77 62.34 62.10 62.32 62.60 57.67 58.13 58.85 57.64 62.43 62.05 62.09 61.55 61.24 60.94 60.61
65.09 64.62 63.88 65.17 65.96 66.54 66.54 66.32 67.32 67.63 67.65 67.51 67.35 66.88 66.48 66.75 67.45 67.69 67.57 67.19 66.96 66.43 65.85 65.17 64.32 63.18 62.07 61.10 60.73 60.97 61.43 61.39 57.06 57.46 57.83 59.64 62.17 61.82 61.72 61.19 60.82 60.57 60.14
62.74 63.01 63.20 62.62 63.83 64.47 64.23 66.63 67.51 67.71 66.88 66.36 66.06 65.56 63.16 62.20 62.76 64.49 65.88 66.33 66.22 65.37 65.17 64.34 63.39 62.33 61.14 60.42 60.24 60.75 58.55 56.52 57.80 58.20 58.34 62.96 62.20 61.83 61.28 60.73 60.31 60.17 59.65
60.80 61.67 62.44 61.42 61.64 62.68 64.37 65.11 65.74 65.66 64.35 63.59 62.63 60.49 60.53 61.64 62.49 63.47 64.63 65.07 65.00 64.36 64.19 63.72 62.58 61.65 58.99 54.09 54.03 56.98 52.58 56.35 57.88 58.23 59.13 63.04 62.21 61.69 61.12 60.45 60.01 59.89 59.43
59.15 60.25 62.08 61.72 62.05 62.57 63.16 62.26 63.86 63.62 63.28 61.60 61.20 61.22 61.82 62.08 61.67 61.09 60.94 61.04 61.27 62.10 60.03 60.38 59.18 56.60 56.20 54.54 53.06 51.70 50.32 51.26 53.61 56.49 60.64 63.05 62.35 61.44 61.36 60.47 59.91 59.65 59.09
56.50 57.38 59.92 60.14 61.08 61.42 62.02 61.96 62.00 61.47 60.89 60.83 61.74 61.54 61.07 59.58 59.41 59.62 59.09 57.96 57.04 57.37 55.39 55.52 55.89 55.71 53.55 53.96 53.18 50.98 49.51 48.46 51.49 53.81 58.09 61.15 62.38 61.76 61.27 60.92 60.14 59.72 58.59
54.38 55.28 56.74 58.03 58.41 59.10 59.32 60.46 60.82 60.87 60.96 61.73 61.43 61.39 61.10 59.54 58.49 58.91 59.13 58.30 58.09 57.56 55.00 56.21 55.24 54.76 53.34 52.45 50.73 49.18 48.89 48.41 50.23 50.29 51.84 59.13 59.97 60.64 61.43 61.17 60.66 59.52 59.17
54.14 54.45 55.45 55.94 56.61 57.32 57.37 57.93 57.76 58.20 58.54 60.51 60.51 60.67 61.47 61.43 59.75 59.43 59.60 58.59 57.68 58.19 57.72 55.96 55.47 54.24 53.12 51.29 48.87 48.66 48.33 48.73 48.37 50.15 50.13 53.00 58.26 59.52 60.66 60.85 60.57 59.08 59.27
54.30 54.68 54.69 54.97 55.70 55.21 55.64 56.83 56.80 57.10 57.05 54.59 56.32 58.89 60.16 60.90 61.04 60.67 60.67 59.79 59.07 57.73 57.68 56.03 54.86 52.63 50.37 50.35 48.19 48.00 48.62 48.22 48.07 47.97 50.18 52.42 54.23 58.00 59.56 61.60 60.10 58.68 58.53
53.91 53.93 54.91 56.13 55.50 55.31 55.07 55.99 56.58 56.68 56.42 55.06 54.53 59.55 60.05 60.85 61.65 61.00 59.40 58.72 59.21 56.98 55.86 54.56 52.57 51.25 50.02 48.54 46.95 45.91 46.91 47.37 47.10 47.57 49.99 51.76 51.84 52.14 56.26 59.51 59.40 58.33 57.26
53.46 54.94 54.22 54.81 55.00 54.52 55.07 55.37 54.92 55.00 55.34 55.59 54.70 56.21 60.82 60.53 62.53 60.50 60.10 59.51 57.83 56.71 55.89 55.39 53.24 51.26 48.28 47.04 47.15 46.86 46.43 46.46 46.40 48.53 47.92 47.81 49.96 50.05 50.37 55.75 55.45 55.27 54.68
53.36 54.65 54.24 54.32 54.61 54.00 53.99 53.77 54.09 54.00 54.75 54.36 56.47 57.70 61.39 61.23 61.52 61.26 60.39 59.44 57.58 56.48 55.54 53.67 51.65 49.35 48.12 47.34 50.65 48.03 46.01 46.32 45.32 44.71 45.93 48.24 47.13 50.11 48.74 49.17 49.23 49.98 54.08
52.61 53.19 52.92 52.51 53.20 52.72 52.86 51.66 51.88 52.61 54.69 57.28 57.94 61.30 58.98 58.83 61.50 61.04 59.97 58.20 57.18 56.15 54.43 53.00 50.63 47.96 46.03 47.19 45.93 46.32 46.22 45.60 44.75 44.56 44.72 44.31 45.06 45.13 46.83 46.94 45.78 44.69 47.80
52.27 52.75 52.53 52.09 52.38 52.87 54.02 54.29 54.69 55.33 57.62 58.13 60.29 60.30 60.35 60.37 60.99 60.49 58.89 57.38 56.56 55.91 53.86 52.19 49.75 47.51 46.78 47.46 45.55 44.79 42.58 43.13 44.24 44.46 43.57 44.04 42.69 43.73 44.01 44.34 43.44 43.74 42.93
51.79 52.32 52.50 52.81 53.06 53.34 54.72 56.90 57.34 56.41 54.80 56.03 58.07 59.53 60.40 61.93 61.54 60.78 59.36 58.03 57.14 55.63 53.44 51.30 50.72 48.69 45.79 47.04 46.85 45.11 40.62 39.12 40.76 42.84 43.13 42.72 41.88 42.01 42.26 43.27 43.61 42.95 42.04
53.82 53.63 54.14 54.03 54.30 55.05 57.79 58.12 56.39 55.82 54.71 55.57 57.07 60.05 60.91 61.50 60.98 60.30 59.09 57.76 57.68 57.37 54.08 52.47 52.65 50.91 50.64 48.68 47.72 48.31 45.92 43.14 39.19 37.62 41.56 42.47 42.17 42.42 41.57 41.70 42.16 42.50 42.15
55.15 54.75 55.60 56.44 56.28 57.97 58.74 58.95 58.17 55.86 55.96 56.41 57.26 58.96 59.60 59.80 59.71 59.41 58.31 56.99 56.04 55.19 54.03 53.44 52.47 51.76 51.15 49.34 47.95 47.12 46.60 45.03 42.62 41.20 36.68 39.36 41.50 42.04 42.09 42.00 41.66 41.42 42.16
55.36 55.13 55.50 56.19 57.34 58.71 59.16 59.38 59.21 56.97 55.98 57.12 57.47 58.38 57.61 58.72 57.36 58.78 57.44 55.73 55.22 54.95 53.93 53.45 51.93 51.08 50.29 49.89 47.86 46.72 45.91 44.20 43.80 41.69 37.77 38.12 37.76 39.58 41.36 41.78 41.52 40.62 40.99

GFSSE_sfc_wetblb_048.txt.gz
Wetbulb
67.00 71.09 71.66 72.38 72.19 71.95 71.21 71.02 70.85 70.53 70.66 70.84 71.55 71.82 72.07 71.24 70.60 70.45 70.26 70.01 69.61 69.17 68.29 68.28 68.92 68.17 67.82 67.59 67.01 67.41 67.77 67.79 67.62 67.84 67.50 66.55 67.24 67.65 67.36 67.12 67.55 66.11 68.04
66.74 70.61 71.04 71.95 72.06 71.57 71.47 71.05 70.66 70.48 70.57 71.09 71.55 71.69 71.71 70.89 70.40 70.23 69.87 69.47 68.95 68.69 68.01 68.27 68.18 68.03 68.03 67.47 68.28 68.03 67.99 67.64 67.04 66.68 66.61 66.57 66.26 66.17 66.22 65.91 66.80 66.25 67.80
67.66 70.01 68.78 70.15 71.09 71.59 71.41 70.96 70.68 70.64 70.62 71.22 71.22 71.46 71.63 71.06 70.23 69.74 69.33 68.76 68.16 68.51 68.05 67.86 67.64 67.38 67.30 67.09 67.44 67.13 66.94 66.80 66.70 66.59 65.46 61.82 62.79 66.06 66.02 65.16 65.41 65.36 65.67
63.71 68.02 69.53 69.70 69.63 71.27 70.82 70.59 70.36 70.45 70.50 71.02 70.90 71.15 71.43 71.03 69.84 69.60 69.01 68.23 68.12 68.19 67.66 67.59 67.54 66.62 65.97 66.41 66.68 67.23 66.36 65.67 65.10 63.48 60.46 61.29 62.99 65.72 65.46 65.04 64.99 64.51 64.40
63.04 65.00 66.31 65.49 67.82 70.29 70.61 70.36 69.87 69.39 69.87 70.42 70.46 71.08 71.29 70.79 70.06 69.62 68.72 68.23 68.24 68.13 67.22 67.42 66.38 65.19 65.29 65.89 66.29 65.91 65.71 64.95 63.97 60.84 57.75 58.88 60.27 63.09 64.44 65.28 64.70 64.49 63.80
65.12 64.31 65.47 65.76 67.85 70.26 70.53 70.06 69.34 69.05 69.18 69.48 69.87 70.56 71.07 70.79 69.99 69.40 68.50 68.25 68.34 67.61 66.13 65.54 64.72 64.83 65.11 65.80 66.05 65.57 64.51 63.56 61.33 56.85 57.41 60.69 59.33 63.19 64.17 64.13 63.74 63.27 62.59
65.45 65.68 65.27 66.79 67.44 69.20 70.19 69.66 68.98 69.05 69.18 69.35 69.83 70.11 70.36 70.60 69.81 69.24 68.49 67.92 67.60 67.03 65.49 64.58 64.30 65.37 64.90 65.57 65.29 64.25 63.49 62.54 57.67 55.85 56.17 57.16 59.24 63.01 63.44 62.71 61.82 61.54 60.91
64.97 66.83 67.95 68.38 68.36 68.61 68.93 68.55 68.50 68.76 69.01 69.47 69.66 69.83 70.19 69.89 69.36 68.84 68.33 67.80 67.45 66.97 66.17 65.29 64.95 64.65 64.54 64.48 64.67 63.34 62.64 61.70 58.22 56.95 57.05 57.56 62.44 62.64 62.64 61.87 61.33 60.86 60.65
66.67 66.71 67.03 66.12 67.51 65.54 64.93 65.87 67.90 68.42 68.75 69.06 69.24 69.49 69.46 69.16 68.83 68.48 68.13 67.69 67.13 66.44 65.55 64.90 64.40 63.87 63.97 63.35 63.35 63.44 61.86 61.29 56.12 56.88 57.92 56.88 62.60 62.33 62.15 61.61 61.14 60.55 60.06
64.16 65.40 64.25 65.35 66.06 63.76 61.89 63.44 66.34 67.75 67.64 67.61 67.85 67.70 67.76 68.18 68.37 67.89 67.23 66.93 66.62 65.87 65.12 64.27 63.74 63.47 63.06 62.39 63.34 62.38 61.76 60.58 55.39 55.97 56.70 59.10 62.05 61.94 61.64 61.19 60.82 60.07 59.48
62.65 62.84 63.57 64.07 63.54 63.31 62.80 63.66 65.00 67.05 66.92 66.49 66.27 65.69 64.83 65.34 65.58 64.70 65.72 65.98 65.73 64.75 64.35 63.42 62.96 61.77 60.00 61.14 61.38 61.41 59.74 55.60 55.99 56.49 57.10 62.83 62.15 61.88 61.37 60.79 60.12 59.79 59.30
60.73 60.87 62.28 61.55 61.48 61.09 61.67 61.43 64.48 65.57 64.24 63.42 61.62 60.55 61.97 62.68 63.60 64.29 64.70 64.85 64.44 64.00 63.36 62.57 61.73 60.58 57.88 52.24 52.52 58.10 55.67 56.91 57.41 57.44 58.42 62.88 62.06 61.67 60.88 60.40 59.95 59.53 59.06
60.50 60.98 61.04 61.63 60.90 59.94 59.38 60.42 63.35 63.22 61.93 60.60 59.90 61.13 61.78 62.23 61.78 61.76 61.65 61.68 61.61 62.35 60.22 59.24 56.68 55.84 55.39 52.62 50.86 51.05 53.31 55.29 56.09 57.74 60.37 62.58 62.13 61.20 60.84 60.49 59.97 59.38 58.55
58.18 60.80 60.88 60.98 61.19 60.24 59.12 59.73 63.13 61.94 60.67 60.61 60.30 61.07 59.82 58.96 58.92 58.95 58.28 58.56 57.82 57.03 55.63 54.88 54.83 54.32 52.79 51.98 50.04 48.61 50.81 52.37 54.33 55.81 59.15 62.15 62.49 61.42 61.12 60.47 60.46 59.59 58.34
55.71 59.24 60.48 60.76 61.26 61.48 59.97 61.81 61.67 60.76 60.64 61.14 60.70 59.84 59.18 58.13 57.38 57.04 55.93 56.05 56.15 55.27 53.87 55.30 54.25 52.73 51.31 49.76 48.70 48.83 48.07 50.54 51.48 52.44 54.04 60.36 61.47 62.16 61.19 61.21 60.51 60.24 58.85
54.78 55.85 57.87 59.74 60.81 60.40 59.94 60.03 60.26 60.21 61.30 61.24 60.78 60.09 58.85 57.98 57.80 57.45 56.35 56.18 56.38 55.83 54.81 55.14 53.72 52.08 50.75 48.53 47.83 47.62 47.84 48.64 49.43 49.28 50.39 52.70 58.45 60.28 61.81 61.10 60.77 60.57 59.44
54.50 55.29 55.73 56.61 57.08 57.83 57.82 57.65 57.61 58.22 56.88 59.86 59.88 60.23 59.35 59.11 58.29 58.57 57.94 56.93 56.44 57.03 56.17 54.33 53.92 52.42 50.89 49.01 47.28 47.02 47.17 47.17 48.28 48.94 49.00 52.04 53.78 57.93 58.61 61.81 60.76 59.35 59.48
54.41 55.02 56.37 56.72 55.89 56.58 56.64 56.88 56.54 56.21 55.56 54.41 55.72 58.17 58.79 59.85 60.60 59.10 58.44 57.91 58.09 56.70 56.21 54.56 52.85 49.84 48.51 46.57 45.38 44.71 46.17 45.88 45.97 47.63 49.91 51.13 51.42 52.99 57.96 60.33 60.66 59.62 58.99
54.33 54.73 55.37 55.81 55.32 55.75 55.94 55.63 55.37 54.98 55.06 54.84 54.22 55.09 59.50 59.70 60.94 60.08 58.87 58.35 57.41 56.25 54.84 54.09 51.77 50.73 47.90 46.18 45.97 44.87 44.71 45.14 45.56 47.99 48.99 50.31 49.89 50.08 51.85 57.83 57.95 57.96 58.40
54.31 54.50 55.31 55.56 54.80 55.18 55.03 54.62 53.93 54.30 54.75 54.69 54.42 55.03 56.64 58.47 59.71 59.57 59.05 58.66 56.70 55.21 54.26 53.05 51.59 49.56 47.47 46.16 48.61 47.07 43.76 44.28 44.17 44.62 46.78 48.29 48.82 49.25 49.58 50.18 50.57 51.16 55.45
52.98 53.87 54.23 54.33 53.74 54.19 53.76 52.85 52.70 52.77 54.15 54.47 54.03 55.39 57.05 58.72 60.52 59.41 58.86 58.31 56.39 55.25 54.93 53.44 49.84 47.30 45.40 46.31 45.46 45.26 45.45 44.75 43.52 43.09 43.97 43.88 46.33 48.55 47.83 47.82 46.90 46.35 49.83
51.86 52.87 52.54 52.72 52.39 53.29 53.47 53.40 53.70 53.14 53.51 53.74 54.24 55.51 58.05 57.68 58.46 60.33 59.25 58.11 56.27 54.92 53.35 51.87 49.52 46.37 45.75 46.15 44.28 44.03 42.59 43.63 43.73 43.63 42.55 43.26 42.26 44.96 46.68 46.97 45.96 45.30 44.58
51.23 51.77 52.08 52.24 51.74 51.94 52.60 51.92 51.88 51.59 52.38 52.61 54.00 55.54 57.92 58.00 57.92 59.69 59.42 58.05 56.36 55.61 54.21 53.08 49.48 48.36 47.49 48.37 47.74 45.93 41.28 41.23 40.31 41.92 42.61 42.21 41.78 40.76 41.47 43.32 43.99 43.58 42.96
51.29 52.39 52.25 52.09 51.96 52.42 53.17 52.00 51.61 51.55 51.02 53.45 54.30 56.48 57.88 58.88 59.50 59.88 59.52 57.98 56.81 56.07 54.15 53.61 51.54 48.94 48.35 47.64 48.10 48.55 46.83 43.89 40.68 38.39 41.54 41.97 41.54 41.00 40.54 40.58 41.55 41.47 42.20
51.54 51.38 52.15 52.32 52.21 52.81 53.12 53.56 53.62 54.42 55.90 54.52 54.27 55.55 58.09 58.45 59.16 59.44 58.90 57.22 56.71 57.68 55.26 52.32 50.63 50.45 50.58 50.07 48.69 47.55 46.62 44.92 44.04 40.91 38.44 39.07 40.58 41.59 41.08 40.90 40.56 40.65 41.02
52.09 51.42 51.47 51.70 52.15 52.85 53.03 53.88 55.30 55.75 55.11 53.49 54.17 55.51 56.76 58.78 59.14 58.83 58.34 58.08 57.52 57.20 55.18 52.66 51.82 50.66 50.96 48.88 48.67 47.59 47.16 45.64 43.48 40.96 39.46 39.61 40.14 39.94 41.80 41.09 40.63 40.44 40.52

GFSSE_sfc_wetblb_051.txt.gz
Wetbulb
69.31 70.93 71.69 72.03 71.67 71.38 70.88 70.68 70.70 70.62 71.08 71.48 71.45 71.21 71.26 70.99 70.62 70.13 69.50 69.02 69.26 69.86 68.80 68.34 67.88 67.25 67.14 67.43 67.48 67.21 67.31 67.79 67.28 67.24 67.47 67.60 67.59 67.20 67.70 67.85 67.65 65.83 68.01
69.57 70.65 70.86 71.44 71.38 71.23 70.91 70.72 70.54 70.65 71.40 71.65 71.28 70.99 70.89 70.54 70.28 69.74 69.08 69.15 69.49 69.61 68.65 68.50 68.21 67.95 67.51 67.31 66.80 66.46 66.32 66.90 66.90 67.02 66.87 66.12 66.24 66.26 66.53 66.82 67.21 65.94 67.29
69.21 70.48 70.50 70.98 71.04 70.96 70.90 70.81 70.57 71.00 71.50 71.67 71.08 70.79 70.66 70.40 69.74 69.16 68.57 68.81 69.61 69.58 68.52 68.53 68.42 68.29 67.96 67.67 67.02 66.99 66.38 66.22 66.28 65.96 65.33 62.87 62.32 65.43 65.28 65.19 65.43 64.45 64.78
68.87 68.09 68.72 70.52 70.75 70.79 70.66 70.51 70.33 71.10 71.33 71.64 70.96 70.55 70.20 69.91 69.40 68.50 68.15 68.64 69.22 69.33 68.05 67.76 67.40 66.73 66.73 66.93 67.22 66.21 65.29 64.82 64.36 63.25 59.77 61.77 62.38 65.91 65.48 64.93 63.84 63.90 63.88
64.17 67.86 67.23 68.95 69.64 69.37 70.19 70.23 69.89 70.53 70.55 71.04 70.63 70.30 70.08 69.62 69.18 68.50 67.76 68.30 68.98 69.04 67.45 66.91 65.63 65.68 66.65 66.52 66.00 65.59 64.62 64.09 63.08 60.18 57.47 58.20 60.38 63.72 65.28 64.40 63.64 62.79 62.43
63.19 65.52 67.80 68.57 69.48 69.20 69.01 69.68 69.68 69.96 69.74 70.30 70.29 69.88 69.84 69.55 69.06 68.45 67.50 68.30 69.12 68.14 66.43 65.38 65.47 65.71 66.49 65.80 65.28 64.64 63.56 62.79 60.75 56.27 57.05 60.15 59.19 63.90 63.57 63.26 61.99 61.47 61.42
62.88 63.13 65.95 66.42 68.35 68.58 68.34 68.18 68.73 69.56 69.43 69.72 69.84 69.22 69.36 69.30 68.86 68.01 67.36 67.57 67.48 66.87 65.25 64.76 66.00 67.08 66.22 65.09 64.62 63.53 62.82 61.41 56.30 55.38 55.98 56.84 59.41 63.03 62.63 61.89 61.19 61.03 60.88
65.43 63.93 64.48 66.57 66.71 67.79 68.02 67.21 67.82 68.93 68.90 68.71 69.18 68.96 69.20 68.67 68.18 67.87 67.48 67.23 66.60 65.82 65.33 65.14 65.58 66.02 65.30 64.66 63.97 63.08 62.45 61.47 57.38 56.15 56.63 57.45 62.36 62.59 62.27 61.64 60.91 60.60 60.48
65.30 66.57 65.26 65.46 64.55 65.10 65.96 65.35 65.34 68.27 68.32 67.93 68.57 68.55 68.40 67.99 67.58 67.59 67.16 66.35 65.46 65.03 64.49 64.33 64.29 64.65 65.11 64.09 63.47 62.48 61.74 60.44 55.21 55.85 57.44 56.96 62.34 62.17 62.06 61.28 60.65 60.06 59.71
65.25 65.68 65.17 62.96 61.68 62.62 62.13 62.13 64.39 67.16 67.55 67.72 68.41 68.26 67.56 67.41 67.20 66.69 66.05 65.54 65.20 64.93 64.64 63.89 63.55 64.02 64.32 64.06 62.64 62.05 61.53 59.78 54.94 55.37 56.35 58.89 62.15 62.00 61.63 60.93 60.25 59.51 59.11
62.85 64.40 64.69 61.09 60.16 59.89 60.62 61.94 62.51 67.26 67.56 67.16 67.74 67.51 66.04 65.61 64.62 63.23 64.81 64.96 64.65 63.84 63.58 63.08 62.09 62.08 63.68 63.00 62.61 61.79 59.03 55.16 55.33 55.74 56.69 62.53 62.01 61.74 61.16 60.35 59.81 59.23 58.69
60.42 62.81 63.30 61.67 60.05 58.53 59.33 58.61 57.64 60.09 64.82 65.31 65.84 64.19 64.17 63.00 62.33 63.18 63.74 63.89 63.42 62.93 62.94 62.54 61.32 59.45 56.38 54.94 59.14 59.20 55.58 56.06 56.08 56.38 57.95 62.49 62.03 61.41 60.85 60.56 60.03 59.45 58.05
60.38 60.74 61.52 61.09 61.24 60.08 58.00 56.28 57.38 60.27 62.34 60.56 61.20 62.66 62.59 62.84 62.37 61.05 61.08 60.94 60.44 60.64 56.95 55.70 55.36 53.84 51.90 52.53 53.48 54.48 56.53 56.46 56.45 57.36 60.17 62.39 61.73 61.40 61.28 60.92 60.12 59.41 58.36
59.82 60.32 60.27 60.18 59.04 58.94 58.78 58.91 59.50 60.27 60.84 59.77 60.83 61.44 61.60 60.41 59.07 58.21 58.88 58.62 57.31 56.46 54.09 53.78 52.78 51.50 50.69 50.00 51.22 52.94 54.44 54.72 55.63 56.55 58.89 61.73 62.18 61.40 61.66 61.27 60.83 59.57 58.27
57.87 59.80 60.33 59.68 59.07 57.21 57.41 58.12 59.66 61.21 59.82 59.53 60.62 59.61 59.35 58.11 57.56 57.09 56.93 55.94 54.90 53.44 53.25 53.33 51.09 50.29 48.67 47.99 47.87 50.30 51.57 53.41 54.25 54.78 55.65 61.14 61.35 62.02 61.09 61.84 61.30 60.06 59.11
56.03 58.86 60.05 60.40 59.53 57.75 56.99 58.32 61.57 60.03 60.10 59.74 59.52 58.37 57.23 57.12 56.69 56.35 55.06 54.06 53.68 52.72 53.82 53.42 51.22 49.15 47.40 46.57 46.41 47.59 49.49 49.69 49.91 50.87 52.50 54.07 59.35 61.30 61.72 61.26 61.18 60.85 59.29
54.99 56.07 59.05 60.27 61.02 59.41 59.59 60.87 60.45 60.09 60.30 59.80 59.03 58.48 56.88 56.72 56.07 55.74 54.10 54.19 54.30 53.37 54.22 52.88 51.40 50.12 46.88 46.33 45.59 45.93 47.00 47.63 47.80 48.11 49.24 50.58 53.51 57.82 59.54 61.66 61.23 60.71 59.76
54.86 55.49 56.55 59.62 58.81 58.40 58.18 58.02 58.19 57.03 59.76 60.10 59.48 58.54 58.20 57.84 57.68 56.14 55.39 55.27 55.81 55.22 54.33 52.97 51.16 49.25 46.84 44.87 43.71 44.26 45.34 45.59 47.03 47.74 48.46 50.30 50.91 52.97 56.86 59.08 61.44 60.68 60.07
54.90 55.71 55.41 57.05 57.52 57.08 56.21 55.85 55.24 54.99 55.99 57.34 58.52 58.63 58.75 59.26 59.73 57.66 57.49 56.88 56.27 55.11 54.15 53.12 50.13 48.83 46.49 44.74 44.44 43.22 43.91 43.76 43.94 48.27 48.77 49.39 49.42 50.79 53.07 58.58 59.66 59.46 59.89
54.66 55.51 55.57 55.85 56.61 56.36 55.45 54.94 55.06 54.98 53.95 54.15 53.88 57.05 59.09 59.18 60.23 58.75 57.99 56.92 55.97 54.31 53.33 51.75 49.97 48.65 47.22 46.14 47.13 45.23 42.75 43.29 42.95 43.82 47.29 49.73 48.97 49.40 51.25 52.78 53.75 53.93 57.58
54.09 54.15 55.59 54.99 55.08 55.63 55.01 54.47 53.97 53.97 53.92 53.95 54.20 55.78 56.45 57.28 59.36 58.76 57.92 57.42 55.42 54.44 53.64 52.79 49.51 47.73 45.62 45.15 44.63 44.21 44.06 43.62 43.25 42.74 44.01 45.82 46.88 48.25 48.67 49.58 48.74 47.96 50.94
53.11 53.47 54.43 54.60 54.70 55.13 55.64 56.10 55.45 54.78 54.16 54.28 54.23 54.63 55.80 57.17 57.21 58.08 57.66 57.22 56.11 53.90 53.12 51.85 49.20 46.00 45.47 45.79 44.07 43.56 42.20 44.09 43.45 42.92 41.79 43.57 43.07 46.51 47.46 47.63 47.06 46.53 46.69
51.47 51.25 53.14 53.20 53.35 53.61 54.32 54.98 53.35 53.23 52.70 51.26 52.74 52.70 54.39 56.61 56.42 57.85 58.35 57.42 56.15 54.58 53.65 52.36 49.91 47.87 45.86 46.71 46.34 45.15 41.90 40.93 42.46 43.37 43.53 43.46 42.21 41.48 44.52 45.71 46.13 45.86 44.66
50.38 51.84 51.88 52.03 51.79 51.69 52.72 51.79 50.80 51.45 50.76 51.89 51.72 51.95 52.97 55.39 56.59 56.35 57.58 57.80 56.43 55.57 54.13 53.53 52.91 49.92 49.46 45.12 45.93 47.04 46.77 45.18 41.65 39.71 42.75 43.99 42.78 40.95 40.72 42.77 43.95 44.16 43.52
50.76 51.12 51.50 51.86 51.94 51.63 51.48 50.95 49.28 49.43 49.78 50.66 51.24 51.66 52.96 55.38 56.89 57.94 57.86 57.40 57.04 56.11 55.22 53.97 52.08 50.65 50.82 49.43 48.11 45.47 46.17 44.41 44.62 42.40 40.81 42.28 42.03 41.34 42.72 43.03 41.58 40.37 41.67
49.82 50.41 50.96 51.08 51.29 51.65 51.64 51.56 50.73 50.38 51.26 51.49 52.22 52.77 53.87 55.23 56.64 57.25 57.77 56.90 56.41 56.33 55.75 55.04 53.79 52.20 50.59 49.82 49.55 48.47 47.31 45.96 42.09 42.15 40.54 41.06 40.54 42.14 43.08 43.52 41.99 42.13 40.95

GFSSE_sfc_wetblb_054.txt.gz
Wetbulb
67.10 66.12 70.49 71.30 71.48 70.68 70.91 70.44 70.82 71.20 71.65 71.91 71.82 71.70 71.70 71.55 71.04 70.16 69.86 69.71 69.60 70.03 68.85 68.55 68.23 68.17 68.26 67.99 67.25 66.89 67.12 67.69 67.64 68.25 68.15 68.00 68.38 68.64 68.20 67.75 67.39 66.20 68.32
69.37 70.40 70.60 70.88 71.34 71.02 71.03 70.90 70.86 71.07 71.57 71.72 71.48 71.42 71.18 70.81 70.13 69.71 69.67 69.69 69.58 69.48 68.05 67.62 67.23 67.20 67.27 67.11 66.80 67.13 67.39 67.01 66.80 66.97 67.13 66.61 67.44 67.03 66.87 66.44 66.74 65.81 66.98
69.02 70.13 70.13 70.38 70.84 70.86 70.99 71.03 71.17 71.47 71.35 71.55 71.27 70.91 70.78 70.35 69.74 69.69 69.64 69.52 69.73 69.69 68.58 68.11 68.03 67.95 67.36 66.73 66.97 67.04 66.32 66.65 66.48 66.05 65.41 61.89 62.57 65.38 64.87 64.69 65.11 65.17 65.33
69.33 69.46 69.26 70.14 70.47 70.57 70.73 70.90 70.99 71.69 71.32 71.20 71.15 70.66 70.47 69.91 69.77 69.84 69.40 68.98 69.42 69.65 68.66 68.59 68.47 67.57 66.94 66.71 66.80 66.34 65.39 64.79 64.10 62.86 61.44 62.28 63.13 64.94 64.89 64.38 64.31 63.60 62.92
68.37 67.41 68.45 69.56 69.99 70.22 70.33 70.58 70.86 71.03 70.43 70.40 70.43 70.44 70.11 69.77 69.79 69.76 69.01 69.01 69.35 68.89 68.04 68.06 67.86 67.36 66.41 66.23 65.83 65.47 64.73 63.97 62.95 60.26 58.55 61.13 61.73 63.37 63.83 62.62 62.71 62.74 63.01
64.27 66.63 67.41 68.71 69.40 70.21 70.25 70.52 70.58 70.76 69.77 69.66 69.74 69.97 69.64 69.30 69.59 69.32 68.62 68.79 68.95 67.87 67.05 67.47 67.64 66.40 66.04 65.36 65.20 64.74 63.87 62.63 60.61 57.13 58.07 62.14 61.27 63.45 62.75 62.43 61.99 61.82 61.54
63.70 65.50 67.01 68.24 68.85 69.59 70.11 70.27 70.14 70.21 69.69 69.33 69.29 69.07 68.96 68.84 68.96 68.69 68.37 68.18 67.59 66.88 66.35 66.46 66.53 66.22 65.55 64.76 64.22 63.56 62.80 61.26 56.59 56.04 56.85 57.95 59.56 62.68 62.71 61.99 61.47 60.86 60.81
63.28 63.42 65.86 68.07 68.44 67.87 68.17 68.33 68.49 69.00 69.31 68.83 68.84 68.67 68.49 68.15 68.01 68.32 67.74 66.87 66.39 66.79 67.43 67.25 66.50 65.38 65.02 64.31 63.39 63.12 62.47 61.17 57.50 56.62 57.43 58.95 62.29 62.62 62.20 61.47 60.77 60.35 60.37
64.20 63.43 63.51 64.55 65.67 66.27 65.58 64.99 66.56 67.56 68.38 68.41 68.17 68.10 68.02 67.55 67.04 67.13 66.75 66.14 65.86 66.18 66.94 66.43 65.56 64.74 64.62 63.68 63.18 62.43 61.58 60.22 55.59 56.66 57.92 58.24 62.50 62.22 61.99 61.30 60.63 60.09 59.55
64.96 64.51 63.75 63.27 63.53 62.27 62.77 64.32 64.66 66.83 67.35 67.67 67.89 67.85 67.33 67.10 66.84 65.82 64.96 65.10 65.06 64.98 65.64 65.83 65.01 64.65 64.08 63.44 62.64 62.08 61.47 59.77 55.41 56.19 57.23 60.02 61.82 62.07 61.68 60.84 60.23 59.69 59.04
63.26 60.53 60.97 60.82 60.77 60.39 60.56 61.78 63.50 65.30 65.67 66.89 67.61 67.27 65.47 64.36 63.11 62.06 63.45 64.27 63.84 63.32 63.98 64.77 64.84 64.34 63.16 62.86 62.56 61.65 59.06 55.47 55.79 56.54 57.60 62.40 62.22 62.14 61.35 60.44 59.88 59.34 58.76
61.15 59.89 60.32 59.55 58.88 58.84 60.13 61.00 60.28 59.96 63.98 65.58 66.51 65.49 64.63 62.47 61.15 62.02 63.11 63.09 62.69 62.61 62.63 63.39 64.25 63.59 61.17 59.08 59.81 58.91 55.70 55.95 56.41 57.03 58.27 62.45 62.32 61.79 61.00 60.46 59.42 58.58 58.05
60.70 60.71 59.99 58.93 58.48 58.16 58.47 58.48 59.03 57.76 61.34 64.09 64.70 64.28 62.42 61.70 62.15 60.37 59.96 59.79 59.00 59.68 56.17 56.40 55.08 54.85 54.99 54.99 55.22 55.52 56.05 56.33 56.49 57.57 60.63 62.16 61.85 61.65 61.12 61.00 59.99 58.69 57.69
59.57 60.05 59.82 58.91 58.61 58.18 57.40 57.80 57.78 58.22 59.57 59.82 62.54 63.04 62.10 60.75 59.36 58.98 57.76 57.14 55.45 53.63 53.21 53.07 51.53 50.90 52.26 53.33 54.63 55.27 55.61 55.87 55.97 57.31 59.92 61.57 62.02 61.68 61.75 61.37 60.75 59.55 57.84
58.87 59.33 59.97 59.48 58.86 56.88 55.79 56.45 57.32 58.24 58.46 60.00 60.61 62.15 61.32 59.04 58.10 57.70 57.16 55.52 54.48 53.71 53.07 50.64 49.59 49.61 49.68 50.66 52.42 54.07 54.62 55.07 55.94 56.70 57.44 60.93 61.41 61.84 61.77 61.80 61.23 60.19 59.01
57.73 59.53 59.39 58.84 58.96 57.15 55.79 56.04 56.53 57.40 57.53 59.62 60.64 59.78 58.85 57.85 57.28 56.93 55.67 54.36 53.05 53.35 52.68 50.70 49.37 47.08 46.23 47.49 48.95 50.97 52.21 53.44 53.70 54.38 55.33 57.41 60.11 61.06 61.65 61.51 61.39 60.64 60.01
56.68 57.57 59.41 59.00 57.78 57.78 57.52 57.18 57.36 58.27 57.86 58.91 59.96 58.61 57.69 56.69 55.99 55.98 54.54 53.89 53.15 52.94 52.60 50.75 49.42 46.83 45.31 46.18 46.52 48.34 49.19 48.75 49.37 50.29 51.77 53.13 55.18 58.52 60.26 61.87 61.50 61.18 59.82
55.25 56.76 57.84 59.94 57.59 57.06 57.08 58.25 59.80 60.16 59.47 59.53 59.01 57.53 56.97 56.86 56.53 55.37 54.10 54.12 53.90 53.57 53.17 51.34 49.87 47.72 45.42 44.99 44.55 45.31 46.30 47.31 47.75 48.01 49.27 50.79 51.80 53.04 56.86 59.96 61.31 61.44 60.31
55.54 56.06 56.46 58.63 58.06 58.21 58.00 57.88 58.54 58.49 59.22 59.15 57.61 57.04 57.29 57.19 57.11 55.92 55.34 54.92 54.98 53.94 53.41 52.31 49.86 49.16 45.88 44.46 44.68 44.13 44.66 45.08 46.01 48.45 48.20 49.83 50.24 51.69 52.65 56.82 59.76 60.15 60.74
54.92 55.76 56.00 57.45 58.52 57.88 56.90 56.20 55.98 55.49 54.63 56.45 57.44 57.38 57.65 58.40 58.06 57.20 56.45 56.08 55.27 54.19 53.01 51.51 49.60 48.56 47.65 45.73 46.44 44.82 43.63 43.94 43.91 44.70 47.53 49.72 49.50 50.60 52.05 54.62 57.06 57.02 58.58
54.03 55.31 55.01 56.22 56.64 56.28 55.70 55.70 55.68 54.70 53.78 53.72 55.56 57.87 58.57 59.31 59.61 57.99 57.85 57.04 56.06 54.38 54.17 51.98 49.86 48.09 46.47 46.05 44.65 44.64 44.54 43.77 43.75 43.26 44.92 47.76 48.72 49.30 50.43 52.36 52.80 52.67 54.40
53.30 54.54 55.21 55.23 56.02 56.64 56.02 56.51 56.92 56.02 55.11 54.91 54.31 55.31 56.74 57.42 58.59 58.82 57.60 56.80 55.21 54.27 53.04 51.26 49.53 46.77 46.80 45.57 44.01 43.49 42.34 44.34 44.47 44.86 43.12 45.16 45.48 47.15 48.26 49.62 50.01 49.83 49.85
52.73 52.81 54.64 54.54 55.48 55.98 56.63 55.80 55.01 55.37 54.38 53.73 53.55 52.61 54.65 56.52 56.81 57.67 57.66 56.72 55.49 54.15 52.77 51.56 49.91 48.13 46.04 45.52 46.20 46.53 41.35 41.28 42.48 43.40 43.18 42.59 43.57 43.89 46.59 48.02 47.92 48.09 47.86
51.99 52.26 53.23 54.02 53.83 54.40 55.85 54.72 54.74 54.13 52.76 53.98 53.18 53.03 53.32 55.76 56.42 56.53 57.47 57.20 56.20 55.17 53.47 52.84 51.91 49.52 48.55 46.92 47.60 47.80 46.67 45.10 42.34 41.82 42.19 44.49 44.09 44.01 43.71 45.28 47.06 47.62 47.33
50.35 50.96 50.28 52.94 53.18 53.09 53.52 53.90 54.53 54.73 54.49 54.16 51.96 51.87 52.62 53.34 55.83 56.48 55.29 55.37 55.81 55.34 54.87 53.92 52.77 50.44 50.98 49.88 48.99 47.41 46.61 45.13 43.69 43.54 42.78 42.79 42.17 43.69 43.63 43.38 44.87 44.93 44.90
49.80 50.63 50.32 50.72 51.41 51.40 50.80 51.00 51.19 51.77 50.72 50.92 50.71 50.63 50.63 51.83 52.92 54.93 55.57 55.33 55.71 55.09 54.45 53.53 52.68 52.01 51.84 51.22 50.95 50.03 46.88 45.78 43.98 43.33 42.66 42.35 41.70 42.97 43.97 44.25 43.10 43.17 43.09

GFSSE_sfc_wetblb_057.txt.gz
Wetbulb
68.76 71.12 70.99 71.25 72.07 72.13 72.28 72.08 71.98 71.89 72.08 72.08 71.79 71.97 72.04 72.07 72.12 71.65 71.51 71.16 71.04 71.02 70.00 69.56 69.28 68.86 68.77 69.07 68.71 68.30 69.02 69.25 69.01 69.18 69.28 68.84 68.68 68.74 68.40 68.71 68.47 67.58 68.86
69.61 70.54 70.15 71.19 71.54 71.92 72.26 72.14 71.81 71.87 72.05 71.89 71.72 71.74 71.64 71.40 71.26 70.92 70.62 70.43 70.29 70.16 69.05 68.89 68.55 67.98 67.48 67.64 67.53 68.03 67.91 67.49 67.33 68.22 68.64 67.73 67.52 67.37 67.36 66.97 67.76 66.59 67.30
68.78 68.18 70.18 70.91 71.04 71.55 71.83 71.93 71.99 72.18 72.09 71.80 71.79 71.61 71.15 70.60 70.48 69.99 69.64 69.42 69.58 69.55 68.37 68.07 67.76 67.57 67.45 66.85 67.58 67.50 67.01 66.44 66.36 66.34 66.89 65.36 64.56 65.89 65.78 65.31 66.13 65.45 65.74
68.73 69.27 70.47 70.51 70.72 71.32 71.38 71.52 71.60 71.99 71.80 71.74 71.59 71.02 70.42 70.47 70.23 69.96 69.35 68.98 69.17 69.12 67.71 67.62 67.34 67.07 66.97 66.89 67.08 66.61 65.69 65.82 65.72 65.72 64.28 63.76 64.68 65.55 65.35 64.24 64.41 64.47 63.99
69.49 69.97 70.11 70.16 70.26 70.84 70.98 71.00 70.99 71.07 71.09 70.89 70.62 70.66 70.40 70.42 70.43 70.06 69.40 69.23 69.09 69.49 68.82 67.65 67.11 66.63 66.44 66.67 66.09 65.68 65.19 65.12 64.78 64.34 64.27 64.05 63.03 63.74 63.96 64.18 63.66 63.45 63.24
67.94 69.53 69.61 69.27 69.80 70.67 70.85 71.18 70.58 70.51 69.93 69.85 70.04 69.98 70.25 70.50 70.20 69.79 69.00 69.25 69.69 69.60 68.28 67.32 66.37 66.31 66.44 65.80 65.30 65.04 64.77 64.09 63.79 63.41 63.13 62.59 62.52 63.47 63.46 62.90 62.13 62.01 61.94
65.15 68.70 69.89 68.14 69.10 70.11 70.65 70.94 70.25 69.84 69.46 69.40 69.21 69.29 69.63 69.95 69.66 69.12 68.73 68.64 68.72 68.96 68.76 67.02 65.71 65.76 65.74 65.14 64.65 63.83 63.08 63.30 63.28 62.54 62.31 62.46 62.50 63.22 63.06 62.24 61.89 61.54 61.31
64.18 65.01 67.88 68.83 69.05 68.84 69.07 70.16 69.29 69.15 69.04 68.98 68.61 68.63 69.28 68.94 68.62 68.51 68.32 67.60 67.60 67.94 67.80 66.84 65.97 65.59 65.06 64.35 63.75 63.23 62.68 62.60 62.29 62.18 62.20 62.29 62.92 62.68 62.47 61.82 61.19 60.72 60.58
65.18 64.41 65.71 66.27 67.81 66.93 66.63 67.59 68.01 68.30 68.38 68.16 67.65 67.76 67.90 67.74 67.76 67.91 67.23 67.18 67.60 67.31 67.13 66.20 65.41 65.08 64.59 63.88 63.31 62.60 61.84 62.44 62.09 61.97 61.65 62.01 62.24 62.28 62.07 61.42 60.86 60.35 59.85
65.84 65.40 65.85 65.08 63.97 63.15 65.76 65.42 66.11 66.94 67.41 67.41 67.27 66.90 66.67 67.07 67.19 66.69 66.06 67.02 67.96 67.48 66.79 65.64 65.04 64.74 64.24 63.43 62.86 62.26 61.60 61.91 61.82 61.82 61.93 62.24 62.41 62.24 61.63 61.05 60.46 59.88 59.32
63.84 64.31 63.30 63.61 61.71 62.55 63.74 62.94 65.05 66.85 66.67 67.06 67.16 66.56 65.74 67.02 66.08 64.43 64.26 65.89 66.70 65.73 65.33 65.04 64.66 63.97 63.32 62.82 62.58 61.71 61.26 61.33 61.64 61.94 61.73 62.33 62.24 62.19 61.59 60.67 60.11 59.48 58.89
60.42 61.78 61.97 61.89 62.17 61.78 62.98 62.21 62.74 63.54 64.85 65.91 67.03 67.19 65.86 65.47 64.63 63.18 63.88 64.03 64.53 65.01 64.78 64.62 63.91 63.28 62.12 61.56 61.39 60.35 60.66 61.37 61.44 61.78 61.78 62.68 62.31 61.80 61.21 60.35 59.67 59.22 58.59
58.93 60.15 61.06 60.43 60.54 61.23 60.94 61.39 60.96 60.48 62.90 64.43 66.85 65.76 64.94 63.87 64.45 63.31 62.65 62.40 63.61 64.18 64.48 63.78 62.69 62.05 61.98 61.22 60.39 60.50 61.15 61.16 61.42 61.53 61.82 62.30 62.29 61.80 61.30 60.18 59.46 58.68 58.12
58.83 60.27 60.37 59.70 59.82 60.90 60.24 59.22 59.00 60.21 62.15 62.50 65.84 64.77 63.31 62.45 61.97 61.98 60.72 60.95 60.59 60.79 61.75 62.71 61.11 60.54 61.00 60.62 60.47 60.58 60.77 60.88 61.25 61.55 61.63 61.71 62.19 61.78 62.24 60.88 59.95 58.68 57.73
59.33 59.44 59.16 59.56 59.46 59.46 58.80 59.34 58.89 60.05 61.16 61.63 64.63 63.82 61.65 60.47 60.69 60.96 60.19 59.59 58.81 59.18 59.74 58.99 59.93 60.11 59.96 60.15 60.37 60.05 60.08 60.78 61.32 61.22 61.60 61.32 61.70 62.34 62.22 62.20 60.95 59.71 58.58
59.56 59.41 59.03 59.33 59.07 58.62 57.84 59.34 59.24 59.56 59.85 61.90 63.00 62.58 61.47 60.57 60.90 59.96 59.46 58.89 58.83 57.88 57.66 58.52 58.51 59.36 59.42 59.35 59.44 59.76 59.85 60.29 61.11 61.51 61.56 61.75 60.67 61.73 62.30 61.98 61.75 60.97 59.89
59.60 59.52 59.20 59.42 58.91 57.13 57.45 57.66 59.62 58.75 59.30 60.31 62.37 62.70 61.69 61.48 60.95 60.74 59.08 58.43 58.84 58.46 57.57 55.86 56.60 57.33 57.12 57.52 57.96 58.26 58.85 59.28 59.67 60.46 60.97 61.24 60.83 59.68 61.06 62.54 62.00 61.28 60.92
57.21 59.12 59.39 59.36 58.18 57.83 57.06 57.57 58.97 58.12 58.27 59.06 60.95 61.99 60.91 61.02 61.29 60.64 58.82 58.68 59.26 58.28 57.22 55.58 54.23 53.47 53.91 54.67 54.93 55.61 56.23 56.28 56.76 57.21 58.66 59.60 60.31 60.32 59.21 60.70 61.81 61.95 60.64
57.66 57.20 59.06 58.44 57.85 58.88 58.90 57.97 60.03 59.81 58.53 58.19 60.03 59.98 60.41 59.69 59.91 60.22 59.62 59.61 59.23 58.67 57.47 56.40 54.77 54.11 52.28 52.36 53.12 54.13 54.16 54.01 54.09 53.87 54.47 55.33 57.02 58.33 59.40 58.87 59.98 60.43 61.04
57.05 57.79 57.44 58.84 57.81 58.30 58.09 58.65 59.74 59.88 59.53 59.21 59.08 60.12 60.92 60.15 60.35 60.63 59.84 59.63 59.07 58.85 57.62 56.83 55.71 55.23 53.52 52.36 49.86 49.87 51.15 51.89 51.87 52.87 53.76 54.31 55.30 56.19 56.35 57.62 60.08 60.42 59.34
56.64 57.10 56.35 57.14 57.40 57.90 56.88 56.94 57.40 57.08 57.81 59.47 60.17 60.75 60.54 60.49 59.95 59.90 60.20 59.47 59.06 58.34 58.28 58.00 56.56 54.94 53.09 52.55 50.97 50.57 50.98 51.34 51.71 52.05 53.12 54.51 54.85 55.19 55.86 56.52 57.79 59.35 59.98
55.40 55.45 56.72 57.06 57.82 57.57 57.50 57.89 58.64 57.38 55.89 59.31 60.69 60.55 60.71 60.87 60.21 60.64 60.19 60.11 59.31 59.03 58.72 58.20 57.13 55.27 55.10 52.73 52.03 51.75 50.69 51.61 51.78 52.17 52.12 51.44 53.94 53.22 53.13 55.27 56.52 58.17 58.73
54.71 56.00 56.06 56.59 56.89 57.96 58.55 58.27 58.08 57.40 55.47 55.29 56.29 58.19 59.70 60.74 61.06 61.00 61.10 60.93 60.14 59.69 59.25 58.88 57.96 56.38 54.30 52.76 53.79 54.69 50.02 50.26 52.00 52.20 51.58 50.88 49.85 51.24 51.32 52.23 54.37 53.43 55.74
55.12 56.52 56.95 56.98 56.52 57.23 57.77 57.43 55.84 55.61 53.60 56.53 55.74 55.49 56.71 58.23 58.70 60.38 59.93 59.82 59.25 59.14 59.06 58.86 58.27 57.24 56.33 54.68 52.48 52.56 53.62 53.46 50.26 49.54 47.31 51.74 51.04 47.65 52.03 51.94 52.99 53.76 52.83
55.20 54.94 56.41 56.25 55.87 56.63 57.21 58.22 56.63 54.87 55.76 56.30 55.34 53.96 55.95 57.12 58.04 58.00 58.15 58.78 60.09 59.92 60.30 59.22 58.06 56.77 56.82 56.18 54.59 53.40 51.97 48.36 49.39 50.60 49.03 47.82 48.56 47.61 52.23 52.36 51.37 51.29 52.56
54.72 54.58 55.18 56.24 54.86 55.49 56.04 56.37 56.34 55.25 54.68 53.66 54.03 53.54 53.34 54.36 56.01 56.60 56.31 56.68 59.01 60.48 60.59 60.59 60.18 58.63 57.52 57.02 56.45 53.37 50.14 47.90 47.75 48.01 48.39 49.91 50.57 50.77 52.28 51.78 51.00 49.61 47.23

GFSSE_sfc_wetblb_060.txt.gz
Wetbulb
71.05 73.22 71.40 72.26 72.87 73.08 72.58 72.17 71.87 72.32 72.22 72.28 72.09 72.21 72.36 72.34 72.28 71.80 71.53 71.33 71.23 71.68 71.00 70.57 70.23 70.28 70.27 70.10 69.49 69.30 69.78 69.67 69.72 69.54 69.69 69.71 69.41 69.46 68.95 69.30 68.99 68.65 69.19
71.93 72.86 71.01 71.83 72.79 73.03 72.31 71.99 72.22 72.13 72.25 72.34 72.04 72.34 72.36 72.28 72.06 71.90 71.60 71.09 70.61 71.06 70.04 69.68 69.50 69.68 69.17 68.52 68.66 68.94 69.18 68.88 68.53 68.69 69.06 68.68 68.64 68.62 68.28 67.91 68.54 67.78 67.88
70.48 72.39 71.34 71.08 72.14 72.62 72.42 72.43 72.34 72.37 72.38 72.04 72.14 72.14 72.19 72.06 71.77 71.31 70.69 70.25 70.34 70.65 69.53 68.60 68.07 68.50 68.35 67.72 67.80 67.70 67.53 67.56 67.93 67.71 68.07 67.30 65.70 66.69 66.63 66.22 66.96 66.51 66.41
71.03 72.03 71.11 70.89 71.50 72.44 72.26 72.07 72.10 72.42 72.16 71.92 72.03 71.91 71.69 71.40 71.16 70.60 69.89 69.42 69.61 69.75 68.55 68.23 67.81 67.50 67.33 67.48 67.28 67.12 67.09 66.69 66.53 67.01 66.05 66.21 65.43 65.62 65.71 65.28 65.16 65.31 64.90
70.70 70.95 70.79 70.15 70.55 71.70 71.96 71.87 71.63 71.62 71.32 71.37 71.29 71.30 71.08 70.82 70.55 70.03 69.13 68.62 69.07 69.01 67.48 67.50 67.74 67.23 66.76 66.81 66.40 66.39 66.02 66.08 66.08 65.70 64.72 64.81 64.47 65.08 65.06 64.31 64.20 64.16 64.16
67.90 70.07 69.81 69.57 70.02 71.14 71.71 71.65 71.41 70.95 70.58 70.58 70.31 70.76 70.94 70.64 70.35 69.64 68.67 68.93 69.46 69.22 67.27 67.03 66.99 66.73 66.38 65.95 65.80 65.49 65.18 65.46 65.29 64.68 63.59 64.43 64.01 64.24 63.70 63.02 62.78 62.71 62.27
67.53 71.56 70.60 68.39 68.88 70.18 71.39 71.42 70.99 70.43 70.06 69.87 69.89 69.92 70.22 70.20 70.10 69.20 68.79 68.76 69.03 68.32 67.64 66.63 66.25 65.99 65.96 65.49 65.22 64.71 64.49 64.73 64.56 63.79 63.91 63.75 63.88 63.31 63.44 62.97 62.27 61.91 61.68
68.51 68.14 69.89 68.77 68.56 69.43 70.24 70.29 69.85 69.61 69.41 69.30 69.44 69.57 69.75 69.58 69.11 69.21 69.07 68.82 68.76 67.81 67.12 66.74 66.31 65.69 65.17 64.78 64.01 63.72 63.83 63.90 63.66 63.68 63.51 63.57 63.52 63.17 63.01 62.20 61.63 61.26 61.02
68.68 67.21 67.69 67.19 66.91 67.18 67.34 68.36 67.63 68.80 68.67 68.63 68.71 68.92 68.80 68.42 68.39 68.54 68.44 68.72 68.47 67.18 66.69 66.29 65.83 65.29 64.53 63.89 63.35 63.17 63.44 64.32 63.87 63.52 62.82 63.10 62.57 62.53 62.54 61.75 61.23 60.69 60.32
67.31 65.90 66.92 66.32 66.46 65.59 65.37 66.17 67.14 67.41 67.75 67.82 68.27 68.08 67.38 67.49 67.71 67.28 67.28 67.94 68.00 66.91 66.34 65.75 65.32 64.86 63.87 63.57 62.98 62.63 62.40 63.28 63.76 63.51 63.24 62.99 62.60 62.53 61.91 61.42 60.74 60.34 59.87
66.60 66.60 67.42 65.62 65.81 64.96 64.87 65.47 67.58 67.71 67.23 67.16 67.79 67.14 66.41 67.89 67.13 66.16 66.23 66.90 67.09 65.57 65.12 65.17 64.70 64.07 63.44 63.16 62.79 62.23 62.23 63.27 63.73 63.37 62.77 62.67 62.42 62.42 61.68 60.88 60.13 59.85 59.50
62.96 63.42 65.43 64.28 64.51 63.93 63.92 63.44 65.05 65.90 66.59 66.93 67.03 68.06 67.60 67.99 66.59 64.65 66.39 66.42 65.93 64.86 64.68 64.69 64.01 63.12 62.57 62.16 62.12 61.77 62.88 63.54 63.56 63.22 62.64 62.59 62.28 62.14 61.59 60.76 59.87 59.50 58.94
63.51 62.57 63.73 64.23 63.51 64.14 63.36 63.55 62.94 64.10 63.57 64.18 64.81 66.51 67.26 66.57 65.16 65.38 67.02 66.83 66.57 64.21 64.00 63.71 62.83 63.17 62.79 61.89 61.66 62.41 63.02 63.24 63.48 63.01 62.53 62.39 62.29 61.95 61.49 60.88 59.85 59.26 58.46
61.72 63.66 62.33 64.78 63.29 63.59 63.64 62.43 62.43 62.01 62.75 62.67 62.57 64.68 65.13 63.61 63.85 64.98 65.53 65.75 65.12 64.67 63.99 63.72 63.61 64.31 63.38 61.68 61.94 62.22 62.61 62.89 63.16 62.95 62.45 62.14 62.57 61.77 61.37 60.76 59.97 59.25 58.34
60.74 60.68 61.42 61.91 62.21 61.87 60.72 60.29 60.66 60.88 62.15 62.18 62.00 63.96 64.34 63.85 62.64 63.06 64.12 64.77 64.92 65.22 64.92 63.98 63.98 63.55 62.55 61.77 61.79 61.72 61.92 62.57 63.00 62.68 62.64 61.60 62.26 62.47 61.94 61.37 60.44 59.76 58.97
61.09 61.31 60.63 60.32 61.37 61.72 60.65 60.33 59.78 60.96 61.70 61.64 61.88 63.66 63.80 62.76 62.53 62.10 62.36 62.14 63.00 64.22 64.64 63.72 62.96 62.31 61.89 61.57 61.24 61.35 61.33 62.10 62.61 63.09 62.48 62.35 61.20 62.19 62.80 62.10 61.33 60.48 60.04
61.33 61.94 60.30 60.21 61.01 61.49 60.43 59.85 60.36 60.47 61.29 60.82 60.86 63.75 63.01 62.44 62.88 62.83 61.24 61.42 61.95 62.83 62.84 62.62 62.37 62.21 61.43 60.93 60.70 61.05 61.13 61.69 61.87 62.25 62.50 62.42 61.59 60.65 61.76 62.58 62.26 61.25 60.66
60.67 60.27 61.36 60.02 59.95 61.52 61.00 59.82 60.23 60.08 60.44 61.20 61.55 62.66 61.93 61.34 61.49 61.50 60.46 61.08 61.31 61.36 61.24 61.11 60.96 60.50 59.93 59.65 59.66 59.74 60.12 60.52 60.74 61.22 61.60 61.80 61.68 61.26 60.54 61.59 62.08 62.16 61.21
59.65 60.64 60.11 60.04 58.66 58.08 57.96 59.19 59.69 59.33 59.60 60.40 61.96 62.32 62.36 61.13 61.32 60.97 60.35 61.65 61.98 60.78 60.27 60.07 59.55 59.21 57.77 57.70 57.91 58.22 58.90 58.57 59.16 58.39 58.87 60.02 60.61 60.78 61.02 60.10 60.76 61.05 61.31
61.37 58.93 60.17 59.40 58.81 58.97 58.06 59.04 59.79 59.15 58.86 59.87 60.09 62.00 61.70 61.45 62.19 61.51 60.72 61.73 62.14 61.04 60.71 60.37 59.44 58.71 57.92 57.09 55.00 55.88 57.13 57.14 57.70 57.34 57.15 57.36 58.16 59.13 60.04 60.54 60.81 60.84 59.87
59.97 59.76 57.92 58.26 58.19 58.46 56.99 57.09 57.83 57.75 57.81 58.67 59.17 60.71 61.87 61.94 62.45 62.28 61.81 62.05 62.42 61.68 61.49 61.18 59.91 58.86 57.52 57.59 54.82 54.45 54.79 56.35 56.11 55.86 56.96 57.32 57.86 58.16 58.55 58.52 58.81 60.39 60.87
59.72 59.68 57.96 57.55 58.00 57.77 58.81 57.51 58.38 59.49 59.48 58.92 58.82 59.24 61.37 62.65 62.16 61.68 61.42 61.49 61.59 61.67 61.77 61.14 60.22 59.20 58.65 57.40 56.05 56.74 53.50 54.33 55.22 55.99 56.42 56.45 57.50 57.80 57.82 58.02 57.45 57.99 59.39
58.13 57.22 59.78 59.45 57.89 57.81 58.18 59.04 58.42 58.57 57.13 57.94 58.23 57.75 59.41 62.64 63.04 61.75 61.15 62.38 62.06 61.70 61.13 61.39 60.96 59.85 58.02 58.53 58.94 58.13 55.25 53.72 57.56 57.62 56.43 56.47 56.09 56.76 57.39 57.13 55.27 57.65 58.77
59.25 59.34 59.78 59.58 59.52 58.97 59.20 57.88 58.09 55.45 55.73 56.30 58.63 59.16 60.55 61.83 62.14 61.96 60.99 62.50 62.59 62.39 61.39 62.10 61.92 60.81 60.84 58.65 58.21 58.17 59.74 58.57 55.05 53.43 56.51 55.19 55.98 51.93 55.01 54.54 56.02 57.27 57.74
59.61 58.91 58.39 59.36 59.18 58.30 58.60 58.61 57.23 56.24 55.96 56.68 57.64 59.24 60.60 60.37 61.39 61.43 61.27 62.67 62.70 62.67 62.42 62.42 61.51 60.23 60.74 59.87 59.11 58.79 57.53 57.64 56.02 53.06 50.72 53.41 52.85 54.07 54.86 55.07 56.52 57.19 57.41
59.58 59.62 58.08 57.56 58.12 57.98 58.01 58.45 57.82 57.13 55.96 55.65 56.52 56.47 56.96 58.83 60.25 61.06 61.49 62.56 62.62 61.53 60.27 58.27 60.59 61.67 61.60 60.92 60.91 60.15 58.64 56.38 55.39 53.44 49.07 50.10 51.66 53.63 52.94 56.24 57.13 57.28 56.60

GFSSE_sfc_wetblb_063.txt.gz
Wetbulb
70.67 72.95 71.80 72.59 73.48 72.82 72.39 72.15 72.15 72.28 72.50 72.06 72.00 71.98 72.49 72.27 71.92 71.70 71.56 71.51 71.66 71.97 71.51 71.21 70.96 70.72 70.57 70.38 69.92 70.54 70.07 70.02 69.74 70.11 70.04 69.92 69.72 69.76 69.65 69.75 69.23 68.37 69.80
72.84 73.49 71.31 72.45 73.40 73.05 72.85 72.15 72.15 72.36 72.17 72.23 72.10 72.00 72.14 72.00 71.78 71.63 71.66 71.59 71.66 71.90 71.00 70.79 70.47 70.30 70.14 69.65 69.72 69.93 69.69 69.20 69.13 69.24 69.45 69.16 68.94 68.99 68.57 68.31 68.35 67.58 67.98
72.03 72.84 71.73 71.40 72.61 73.06 72.62 72.30 72.32 72.53 72.50 72.14 72.15 72.02 72.46 71.92 71.88 71.75 71.09 70.90 71.14 71.13 70.24 70.24 69.79 69.54 68.89 68.34 69.17 69.01 68.79 68.64 68.73 68.50 68.19 66.36 66.54 67.75 67.89 67.06 66.94 66.66 66.68
71.86 71.90 71.97 70.86 71.92 72.08 72.28 71.91 72.25 72.60 72.38 72.09 72.24 72.34 72.22 72.20 71.60 70.97 70.50 70.43 70.60 70.47 69.17 69.42 69.29 68.38 67.53 67.82 67.53 67.37 67.81 67.99 68.18 68.37 66.39 66.30 65.99 66.78 66.95 66.37 66.01 65.68 65.50
71.58 71.84 71.03 70.38 70.93 71.67 71.59 71.89 71.80 71.90 71.49 71.56 71.81 72.34 72.22 71.75 71.34 70.58 70.01 69.92 70.06 69.87 68.26 68.43 68.57 67.60 66.88 66.92 66.67 66.52 66.30 66.13 66.10 66.76 64.50 65.29 65.48 65.10 65.45 65.36 64.81 64.50 64.74
71.10 72.03 69.26 69.61 70.20 71.12 71.31 71.55 70.95 71.22 70.68 71.00 71.23 71.68 71.70 71.31 70.77 70.06 69.33 69.53 69.64 69.25 68.32 67.32 67.43 66.58 66.61 66.13 66.00 65.98 65.58 66.25 65.95 64.59 64.04 64.84 63.83 64.25 64.41 63.74 63.29 63.17 62.84
70.63 72.31 69.93 68.52 69.52 70.72 71.14 70.51 70.61 70.47 70.38 70.49 70.61 70.62 70.59 70.50 69.84 69.01 68.55 68.41 68.67 68.40 68.23 67.26 66.48 66.09 66.06 65.61 65.68 65.33 65.16 65.07 63.63 63.47 63.43 63.08 63.16 63.91 63.80 63.22 62.72 62.25 62.09
69.48 70.38 71.31 69.45 68.59 68.76 69.06 69.27 68.84 69.53 69.84 69.85 69.77 69.78 69.87 69.34 68.76 68.64 68.69 68.14 67.72 67.35 67.21 66.94 66.44 66.00 65.66 65.30 64.77 63.68 63.67 64.78 64.04 63.29 62.99 62.63 63.73 63.23 63.33 62.56 61.83 61.52 61.29
69.12 69.09 70.16 70.63 67.20 65.85 65.19 66.02 67.26 68.69 69.08 69.15 69.16 68.93 68.94 68.28 68.18 68.53 68.47 68.02 67.37 67.06 66.85 66.41 65.90 65.55 65.09 64.44 63.98 62.83 62.76 64.09 63.60 63.19 62.39 62.53 62.79 62.83 62.64 62.02 61.50 61.03 60.68
68.09 67.42 68.26 68.43 66.45 66.51 65.47 65.24 65.54 66.90 67.88 68.35 68.62 68.33 67.84 67.96 68.49 68.36 67.64 67.41 67.21 66.81 66.46 65.95 65.29 65.09 64.20 63.73 63.16 62.78 62.32 62.60 63.21 62.93 62.39 62.14 62.93 62.57 62.29 61.71 61.15 60.70 60.25
67.14 67.50 68.30 66.62 65.95 65.11 65.58 64.77 65.24 66.23 67.57 67.56 68.10 67.36 66.93 68.16 68.25 68.08 66.81 66.64 66.15 65.57 65.45 65.12 64.73 64.21 63.64 63.22 62.73 62.46 62.81 63.40 63.50 62.69 61.87 62.87 62.67 62.57 61.85 61.15 60.65 60.16 59.88
63.72 66.83 66.85 66.52 66.26 66.05 65.59 65.34 65.09 64.97 66.61 67.69 69.05 68.61 67.59 68.29 68.50 66.86 66.62 65.49 65.11 64.67 64.69 64.52 63.82 63.09 62.57 61.31 61.82 61.73 63.38 63.97 63.27 62.52 61.73 62.88 62.60 62.40 61.69 60.80 60.26 59.95 59.32
64.47 64.48 66.26 66.12 67.02 65.98 64.34 64.58 65.42 63.65 66.07 68.07 67.50 67.76 67.31 68.19 67.72 66.50 67.38 65.60 64.50 64.04 63.00 62.79 62.07 61.34 61.26 60.66 62.30 63.50 63.60 63.85 63.04 62.30 61.79 62.62 62.11 61.89 61.38 60.75 60.16 59.58 58.81
63.07 62.17 65.44 65.53 65.32 64.79 65.05 62.63 63.29 62.99 63.43 65.06 65.52 64.93 64.62 65.56 65.35 66.16 65.70 65.01 63.67 63.24 62.79 61.88 61.85 63.87 62.19 61.67 62.81 63.12 63.55 63.36 62.87 62.22 61.85 62.21 62.30 61.97 61.59 61.08 60.16 59.28 58.58
62.03 62.23 62.93 64.85 64.16 64.60 64.38 64.06 63.62 62.83 62.07 62.37 63.10 63.44 63.50 63.85 65.45 65.45 65.59 65.28 63.76 64.60 63.74 62.72 63.46 62.29 61.85 62.02 62.49 62.89 62.73 63.43 63.21 62.10 61.97 61.71 62.01 61.92 61.37 61.21 60.70 59.95 58.79
62.36 62.39 63.33 62.60 63.86 63.78 62.91 63.27 63.42 62.65 62.48 62.19 61.22 62.21 62.42 63.72 63.81 64.63 64.77 65.00 64.32 65.04 64.52 63.52 63.18 62.38 61.56 61.66 61.73 62.40 62.48 63.07 63.18 62.82 62.02 61.88 61.57 62.33 62.19 61.45 61.07 60.54 59.86
62.84 62.66 61.45 62.11 61.91 61.85 60.96 60.37 60.90 61.44 61.71 60.95 61.28 61.93 61.52 62.82 63.91 64.49 64.57 65.16 64.94 65.31 65.37 64.23 63.21 62.62 60.98 61.06 61.00 61.56 62.11 62.78 62.63 62.97 61.99 61.66 61.45 61.07 61.80 62.33 61.72 61.02 60.53
62.83 61.39 61.44 61.52 60.86 61.98 61.49 60.83 60.44 60.75 61.35 60.90 61.08 61.35 60.15 62.49 62.89 63.40 63.06 63.32 63.88 64.46 63.73 62.44 61.75 60.96 60.56 60.19 60.30 60.62 61.13 61.88 62.31 62.64 62.67 62.28 61.31 61.49 60.89 61.72 61.86 62.10 61.47
62.70 63.52 61.52 60.82 60.74 61.05 61.45 61.09 60.90 60.15 59.70 59.71 60.26 60.80 61.36 62.64 62.38 62.67 62.24 63.08 63.81 62.85 62.82 62.26 62.06 61.63 60.06 59.53 59.63 60.24 60.71 60.49 61.07 61.15 61.32 61.90 62.32 61.60 61.53 60.51 60.89 60.92 61.28
62.85 62.53 61.59 60.89 60.41 59.60 60.31 59.79 60.60 59.64 59.44 59.61 60.07 61.03 61.96 61.07 61.48 61.48 61.85 62.69 61.70 60.44 59.91 61.19 61.54 60.96 60.07 59.09 57.77 57.99 59.45 59.59 59.90 59.47 59.67 60.22 60.91 61.04 61.43 62.11 61.33 60.90 60.02
62.68 61.79 60.49 59.91 58.94 57.36 58.22 58.55 58.07 57.75 58.19 58.98 59.84 60.29 61.93 59.76 61.35 61.77 61.44 61.84 62.11 59.94 59.93 62.17 60.53 59.73 57.98 59.03 56.37 56.31 57.14 58.21 58.41 58.21 58.62 58.43 58.38 58.96 59.94 60.04 61.33 60.30 60.82
61.94 60.44 59.58 59.07 58.20 57.38 57.37 58.51 59.07 58.24 58.04 58.14 59.48 59.86 61.61 61.26 62.15 62.61 62.30 61.50 61.43 61.61 62.33 61.71 61.34 59.00 58.64 58.66 55.06 54.62 52.78 54.90 56.61 57.28 57.71 57.86 59.47 58.44 58.11 59.49 59.61 60.32 60.81
61.54 60.32 60.10 59.08 58.39 58.02 57.13 58.19 58.92 58.63 58.02 56.76 58.04 58.25 59.30 60.37 61.99 62.37 62.95 62.61 62.23 63.12 61.73 62.13 62.66 61.61 58.55 58.94 59.47 57.48 53.81 52.78 56.01 57.66 57.81 58.17 59.02 58.64 58.30 59.02 59.05 58.74 59.56
61.12 61.71 61.94 60.62 58.93 58.53 58.60 57.60 57.30 57.45 56.36 57.49 56.94 58.69 58.55 58.64 61.82 61.80 60.35 60.81 62.65 62.22 62.32 62.61 62.62 62.10 61.61 58.77 59.00 58.42 60.56 59.33 55.15 53.78 57.40 58.09 58.69 55.30 55.28 54.42 56.52 58.09 58.23
61.62 61.21 60.90 60.43 60.00 59.30 59.60 58.00 57.51 56.77 58.14 58.47 57.86 57.72 57.56 57.74 59.81 59.68 60.87 59.91 60.66 62.89 62.60 62.96 62.82 62.31 62.23 60.16 60.22 59.12 58.45 58.76 59.58 56.64 54.33 54.68 55.90 55.94 55.55 52.57 53.19 56.69 58.25
61.53 61.58 61.35 59.26 59.07 59.86 59.04 58.36 57.69 56.35 57.77 56.65 57.81 57.27 57.10 58.09 59.18 61.23 61.21 60.38 59.84 60.74 61.24 62.02 62.16 62.70 61.76 61.46 61.03 61.05 59.62 57.33 56.60 56.00 54.40 56.73 55.83 55.81 55.71 55.16 53.43 54.85 58.66

GFSSE_sfc_wetblb_066.txt.gz
Wetbulb
71.23 71.23 72.54 73.21 73.14 72.66 72.50 72.32 72.22 72.28 71.94 71.91 72.59 72.79 72.67 72.23 71.94 71.47 71.33 71.28 71.11 71.64 71.64 71.37 71.56 70.79 70.98 70.91 70.54 70.95 70.58 70.16 69.99 70.37 70.18 70.67 70.32 70.12 70.11 69.90 69.12 68.06 70.11
72.38 71.18 71.77 72.84 73.36 72.77 72.78 72.37 72.27 72.32 71.98 72.16 72.44 72.49 72.27 71.93 71.72 71.47 71.50 71.43 71.85 72.37 71.50 71.08 70.73 70.00 70.47 70.05 70.26 70.09 70.07 69.57 69.29 69.52 69.85 69.54 69.32 69.05 69.05 69.10 68.48 67.68 68.79
72.67 71.50 71.27 72.27 73.22 72.84 72.61 72.56 72.46 72.39 72.47 72.18 72.49 72.22 71.87 71.98 71.64 71.72 71.67 71.40 71.58 71.80 71.13 70.83 70.31 69.93 69.93 69.86 69.46 69.56 69.37 69.45 68.80 68.54 68.66 65.88 66.32 68.23 67.98 67.41 67.48 67.08 66.94
71.38 71.79 71.52 71.45 72.60 72.63 72.33 72.19 72.27 72.43 72.45 72.16 72.15 72.29 71.88 71.86 71.98 71.49 71.12 70.76 71.18 71.48 70.68 70.41 69.98 69.32 68.97 68.88 68.71 68.81 69.05 68.29 67.74 67.91 64.75 65.25 65.69 67.72 67.31 67.04 66.72 66.50 66.06
70.63 72.21 71.57 70.95 71.49 72.22 72.00 71.61 71.92 71.78 71.62 71.53 71.80 72.24 71.79 72.05 71.72 71.20 70.53 70.42 70.82 70.86 69.94 69.73 68.91 68.24 67.89 67.26 67.27 67.13 67.12 67.10 67.69 65.20 63.42 63.47 63.91 66.07 66.41 65.96 65.24 64.69 64.45
70.35 71.94 68.96 69.92 70.66 71.88 71.84 71.56 71.39 71.44 70.78 71.19 71.49 71.78 72.18 71.69 71.40 70.72 69.92 69.91 70.18 70.29 69.40 68.46 67.67 66.99 66.66 66.08 65.92 65.93 65.55 65.57 65.52 61.81 61.97 63.57 63.21 65.40 64.85 64.07 63.83 63.57 63.23
70.97 72.23 69.83 68.68 69.91 71.04 70.99 71.19 70.10 69.67 70.51 70.45 71.24 71.29 71.11 70.95 70.63 69.96 69.46 69.20 69.03 68.81 68.86 67.64 66.72 66.52 66.09 65.88 65.80 65.05 64.44 65.06 61.27 60.60 60.14 60.76 61.26 64.15 64.37 63.59 63.02 62.78 62.38
70.34 71.72 71.45 69.23 69.41 69.10 68.94 67.65 67.27 68.34 69.38 69.75 70.66 70.54 70.40 69.80 69.29 69.23 68.85 68.49 68.19 67.79 67.59 66.95 66.43 66.16 66.04 65.63 64.28 63.32 63.41 64.52 62.10 60.21 60.25 60.45 63.66 63.78 63.61 62.93 62.19 61.67 61.37
70.36 70.02 70.45 70.81 68.99 66.00 65.84 65.15 63.80 63.94 66.48 69.04 69.56 69.52 69.04 68.24 67.99 68.35 68.40 68.17 67.87 67.53 66.85 66.42 65.97 65.67 65.51 64.50 63.68 62.58 62.55 64.83 60.22 59.85 60.69 59.87 63.61 63.25 63.05 62.38 61.79 61.34 61.06
68.90 69.29 68.19 68.95 67.56 66.51 65.75 64.16 63.67 62.08 62.50 67.27 68.70 68.21 67.40 67.61 68.06 67.67 67.34 67.32 67.29 66.97 66.38 65.66 65.57 65.30 64.50 63.64 62.62 62.71 62.08 64.04 59.62 59.65 59.62 60.47 63.26 63.01 62.66 62.03 61.51 61.11 60.89
67.29 67.74 68.01 67.67 66.77 66.93 65.44 64.89 63.41 63.85 63.34 64.47 68.15 67.40 66.17 66.98 67.02 66.33 66.26 66.51 66.42 65.74 65.60 65.49 64.92 64.24 63.35 62.50 62.73 62.71 62.92 60.03 60.02 59.39 59.34 62.75 62.83 62.68 62.22 61.37 60.97 60.66 60.31
64.69 66.75 67.59 66.65 65.90 65.13 64.62 64.25 64.04 63.02 62.67 60.71 66.83 66.42 66.19 66.54 66.33 66.13 65.69 65.62 65.42 64.88 64.60 64.51 64.09 63.08 61.89 58.70 58.95 60.86 58.93 61.02 59.60 59.13 59.52 62.83 62.59 62.38 61.80 60.93 60.57 60.13 59.63
64.79 65.93 66.28 66.01 65.91 65.24 64.53 65.09 64.32 62.36 63.22 65.39 66.46 65.84 66.39 66.33 65.44 65.15 64.20 63.73 63.50 63.87 62.08 62.14 61.23 59.23 57.52 57.75 58.56 58.95 60.80 60.83 59.49 59.08 60.62 62.46 62.46 62.19 61.70 60.90 60.36 59.75 59.19
63.45 64.16 65.22 65.54 65.23 64.98 64.42 64.22 63.55 62.57 63.14 64.77 65.64 65.35 65.36 64.68 64.33 64.20 61.60 61.75 60.75 60.54 59.39 59.29 58.40 58.37 56.93 58.33 59.89 60.82 60.34 60.62 59.07 58.85 60.18 61.91 62.04 61.72 61.54 60.93 60.20 59.66 58.96
62.13 62.64 63.88 64.37 64.19 63.64 63.54 63.28 62.69 62.38 62.52 63.18 64.61 63.98 64.40 63.72 63.45 63.37 60.96 60.65 60.16 60.59 59.52 58.03 58.37 58.94 58.39 58.27 59.87 59.97 60.77 60.34 59.08 58.97 58.92 61.61 61.56 61.76 61.48 61.11 60.51 59.90 59.17
62.09 62.27 63.60 63.67 63.44 63.46 63.45 63.37 62.72 61.96 62.24 62.10 62.39 62.75 62.97 62.62 63.35 63.05 61.90 59.85 60.39 60.39 60.76 58.91 60.29 58.58 58.18 58.63 59.18 59.77 60.96 60.67 59.36 59.02 58.71 59.29 60.95 61.46 61.28 60.95 60.88 60.11 59.70
61.65 62.48 62.10 62.78 63.27 62.58 62.73 62.88 62.90 62.34 61.88 61.33 61.14 62.09 62.13 62.27 62.66 62.97 62.70 61.28 61.28 60.84 60.88 60.03 60.97 58.97 58.07 58.48 58.37 59.20 59.55 59.99 60.09 59.30 58.72 58.71 59.31 60.84 61.14 61.91 61.31 60.76 60.11
62.38 62.11 61.36 61.60 61.54 61.54 61.34 60.90 61.49 62.01 61.45 60.84 61.05 61.61 61.46 61.60 61.66 62.34 61.77 61.69 62.12 61.27 61.38 60.34 59.18 58.26 57.36 56.74 56.51 57.25 57.93 58.65 59.41 59.45 58.93 58.96 59.14 59.82 60.10 61.21 61.73 61.73 61.33
62.27 62.22 61.05 61.62 61.18 60.78 60.36 60.43 60.40 60.84 61.01 60.07 60.25 60.76 60.57 60.62 61.05 61.50 60.92 61.62 62.33 61.13 61.25 60.29 58.59 58.07 56.86 56.30 57.04 56.52 57.08 57.22 58.13 59.28 59.68 58.58 58.77 59.18 59.49 60.22 60.61 60.77 61.33
62.34 61.45 60.80 61.26 60.75 60.28 60.25 60.05 59.82 59.32 60.48 60.23 59.75 59.84 59.44 59.78 60.54 61.13 60.52 61.03 60.05 60.18 59.70 59.15 58.03 58.31 57.30 56.17 57.51 56.70 56.36 56.78 56.96 56.73 57.15 58.69 58.53 58.36 59.52 59.40 59.57 59.29 59.93
61.94 61.29 60.72 60.00 59.24 58.91 58.71 58.20 57.58 56.96 57.64 58.51 58.33 58.12 58.56 59.91 60.16 59.66 59.52 60.04 59.01 58.13 57.60 58.14 57.76 56.27 55.95 56.65 54.66 53.32 53.78 55.12 55.33 54.86 55.48 55.71 56.32 57.47 57.20 59.09 59.03 59.40 59.07
61.15 60.71 59.99 59.50 57.84 58.62 58.45 58.26 58.49 57.43 57.23 57.41 58.68 58.20 59.36 59.47 59.10 59.12 59.29 59.07 59.50 58.60 57.92 57.51 56.36 54.87 55.15 55.51 52.55 51.71 48.32 50.26 52.70 54.50 53.59 54.39 53.95 54.71 55.88 56.71 58.54 58.33 57.98
60.90 60.34 59.76 59.21 57.50 57.63 59.01 58.52 58.28 57.82 57.40 56.43 57.46 58.19 58.57 58.56 58.44 58.07 59.68 59.13 58.45 59.68 58.32 57.93 58.16 56.46 54.46 54.83 54.71 52.39 48.63 47.54 49.86 52.23 52.84 52.88 53.03 54.11 54.20 54.76 55.25 55.71 55.81
60.57 60.66 60.13 58.95 57.44 57.20 58.41 57.85 56.87 55.89 54.55 55.35 57.04 58.00 57.97 58.87 58.41 58.69 59.86 59.43 58.89 59.27 59.17 59.41 60.07 58.33 57.65 53.91 53.57 55.54 55.56 55.90 51.93 49.32 51.75 52.52 53.94 53.81 53.82 53.72 53.84 56.11 56.15
60.83 60.40 59.89 59.12 58.09 57.56 57.42 57.70 57.17 56.21 56.44 56.41 56.59 57.17 57.43 57.54 58.78 59.45 60.05 60.10 60.22 59.62 59.65 59.28 59.01 59.01 58.44 56.99 55.49 55.60 54.73 55.21 55.02 52.70 49.00 50.09 52.28 52.75 52.45 53.12 53.04 51.86 54.38
60.60 60.27 60.27 59.31 58.19 58.64 57.58 57.67 57.05 56.18 56.52 55.49 55.23 55.81 56.71 56.78 56.89 58.35 59.65 59.25 58.94 59.24 59.33 59.09 59.06 58.60 59.05 58.37 57.56 57.16 56.61 54.36 53.67 52.92 50.61 51.33 50.01 51.66 52.51 52.56 51.69 51.46 51.96

GFSSE_sfc_wetblb_069.txt.gz
Wetbulb
69.35 71.90 72.24 72.56 72.63 72.80 72.32 72.35 72.26 71.77 72.35 72.83 72.79 72.61 72.57 72.42 72.17 71.71 71.41 71.37 71.20 71.61 71.85 71.78 71.81 71.48 71.64 71.57 71.44 71.53 71.13 70.74 70.54 70.90 70.93 71.05 70.34 70.19 69.87 69.99 69.70 68.41 70.50
69.94 71.56 72.03 72.28 72.51 72.73 72.71 72.31 72.16 71.66 72.39 72.74 72.69 72.33 71.99 71.77 71.60 71.51 71.42 71.30 71.47 72.03 71.54 71.16 71.11 70.63 70.60 70.63 70.87 70.45 70.25 69.92 69.59 69.98 70.24 70.00 69.73 69.68 69.45 68.87 68.99 68.31 69.33
69.25 71.07 72.26 72.35 72.14 72.54 72.70 72.61 72.49 72.02 72.58 72.77 72.64 72.20 71.80 71.68 71.68 71.17 71.27 71.93 72.06 72.24 71.64 69.93 69.98 70.20 70.54 70.57 69.95 69.69 69.67 69.20 68.58 68.55 68.69 66.71 67.08 68.89 68.71 68.07 67.98 67.80 67.75
69.75 69.98 71.29 72.48 72.20 72.23 72.31 72.21 72.37 72.38 72.41 72.52 72.37 72.06 71.77 71.89 72.04 71.78 71.44 71.28 71.66 71.40 71.12 70.40 70.18 69.80 70.15 69.69 69.27 69.16 68.69 68.08 67.62 67.57 66.02 66.11 66.62 68.38 68.08 67.38 67.03 66.74 66.45
68.54 69.76 70.25 71.46 71.85 72.15 72.06 71.94 72.02 72.02 71.80 72.02 71.90 71.99 71.97 72.09 72.18 71.82 70.92 70.54 71.05 71.20 70.59 70.17 69.74 69.41 69.05 68.75 69.00 68.50 68.03 67.21 66.26 64.61 63.87 64.38 64.89 66.79 66.91 66.40 65.85 65.51 65.17
67.18 70.26 69.32 70.12 71.41 72.00 71.98 71.89 71.78 71.54 70.85 71.15 71.32 71.52 72.07 71.99 71.85 71.03 70.31 70.41 70.81 70.86 69.91 69.43 69.04 68.58 67.60 67.09 67.20 67.06 66.26 65.76 63.89 61.28 63.30 64.32 63.55 65.56 65.13 64.61 63.75 63.56 63.58
66.67 68.47 68.54 68.86 70.86 71.57 71.38 71.73 70.97 70.99 70.65 70.84 70.97 71.04 71.14 71.45 71.12 70.38 69.86 69.99 70.21 69.95 69.41 68.58 68.12 67.13 66.53 66.52 66.11 65.26 65.11 63.76 60.12 59.55 59.75 62.11 62.66 64.75 64.48 63.84 63.11 62.87 62.66
68.04 68.14 68.14 68.60 69.67 70.03 70.44 70.18 69.24 68.99 69.74 69.66 69.83 70.19 69.73 70.54 69.93 69.72 69.39 69.22 69.17 68.40 68.03 67.70 66.98 66.60 66.59 65.81 64.85 63.54 64.26 63.01 60.78 59.49 59.17 60.79 63.91 63.96 63.99 63.23 62.58 62.25 62.11
66.98 66.80 67.32 67.23 67.01 66.68 66.68 66.32 65.69 66.34 65.49 66.61 68.39 68.62 69.00 68.95 68.73 69.01 68.82 68.50 68.34 67.62 67.29 66.82 66.37 66.13 65.59 64.74 63.36 62.87 63.16 62.51 59.29 59.30 59.92 59.78 63.42 63.46 63.32 62.61 61.90 61.76 61.50
66.05 65.63 65.65 65.86 64.74 63.77 64.00 64.73 65.02 65.85 66.10 63.89 64.45 67.30 67.69 68.04 68.06 68.11 67.95 67.80 67.36 67.02 66.32 66.32 65.72 65.13 64.68 63.15 62.24 63.28 62.57 62.01 58.79 58.23 58.25 60.31 63.06 63.06 63.01 62.37 61.99 61.54 61.23
64.80 64.61 64.50 64.93 64.39 63.71 63.44 63.57 64.72 65.54 65.58 64.32 64.48 62.39 66.27 66.71 66.51 66.44 66.44 66.72 66.59 65.71 65.79 65.67 65.08 64.03 63.33 62.43 62.68 62.37 61.89 58.80 58.60 58.52 57.83 62.85 62.80 63.06 62.73 61.97 61.56 61.04 60.85
61.93 63.15 64.00 64.29 63.06 62.91 63.93 62.37 61.60 62.54 63.03 62.18 62.00 62.58 66.21 65.62 65.05 65.47 65.78 65.85 65.49 65.25 65.16 64.80 64.03 63.21 61.10 57.69 57.27 59.97 58.76 58.36 58.34 58.39 58.57 62.85 62.66 62.70 62.42 61.69 61.07 60.74 60.20
61.85 63.00 63.66 63.28 62.94 61.45 61.78 61.85 61.07 61.07 60.17 59.70 59.50 60.19 65.92 64.94 64.76 64.83 64.27 64.04 63.41 64.08 62.04 61.67 61.11 58.76 57.21 56.55 56.53 56.73 58.18 58.24 58.34 58.83 60.72 62.33 62.47 62.23 62.23 61.43 60.89 60.41 59.87
60.60 61.90 62.51 62.98 63.12 62.46 63.12 62.19 61.22 60.40 61.06 59.52 59.48 59.83 65.29 64.37 63.76 63.25 62.20 62.13 61.84 60.71 59.27 58.11 57.03 56.71 55.79 56.88 57.58 58.05 58.07 57.76 57.96 58.23 59.79 61.89 62.27 62.09 61.79 61.41 60.52 60.20 59.42
59.80 60.47 61.34 62.95 63.45 62.27 60.88 60.48 61.10 61.34 61.60 61.47 63.91 64.38 64.75 63.72 62.60 60.80 60.38 60.08 59.56 59.08 57.31 55.64 55.88 56.68 54.96 55.69 57.50 58.53 57.96 57.55 57.61 58.06 57.18 60.74 61.38 61.94 61.58 61.39 60.80 60.28 59.16
59.75 60.06 60.94 62.39 62.50 61.52 60.45 60.51 61.53 61.06 61.32 63.18 63.84 63.68 63.72 63.59 61.88 59.21 58.85 57.96 58.36 58.23 56.47 55.31 55.59 54.47 55.05 55.99 57.16 59.01 57.99 57.66 57.39 57.11 57.32 58.94 60.50 61.48 61.56 61.04 60.85 60.28 59.65
59.65 60.50 59.84 61.44 62.01 61.58 61.62 60.11 59.70 61.00 62.35 62.40 62.46 62.76 63.31 63.31 61.34 58.95 58.28 57.83 58.30 57.58 56.11 55.62 56.02 56.32 55.88 57.30 56.83 58.20 58.59 57.68 57.21 57.28 57.33 57.51 58.97 59.60 60.82 61.28 60.92 60.28 59.88
58.78 60.48 60.77 61.66 60.32 59.90 60.29 60.79 59.92 61.00 61.54 61.82 61.90 62.35 62.02 62.92 62.54 60.87 58.49 58.48 58.98 58.15 57.36 56.96 57.24 56.44 55.56 55.49 54.91 56.53 58.50 57.61 57.23 57.06 57.49 57.50 57.54 58.32 59.42 60.72 61.28 61.30 60.35
59.50 60.13 59.75 59.99 60.04 59.93 58.36 60.44 59.73 60.31 60.90 61.19 61.36 61.72 61.38 61.50 62.69 61.76 59.99 59.60 59.75 58.66 58.37 57.93 58.01 56.29 55.32 54.79 55.18 54.83 55.35 57.59 57.05 57.66 56.98 57.11 57.23 57.81 57.79 59.87 60.36 60.42 61.12
59.85 59.43 58.97 60.08 59.99 59.22 59.49 59.84 60.13 60.69 59.67 59.86 60.47 60.95 60.77 60.32 61.20 61.35 61.09 60.43 60.74 59.22 58.43 58.52 57.86 55.60 55.39 55.91 57.27 55.41 54.39 55.50 57.09 56.61 56.88 57.72 57.45 57.85 57.96 57.95 58.61 58.58 59.79
59.39 59.11 59.54 59.58 59.42 59.15 58.60 57.96 57.60 57.16 59.37 59.12 59.90 60.29 59.95 59.84 60.07 60.39 59.95 59.99 58.90 59.74 57.90 57.84 56.88 55.68 54.09 54.91 52.51 51.77 52.59 54.15 54.25 54.86 56.65 56.82 56.88 57.39 57.87 58.20 58.25 58.22 58.54
58.52 58.85 59.29 58.83 58.64 58.56 58.44 58.35 57.90 57.61 58.98 59.27 59.43 59.40 59.46 59.73 59.12 59.00 59.64 59.22 57.38 59.15 57.90 56.53 54.93 53.11 54.20 54.15 51.44 50.76 48.14 49.80 52.18 52.71 52.57 54.33 55.30 56.48 57.62 57.85 57.99 58.45 58.30
57.61 58.46 58.32 58.04 58.14 58.30 58.54 58.39 57.83 57.20 57.06 56.92 57.24 57.79 57.93 59.13 58.76 58.42 59.17 58.93 58.14 58.34 57.34 55.85 54.52 53.28 52.44 52.77 53.57 50.96 47.33 46.31 48.01 49.36 50.39 50.77 51.89 51.70 53.47 55.71 58.00 58.24 58.26
57.73 58.27 58.51 57.64 57.50 57.90 58.58 57.65 56.60 55.35 54.41 55.83 56.14 57.00 57.36 57.68 57.45 57.21 58.22 57.95 57.77 58.20 56.31 55.58 56.60 54.61 54.56 51.63 52.36 54.31 53.93 53.33 48.57 47.00 49.01 49.97 50.24 51.65 51.09 51.70 53.98 57.28 57.68
58.03 57.58 57.50 57.07 57.22 57.41 57.95 57.31 56.28 54.98 55.61 55.62 56.22 55.79 56.75 56.83 56.79 57.06 57.22 57.38 56.72 57.02 56.81 57.18 56.82 56.44 56.32 54.48 52.25 52.99 52.41 53.07 53.02 49.94 46.66 48.65 49.34 51.08 51.84 52.74 53.26 53.57 54.58
58.00 57.29 57.06 56.71 56.68 57.05 57.63 57.45 56.43 55.09 54.72 53.60 54.50 55.69 56.28 56.23 56.55 57.54 56.51 58.31 58.24 57.05 57.47 57.24 57.41 57.18 56.94 56.78 55.20 54.32 53.37 52.01 51.47 50.90 48.71 48.04 48.13 49.52 51.04 51.72 51.73 51.86 52.18

GFSSE_sfc_wetblb_072.txt.gz
Wetbulb
69.27 71.30 72.07 72.47 72.60 72.38 72.28 71.94 71.83 72.26 72.57 72.83 72.91 73.01 73.04 73.02 72.80 72.24 72.05 71.83 72.00 72.84 72.48 72.17 72.72 72.49 72.51 72.02 71.95 71.98 71.61 71.18 71.09 71.15 70.91 70.77 70.85 70.48 70.27 70.37 69.84 68.30 70.58
70.21 71.79 71.33 72.27 72.68 72.64 72.45 72.09 71.79 72.39 72.79 72.88 72.61 72.58 72.42 72.27 72.08 71.82 71.70 71.78 72.08 72.74 71.79 71.82 72.49 71.85 71.44 71.23 71.19 70.90 70.72 70.31 70.02 70.35 70.56 70.38 70.04 69.91 69.78 69.24 69.37 68.61 69.64
70.29 71.75 71.56 71.71 72.25 72.39 72.64 72.30 72.00 72.81 72.79 72.78 72.46 72.11 72.12 71.85 71.73 71.40 70.91 71.29 71.90 72.17 71.56 71.07 71.13 71.14 70.67 70.67 70.23 70.30 69.96 69.67 69.23 69.26 69.10 67.04 67.06 69.32 69.17 68.69 69.09 68.58 68.68
70.03 71.27 71.62 71.52 71.95 72.24 72.20 72.33 71.80 72.62 72.78 72.45 72.11 71.82 71.80 71.73 71.39 71.88 71.47 70.94 71.46 71.95 71.08 70.80 71.14 70.62 70.52 69.94 69.42 69.18 68.84 68.72 68.29 68.17 66.20 66.42 66.92 68.86 68.61 68.10 67.83 67.66 67.28
68.77 70.35 71.56 71.16 71.38 72.03 71.94 72.07 71.67 71.96 72.05 71.91 71.64 71.81 71.88 71.56 72.09 72.08 71.49 71.17 71.29 70.92 70.51 70.24 70.61 70.14 69.67 68.92 68.23 68.00 67.51 67.14 66.53 65.35 64.87 65.48 65.79 67.14 67.59 66.96 66.31 65.77 65.31
68.07 69.27 70.09 70.71 71.08 71.90 71.96 71.94 71.51 71.41 71.22 71.28 71.23 71.50 71.95 72.02 72.09 71.61 70.72 70.85 71.16 71.09 70.67 70.37 70.10 69.90 68.89 68.08 67.77 67.15 66.34 65.38 64.78 63.88 64.52 65.20 64.33 66.68 66.07 65.35 65.03 64.99 64.55
66.65 68.38 69.10 69.91 70.88 71.68 71.94 72.00 71.34 71.02 70.85 70.95 71.09 71.01 71.51 71.69 71.56 70.78 70.30 70.26 70.28 70.28 70.28 69.86 69.48 68.50 67.77 66.93 66.17 65.90 64.69 64.09 59.95 61.24 62.46 62.94 63.40 65.33 64.98 64.49 63.99 63.33 63.29
66.51 67.01 68.01 70.07 70.71 70.88 71.03 70.57 70.01 70.12 70.63 70.28 70.46 70.90 70.96 70.59 70.31 70.24 70.04 69.54 69.56 69.15 68.77 68.68 67.73 67.23 66.20 65.60 65.70 64.36 63.74 63.09 60.32 58.61 61.10 61.97 64.12 64.28 63.89 63.69 62.67 62.70 62.55
66.89 66.58 66.54 66.72 67.36 67.36 68.08 67.63 67.56 68.31 68.85 68.30 67.47 68.48 67.73 68.46 68.57 69.46 69.58 69.32 68.91 68.36 68.30 67.58 67.02 66.13 65.68 64.86 64.46 63.45 62.83 62.45 58.81 58.59 60.12 61.19 63.45 63.18 63.47 62.72 62.72 62.38 62.05
64.94 64.73 65.15 64.97 63.69 63.38 64.27 66.22 66.35 67.34 66.29 65.93 66.38 64.52 65.22 67.02 67.74 68.36 68.63 68.42 68.10 67.62 67.39 67.16 66.09 65.49 64.58 64.49 63.36 62.88 62.55 62.03 57.62 57.34 59.55 60.95 63.03 62.87 63.00 62.44 62.22 62.01 61.81
63.88 63.50 63.95 63.49 64.05 63.47 63.67 65.27 66.36 66.69 66.40 66.06 65.75 64.00 64.56 65.57 66.71 67.09 66.92 67.09 66.93 66.16 66.31 66.22 65.30 64.38 63.70 63.86 63.26 62.61 61.41 58.78 58.36 57.91 59.23 62.63 62.81 63.02 62.86 62.27 61.93 61.69 61.50
61.33 61.91 62.84 62.63 62.41 63.72 63.75 64.19 63.52 64.52 63.84 63.18 62.29 63.55 61.61 60.60 66.07 65.52 65.88 65.95 65.73 65.49 65.51 65.19 64.41 63.54 61.05 59.95 61.01 60.93 58.17 58.50 58.25 57.79 59.05 62.41 62.50 62.97 62.51 61.86 61.46 61.34 60.96
61.45 61.83 62.28 61.68 61.66 63.14 61.92 62.22 61.46 60.72 61.77 60.83 61.75 61.97 60.41 61.81 65.19 65.16 64.47 64.12 63.63 64.45 62.84 61.95 61.42 58.34 56.41 56.04 57.27 57.19 57.77 57.61 58.04 58.38 60.16 62.20 62.95 62.64 62.65 61.72 61.22 60.75 60.29
61.19 61.65 61.83 61.65 61.43 59.95 60.82 61.20 59.92 60.49 59.71 59.97 60.54 61.67 60.83 62.93 64.40 63.83 63.06 62.43 62.38 61.71 59.82 59.10 57.13 55.36 55.34 56.28 57.73 57.27 57.21 57.34 57.28 58.16 60.17 61.98 62.46 62.39 62.41 61.84 61.25 60.47 59.79
59.80 60.26 61.13 61.36 62.55 62.28 61.99 60.16 59.44 59.09 59.39 59.32 59.63 60.83 64.22 64.00 63.24 62.89 62.12 61.43 60.77 60.08 58.85 56.69 55.28 54.34 54.76 56.75 57.99 57.08 56.56 56.85 56.92 57.87 58.59 61.45 61.71 62.09 61.82 61.75 61.19 60.68 59.89
59.50 59.30 59.98 61.33 62.34 61.50 59.61 59.53 60.79 60.79 61.38 59.92 59.66 60.18 63.51 63.72 62.37 61.49 60.84 59.53 58.61 57.71 57.58 56.83 54.71 53.25 53.61 55.49 57.37 57.11 56.60 56.69 56.97 56.54 57.63 59.14 60.74 61.47 61.78 61.24 61.07 60.67 60.23
59.47 59.33 59.51 59.91 61.90 60.79 59.06 59.35 60.78 59.78 62.06 61.73 61.41 61.26 63.71 62.80 61.00 60.05 58.46 57.47 57.46 56.17 54.39 53.76 54.15 52.64 53.09 55.64 57.44 57.03 56.58 56.35 56.44 56.15 56.39 57.24 58.62 59.89 60.65 61.41 60.95 60.31 59.89
59.15 59.17 59.47 61.12 59.46 59.51 59.79 59.41 60.92 61.30 62.16 62.41 63.14 62.79 63.37 61.44 59.72 58.25 57.07 56.87 56.90 55.00 54.99 55.04 54.64 53.11 52.99 54.59 56.01 56.69 55.99 56.03 56.20 56.35 56.67 56.71 56.31 57.51 59.33 60.56 60.98 60.97 60.12
59.26 59.37 58.98 60.43 59.71 58.17 60.85 60.51 60.18 60.57 61.63 62.23 62.65 62.45 62.84 60.95 59.08 57.53 57.08 57.20 56.43 55.26 54.47 55.46 54.49 53.63 52.57 53.28 55.67 56.81 56.43 55.21 55.21 56.73 56.03 56.09 56.21 55.96 56.17 59.64 59.86 60.09 60.62
58.79 59.32 59.91 60.00 59.40 56.84 57.78 60.03 60.47 59.85 59.99 60.26 62.12 62.17 62.41 61.91 59.77 58.23 57.93 58.74 57.08 55.76 54.99 55.76 54.52 53.52 54.02 53.40 56.16 55.21 56.26 55.99 55.31 55.20 55.64 56.39 56.48 56.35 56.52 56.75 57.90 58.11 59.37
58.03 57.79 58.24 58.99 58.74 58.08 58.50 58.08 58.43 58.31 58.97 59.35 60.78 60.74 60.05 62.01 61.36 58.47 58.26 59.45 57.66 56.94 56.69 56.73 55.13 54.39 53.53 53.55 51.95 51.03 52.40 55.06 55.44 55.10 55.71 55.77 55.86 56.58 56.73 56.51 56.92 57.44 58.05
57.30 57.49 57.93 58.33 58.83 58.67 58.04 58.30 57.67 58.05 59.22 59.58 59.89 60.49 60.20 60.20 61.30 59.71 58.44 59.37 59.36 57.80 57.11 56.27 54.45 53.85 53.47 54.11 52.99 50.88 48.38 49.90 52.46 54.15 55.55 55.70 55.52 56.61 56.56 56.77 56.75 57.14 57.17
57.44 57.34 58.31 58.12 58.60 58.55 58.58 57.48 56.36 57.40 58.11 58.11 58.51 58.87 59.55 59.94 59.31 60.63 59.61 59.55 58.51 58.88 56.83 55.52 54.11 54.00 51.11 51.80 53.69 51.36 46.69 46.97 49.06 50.70 51.84 54.57 54.64 55.19 55.93 56.73 57.05 57.36 57.55
57.48 57.80 57.78 57.76 58.07 58.23 58.40 57.22 55.72 55.29 55.12 56.96 57.68 58.64 58.58 59.30 58.53 58.62 59.54 58.88 57.66 59.06 57.44 56.58 55.90 53.61 53.23 52.25 50.85 52.39 51.83 51.17 48.41 46.62 49.72 50.32 51.15 52.96 53.64 54.94 56.61 57.12 57.67
58.16 57.75 56.94 56.96 57.12 57.17 57.83 57.13 56.26 55.84 56.16 56.87 57.38 57.40 57.78 58.15 57.53 57.46 58.43 58.27 57.32 58.18 57.45 56.64 56.26 54.90 53.37 51.45 50.19 51.00 51.81 53.13 52.55 48.66 45.71 46.88 48.06 49.48 51.25 52.60 54.33 56.46 57.22
57.30 57.67 56.36 55.66 55.86 56.78 57.63 57.08 56.20 55.46 55.38 55.11 55.54 55.72 56.20 57.09 56.68 56.65 57.45 57.74 57.53 57.70 57.34 56.94 57.25 56.05 55.07 53.85 52.46 52.66 52.28 51.42 50.73 49.81 47.21 46.82 46.89 48.92 50.98 51.72 50.94 52.23 53.98

GFSSE_sfc_wetblb_078.txt.gz
Wetbulb
67.99 69.55 71.63 72.17 71.64 72.13 72.15 72.24 72.58 73.05 73.72 73.55 73.60 73.61 73.81 73.66 73.40 73.08 72.75 72.66 72.79 73.36 73.85 73.53 73.27 73.36 72.71 72.39 72.47 72.35 71.82 71.35 70.94 71.21 71.18 71.71 71.26 71.07 70.93 70.79 70.52 69.23 70.91
68.37 70.39 71.06 72.03 72.02 72.25 72.34 72.15 72.67 73.22 73.83 73.93 73.69 73.53 73.46 73.46 73.11 72.62 72.68 72.59 72.84 73.54 73.98 73.96 73.44 72.71 72.34 71.68 71.78 71.37 71.23 70.40 70.30 70.52 70.82 71.14 70.84 70.70 70.57 70.12 70.16 69.27 70.58
68.28 70.28 70.78 71.47 72.07 72.19 72.34 72.17 72.67 73.29 73.81 73.74 73.48 73.36 73.26 73.06 72.72 72.60 72.66 72.41 72.77 73.17 73.18 73.04 72.43 71.94 71.71 71.26 71.00 70.91 70.67 70.30 69.95 69.87 70.00 68.29 68.35 70.06 70.19 69.58 69.89 70.04 69.92
69.02 69.65 70.31 71.52 71.82 71.89 71.99 72.17 72.15 73.20 73.64 73.59 73.40 73.23 73.00 72.83 72.52 71.82 71.67 72.13 72.35 72.59 72.99 72.25 72.36 71.76 71.03 70.69 70.35 70.06 70.04 69.54 69.01 68.64 67.35 67.62 67.82 69.62 69.57 69.23 69.42 69.42 69.44
68.85 69.55 69.73 71.19 71.31 71.79 71.58 71.91 71.90 72.16 72.54 72.70 72.69 72.95 72.83 72.71 72.54 72.29 71.59 71.68 72.17 72.40 72.64 72.30 71.98 71.03 70.53 69.48 69.24 69.28 68.87 68.29 67.87 66.09 65.62 66.02 66.95 68.66 69.25 68.33 68.27 68.40 68.63
68.87 69.34 69.08 70.29 70.98 71.55 71.59 71.80 71.78 71.74 71.48 71.58 71.98 72.40 72.51 72.42 72.32 72.09 71.40 71.49 71.90 72.05 72.35 71.93 71.29 70.18 69.11 68.66 68.57 68.18 67.59 66.94 65.51 64.47 65.47 66.77 65.96 67.96 67.58 66.68 66.38 66.24 66.98
67.61 69.38 69.40 69.19 70.38 71.28 71.62 71.76 71.60 71.27 70.92 71.17 71.44 71.54 71.63 71.94 71.79 71.49 70.86 70.92 71.18 71.46 71.43 70.87 70.22 69.04 68.21 67.92 67.76 67.05 66.17 65.45 62.65 62.52 63.59 64.79 65.43 66.99 66.70 65.78 65.46 65.05 64.78
65.86 66.95 68.56 69.97 70.36 70.73 71.03 70.86 70.16 70.34 70.61 70.68 70.78 70.85 70.59 70.12 69.57 69.81 70.47 70.35 70.05 70.43 69.81 69.45 68.81 68.18 67.74 67.20 66.54 65.59 64.91 64.37 62.57 62.43 63.60 64.24 66.41 66.38 66.07 65.20 64.27 64.12 63.51
65.37 65.54 66.66 68.93 69.85 69.82 69.37 69.28 68.59 69.00 68.92 69.24 68.87 68.13 67.39 67.08 68.18 68.47 68.95 69.74 69.60 69.06 68.99 68.64 67.92 67.39 67.18 66.35 65.48 64.27 63.59 63.44 61.26 62.07 63.11 63.72 66.12 65.86 64.88 63.45 63.24 62.58 62.10
63.84 64.30 64.70 68.17 69.05 69.10 69.51 68.38 66.76 67.77 67.14 66.34 66.05 65.83 65.18 64.16 65.28 67.24 67.11 67.96 68.36 68.68 68.41 67.86 67.18 66.76 66.26 65.13 64.30 63.50 62.98 62.16 59.72 60.94 61.53 63.01 65.29 64.32 63.53 62.77 62.93 62.66 62.28
62.84 63.05 63.13 64.37 65.53 65.99 66.76 67.30 67.36 67.34 66.63 66.07 65.87 65.18 64.36 64.02 64.86 65.22 66.43 66.77 67.91 67.02 67.35 66.37 66.18 65.88 65.03 64.32 63.73 62.96 61.47 58.13 58.67 58.64 59.88 63.68 63.81 63.83 63.55 63.02 62.42 61.85 61.73
61.81 62.02 64.24 63.88 61.43 61.89 64.83 65.15 66.34 66.36 65.37 64.41 63.53 62.65 62.37 63.29 63.40 64.32 65.01 66.12 66.19 66.00 65.86 65.32 65.64 64.74 63.15 61.31 61.35 61.00 58.38 57.61 57.38 57.52 59.71 63.34 63.95 63.95 63.17 62.34 61.42 61.66 62.16
60.86 60.12 63.08 63.92 62.03 62.71 63.98 64.60 65.62 64.86 63.82 63.88 63.16 62.30 62.39 63.25 64.13 64.33 64.30 64.79 64.84 65.03 62.80 62.56 63.30 61.26 60.13 59.90 56.67 57.31 57.66 57.30 56.30 56.84 59.98 61.89 63.36 62.63 62.37 62.49 62.00 61.65 61.31
59.47 59.83 62.47 63.33 63.43 62.77 63.09 63.42 63.22 64.02 63.69 63.08 63.64 63.42 62.71 63.36 63.66 63.07 63.43 63.61 63.52 62.61 59.84 59.83 60.63 59.27 59.07 57.73 56.93 57.36 56.98 56.69 55.93 56.35 59.34 61.93 62.85 62.72 63.27 62.87 62.34 61.82 60.85
58.60 59.21 61.71 62.66 62.95 62.46 62.38 61.89 61.95 62.61 62.83 62.67 63.05 62.48 62.13 62.28 62.62 63.46 63.07 62.83 62.90 61.09 59.10 55.99 57.02 57.61 56.00 56.57 56.74 57.03 56.96 56.50 56.51 56.88 58.47 61.43 62.21 62.89 62.81 62.80 62.40 61.40 60.81
59.27 60.00 62.24 62.29 62.33 60.65 61.06 60.84 61.06 61.30 61.85 61.56 61.89 62.46 61.14 61.06 61.39 62.13 62.41 62.23 61.47 60.35 58.29 55.54 56.36 56.57 55.96 56.42 56.03 56.85 56.78 56.47 56.95 57.34 57.55 59.60 60.91 61.70 62.39 62.13 61.82 61.47 61.07
59.76 59.77 62.02 62.33 61.16 58.95 59.60 60.33 59.87 59.63 60.19 59.83 60.91 61.43 60.36 60.67 61.41 63.02 62.38 61.56 60.81 59.98 57.20 54.30 54.12 55.77 55.90 56.51 55.81 56.09 56.57 56.80 56.85 56.91 57.27 57.56 59.22 60.27 61.10 62.00 61.53 60.67 60.64
58.43 58.95 61.51 62.04 60.55 58.11 58.84 60.35 60.71 60.26 59.81 59.08 59.67 60.80 60.82 60.98 63.17 63.25 62.20 60.87 59.56 58.68 57.30 54.81 54.09 54.49 55.07 54.66 54.58 55.25 56.12 56.53 56.75 56.71 56.86 56.90 57.19 57.90 59.70 60.48 61.22 61.16 60.43
58.62 58.45 59.27 60.81 59.41 56.97 57.09 59.14 59.76 60.48 60.90 61.40 60.27 60.21 61.07 61.31 61.83 62.71 61.54 59.57 57.80 57.22 57.14 54.88 53.21 54.81 54.85 54.55 54.47 54.60 54.46 55.57 55.77 56.62 56.14 56.15 56.41 56.54 57.08 59.52 59.72 59.92 60.65
57.67 57.97 59.36 59.87 58.37 57.47 58.01 58.84 59.86 59.98 60.70 61.00 61.48 60.62 60.42 61.00 62.10 61.98 60.26 57.76 57.67 56.36 54.92 54.00 52.47 52.02 54.69 54.47 54.90 53.45 53.25 53.95 55.09 55.62 55.90 56.28 56.13 56.28 56.53 57.13 58.19 57.95 58.95
56.75 57.99 58.28 58.68 58.87 58.15 57.40 57.25 57.93 57.59 58.90 60.16 61.49 62.16 61.05 60.96 61.82 60.48 58.19 56.73 56.68 54.66 54.92 54.08 52.45 52.28 51.97 54.07 52.59 52.03 52.06 52.75 53.53 54.15 55.03 55.60 55.71 55.96 56.13 56.34 56.70 56.97 57.78
58.11 58.31 57.80 58.39 57.86 58.15 58.99 58.52 58.40 58.32 58.77 59.76 60.64 60.03 59.49 58.82 58.70 58.09 56.82 56.39 55.44 54.25 54.26 53.87 53.28 51.53 51.96 54.42 51.71 50.93 49.58 51.45 52.73 53.95 54.37 55.12 55.26 56.19 55.92 56.28 56.68 56.83 56.85
57.69 57.85 57.63 57.60 57.41 57.35 58.59 57.86 57.53 57.79 58.35 58.21 59.24 60.04 59.51 59.11 58.44 57.92 57.16 56.51 54.31 54.25 53.97 54.49 53.48 52.32 52.40 53.19 54.66 51.34 48.19 48.10 50.95 52.26 52.80 53.65 54.38 54.90 55.86 56.12 56.19 56.51 56.92
57.34 58.19 57.62 56.87 56.43 57.70 57.99 57.09 56.49 55.65 55.82 57.12 58.61 59.54 60.14 59.27 58.08 57.62 57.31 55.74 54.42 54.06 54.22 55.04 54.94 54.01 53.91 53.03 51.48 52.59 52.78 51.80 49.90 46.88 50.59 53.08 54.39 54.19 55.08 55.68 56.17 56.24 56.67
57.34 56.62 56.34 56.06 56.44 56.93 57.07 57.01 53.78 54.77 55.53 57.28 58.09 58.47 58.84 59.71 58.63 57.69 58.26 56.72 55.61 55.31 55.65 55.63 54.52 53.95 54.04 53.89 51.90 51.17 51.17 51.62 51.06 48.71 46.83 49.04 52.36 54.01 55.24 55.25 55.57 56.04 56.52
57.26 56.56 56.56 57.33 57.21 56.82 56.38 56.54 53.59 54.68 55.41 55.16 55.76 57.17 57.51 57.91 58.85 57.97 58.44 58.11 58.09 57.27 56.61 56.36 55.23 54.42 53.80 54.09 54.24 52.04 51.92 50.90 49.86 49.45 47.63 48.33 50.29 50.65 53.96 55.24 55.12 55.43 56.23

GFSSE_sfc_wetblb_081.txt.gz
Wetbulb
69.78 71.82 71.44 71.35 71.76 72.44 72.71 72.87 73.18 73.19 73.45 73.58 73.73 73.87 73.82 73.90 73.87 73.71 73.47 73.31 73.38 73.61 73.82 73.07 73.58 73.18 72.48 72.50 72.89 72.70 72.14 71.79 71.58 71.82 71.90 72.20 71.80 71.95 71.42 71.31 71.11 70.72 71.29
71.39 72.11 70.88 70.90 71.44 72.63 72.63 72.67 73.05 73.36 73.45 73.83 73.72 73.72 73.73 73.85 73.62 73.27 72.96 73.17 73.14 73.76 73.37 73.38 73.61 73.73 72.88 72.31 72.27 71.82 71.40 71.01 70.94 71.02 71.12 71.85 71.36 71.04 70.96 70.85 70.77 70.41 70.74
71.32 71.77 71.97 70.68 71.31 72.31 72.58 72.88 73.29 73.86 73.81 73.90 73.74 73.65 73.67 73.54 73.20 72.83 72.74 72.75 73.14 73.56 73.43 73.13 73.48 72.78 72.17 71.92 71.43 71.12 71.12 70.72 70.29 70.29 70.69 70.33 70.12 70.72 70.66 70.45 70.48 70.56 70.36
71.28 71.53 72.02 70.77 71.37 72.15 72.03 72.64 73.10 74.00 74.10 73.87 73.77 73.74 73.52 73.22 72.88 72.73 72.60 72.45 72.74 73.46 73.61 72.74 72.77 72.02 71.65 71.36 70.75 70.57 70.27 70.05 69.46 69.58 69.62 69.82 69.40 70.25 70.40 69.80 69.87 69.93 69.78
70.66 70.78 71.38 71.00 70.97 71.58 71.93 71.95 72.53 72.28 73.27 73.16 73.21 73.42 73.40 73.06 72.99 72.71 72.15 72.19 72.74 73.31 73.48 72.75 72.20 72.05 71.05 70.12 69.88 69.59 69.11 68.55 68.27 68.45 68.25 69.72 69.61 69.71 69.88 69.51 69.21 69.31 69.32
70.66 70.80 70.64 70.23 70.27 70.97 71.73 71.78 72.25 72.01 71.61 72.11 72.62 72.87 73.10 72.94 72.75 71.77 71.35 72.17 72.67 72.99 73.11 72.49 71.67 70.60 69.76 69.22 68.95 68.78 68.07 67.83 67.61 68.31 69.18 69.18 68.80 68.66 68.40 67.66 68.31 68.18 68.42
70.62 71.40 71.69 69.54 70.41 70.85 71.17 71.67 71.61 71.52 71.18 71.00 72.05 72.28 71.63 72.19 71.55 71.15 70.41 71.53 72.04 72.07 71.83 71.17 70.67 69.89 69.08 68.64 68.32 67.78 66.99 67.08 69.06 68.79 68.61 68.34 67.98 67.81 67.50 66.70 66.39 66.41 66.21
69.31 70.16 70.17 70.49 70.52 70.16 70.47 70.99 70.57 70.60 70.32 71.17 71.45 71.81 71.65 70.72 70.09 69.68 69.54 69.77 69.71 70.19 70.18 69.96 69.46 69.15 68.46 68.03 67.34 66.14 65.52 66.22 67.61 67.89 67.81 67.66 67.54 67.23 66.56 65.85 64.92 65.01 65.08
70.85 70.01 68.64 70.22 71.03 69.72 68.92 69.49 69.36 69.31 69.72 69.30 69.59 70.14 68.58 67.09 67.77 67.93 67.73 68.55 69.33 69.57 68.82 69.11 68.64 68.01 67.96 67.07 66.10 64.93 64.57 65.55 67.17 66.95 66.60 66.91 67.27 66.58 65.86 64.94 64.47 64.05 64.30
69.42 70.24 69.81 69.52 70.14 71.94 71.96 68.57 68.44 68.66 68.23 68.05 67.89 67.00 66.22 65.97 65.50 66.08 67.04 67.62 67.95 69.22 68.57 68.50 67.92 67.45 66.83 65.92 64.91 64.07 63.91 64.48 66.41 66.25 66.43 66.49 66.70 65.61 64.73 63.66 62.81 62.75 63.15
67.59 68.81 69.76 68.48 69.62 70.91 70.55 70.23 68.57 68.43 67.34 67.13 67.65 66.02 65.55 66.46 65.91 65.84 66.28 66.69 66.95 67.33 67.37 67.30 67.14 66.24 65.39 64.69 64.31 63.61 63.32 65.29 65.42 65.22 65.50 65.54 65.64 64.82 63.68 63.75 63.02 62.59 62.57
64.37 65.70 67.58 66.71 67.76 68.22 67.46 68.87 69.79 69.42 68.92 66.15 66.15 65.72 66.22 66.09 66.32 64.91 64.70 65.60 66.21 66.35 66.40 66.24 65.93 64.75 64.93 65.60 64.38 62.27 64.36 64.36 64.01 63.99 63.65 64.20 64.42 64.33 64.09 63.56 62.71 62.14 61.86
65.16 64.06 66.48 66.28 66.13 66.44 66.82 67.27 66.90 67.09 67.11 64.98 64.46 64.04 65.47 65.61 65.25 64.39 64.90 65.88 65.79 66.01 66.42 66.52 65.64 65.84 65.99 65.30 64.01 63.93 63.65 63.65 63.20 63.16 62.90 63.75 64.65 64.16 63.99 62.17 62.21 61.84 61.81
64.82 65.40 65.17 65.48 65.44 65.95 66.37 65.29 65.63 65.41 65.78 64.18 63.76 64.04 64.97 64.97 64.88 65.22 65.68 65.59 64.54 64.16 64.68 66.36 65.62 65.20 64.73 64.02 63.53 62.75 62.75 62.68 62.58 62.13 62.44 62.85 63.66 63.49 62.62 63.14 62.71 62.53 61.93
64.11 65.01 64.22 64.73 65.04 65.30 64.97 64.81 65.07 65.13 64.50 64.74 64.03 63.38 65.06 64.39 64.82 65.07 65.08 65.40 63.86 62.86 63.22 65.09 64.39 63.82 63.31 62.88 62.93 62.41 61.88 61.69 61.32 61.65 61.92 61.78 62.54 63.70 63.64 63.66 63.50 62.67 61.53
63.92 64.24 63.78 63.89 64.61 65.23 64.77 64.26 64.09 64.51 64.64 63.99 63.94 64.13 63.55 63.80 65.02 65.17 64.88 64.93 64.01 61.51 62.43 64.50 63.64 62.83 62.53 62.45 62.03 61.93 61.47 61.37 61.48 61.13 61.30 62.36 61.42 62.86 63.50 63.48 62.93 62.24 61.49
63.33 64.09 62.73 63.58 65.28 63.89 63.11 64.11 63.49 62.76 62.83 62.80 63.40 64.08 63.22 63.54 63.60 63.94 64.22 64.01 64.11 61.12 60.12 62.93 62.76 62.56 61.67 61.71 61.32 61.23 61.05 60.97 60.23 60.81 61.97 61.97 61.15 60.43 61.75 62.81 62.15 61.40 61.00
63.54 63.37 63.19 63.94 64.03 63.61 62.94 62.79 62.08 61.69 60.98 61.14 62.04 62.63 62.61 62.88 63.94 64.27 63.72 63.30 63.28 60.77 59.26 60.80 61.25 60.69 60.95 60.43 60.06 60.22 60.37 60.32 60.82 61.53 61.59 61.81 61.66 60.05 60.41 61.01 61.56 61.89 61.58
63.42 62.91 62.58 63.23 63.25 61.92 61.96 62.00 62.29 61.98 61.90 60.84 61.23 61.62 61.51 61.90 63.04 63.14 63.22 63.17 62.67 59.60 59.01 59.90 60.03 60.13 59.12 59.48 59.41 59.80 59.92 59.85 60.69 60.88 60.93 61.43 61.69 61.57 61.85 60.04 59.93 60.32 60.93
62.77 63.11 62.12 62.35 63.05 61.50 60.95 61.21 61.09 61.52 61.88 62.37 61.31 61.34 62.16 62.26 62.16 62.96 62.30 60.71 60.85 59.23 58.73 58.73 59.12 59.94 59.69 59.58 58.44 58.47 59.29 60.06 60.72 60.50 60.66 60.45 61.01 61.25 61.48 61.51 60.89 60.02 59.41
61.97 61.55 60.40 60.96 60.38 59.50 58.85 59.15 59.28 59.18 60.70 61.40 61.99 62.72 61.93 61.65 62.03 61.25 61.20 59.33 59.79 58.99 58.39 58.62 58.71 58.57 58.62 60.02 57.69 56.62 57.57 58.77 59.07 59.44 60.55 59.76 59.64 60.74 61.13 60.89 60.56 60.49 59.81
60.58 60.85 59.49 60.15 60.15 59.38 59.64 59.58 59.27 59.78 60.45 61.17 62.55 62.20 62.32 60.86 61.61 61.64 58.71 59.22 58.98 58.36 59.22 58.07 58.35 57.97 58.13 58.86 57.11 56.33 52.47 55.02 57.40 58.42 59.07 59.34 59.53 59.57 59.42 59.86 59.89 60.08 60.46
60.32 59.97 59.15 59.47 60.00 59.51 60.26 60.94 59.54 59.74 59.97 59.67 59.90 59.55 58.74 60.51 60.97 59.77 58.78 58.35 57.88 58.73 57.53 57.74 58.47 58.51 56.32 57.97 59.27 57.55 52.56 52.75 55.13 57.57 57.65 58.72 59.18 59.14 59.50 59.11 59.25 59.47 59.91
60.74 61.08 59.44 59.26 59.24 59.12 61.55 60.23 58.20 57.40 57.23 58.84 59.86 60.20 58.96 59.02 58.47 58.27 57.80 57.33 56.59 58.24 57.47 57.29 57.30 58.33 58.77 56.34 57.90 57.34 59.79 58.37 54.93 53.28 56.42 57.76 58.79 58.33 59.21 59.24 59.53 59.78 60.37
60.86 60.04 58.65 58.22 58.81 59.21 60.87 60.43 58.72 57.62 58.34 59.17 59.20 59.26 59.41 58.52 58.80 57.87 56.93 55.46 56.08 56.75 57.30 56.94 56.59 57.04 58.67 58.55 57.45 56.75 56.52 57.00 58.18 56.03 52.97 54.20 57.25 58.28 58.76 59.16 59.65 59.61 59.33
60.27 58.53 57.47 57.02 57.46 58.24 59.51 59.16 58.35 59.03 57.88 57.49 58.40 58.22 58.18 58.86 58.38 58.34 57.34 56.59 55.84 56.26 56.74 57.44 57.25 57.20 57.30 58.05 57.22 57.23 56.11 55.05 53.98 54.59 53.89 55.18 55.38 56.73 57.46 58.99 58.94 58.74 58.87

GFSSE_sfc_wetblb_084.txt.gz
Wetbulb
71.95 73.34 71.79 72.19 72.79 72.98 73.22 73.25 73.49 73.56 73.90 73.71 73.86 74.03 74.16 74.16 74.16 74.02 73.88 73.77 74.03 74.46 74.04 73.58 73.66 72.78 72.96 72.69 72.50 73.16 72.97 72.51 72.22 72.41 72.19 72.43 72.23 72.01 71.51 71.48 71.57 71.74 71.72
73.35 74.16 70.81 71.74 72.35 72.94 73.23 73.14 73.50 73.73 73.78 73.91 73.78 74.03 73.95 73.98 73.92 73.85 73.93 74.04 73.88 74.31 73.88 73.18 73.14 73.17 73.08 72.92 72.73 72.25 71.98 71.65 71.43 71.51 71.90 72.08 71.86 71.43 71.26 71.39 71.38 71.32 71.31
73.71 74.70 72.92 70.86 72.18 72.91 72.99 73.25 73.86 74.04 74.03 73.91 73.86 73.78 73.88 74.00 73.92 73.60 73.31 73.45 73.49 73.87 73.96 73.21 73.11 73.21 72.95 72.40 71.76 71.60 71.67 71.20 70.92 71.11 70.72 71.72 71.25 71.39 71.02 70.94 70.66 71.04 70.46
73.52 74.58 74.22 70.65 71.52 72.65 73.00 73.30 73.60 74.22 74.31 73.91 73.92 73.93 73.91 73.83 73.62 73.09 72.99 72.72 73.09 73.72 74.06 73.48 73.38 73.00 72.42 71.52 71.07 71.07 70.97 70.58 70.29 70.48 71.51 70.39 70.53 70.72 70.72 70.47 70.42 70.37 70.27
73.18 74.08 74.07 70.59 71.17 72.23 72.59 72.87 73.21 73.49 73.59 73.30 73.57 73.93 73.93 73.68 73.34 73.00 72.51 72.58 73.14 73.74 73.84 73.23 72.74 72.52 71.47 70.63 70.36 70.10 69.81 69.74 69.53 70.09 70.98 70.04 69.93 70.42 70.53 70.30 70.10 69.74 69.52
72.88 73.37 71.24 70.03 70.86 71.79 72.11 72.55 72.64 72.18 72.55 72.70 73.15 73.47 73.68 72.41 72.07 72.82 72.12 72.63 73.19 73.07 73.04 72.79 72.01 71.52 70.22 69.57 69.40 69.15 68.60 68.58 68.61 71.10 69.87 69.77 69.97 69.86 69.91 69.10 69.29 69.05 69.07
72.75 73.63 73.41 69.28 70.16 71.10 72.02 72.29 72.16 71.77 71.66 72.16 72.73 71.49 71.75 71.35 72.39 71.43 71.05 71.07 72.27 71.86 71.81 71.34 70.98 70.22 69.69 69.05 68.91 68.34 68.05 68.02 69.28 70.18 69.76 69.23 69.15 68.86 68.66 68.19 67.55 67.68 67.38
72.90 73.65 73.66 70.78 70.23 70.25 71.07 71.24 71.06 71.14 70.76 70.95 71.07 71.10 71.77 71.66 70.53 70.01 69.79 69.93 70.49 70.65 69.81 69.87 69.95 69.59 69.12 68.76 67.93 67.26 67.19 67.56 68.96 69.09 69.18 68.78 68.26 68.14 67.82 67.05 66.66 66.40 66.05
73.47 73.44 72.49 72.74 71.97 69.42 68.82 69.76 69.51 69.97 70.36 70.21 70.71 70.01 69.43 69.00 68.91 69.05 68.86 68.96 68.46 69.12 69.02 69.61 69.39 68.79 68.58 67.73 66.82 66.07 66.08 67.11 68.73 68.00 67.76 67.35 67.80 67.07 66.42 65.75 65.76 65.69 65.50
73.14 72.89 71.18 71.35 72.18 71.59 71.43 68.58 69.14 69.29 69.29 68.38 69.74 67.41 67.25 68.19 68.18 68.16 67.81 67.82 67.24 68.29 68.64 68.79 68.03 68.03 67.09 66.65 65.67 65.29 65.22 65.92 68.15 68.48 67.62 66.83 67.10 66.49 65.70 64.91 64.71 64.64 64.41
71.68 72.86 73.20 70.80 71.29 72.12 72.45 71.74 69.74 69.50 68.57 68.19 68.31 67.14 67.05 70.02 69.57 67.22 67.05 66.86 67.52 67.51 68.19 68.28 67.34 66.85 65.51 65.14 65.07 64.71 64.83 67.32 67.42 66.81 66.64 66.02 66.46 65.50 64.54 63.82 63.46 63.64 63.52
69.33 71.35 72.37 70.76 71.29 71.24 70.84 71.93 71.91 72.33 72.10 71.49 70.88 69.18 70.04 70.02 68.81 67.68 66.40 66.25 66.70 67.00 67.38 67.01 66.27 65.42 65.67 67.95 67.09 64.86 66.92 66.71 66.62 66.34 65.43 65.28 66.13 64.98 64.38 63.53 63.22 63.19 62.95
68.64 69.59 70.67 69.88 70.45 72.21 70.29 70.32 70.91 70.35 70.34 70.87 70.55 68.99 68.96 68.98 67.88 66.44 66.63 66.19 68.81 66.56 66.14 66.18 66.23 68.45 67.65 67.31 66.63 66.46 66.31 67.17 66.53 66.13 64.24 64.40 65.24 64.66 64.57 63.74 63.38 62.82 62.30
68.02 68.94 69.04 69.07 69.41 70.81 69.11 69.19 69.19 67.68 67.88 68.60 69.46 69.82 67.23 67.24 67.92 67.25 64.92 66.14 66.75 65.51 64.98 65.31 68.20 67.92 67.38 67.06 66.31 66.30 66.25 65.96 65.35 65.21 64.24 63.60 64.55 64.36 64.26 63.50 62.66 62.46 62.36
67.45 68.79 68.50 69.32 69.11 68.07 67.18 67.48 67.03 66.63 67.01 67.43 68.19 68.59 67.37 66.18 66.76 66.17 65.70 66.90 66.99 65.77 65.22 65.00 67.39 66.65 66.22 66.23 66.18 66.05 65.52 64.92 64.65 64.15 63.92 62.76 63.33 64.20 62.86 62.98 63.53 63.37 62.89
66.47 68.36 69.07 68.46 69.13 69.61 69.74 67.18 65.89 66.89 66.68 66.70 67.30 67.41 66.37 65.04 66.10 65.47 65.89 66.53 65.79 64.52 64.60 64.67 66.23 65.78 65.88 65.93 65.63 65.47 64.73 64.39 63.67 63.47 63.34 62.27 61.49 62.75 63.64 63.50 63.62 63.05 61.92
65.77 68.10 68.58 68.26 68.40 68.64 68.80 68.64 67.38 66.21 67.27 66.40 65.92 66.32 65.40 65.88 66.27 66.23 66.42 66.38 64.94 65.17 63.87 64.05 65.81 66.13 65.21 65.17 64.70 64.82 64.17 63.45 62.88 62.80 63.14 62.44 62.14 60.91 62.29 63.51 63.56 62.72 61.73
65.98 67.33 68.42 66.98 67.67 67.43 67.94 67.39 66.96 65.68 66.07 65.95 65.72 65.99 64.97 64.19 64.56 64.54 64.47 65.40 65.18 64.01 64.34 63.10 65.49 64.27 64.19 63.94 63.23 63.65 63.04 62.59 62.54 62.37 62.61 63.02 61.96 61.77 61.49 61.93 62.52 62.42 62.09
66.48 67.30 67.45 66.93 67.05 67.63 66.53 65.67 65.91 64.79 64.27 64.07 64.47 64.89 64.45 64.43 63.92 63.92 65.75 66.01 64.60 63.05 64.26 61.82 63.58 64.16 63.13 63.12 62.69 62.96 62.59 62.14 62.32 62.17 62.06 62.65 62.98 61.26 62.75 60.61 60.42 60.57 61.47
66.49 67.70 67.49 66.72 67.46 66.08 63.31 63.68 64.25 64.30 63.59 62.80 62.22 62.61 62.90 63.23 63.70 64.52 64.05 64.11 63.21 62.53 61.17 61.30 62.11 63.56 63.48 62.50 61.31 61.05 62.34 61.85 61.76 61.23 60.94 62.21 62.82 62.71 63.18 62.66 61.15 60.66 59.59
65.95 66.81 66.68 65.19 66.59 64.22 62.70 62.64 61.95 62.49 62.52 62.53 63.19 63.07 63.48 63.08 62.43 62.78 62.90 62.71 61.27 60.26 59.99 60.32 62.54 62.20 61.55 62.80 60.19 59.02 59.86 60.32 61.03 60.74 61.26 61.80 62.05 62.19 62.57 62.56 62.17 61.63 60.75
64.83 66.25 65.98 64.73 64.79 64.64 64.36 63.64 62.75 61.85 62.69 63.26 63.84 65.00 65.03 64.26 64.25 62.57 61.91 61.34 60.90 59.88 58.69 59.30 61.35 60.75 61.26 62.13 59.05 58.34 54.15 57.15 58.95 60.30 60.85 60.98 61.93 61.78 61.39 60.94 61.83 61.84 62.00
63.90 65.45 64.17 63.92 65.00 63.76 64.79 62.96 63.29 62.81 61.84 61.52 62.74 63.73 63.26 62.64 62.19 61.87 61.56 60.55 60.55 59.40 57.67 58.50 61.76 61.39 59.71 61.75 62.06 58.94 53.83 53.88 56.69 59.31 59.93 60.08 60.72 60.89 61.44 61.62 61.81 61.73 61.70
63.46 65.70 64.11 64.09 65.01 63.25 63.95 62.57 61.94 60.67 58.55 61.47 61.56 61.71 62.76 61.52 61.53 60.95 61.19 60.48 59.98 59.49 58.35 58.50 61.26 61.92 61.69 59.72 60.99 60.93 61.14 59.74 56.01 54.66 59.72 60.57 60.96 60.44 61.48 61.31 61.23 61.35 61.13
63.71 64.96 63.91 62.74 63.46 63.14 62.35 63.85 61.74 61.17 60.65 62.48 61.48 60.83 59.78 59.16 59.47 59.43 59.60 59.38 58.88 59.26 58.60 58.80 60.61 62.09 62.16 61.18 60.10 60.14 60.50 60.63 60.41 57.44 55.13 57.66 60.24 61.27 61.84 61.59 61.61 61.78 61.91
63.66 64.63 61.94 60.78 60.92 62.11 62.58 63.73 62.15 61.30 60.97 60.64 60.28 59.10 58.93 58.65 58.82 57.85 57.16 57.72 58.12 58.08 58.09 58.86 61.90 61.77 61.16 61.54 60.71 60.81 59.43 58.24 57.83 57.80 56.67 57.36 57.19 59.68 61.21 61.85 61.83 62.01 62.61

GFSSE_sfc_wetblb_087.txt.gz
Wetbulb
71.58 73.23 72.13 73.05 73.23 73.48 73.46 73.55 73.62 73.47 73.84 73.95 74.18 74.25 74.38 74.38 74.25 74.32 74.23 74.09 74.18 74.69 75.09 74.16 73.69 73.09 72.95 72.72 72.43 73.42 73.40 72.82 72.51 72.95 72.94 73.02 72.60 72.23 71.86 72.02 71.80 71.43 71.79
73.10 73.31 71.39 72.38 73.08 73.23 73.48 73.48 73.70 73.56 73.84 73.98 74.12 74.17 74.22 74.27 74.14 74.14 74.03 74.14 74.46 74.89 74.64 73.86 73.38 73.06 72.91 72.45 73.25 72.79 72.56 72.01 71.77 71.80 72.32 72.45 71.95 71.69 71.47 71.71 71.31 71.24 71.51
73.31 74.00 72.80 71.64 72.66 73.15 73.26 73.37 73.78 74.16 74.20 74.11 74.07 74.17 73.81 74.05 73.15 73.92 73.72 73.93 74.15 74.66 73.99 73.35 73.05 72.81 72.85 72.68 72.25 71.98 71.90 71.59 71.43 71.43 71.59 71.06 71.24 71.39 71.51 70.99 71.06 71.17 70.92
72.84 74.35 73.74 71.24 72.14 72.88 73.29 73.47 73.94 74.48 74.35 74.05 73.95 74.09 74.00 74.09 73.84 73.06 73.07 73.30 73.85 74.24 74.09 73.28 73.09 73.32 72.66 71.78 71.43 71.36 71.29 70.90 70.84 70.67 71.09 69.79 70.50 71.12 70.90 70.69 70.76 70.88 70.85
71.16 73.41 74.16 70.86 71.68 72.66 72.90 73.30 73.54 73.73 73.71 73.59 73.72 74.15 74.02 74.07 74.00 73.18 72.06 72.83 73.56 73.99 74.24 73.62 72.99 72.40 71.66 70.76 70.60 70.55 70.39 70.12 69.84 70.32 70.58 70.13 69.99 70.65 71.02 70.44 69.96 70.07 70.00
71.53 72.79 70.20 70.02 71.22 72.27 72.80 72.98 73.41 73.03 72.88 72.97 73.26 73.67 73.93 72.82 72.70 71.91 71.43 71.93 73.42 73.12 73.57 73.19 72.69 71.66 70.50 70.03 69.90 69.97 69.64 69.46 69.26 68.88 69.21 69.72 69.77 70.08 70.11 69.77 69.90 69.83 69.49
72.16 73.16 73.41 69.43 70.72 71.84 72.59 72.86 72.63 72.29 72.41 72.47 72.92 72.99 72.36 72.40 71.86 71.94 71.36 71.84 72.20 71.98 71.56 71.17 70.87 70.53 69.83 69.37 69.34 69.05 68.65 68.71 68.32 69.52 69.10 69.71 69.56 69.74 69.78 69.35 68.95 69.18 69.21
72.32 73.40 74.12 70.59 70.40 70.81 71.34 71.66 71.46 71.46 71.67 72.00 71.68 71.71 71.87 71.40 71.34 70.80 70.48 70.21 69.80 68.80 69.41 69.59 69.74 69.85 69.31 69.01 68.43 67.36 67.67 67.15 69.09 69.08 69.39 69.25 69.02 69.27 68.79 68.11 67.69 68.19 67.46
73.47 73.75 74.01 73.05 71.63 69.67 69.64 69.92 70.11 70.68 70.84 70.95 70.11 70.69 70.07 69.69 69.61 69.87 69.65 69.63 69.32 68.89 68.73 69.07 69.30 69.11 69.02 67.46 67.06 66.56 66.72 65.71 68.35 68.53 68.38 67.89 68.64 68.25 68.10 67.45 66.94 66.67 66.54
73.27 73.82 73.73 73.74 73.24 72.90 72.23 68.92 69.50 70.33 70.23 70.22 70.42 68.76 68.54 68.62 69.13 68.61 68.65 68.74 68.39 67.92 68.51 68.68 68.25 68.38 67.24 66.72 66.05 65.76 64.59 65.14 67.85 67.66 67.77 67.44 67.56 67.22 66.98 66.56 66.18 65.93 65.83
72.15 72.68 73.27 72.32 73.11 73.06 71.82 71.55 69.84 69.81 69.49 68.65 69.28 67.73 67.32 70.57 70.32 68.66 67.76 67.58 67.48 67.01 67.66 68.36 67.68 67.03 65.89 65.38 65.19 65.34 65.03 67.87 67.12 65.65 67.85 66.61 67.42 66.44 65.70 65.22 64.74 64.59 64.62
70.00 72.00 72.89 71.68 71.40 72.04 71.60 72.51 72.02 71.20 71.54 71.45 71.00 70.96 70.44 70.79 70.22 68.94 67.40 66.50 66.59 66.52 67.18 67.41 66.90 65.89 65.83 68.41 67.48 64.96 67.95 67.43 65.91 65.16 66.06 65.98 66.44 65.69 64.86 64.15 63.84 63.72 63.69
69.64 70.83 72.19 72.28 71.78 72.13 71.23 72.31 71.78 71.45 72.08 71.73 71.80 71.33 71.16 70.78 70.09 68.93 66.88 67.04 67.16 66.85 66.54 67.03 66.47 67.21 68.05 68.29 68.33 68.18 66.97 66.23 65.64 64.55 65.03 65.44 66.18 65.31 64.50 63.69 63.72 63.43 63.23
68.52 69.87 71.52 72.39 70.70 72.21 71.57 70.87 70.94 71.29 71.69 71.06 70.68 71.06 70.85 69.91 69.15 68.11 67.36 66.81 67.09 68.49 67.24 65.85 65.91 67.16 68.05 67.54 67.59 67.05 65.85 66.28 66.30 65.73 64.49 64.27 64.95 65.05 64.65 63.79 63.69 63.15 62.46
67.20 69.14 71.03 71.24 71.05 71.55 70.70 69.69 70.12 70.30 70.02 69.61 70.70 70.26 70.90 69.41 68.52 68.03 66.93 67.12 67.54 68.35 65.50 63.48 64.19 66.22 67.38 67.18 66.87 66.41 63.96 65.81 65.06 65.31 64.35 63.11 64.01 64.90 64.24 63.85 62.99 62.57 62.72
65.00 68.44 71.14 70.62 70.91 71.07 70.26 69.20 68.08 69.13 68.71 68.44 68.63 69.45 69.65 69.60 68.52 67.87 67.12 66.95 67.65 67.68 66.44 63.40 63.90 64.52 67.00 66.89 65.68 65.19 65.00 64.86 64.56 64.16 64.10 63.30 62.35 63.39 63.78 63.32 63.36 63.53 63.12
62.31 66.31 70.30 70.55 70.84 70.51 69.99 70.09 68.07 68.72 67.07 66.83 67.25 69.40 68.92 68.32 67.77 67.77 67.14 67.35 65.99 66.38 66.77 63.47 63.42 64.06 65.30 65.11 63.58 64.43 64.05 64.24 63.47 63.04 63.32 63.29 62.30 61.02 62.16 63.71 64.11 63.45 62.27
61.53 63.66 69.43 70.13 70.08 70.18 70.20 69.86 68.95 66.84 66.66 67.31 68.11 68.44 68.13 67.29 67.36 67.34 66.69 66.57 66.83 65.60 65.43 62.67 62.96 62.10 62.63 62.91 62.88 62.09 63.44 63.10 62.88 62.63 62.83 62.56 62.29 61.31 61.53 62.30 63.09 63.24 62.41
61.34 64.35 68.01 70.11 69.15 69.50 69.92 69.46 68.82 67.39 66.33 66.96 67.95 67.14 66.66 66.49 66.42 66.38 66.07 65.76 65.65 64.94 64.52 63.54 62.43 62.01 62.15 61.83 61.99 62.57 62.53 61.45 61.81 61.60 62.40 62.24 62.42 62.28 62.26 61.26 61.11 60.98 61.92
62.15 65.59 68.05 69.65 68.88 69.21 69.23 67.57 67.06 65.19 65.50 65.50 65.49 65.70 66.32 65.56 65.11 64.85 64.32 64.20 63.85 64.21 64.17 63.31 61.65 61.84 62.42 61.99 61.06 61.10 61.96 61.96 61.91 61.27 61.46 62.20 62.25 62.14 62.59 62.38 61.80 60.47 60.20
63.76 66.31 67.84 68.58 68.37 68.94 66.46 64.33 64.36 62.61 64.22 63.98 64.43 64.84 64.81 65.09 64.58 64.28 63.96 63.77 63.05 63.31 62.66 62.64 61.57 60.31 60.03 61.21 59.72 59.60 60.28 60.95 61.31 61.10 61.87 61.24 62.02 61.51 62.49 62.71 61.68 61.00 60.11
64.20 66.47 67.71 67.99 68.15 67.53 66.06 66.12 65.46 64.78 64.16 65.25 65.19 64.26 64.13 63.39 63.47 62.93 62.96 62.76 62.25 61.95 61.43 61.16 60.85 59.70 60.02 61.50 59.21 57.39 54.47 56.29 59.23 60.56 61.37 60.99 62.41 61.36 61.32 62.43 62.44 61.37 61.82
63.62 65.88 67.09 67.77 68.00 67.29 66.84 66.50 65.47 64.71 63.77 63.17 62.49 63.31 65.70 65.39 65.39 64.65 64.06 62.82 61.32 62.12 60.41 60.26 60.75 59.81 57.77 60.36 61.84 58.29 53.86 52.88 56.54 59.17 60.30 60.35 61.43 61.05 61.57 61.37 61.33 61.60 61.83
63.44 65.98 67.07 67.71 67.52 67.11 67.14 65.55 64.04 62.21 61.04 62.51 62.83 64.03 64.58 64.79 64.38 64.49 63.90 62.62 61.75 60.85 59.80 60.13 61.03 60.42 59.81 59.31 59.95 60.35 60.60 59.46 55.39 54.37 59.14 59.75 60.89 60.42 61.98 61.59 61.53 61.32 61.80
63.28 65.02 66.91 66.94 66.55 66.59 66.31 65.65 63.97 62.95 62.82 63.15 63.25 62.64 62.78 62.82 62.09 62.54 61.51 61.31 60.39 60.30 59.76 59.96 59.29 60.15 60.42 60.87 59.13 60.20 60.00 60.38 59.81 56.95 54.27 56.96 58.64 61.09 61.49 61.90 61.59 61.76 61.78
61.49 65.38 66.76 65.48 65.91 65.06 65.85 65.27 64.55 63.26 62.37 61.61 61.94 61.70 60.85 61.26 60.08 59.13 59.07 60.34 60.27 59.43 58.82 59.28 59.26 59.48 60.42 60.96 60.54 60.75 59.72 58.06 58.32 57.99 56.30 57.30 57.53 59.50 61.53 62.55 62.19 61.95 62.48

GFSSE_sfc_wetblb_093.txt.gz
Wetbulb
70.13 71.37 72.68 73.43 73.56 73.23 73.11 72.95 72.97 73.35 73.60 74.09 74.19 74.31 74.26 74.31 74.35 74.14 74.27 74.68 74.75 75.42 75.50 74.87 74.75 74.37 73.66 73.57 73.80 73.38 72.76 72.36 72.29 72.57 73.02 73.40 72.75 72.78 72.92 72.13 71.80 70.91 72.33
70.80 71.61 71.77 73.07 73.49 73.68 73.46 73.07 73.03 73.53 73.85 74.21 74.23 74.27 74.19 74.17 74.27 74.24 74.18 74.50 74.70 75.42 74.72 74.00 74.25 73.73 73.52 73.13 72.86 72.66 72.52 71.98 71.64 71.64 72.26 72.66 73.03 72.56 72.16 71.80 71.45 71.12 72.17
70.30 71.83 72.15 72.24 73.18 73.66 73.67 73.23 73.30 73.87 74.18 74.26 74.22 74.28 74.29 74.27 74.18 73.91 73.76 73.92 74.57 75.09 74.62 73.82 73.54 72.76 72.72 72.79 72.23 71.83 71.77 71.25 71.15 71.36 71.62 69.34 70.17 72.51 71.98 71.77 71.47 71.49 71.70
70.51 71.01 71.55 71.97 72.54 72.92 73.32 73.45 73.07 73.86 74.11 74.17 74.25 74.22 74.21 74.21 74.08 73.88 73.46 73.46 74.06 74.49 74.22 73.82 73.47 73.15 72.50 71.83 71.40 71.51 71.35 71.02 70.64 70.44 69.20 69.32 70.22 71.94 71.63 71.27 70.98 71.35 71.52
69.18 70.59 71.27 71.28 71.91 72.57 72.65 72.86 73.21 73.30 73.35 73.65 73.73 74.20 74.09 74.17 74.02 73.80 72.92 73.23 74.09 73.90 73.21 72.95 72.78 72.75 71.70 70.89 70.65 70.73 70.66 70.17 69.63 69.05 67.45 68.26 69.20 70.92 71.42 71.06 71.04 71.06 70.32
69.04 70.70 69.90 70.41 71.26 72.24 72.46 72.49 72.89 72.97 72.48 72.63 72.94 73.91 73.97 73.94 73.81 73.11 72.47 73.31 73.13 72.56 71.95 72.14 72.49 71.58 70.40 70.24 70.11 70.34 69.84 69.29 67.50 66.76 67.72 69.28 68.60 70.80 71.28 70.59 70.57 70.31 69.87
69.30 69.36 69.78 69.61 70.86 71.77 72.41 72.43 72.51 72.53 72.20 72.41 72.70 72.96 73.32 73.25 72.99 72.42 71.79 71.81 71.52 71.18 71.65 71.70 71.28 70.53 69.44 69.25 69.20 68.94 68.06 67.50 66.50 66.94 66.42 67.63 68.14 70.78 70.61 70.40 70.36 69.96 69.73
69.21 69.08 69.60 70.80 70.97 71.08 71.41 71.57 71.59 71.82 71.88 71.25 72.17 72.55 72.91 72.24 71.59 71.52 71.51 71.02 70.34 69.89 70.28 69.89 69.77 69.62 69.27 68.65 68.18 66.82 66.58 67.34 67.10 66.82 67.09 67.36 69.34 70.23 70.31 70.00 69.62 69.32 69.11
70.55 68.67 68.60 69.21 70.50 70.21 69.78 70.07 70.26 70.85 70.57 70.54 71.71 71.73 71.74 70.73 70.42 70.75 70.70 70.24 69.77 68.98 68.80 68.53 68.61 68.53 68.84 68.60 67.45 65.68 65.27 66.95 66.11 66.65 67.39 67.86 69.15 69.90 70.00 69.29 68.76 68.43 68.21
70.31 68.85 68.12 68.24 68.40 67.88 67.83 69.09 69.70 69.93 69.46 70.17 71.38 70.62 69.77 69.67 69.89 69.91 69.54 69.51 69.18 68.66 68.60 68.62 68.24 67.66 68.26 67.72 66.62 65.29 65.66 66.33 65.84 66.13 66.11 67.34 68.74 69.40 69.49 69.03 68.14 67.38 67.29
69.89 69.38 68.72 68.37 68.13 67.31 67.36 68.75 69.74 70.28 69.69 69.37 69.44 68.78 67.36 68.53 68.46 68.51 67.88 68.57 68.39 67.46 67.82 67.98 67.74 67.74 67.49 67.00 66.47 65.41 65.17 64.93 65.64 65.73 66.20 67.25 68.70 69.25 68.67 67.86 67.01 66.77 66.75
67.43 69.33 69.48 68.89 68.57 68.46 69.35 67.77 67.04 69.12 68.96 67.97 68.28 67.32 67.54 67.43 67.05 67.22 67.30 67.49 67.31 66.82 66.91 67.53 67.54 66.53 66.73 66.47 65.64 65.86 64.13 64.50 64.44 64.12 65.47 66.60 68.61 68.75 68.17 67.14 66.90 66.63 66.31
68.53 69.63 69.23 69.11 68.84 68.50 67.55 67.38 67.72 67.56 67.74 67.61 67.47 66.69 66.76 67.25 66.78 65.75 65.68 66.13 65.68 66.71 65.91 65.80 66.00 66.08 65.91 65.13 64.93 64.18 63.72 63.73 64.32 64.19 65.19 66.25 67.76 67.90 67.70 66.90 66.67 66.48 65.79
67.51 68.97 69.39 68.87 68.21 67.70 66.98 67.83 67.34 67.72 67.11 66.97 66.71 66.96 65.63 66.23 65.83 65.51 64.78 63.95 63.27 64.36 64.04 64.61 64.92 64.82 65.38 65.82 65.26 64.03 63.36 63.44 63.66 64.15 64.53 64.95 66.28 66.83 66.26 65.99 66.03 65.62 64.70
66.14 68.20 69.12 68.49 68.04 68.35 67.14 67.67 67.25 67.65 67.38 67.45 67.25 66.91 65.90 65.88 65.50 65.62 64.47 64.36 63.93 63.63 63.35 63.46 63.89 64.09 63.87 65.19 65.29 64.34 62.97 62.68 62.40 63.19 63.75 63.90 64.48 65.67 65.30 65.47 65.01 64.48 64.10
56.29 67.45 69.23 68.34 67.88 68.55 67.92 66.13 65.90 67.83 67.29 66.55 66.62 66.33 65.75 65.54 65.25 64.84 64.45 64.64 64.01 63.96 63.75 63.31 63.55 63.35 62.59 64.01 64.03 63.72 62.51 62.93 62.25 62.45 62.80 62.78 62.82 63.92 64.69 64.87 64.39 63.87 63.27
53.89 63.35 68.42 68.48 68.35 68.43 68.05 66.11 65.49 65.72 66.51 65.62 65.83 65.88 65.64 65.25 64.51 64.01 63.59 63.57 64.12 64.09 63.08 62.76 62.39 62.29 62.11 63.51 62.84 63.16 62.58 62.56 61.89 61.65 62.33 61.88 62.12 61.85 62.84 63.90 63.99 63.30 62.59
52.70 54.66 68.02 69.14 68.12 67.79 67.22 66.11 65.34 64.82 64.81 64.73 64.58 64.81 64.92 65.06 64.68 63.43 62.90 62.53 64.23 63.32 62.42 61.81 61.43 61.06 61.06 61.35 61.25 62.54 62.84 61.82 61.08 60.62 60.93 60.75 60.44 60.73 61.07 61.97 62.68 63.13 63.28
52.02 52.36 66.96 68.28 67.11 67.04 66.55 65.59 64.84 64.39 64.53 64.54 63.88 63.66 64.16 64.48 64.46 63.27 62.69 62.72 63.60 63.00 61.76 61.25 60.95 61.31 60.59 60.85 61.59 62.42 61.11 60.90 60.19 60.61 59.83 59.65 58.70 57.88 58.30 60.74 61.12 61.56 62.44
53.68 52.52 66.61 67.19 66.95 67.17 66.57 65.40 64.86 64.22 63.20 63.39 63.64 63.27 63.97 64.56 63.55 62.96 62.57 62.41 62.97 62.66 62.24 61.27 60.28 60.93 60.79 60.84 62.25 61.63 59.85 59.33 59.76 59.39 58.76 59.52 58.44 58.15 58.62 59.88 60.79 59.35 60.31
54.46 53.21 66.06 66.27 66.34 66.43 65.74 64.89 63.79 62.92 63.02 62.28 62.94 64.11 63.99 63.77 62.59 62.13 62.19 61.69 62.83 61.98 61.26 60.93 60.78 60.36 60.06 60.92 59.28 57.35 57.70 56.84 57.60 58.19 58.47 57.78 57.52 58.12 58.47 58.84 59.24 58.23 58.73
53.85 55.16 65.75 66.17 66.63 66.46 66.14 65.44 64.01 62.68 60.75 61.20 62.79 63.65 63.58 62.64 62.10 62.05 62.16 62.57 62.07 61.00 60.76 61.55 61.12 59.77 59.78 60.99 57.57 55.77 52.93 54.70 56.36 55.31 57.38 57.69 57.14 58.44 58.51 58.79 58.61 57.76 56.54
52.41 57.63 65.39 66.06 66.24 65.95 65.05 63.31 62.05 61.02 60.30 58.77 59.44 60.76 62.85 64.19 62.58 62.06 62.61 62.60 62.39 62.26 61.57 61.33 60.80 59.62 58.04 59.77 59.35 55.73 51.61 50.57 53.62 55.25 55.08 57.12 56.71 56.88 57.59 58.52 58.18 57.99 56.89
53.20 63.89 65.71 65.97 65.69 65.22 64.44 63.46 61.12 60.43 59.00 58.90 59.39 60.49 62.01 63.11 63.24 62.49 62.51 62.10 62.09 61.57 61.28 61.54 60.98 59.51 58.73 57.40 58.89 59.48 56.38 55.46 51.35 50.27 54.28 55.29 56.78 57.70 55.97 58.18 58.14 57.95 57.45
56.46 65.11 65.62 65.14 65.28 64.86 63.51 62.60 60.93 59.24 58.36 59.47 58.99 59.53 60.63 60.85 62.19 62.36 62.10 60.61 61.61 61.69 61.51 61.72 60.59 59.55 59.13 57.98 57.79 57.43 55.88 55.30 55.07 52.24 50.08 53.09 55.05 56.27 56.38 57.09 58.12 58.01 57.66
55.84 62.56 65.22 64.35 64.46 64.27 63.05 62.36 61.25 59.63 58.44 58.82 58.06 58.20 59.51 61.24 61.57 61.12 62.02 61.83 61.04 61.25 61.16 61.26 61.30 60.06 59.15 59.06 58.72 57.84 55.90 54.23 53.83 52.57 51.55 52.75 52.94 54.54 55.69 55.51 55.96 56.49 56.60

GFSSE_sfc_wetblb_096.txt.gz
Wetbulb
69.00 71.49 72.73 73.08 73.38 73.34 72.94 72.76 72.73 72.85 73.23 73.79 73.82 74.22 74.49 74.52 74.34 74.33 74.37 74.56 73.87 74.85 75.56 74.43 74.43 74.36 73.47 73.70 74.03 73.28 72.85 72.20 72.11 71.77 73.05 72.81 72.76 72.64 72.36 72.52 72.23 71.54 72.75
69.92 71.82 71.96 72.86 73.13 73.29 73.11 72.78 72.83 73.22 73.77 73.91 73.74 73.96 74.07 74.10 74.03 74.22 74.52 74.78 74.63 75.18 74.48 73.85 73.86 73.80 73.25 73.01 72.66 72.45 72.27 71.55 71.55 71.76 72.23 72.86 72.67 72.47 71.97 71.90 71.82 71.48 72.23
69.98 71.43 72.34 72.26 72.86 73.20 73.22 73.11 73.21 73.58 73.89 74.02 73.90 73.82 73.90 74.04 73.87 73.81 74.08 74.34 74.65 74.78 73.98 73.72 73.48 73.16 72.71 72.68 71.75 71.89 71.76 71.50 71.48 71.73 72.03 69.97 70.44 72.02 71.91 71.65 71.70 72.02 71.91
70.46 70.98 71.73 72.20 72.68 72.89 72.84 72.98 73.15 73.86 74.04 74.10 73.98 73.86 73.91 73.91 73.72 73.62 73.67 73.79 74.24 74.65 74.08 73.26 72.97 72.68 72.44 71.80 71.53 71.41 71.39 70.98 70.59 70.43 68.54 69.29 70.34 71.63 71.74 71.38 71.40 71.36 71.27
70.11 70.97 71.30 71.69 72.14 72.65 72.49 72.45 72.82 73.20 73.50 73.52 73.53 73.91 73.96 74.04 73.82 73.55 73.07 73.47 74.26 73.97 73.96 73.11 72.81 72.18 71.59 70.79 70.64 70.60 70.75 70.24 69.74 68.87 67.29 67.87 69.38 70.93 71.50 71.32 70.86 70.85 70.65
69.30 70.27 70.12 70.52 71.28 72.29 72.74 72.66 72.59 72.54 72.34 72.59 72.99 73.59 73.96 73.94 73.75 73.06 72.59 72.01 73.90 73.33 73.38 73.36 72.39 71.76 70.34 70.07 69.97 70.18 69.62 68.88 68.18 66.55 66.84 69.40 68.66 71.28 71.52 70.57 70.34 70.35 70.18
68.26 69.12 69.62 69.56 70.91 71.81 72.29 72.51 72.34 72.12 71.85 72.14 72.70 73.05 73.23 73.51 73.29 72.52 72.08 72.38 72.57 72.39 72.47 72.65 71.90 70.70 70.07 69.71 69.75 69.45 68.46 67.74 66.71 66.57 66.79 67.20 68.10 70.71 70.88 70.36 70.18 70.12 69.92
67.83 68.52 69.27 70.57 70.86 71.04 71.37 71.30 71.09 71.30 71.48 71.66 71.95 72.38 72.84 72.58 72.21 71.88 71.65 71.47 71.24 70.98 71.04 71.13 70.57 70.18 69.85 69.72 69.15 67.98 66.78 67.60 67.00 65.48 66.84 66.89 69.51 70.59 70.44 70.01 69.81 69.52 69.35
67.96 67.87 68.48 69.20 70.35 69.92 69.36 69.65 69.93 70.54 71.03 70.65 71.38 71.36 71.64 71.02 70.49 71.12 71.18 70.84 70.49 70.36 69.93 70.00 69.75 69.43 69.38 69.22 68.14 66.31 66.15 67.02 65.69 66.34 66.57 67.09 69.90 70.22 70.21 69.56 69.17 68.89 68.44
67.40 67.22 67.56 67.94 68.12 67.67 68.35 68.93 69.32 69.84 69.22 69.86 70.64 70.10 69.94 69.93 70.11 70.13 69.87 69.95 69.60 69.21 69.10 69.16 68.77 68.49 68.68 68.20 66.80 65.81 65.77 66.15 65.15 64.78 66.34 66.80 69.44 70.22 69.95 69.23 68.84 68.21 67.63
67.29 66.77 67.20 67.31 67.26 66.52 66.90 69.00 69.56 69.43 68.95 69.01 69.58 69.45 68.48 69.18 68.88 68.89 68.22 68.68 68.37 67.23 67.98 68.01 67.79 67.12 67.32 67.02 66.64 65.91 66.22 65.75 64.82 64.59 65.62 67.63 69.05 69.72 69.50 68.89 68.41 67.53 67.03
66.59 66.38 66.84 66.97 66.75 66.18 68.41 67.47 67.35 69.07 68.68 68.10 68.39 68.51 68.23 67.40 67.13 67.60 67.51 67.58 66.58 66.13 67.02 67.23 67.00 66.60 66.71 66.26 65.60 65.93 65.14 65.45 64.92 64.48 65.66 67.26 68.68 69.21 69.10 68.27 67.39 66.89 66.91
67.54 67.45 67.45 67.25 66.86 66.75 67.31 66.83 67.96 68.41 68.01 67.33 66.90 66.68 65.96 66.43 65.89 65.84 66.18 66.68 65.72 66.15 65.23 66.10 66.01 65.89 65.86 65.67 65.15 64.42 64.67 65.13 64.40 64.17 65.36 66.35 68.44 69.26 68.80 67.88 67.21 66.95 66.55
67.01 67.88 68.16 67.97 67.40 67.56 67.49 66.56 66.93 67.16 66.92 67.17 66.86 65.94 65.73 65.72 64.69 64.53 65.08 64.01 64.63 64.88 63.57 64.45 63.42 63.73 64.73 65.48 65.01 63.95 63.71 64.44 63.91 64.29 64.96 65.12 67.57 68.64 68.46 67.98 67.45 67.03 66.27
66.28 68.06 68.27 68.45 68.18 67.91 67.47 66.75 66.31 66.47 66.49 66.63 66.23 66.03 65.51 65.66 64.60 64.40 64.08 63.38 63.18 63.74 63.48 62.32 62.11 62.56 63.64 64.88 64.86 64.12 63.49 63.72 63.60 63.81 64.43 64.04 65.24 66.98 67.41 67.64 67.51 67.15 66.00
65.40 67.69 68.37 68.27 68.75 68.47 67.01 67.00 66.37 66.97 66.55 66.14 66.27 66.23 65.11 65.74 64.85 64.49 64.43 63.63 63.13 63.38 63.73 63.23 62.53 62.42 62.13 64.16 64.25 63.81 63.25 63.06 63.25 62.81 63.51 63.45 63.36 64.74 65.72 66.23 66.53 65.88 65.44
53.33 66.94 67.82 67.69 67.95 67.96 67.37 66.95 66.42 67.09 66.55 65.96 66.19 65.17 64.89 65.29 64.95 64.54 64.42 64.26 63.40 63.50 62.86 62.30 61.64 61.89 61.34 63.48 62.88 63.08 63.12 62.79 62.22 62.17 62.67 62.26 62.18 62.07 63.21 64.80 65.24 64.69 63.99
49.74 62.62 67.85 68.47 66.89 67.26 67.17 66.78 66.35 66.79 66.71 66.01 65.75 65.26 64.78 64.69 64.51 63.86 63.58 63.54 64.10 63.76 63.09 62.41 61.93 61.49 60.77 61.29 61.17 61.74 62.20 62.44 62.19 61.79 62.10 61.34 60.92 61.29 61.34 62.55 63.58 63.82 63.53
50.25 56.92 66.76 67.69 66.79 66.96 66.52 66.50 66.11 66.01 66.33 65.49 64.60 64.22 63.76 64.19 64.18 63.55 62.73 62.61 64.12 63.76 63.22 62.38 61.67 61.16 60.13 60.36 60.67 60.98 61.50 61.73 61.25 61.85 60.76 60.56 59.52 58.78 59.24 61.14 61.37 61.16 62.17
50.97 51.04 65.66 67.40 66.96 67.23 66.31 65.50 64.97 64.85 64.86 64.57 64.29 63.63 63.19 63.85 63.75 62.93 61.83 62.07 63.32 62.54 61.59 61.35 60.83 60.52 60.63 60.36 60.96 60.78 60.81 60.88 60.59 60.46 60.00 60.11 58.84 58.45 58.32 58.71 59.31 59.19 60.23
49.45 50.07 64.42 66.25 66.59 66.28 65.03 63.89 63.27 63.05 63.01 62.95 63.19 63.01 62.45 63.50 63.19 62.17 61.61 61.69 62.35 61.69 61.46 60.79 60.24 59.58 59.71 60.59 58.96 59.53 58.32 59.04 59.02 59.48 59.28 58.89 57.74 58.04 57.81 58.21 58.47 58.41 59.69
49.76 50.84 61.42 65.62 65.99 65.99 65.93 65.48 63.97 63.74 62.99 63.05 62.80 62.95 62.71 62.51 62.95 63.33 61.77 61.40 62.00 61.85 61.29 60.92 60.34 59.46 59.42 60.46 57.42 56.25 53.09 54.42 56.57 58.26 58.30 57.99 56.74 57.47 57.63 58.43 58.54 57.71 57.58
49.14 51.12 61.16 65.01 65.69 66.10 66.37 64.95 63.12 60.65 59.57 59.41 61.35 62.74 63.22 63.10 62.69 62.41 61.71 61.29 61.18 61.44 60.12 60.48 60.17 59.43 58.09 59.88 58.46 55.50 52.19 51.04 53.70 55.40 56.32 56.48 56.07 56.47 57.23 57.85 58.42 58.09 57.12
51.78 51.19 60.18 64.81 65.50 66.02 65.68 63.73 62.10 61.92 60.54 59.93 61.01 59.43 62.07 63.55 62.78 61.10 60.83 61.10 61.79 61.53 60.74 60.58 61.23 59.64 59.35 58.00 58.06 58.98 57.37 55.71 51.92 51.27 54.58 55.38 55.64 56.06 56.23 57.21 57.73 57.52 56.88
53.95 55.20 63.02 64.85 65.61 65.64 64.11 63.87 62.36 61.31 59.65 59.59 59.03 58.81 58.81 61.83 62.78 62.35 61.42 61.49 61.33 61.12 60.99 61.09 60.54 59.66 59.79 59.04 58.04 56.99 56.71 55.48 55.00 52.90 51.20 52.68 54.28 56.41 56.29 57.21 57.38 57.30 56.85
51.47 54.55 61.64 64.67 65.09 64.50 63.87 62.71 62.07 59.71 58.71 58.92 58.62 58.39 58.71 58.54 60.48 61.00 60.27 61.48 61.01 60.90 59.54 61.10 60.90 59.33 58.71 58.66 58.99 57.71 56.34 54.35 53.83 52.91 51.18 52.87 53.51 54.21 56.10 56.40 56.84 57.24 57.13

GFSSE_sfc_wetblb_099.txt.gz
Wetbulb
68.14 71.10 72.32 73.14 73.46 73.17 72.73 72.42 72.29 72.70 73.35 73.88 74.16 74.39 74.68 74.66 74.46 74.23 74.24 74.15 74.36 75.20 75.20 74.00 74.10 73.90 73.57 73.29 73.46 73.37 73.09 72.64 72.03 72.17 72.38 73.31 72.86 72.76 72.48 72.50 72.37 71.16 72.17
69.36 71.58 71.67 72.76 73.35 73.28 72.84 72.58 72.48 72.92 73.38 73.81 74.17 74.07 74.16 74.26 74.20 74.16 74.09 74.17 74.65 75.37 74.40 73.62 73.55 73.50 73.58 73.21 72.51 72.29 72.23 71.58 71.50 72.01 72.45 72.69 72.18 72.32 72.16 71.98 72.01 70.92 71.83
69.71 71.76 71.74 72.21 73.06 73.02 73.02 72.90 72.98 73.42 73.56 73.76 73.94 73.93 73.90 73.98 74.07 74.14 74.06 73.90 74.60 74.80 73.93 73.47 73.27 73.18 72.94 72.02 72.00 71.82 71.71 71.78 71.67 71.74 72.22 69.51 70.27 71.50 71.74 71.53 71.90 71.85 71.66
70.20 71.31 71.65 72.07 72.52 72.87 72.84 72.83 72.99 73.65 73.75 73.68 73.65 73.80 73.96 73.99 73.98 74.00 73.89 73.75 74.29 74.47 73.78 73.34 73.30 72.91 72.55 71.62 71.35 71.51 71.58 71.38 71.23 71.23 69.37 69.60 69.34 71.45 71.48 71.50 71.35 71.43 71.40
69.86 71.13 71.42 71.55 71.87 72.51 72.49 72.67 72.84 73.05 73.09 73.10 73.18 73.81 73.89 73.74 73.99 74.04 73.29 73.35 74.12 74.27 73.78 73.11 72.83 72.50 71.56 70.79 70.70 70.79 70.83 70.32 69.85 69.19 68.08 68.99 68.94 70.78 71.13 71.41 71.15 71.16 70.89
69.58 70.63 70.37 70.75 71.49 72.15 72.37 72.49 72.54 72.38 72.18 72.30 72.63 73.33 73.79 73.72 73.80 73.57 72.38 73.32 74.06 73.97 73.90 73.33 72.62 71.64 70.34 69.94 70.30 70.31 69.72 69.12 68.34 66.23 67.13 68.84 68.16 71.25 71.37 70.81 70.49 70.71 70.41
68.73 69.43 70.17 69.95 70.98 71.98 72.26 72.30 72.27 71.96 71.56 71.87 72.42 72.91 73.05 73.33 73.26 72.65 72.09 72.54 73.04 73.31 72.90 72.83 72.02 70.76 70.10 69.73 69.95 69.15 68.78 68.29 66.37 66.14 66.46 66.64 68.06 70.73 71.03 70.35 70.64 70.40 70.01
67.96 69.02 69.70 70.57 70.80 71.16 71.63 71.56 71.02 71.00 71.34 71.49 71.78 72.13 72.84 72.64 72.28 72.00 71.88 72.04 71.78 71.48 71.67 71.42 70.50 70.17 69.80 69.64 69.39 67.84 67.42 67.82 66.89 65.80 66.07 66.19 69.45 70.73 70.49 70.28 70.16 69.69 69.52
67.29 68.08 68.71 69.61 70.41 69.94 69.45 69.65 69.63 70.22 70.71 70.82 70.96 71.13 71.49 71.06 71.03 71.46 71.45 71.38 70.89 70.64 70.82 70.64 70.05 69.54 69.71 69.37 68.49 66.87 66.78 67.09 65.51 65.64 66.14 66.32 69.81 70.85 70.56 69.99 69.51 69.27 69.06
65.51 65.92 67.06 68.75 69.14 68.89 68.78 68.46 68.98 69.55 69.70 69.95 70.40 70.08 69.90 69.92 70.36 70.44 70.27 70.46 70.26 70.00 70.02 70.19 69.58 69.22 69.22 68.45 67.13 66.33 66.35 66.66 65.69 65.03 65.46 66.66 69.83 70.44 70.28 69.67 69.42 68.85 68.25
65.09 64.65 66.20 67.61 67.78 67.20 67.35 68.78 69.41 69.95 69.36 68.73 69.43 68.96 68.39 69.21 68.91 69.26 68.64 68.91 69.12 68.35 68.69 69.24 68.89 68.07 67.76 67.09 66.60 66.20 66.46 65.66 65.40 64.68 64.68 67.35 69.20 70.37 69.88 69.47 69.11 68.34 67.24
64.10 64.35 65.30 66.22 66.04 65.68 68.10 68.23 68.82 69.14 67.72 67.58 68.96 69.17 68.82 67.76 67.45 68.03 67.74 67.67 67.31 66.91 67.35 67.48 67.22 66.46 66.31 65.05 65.32 66.26 64.80 65.42 65.17 64.46 64.93 66.91 68.77 69.97 69.49 68.98 68.31 67.42 66.83
65.86 65.54 65.62 66.02 65.89 65.73 66.99 67.83 68.36 68.99 68.03 66.68 68.06 68.84 67.19 66.85 66.43 66.47 66.40 66.86 65.75 66.42 64.83 65.14 65.05 64.65 64.36 64.80 64.88 64.65 65.18 65.16 64.78 64.46 65.83 66.51 68.24 69.48 69.11 68.72 67.92 67.33 66.95
65.70 65.79 65.86 65.72 65.73 65.87 66.45 66.93 67.56 67.87 67.40 67.92 66.84 66.13 67.06 66.54 65.09 64.78 65.70 65.55 64.59 64.40 63.05 63.02 62.99 63.90 64.25 64.44 64.28 63.96 64.52 64.65 64.05 64.85 65.56 65.53 66.99 68.84 69.10 68.53 68.05 67.39 66.76
64.62 66.40 66.12 65.90 65.50 65.90 65.66 66.15 66.46 66.42 66.60 66.93 67.54 65.98 66.16 66.24 65.16 64.37 64.21 64.78 64.54 63.81 62.89 62.42 61.97 63.58 64.43 64.86 64.27 63.87 63.71 63.88 63.68 64.50 64.96 64.09 64.99 67.62 68.74 68.60 68.01 67.52 66.62
64.70 66.28 67.14 66.62 66.11 66.19 65.92 65.57 65.61 66.28 66.31 66.19 66.79 66.27 65.51 65.53 64.69 64.01 63.33 63.33 62.81 63.24 62.80 62.63 62.14 62.25 62.44 63.04 63.36 63.43 63.65 63.50 63.66 63.59 64.28 64.15 63.66 65.48 67.27 68.07 67.92 67.57 67.11
58.51 66.15 67.02 67.40 67.20 66.57 66.13 65.40 65.40 65.40 65.69 65.37 65.73 64.98 64.82 64.85 64.20 63.89 63.70 63.34 62.20 62.84 61.92 61.26 61.56 62.12 61.95 63.10 62.69 63.19 63.37 63.07 63.27 62.65 62.89 63.72 63.44 62.74 64.33 65.89 66.42 67.02 66.37
49.10 61.00 67.06 68.21 67.74 67.18 66.44 66.30 65.78 65.46 65.60 65.31 65.40 65.32 64.30 64.79 64.57 63.77 64.60 64.35 62.54 63.36 62.96 62.00 61.62 61.35 61.21 61.98 61.42 62.08 62.62 62.89 62.53 62.90 62.81 62.38 61.97 62.17 62.02 63.30 64.66 65.39 65.46
47.67 50.64 65.06 67.42 67.07 67.29 66.89 66.19 65.76 65.90 65.76 65.71 65.51 65.33 64.55 64.48 64.55 64.05 64.19 63.75 63.89 63.39 62.93 62.63 61.64 61.59 60.87 60.77 60.91 61.40 61.69 62.01 61.93 62.67 62.41 61.60 60.62 59.63 59.69 61.65 61.99 62.26 63.08
46.34 47.92 60.31 66.43 67.05 67.09 67.07 65.76 65.37 65.65 65.78 65.66 65.40 65.08 64.53 64.60 64.35 63.25 62.74 63.06 63.13 63.19 62.65 62.44 61.72 61.39 60.72 60.57 60.93 60.68 60.91 61.71 61.59 61.77 61.52 61.60 59.86 59.10 58.71 59.52 60.38 60.47 60.55
46.02 45.81 58.37 64.23 66.20 66.02 65.55 64.77 64.50 64.10 65.31 65.03 65.47 64.69 64.58 64.42 63.45 62.84 61.62 62.21 63.13 62.10 61.62 62.21 61.48 60.25 59.63 60.68 59.51 59.03 59.65 60.53 60.45 60.82 61.27 60.64 59.09 58.51 57.75 57.81 57.12 57.67 59.17
46.72 46.62 53.61 62.74 65.42 65.93 65.86 65.59 64.82 64.75 65.12 65.19 64.45 63.93 64.26 63.20 63.31 62.68 61.45 62.17 62.12 61.29 60.97 61.09 60.68 59.71 59.80 60.59 57.76 56.48 53.32 54.89 58.08 59.82 60.00 59.62 58.56 58.35 57.60 57.66 57.23 56.95 57.46
46.97 45.79 51.84 61.68 64.93 65.91 65.97 65.40 61.50 61.32 61.40 61.42 62.04 62.52 62.69 63.11 62.98 63.89 62.46 62.09 61.84 61.96 60.41 60.49 60.65 59.88 58.40 59.93 57.99 56.20 52.15 51.17 53.58 56.48 57.68 58.01 56.97 57.08 57.42 57.59 57.46 57.25 57.04
50.77 52.70 50.47 60.52 64.67 65.50 65.88 64.71 62.74 62.12 61.32 62.17 62.94 63.26 61.81 62.14 61.98 62.70 62.32 61.99 61.78 61.71 60.64 60.53 60.82 60.18 59.33 57.33 58.20 58.37 55.48 54.97 52.42 50.94 55.03 55.92 56.10 55.60 55.60 56.31 57.13 57.37 57.01
48.68 50.43 53.86 57.13 63.90 65.01 65.48 64.84 63.02 62.03 61.74 61.50 62.13 59.35 61.55 61.33 61.53 61.74 62.00 61.58 61.50 61.29 60.81 60.48 60.03 59.43 58.95 57.95 57.66 57.26 56.26 55.08 54.88 53.28 51.50 53.10 54.51 55.24 56.12 55.98 56.94 57.16 57.12
47.51 48.42 50.67 57.79 62.87 64.55 65.23 64.53 63.07 61.84 59.79 59.23 59.92 59.10 59.46 60.48 61.25 61.72 61.64 61.62 61.72 61.11 60.50 60.19 60.46 59.89 59.31 58.20 59.09 57.23 56.39 53.37 53.74 53.60 52.44 53.45 53.53 54.39 55.81 56.35 56.57 57.00 57.30

GFSSE_sfc_wetblb_102.txt.gz
Wetbulb
67.22 70.61 72.45 73.20 73.34 73.09 72.48 72.49 72.62 72.86 73.69 74.47 74.72 74.80 74.25 74.25 74.16 73.97 74.12 74.22 74.78 75.08 75.14 74.28 74.31 74.34 74.28 74.01 74.39 73.51 73.09 72.98 72.48 72.84 73.27 73.31 72.90 72.67 72.30 72.59 72.33 71.24 72.62
68.40 71.07 71.71 72.80 73.25 73.02 72.68 72.50 72.69 73.03 73.70 74.43 74.59 74.57 74.50 74.30 74.08 73.90 73.97 74.17 74.71 75.16 74.66 73.91 73.79 73.93 73.33 73.49 72.64 72.48 72.47 71.82 71.86 72.48 73.03 72.99 72.33 72.48 72.62 72.34 71.52 71.54 72.04
69.14 70.98 71.52 71.84 73.05 72.93 72.93 72.67 72.99 73.51 73.73 74.00 74.22 74.34 74.40 74.22 74.22 74.00 73.74 73.99 74.71 74.64 73.98 73.48 73.64 73.79 73.24 72.51 71.96 72.17 71.87 71.78 71.77 71.76 72.48 70.31 70.82 72.28 72.12 72.13 71.90 71.55 71.65
69.87 70.43 71.25 71.91 72.66 72.75 72.60 72.63 72.77 73.54 73.87 73.77 73.75 73.91 74.13 74.21 74.03 73.74 73.62 73.87 74.48 74.41 73.99 73.45 73.56 73.39 72.91 71.81 71.26 71.49 71.72 71.61 71.34 71.48 69.66 70.09 70.33 71.83 71.75 71.49 71.56 71.64 71.58
69.65 70.39 70.93 71.75 72.06 72.33 72.37 72.46 72.72 72.92 72.98 73.15 73.20 73.75 73.82 74.06 74.18 73.85 73.29 73.65 74.16 74.33 74.16 73.45 73.48 73.18 71.50 70.75 70.82 71.16 71.25 70.86 70.34 69.68 68.85 68.91 69.88 70.97 71.49 71.49 71.41 71.35 71.29
69.59 70.42 70.29 70.81 71.46 72.12 72.38 72.51 72.61 72.22 71.90 72.23 72.80 73.25 73.69 74.03 74.07 73.59 72.98 73.54 74.28 74.25 74.31 74.01 73.43 72.03 70.40 70.11 70.27 70.50 70.14 69.60 68.44 68.08 68.22 69.34 69.48 71.02 71.26 70.91 70.94 70.89 70.62
68.85 69.50 70.16 69.77 71.08 72.01 72.41 72.43 72.28 71.78 71.35 71.81 72.35 72.79 73.11 73.47 73.62 73.09 72.34 73.07 72.58 73.56 73.58 73.29 72.16 70.71 70.13 70.05 70.16 69.64 68.91 68.31 67.43 67.41 67.50 67.86 68.31 71.36 71.28 70.82 70.60 70.70 70.56
68.24 68.92 69.95 70.82 70.87 71.18 71.47 71.45 71.05 70.87 71.17 71.46 71.64 72.33 72.86 72.68 72.36 72.37 72.14 72.34 72.48 72.63 72.21 71.92 70.57 70.21 69.95 69.86 69.41 68.51 67.73 67.83 67.59 66.92 66.85 66.98 69.42 70.74 70.91 70.51 70.13 69.93 69.82
67.21 68.18 69.28 69.82 70.64 70.20 69.61 69.59 69.50 70.11 70.56 70.67 70.93 71.07 71.53 71.13 71.00 71.63 71.80 71.86 71.41 71.04 70.96 70.76 69.83 69.57 69.72 69.59 68.39 67.39 66.99 67.52 66.67 66.92 66.90 66.85 69.69 70.84 70.63 70.25 69.95 70.00 69.82
65.51 67.32 68.30 69.30 68.81 68.22 69.28 68.63 69.03 69.39 69.59 69.86 70.31 69.91 69.73 70.15 70.46 70.72 70.54 70.93 70.69 70.50 70.73 70.15 69.51 69.41 69.26 68.61 67.45 66.63 66.51 66.85 66.02 66.53 66.22 66.96 69.19 70.45 70.59 69.74 69.61 69.79 69.45
64.34 64.10 67.32 67.55 68.28 68.58 66.64 68.49 69.44 69.98 69.55 69.37 69.82 69.44 68.27 68.87 69.30 69.45 69.20 69.31 69.49 68.72 69.47 69.62 69.02 68.33 68.06 67.61 66.81 66.38 66.45 65.67 65.52 66.06 65.76 66.94 69.02 70.40 70.17 69.71 69.71 69.15 68.86
62.23 62.81 66.14 66.26 66.80 66.58 67.97 68.29 68.94 69.82 69.93 69.10 68.90 68.22 68.31 67.59 67.14 68.02 68.18 68.11 68.25 67.63 68.06 68.33 67.30 66.87 66.81 65.60 65.81 66.56 65.40 64.97 65.18 65.11 65.93 66.87 69.14 70.24 70.25 69.36 69.20 68.77 68.31
62.01 63.14 64.67 65.51 65.85 66.47 67.18 68.00 67.97 67.96 67.68 66.57 66.56 66.51 66.89 66.86 66.41 66.23 65.89 67.00 65.92 67.03 65.83 66.29 65.38 65.58 65.75 65.22 64.62 65.13 64.84 64.86 65.23 65.34 65.71 66.67 68.82 70.25 69.88 69.27 68.57 67.97 67.28
64.04 64.28 63.84 64.05 64.99 65.69 67.00 67.11 67.20 67.34 68.06 66.05 66.40 67.57 67.41 67.86 66.48 64.53 65.69 64.80 63.73 63.79 63.33 62.90 63.25 63.28 63.82 63.77 63.39 64.12 64.11 64.63 64.58 64.97 65.75 65.76 67.52 69.61 69.58 69.52 68.57 67.90 67.38
64.64 65.47 64.83 64.43 64.59 65.06 65.71 66.43 66.51 66.84 67.19 67.54 67.01 67.32 68.20 68.29 67.00 65.64 64.83 65.74 63.25 62.41 62.24 62.03 61.85 62.91 63.43 64.15 63.68 63.72 64.29 64.27 64.32 64.42 64.64 64.62 65.60 67.92 69.49 69.36 68.80 68.17 67.35
59.14 64.05 66.07 65.19 65.07 64.98 65.48 65.60 65.75 66.56 66.31 66.19 66.31 66.53 67.50 67.64 66.74 65.42 65.22 65.42 62.99 62.59 61.64 61.71 61.82 61.57 62.59 64.00 63.73 63.40 63.87 63.59 63.89 63.73 63.74 63.88 62.30 65.18 67.17 68.61 68.49 68.20 67.63
50.76 60.45 65.16 65.96 65.58 64.78 65.12 64.75 65.21 65.49 65.61 65.31 65.80 66.45 66.80 67.16 66.06 65.13 64.81 64.23 64.23 63.09 61.51 60.48 60.71 61.00 61.75 63.00 62.92 63.06 63.34 62.98 63.31 62.91 63.53 63.83 63.34 62.85 64.25 66.63 67.17 67.51 67.19
45.69 50.79 62.09 66.73 66.14 65.09 65.04 64.99 64.64 65.07 65.18 64.96 65.78 65.63 65.56 66.04 64.62 63.63 64.54 64.03 63.42 63.21 63.24 62.32 61.86 61.76 60.64 61.43 61.69 62.28 62.49 62.76 62.68 62.81 62.98 63.27 62.90 64.20 63.43 64.16 65.40 66.06 66.16
44.51 45.90 51.76 64.07 66.27 66.02 65.74 65.38 64.71 64.31 64.65 64.70 65.07 65.33 65.03 65.11 64.46 64.21 64.94 64.20 63.14 63.24 62.94 62.23 62.14 61.91 60.21 60.60 60.93 61.94 62.40 62.27 62.46 62.96 62.59 62.32 62.21 62.12 62.65 62.27 62.53 63.43 64.74
43.60 44.43 47.34 56.17 65.69 66.65 66.83 66.05 65.19 64.92 65.06 65.03 64.94 64.91 64.82 64.51 64.26 64.01 64.56 63.85 63.50 62.91 62.45 62.28 61.63 61.63 60.96 60.46 61.33 60.93 61.36 62.10 62.23 62.21 62.18 62.35 61.48 60.91 61.49 61.64 62.00 61.78 61.91
43.17 43.40 44.96 49.81 62.77 66.20 66.63 65.21 64.57 63.88 64.62 65.05 64.99 64.58 64.15 64.56 64.10 64.22 63.69 63.36 63.04 62.45 62.42 62.63 61.99 61.00 60.30 60.80 59.39 59.26 60.10 60.98 60.94 61.61 62.22 61.74 61.07 60.52 60.04 60.15 60.27 60.34 61.15
50.13 49.23 46.31 49.27 59.12 65.47 65.82 66.09 65.87 65.27 65.53 65.43 65.22 64.49 64.11 64.15 64.04 63.86 63.02 62.88 62.83 62.76 61.95 62.05 61.40 60.39 60.31 60.68 58.07 56.70 53.66 55.25 58.81 60.55 61.18 61.20 60.48 60.22 59.20 58.87 58.80 58.12 58.97
47.94 48.17 50.18 51.49 55.97 64.40 65.40 65.93 62.71 63.85 62.88 63.45 64.33 64.22 64.36 64.40 64.02 63.71 62.94 62.95 62.80 62.57 61.11 61.22 61.17 60.28 58.87 59.98 59.01 56.98 52.50 52.27 54.19 57.00 59.41 60.36 59.71 58.93 59.03 58.68 58.03 57.72 57.73
47.31 47.86 48.86 50.58 53.06 62.42 64.85 64.78 63.59 62.48 61.46 62.57 63.31 63.88 64.59 64.38 63.82 63.76 62.74 62.73 62.68 62.17 61.06 60.78 61.17 60.54 59.77 58.41 58.88 58.71 57.12 55.31 52.43 51.29 55.92 57.35 58.60 58.20 57.84 57.97 57.72 57.58 57.58
45.41 47.24 47.95 48.53 51.67 57.14 64.37 64.43 63.42 62.19 62.39 62.27 63.52 62.94 63.04 63.28 63.36 63.02 62.28 61.51 62.11 61.69 61.34 60.99 60.44 60.24 60.49 59.44 58.91 57.74 56.32 55.17 54.61 51.79 51.65 53.28 55.40 56.84 57.00 56.93 57.62 57.63 57.43
43.24 44.37 46.73 47.82 49.42 54.28 64.04 64.25 63.25 62.18 61.51 61.12 62.05 61.90 62.00 62.03 61.88 61.31 61.02 60.95 61.47 61.70 60.62 60.42 60.67 60.14 59.68 59.40 59.11 58.04 57.43 54.76 53.03 52.96 51.76 53.51 53.91 54.47 56.08 56.46 56.73 57.49 57.52

GFSSE_sfc_wetblb_105.txt.gz
Wetbulb
69.28 73.09 72.64 73.21 73.31 72.91 72.82 72.73 73.06 73.73 74.28 74.70 74.31 74.06 74.04 74.20 74.12 73.91 74.28 74.62 75.07 75.27 75.37 74.59 74.17 75.00 74.14 74.41 74.72 74.31 73.61 73.26 73.15 72.94 72.59 73.67 73.10 72.56 72.46 72.93 72.14 72.16 72.66
70.74 73.23 71.81 72.90 73.10 72.97 72.96 72.67 72.95 73.78 74.76 74.81 74.36 74.08 73.93 74.07 73.96 73.96 74.15 74.45 74.73 75.25 74.99 74.04 73.97 74.67 74.59 74.57 73.69 73.04 72.81 72.39 72.08 72.15 72.91 73.60 72.90 72.46 72.55 72.22 71.81 72.11 72.56
71.40 73.20 73.35 72.36 72.75 72.87 73.02 72.95 73.22 74.11 74.68 74.78 74.53 74.12 73.95 73.94 73.84 73.86 73.82 74.28 74.78 74.99 74.57 74.02 73.91 73.83 73.70 73.31 72.40 72.44 72.26 71.92 71.85 71.99 72.89 71.06 71.38 72.43 72.45 72.04 72.12 72.00 72.33
71.97 73.05 73.33 72.15 72.42 72.68 72.58 72.78 73.13 74.08 74.36 74.52 74.58 74.30 74.04 73.92 73.89 73.82 73.71 73.88 74.44 74.74 74.57 73.94 73.88 74.19 73.29 71.92 71.75 71.68 71.88 71.89 71.69 71.66 72.57 72.26 71.48 72.36 72.06 71.61 71.75 71.65 71.62
71.75 72.57 72.99 71.86 71.97 72.38 72.34 72.57 72.83 73.15 73.40 73.71 74.03 74.34 74.21 74.10 74.04 73.90 73.62 73.72 74.35 74.52 74.65 73.86 74.09 73.91 71.86 70.78 70.97 71.31 71.35 71.25 70.56 71.17 72.09 72.22 71.81 71.81 71.89 71.56 71.67 71.53 71.25
71.56 72.61 71.42 71.07 71.56 72.04 72.31 72.51 72.69 72.41 72.09 72.38 73.06 73.80 74.20 74.21 74.16 73.58 73.25 73.68 74.47 74.36 74.45 74.32 73.92 72.50 70.72 70.39 70.43 70.87 70.68 70.19 69.67 72.27 71.67 70.78 71.48 71.72 71.49 71.27 71.32 71.24 70.50
71.55 72.48 72.88 70.11 71.16 71.91 72.23 72.48 72.24 71.70 71.52 72.05 72.58 73.01 73.50 73.89 73.80 73.07 72.90 73.16 73.75 73.83 73.84 73.71 72.93 71.11 70.47 70.24 70.40 70.28 69.66 69.09 71.89 71.70 71.40 71.18 70.76 71.58 71.49 71.27 71.25 70.83 70.60
71.50 72.26 72.80 71.42 71.12 71.11 71.62 71.69 71.06 70.83 71.12 71.41 71.95 72.39 72.97 73.01 72.88 72.46 72.48 72.62 72.45 72.65 72.58 72.08 71.12 70.40 70.11 70.14 69.92 69.00 68.33 68.50 70.73 71.40 71.41 71.26 70.78 71.24 71.44 71.03 70.55 70.47 70.54
71.47 71.86 72.38 72.74 72.17 70.12 69.75 69.84 69.64 69.96 70.32 70.61 71.06 71.29 71.80 71.52 71.50 71.88 72.19 72.10 71.89 71.74 70.84 71.38 70.32 69.90 70.11 69.69 69.18 67.91 67.14 68.08 71.70 71.42 70.89 70.95 70.50 71.01 71.00 70.79 70.31 70.46 70.03
69.51 71.28 70.83 71.22 71.42 72.26 73.00 68.70 68.90 69.23 69.48 69.90 70.17 70.15 70.02 70.33 70.80 70.99 70.32 71.36 71.50 71.25 70.52 70.62 69.67 69.43 69.60 68.87 67.84 66.99 66.70 67.32 71.32 71.08 71.06 70.86 69.56 70.97 70.75 70.45 70.07 70.20 69.98
67.89 67.84 69.20 69.96 70.30 71.15 72.27 71.89 69.84 69.77 69.48 69.14 70.15 69.50 69.31 72.68 72.77 72.54 70.82 70.04 70.15 69.19 69.83 69.75 69.08 68.53 68.17 67.79 67.14 66.88 66.90 70.52 70.64 70.60 70.46 67.98 69.38 70.93 70.43 70.24 70.16 69.82 69.69
66.99 66.90 67.88 68.74 68.99 69.57 69.53 71.86 72.25 71.57 72.06 72.38 72.38 72.33 72.38 72.67 72.53 71.64 70.50 68.51 68.91 68.08 68.62 68.06 68.22 67.64 68.10 70.70 69.82 67.27 70.30 70.46 70.27 70.09 70.73 67.07 69.30 70.54 70.27 69.73 69.57 69.40 69.15
66.71 67.39 67.12 66.90 67.78 67.82 68.25 70.15 70.25 70.24 70.44 69.93 72.01 72.46 72.19 71.87 72.13 71.72 71.54 71.67 72.18 68.85 71.19 69.92 69.48 70.44 70.55 70.51 69.62 69.70 69.68 69.23 69.80 69.46 68.84 66.05 68.53 70.24 69.93 69.56 69.31 68.84 68.69
67.21 67.30 67.76 66.64 66.26 66.69 68.11 68.64 69.04 68.42 68.93 68.95 71.39 72.18 71.69 70.34 70.59 70.90 70.79 71.52 71.61 71.02 70.61 70.88 70.50 70.36 70.19 70.09 70.19 69.12 67.58 68.14 68.83 69.20 67.34 64.18 66.14 68.90 69.54 69.34 68.93 68.57 68.11
65.53 68.56 67.43 67.41 66.11 66.04 66.80 68.16 68.51 68.25 68.55 69.32 70.85 71.32 71.72 69.36 69.26 69.53 70.74 70.64 70.62 70.48 70.09 69.52 69.72 69.11 69.29 69.14 69.20 68.91 67.32 67.90 67.21 68.07 67.52 63.81 64.09 66.91 68.55 69.28 68.60 68.70 67.97
54.83 63.71 69.24 67.88 66.98 67.64 67.06 67.86 67.87 68.19 68.48 69.31 70.32 70.36 70.87 70.73 68.96 68.57 68.20 68.92 69.56 69.63 69.53 69.21 68.74 68.65 68.29 68.24 68.06 67.70 67.85 67.40 66.52 65.25 64.96 65.28 62.83 63.59 67.16 68.68 68.82 68.70 68.25
53.73 54.83 64.20 68.43 68.70 68.12 67.97 68.28 68.39 68.30 68.95 67.47 67.67 68.21 68.10 68.31 68.18 67.74 67.39 67.84 67.81 68.29 68.66 68.26 67.86 67.43 67.33 66.56 66.02 67.10 67.69 67.33 66.76 64.49 64.20 64.63 63.83 62.27 62.93 67.14 67.69 68.17 67.88
51.79 52.53 55.37 64.14 68.65 68.57 68.28 68.38 68.25 68.31 68.12 67.46 66.72 66.68 67.34 67.67 68.17 67.01 66.45 66.60 66.47 66.18 67.07 66.81 65.56 65.43 65.62 65.40 64.94 66.06 66.45 66.25 64.05 64.16 64.25 64.06 63.76 64.29 63.13 64.14 65.32 66.41 66.80
51.53 51.15 52.56 56.22 64.76 67.79 68.37 68.88 68.26 67.75 67.51 67.83 67.02 66.38 66.70 67.05 67.30 66.32 66.36 66.52 65.81 64.70 65.22 65.18 64.82 65.12 64.36 64.14 64.45 65.17 65.55 64.64 62.87 63.15 63.86 63.17 63.15 63.40 63.47 63.48 63.28 63.30 65.21
55.96 54.78 51.64 52.74 57.01 67.13 68.12 68.12 67.67 66.89 67.28 66.65 65.83 65.95 66.20 66.11 66.25 66.58 66.67 66.45 65.74 64.38 64.22 63.91 63.25 63.69 63.70 63.63 62.75 63.00 63.84 64.55 64.03 62.78 63.22 63.29 63.26 62.70 62.67 63.02 64.22 65.27 62.42
54.33 54.96 55.54 55.45 53.35 59.10 65.51 66.35 64.96 63.63 65.15 65.36 65.61 66.67 66.37 66.02 65.51 66.02 66.61 66.07 64.89 64.47 63.78 63.82 63.10 61.83 61.57 62.60 61.51 61.75 62.05 63.66 63.50 62.12 63.94 63.43 63.47 62.50 62.03 62.16 63.98 65.97 65.20
51.57 52.60 53.20 54.79 55.98 56.08 62.76 66.32 66.83 65.70 65.25 66.03 65.99 65.87 66.41 66.18 65.85 66.04 66.11 65.07 64.25 63.87 63.80 63.89 62.80 61.76 61.32 61.85 59.34 58.26 55.05 57.56 60.71 62.39 62.45 62.99 63.13 63.42 61.76 61.57 62.33 64.60 65.30
49.51 49.76 50.70 52.70 53.94 56.31 58.84 65.89 67.46 65.66 65.32 64.73 65.04 64.58 65.18 66.81 66.25 66.18 65.67 65.03 63.89 63.73 63.12 63.86 63.59 62.55 59.72 61.03 61.34 58.20 53.68 53.80 56.06 60.01 60.81 62.16 62.52 62.54 62.91 61.10 61.34 63.06 64.01
47.20 48.10 49.07 50.04 52.02 54.49 57.81 62.33 64.71 62.79 62.11 63.90 65.21 65.28 65.01 65.34 65.58 66.15 65.56 64.87 64.20 63.88 63.92 63.65 64.01 62.95 61.54 59.12 60.44 60.56 59.01 58.75 55.58 54.76 57.95 59.73 62.21 61.19 61.39 60.43 60.27 61.98 62.80
45.57 45.47 46.81 47.27 49.42 52.75 54.98 58.57 64.19 64.13 65.01 66.37 66.28 66.38 65.60 65.07 65.60 65.40 65.29 64.92 65.01 64.37 63.95 63.57 63.32 62.36 61.87 60.33 59.90 59.55 58.06 57.01 56.88 56.09 54.17 55.90 57.78 59.62 60.15 59.75 59.46 60.52 62.20
44.59 44.22 43.58 44.31 46.35 49.47 52.31 56.14 62.00 64.24 64.53 64.10 65.17 65.15 64.67 63.79 64.01 64.80 64.53 64.35 64.80 63.72 63.91 64.39 62.75 62.43 61.41 61.05 60.92 60.49 58.63 56.01 55.78 55.46 55.35 56.71 55.82 56.58 58.36 58.70 58.40 59.32 61.27

GFSSE_sfc_wetblb_108.txt.gz
Wetbulb
71.80 75.89 72.82 73.34 73.39 73.38 73.47 73.75 73.81 73.84 73.87 74.03 74.10 74.05 74.25 74.30 74.39 74.12 74.57 74.72 74.85 75.21 75.20 75.19 75.56 75.29 74.33 73.89 74.69 74.61 74.08 73.79 73.42 73.60 73.21 73.72 73.22 72.80 72.72 73.08 72.52 72.54 72.63
73.17 76.03 72.25 73.00 73.15 73.53 73.40 73.63 73.80 74.15 74.52 74.50 74.00 74.09 74.17 74.27 74.11 74.22 74.64 74.80 75.14 75.61 75.46 74.53 74.39 74.66 74.25 75.19 74.70 73.92 73.45 72.91 72.68 72.93 73.69 73.39 72.82 72.72 72.40 72.47 72.48 72.62 72.73
73.54 75.66 74.37 72.38 72.79 73.22 73.46 73.68 74.24 74.86 75.10 74.74 74.37 74.12 74.16 74.21 74.18 74.32 74.41 74.50 74.97 75.24 75.09 74.11 74.35 74.32 74.84 74.50 73.10 73.00 73.01 72.24 71.97 72.62 73.38 73.37 72.35 72.90 72.28 72.36 72.29 72.40 72.28
73.96 75.05 74.78 72.09 72.57 72.81 73.00 73.13 73.99 74.95 75.29 74.98 74.44 74.21 74.33 74.15 74.20 74.11 74.08 74.19 74.79 75.14 75.21 74.20 74.17 74.30 73.96 72.65 72.34 72.23 72.41 71.89 71.68 71.97 72.84 71.95 72.34 72.42 72.33 72.19 72.19 72.05 72.43
73.89 74.55 74.99 71.71 71.91 72.54 72.43 72.73 73.37 74.03 74.24 74.46 74.26 74.45 74.38 74.33 74.25 74.09 73.67 74.05 74.86 75.06 75.04 74.12 74.43 74.38 72.30 71.34 71.41 71.62 71.86 71.59 71.36 71.63 72.33 72.55 72.60 72.28 72.08 71.93 71.47 71.86 71.42
73.69 74.62 72.16 70.92 71.39 72.04 72.42 72.48 72.69 72.94 72.85 73.31 73.76 74.21 74.28 74.23 74.40 73.83 73.41 74.00 74.81 74.91 75.04 74.69 74.74 73.24 71.12 70.74 70.81 71.15 71.12 70.64 70.30 72.88 72.51 72.42 72.20 72.06 71.86 71.86 71.32 71.05 70.73
73.47 75.01 74.73 70.14 71.01 71.75 72.29 72.49 72.25 72.07 72.01 72.78 73.48 73.62 73.90 74.07 74.01 73.38 73.10 73.71 74.24 74.19 74.46 74.28 73.57 71.72 70.55 70.29 70.77 70.63 70.25 69.93 72.49 72.23 71.96 72.37 72.44 72.43 71.81 71.35 70.91 70.73 71.01
73.63 74.77 75.17 71.86 71.19 71.25 71.74 71.68 71.23 71.01 71.40 71.92 72.46 72.98 73.68 73.39 73.08 72.89 72.89 73.02 72.86 73.02 73.14 72.98 72.11 70.88 70.58 70.39 70.43 69.64 69.13 69.10 71.43 71.63 71.67 70.95 71.56 71.80 71.71 71.13 70.77 70.15 70.86
74.62 74.75 75.44 74.96 73.19 70.49 70.21 70.10 69.89 70.35 70.73 71.02 71.38 71.88 72.33 72.09 71.77 72.43 72.68 72.62 72.68 72.22 71.69 71.54 71.22 70.48 70.33 70.10 69.75 68.42 68.06 68.81 72.05 71.71 70.97 71.47 71.06 71.28 71.39 70.79 70.44 70.69 70.63
73.86 74.58 74.77 74.66 73.80 74.68 74.22 69.48 69.31 69.55 69.73 70.25 70.60 70.54 70.50 70.97 71.46 71.56 71.54 71.71 71.75 71.54 71.16 70.97 70.44 69.84 69.90 69.46 68.79 67.65 67.50 68.21 72.05 71.42 71.81 71.73 70.45 70.74 71.09 70.70 70.42 70.66 70.15
71.70 72.85 73.30 72.15 72.35 73.07 74.39 73.14 70.22 69.98 69.82 69.42 70.55 70.01 69.91 73.44 74.00 73.43 71.27 70.47 70.42 70.08 70.23 69.86 69.60 69.08 68.81 68.57 68.12 67.34 67.32 71.40 71.29 71.59 71.46 68.81 70.22 70.60 70.97 70.24 69.97 70.01 69.86
70.75 71.25 71.73 71.07 71.61 71.81 71.50 74.26 73.84 73.86 73.24 73.08 72.98 73.25 73.15 73.53 73.89 72.68 71.21 69.42 69.60 68.90 68.82 68.95 68.63 68.21 68.66 71.59 70.94 68.01 71.05 70.99 70.79 71.12 71.53 68.14 69.35 70.70 70.82 69.88 69.81 69.71 69.30
70.50 71.37 71.59 71.15 71.35 71.45 70.72 73.01 72.43 72.75 73.09 73.70 74.01 73.89 73.50 73.29 73.73 73.11 73.27 72.81 73.14 69.94 72.26 70.72 71.04 71.51 71.28 71.49 71.74 70.71 70.84 70.02 72.15 70.95 70.23 66.47 68.38 70.25 70.28 69.94 69.53 69.55 69.24
69.55 70.41 71.42 71.81 71.96 71.53 70.85 72.34 72.93 72.51 72.19 70.89 72.42 74.03 73.41 72.86 72.84 72.79 72.38 72.71 72.31 72.55 71.70 71.91 71.14 71.41 71.05 71.24 70.81 70.14 70.94 71.03 71.27 70.63 69.22 65.02 65.27 67.29 69.43 70.03 69.61 69.72 69.03
59.49 66.31 70.79 71.28 71.28 71.02 69.89 71.72 71.78 71.52 71.19 71.23 72.73 73.39 73.17 71.61 71.83 72.60 72.06 72.10 72.07 71.58 71.26 71.48 70.89 70.78 70.51 70.64 70.66 70.52 70.19 70.22 69.63 70.09 68.21 64.66 65.04 66.13 67.16 69.11 70.00 69.41 68.73
56.91 58.33 65.36 70.47 71.16 70.89 70.30 70.91 70.82 71.27 71.30 71.52 71.70 72.15 73.20 72.49 71.54 70.50 71.68 71.15 71.90 71.82 71.49 71.16 70.68 70.26 69.96 70.08 69.57 70.08 69.79 69.60 67.96 69.70 69.51 67.40 63.39 64.73 65.53 67.43 68.60 68.28 68.48
56.10 56.74 58.51 65.35 71.61 71.00 70.49 70.53 70.59 70.58 70.73 70.50 71.09 72.30 72.40 72.40 71.99 70.49 69.85 69.78 70.87 71.77 71.58 71.04 70.71 70.17 69.54 68.82 68.69 69.24 69.10 69.15 68.28 68.68 67.92 65.49 65.40 62.14 63.31 64.86 66.13 67.14 68.21
56.94 57.01 57.91 58.13 61.74 67.37 70.32 70.81 70.76 70.62 70.60 70.46 70.50 71.15 72.04 71.70 71.85 70.11 68.91 68.88 69.70 70.90 70.84 69.87 69.19 68.10 68.66 67.86 67.84 68.22 68.01 68.88 68.36 68.32 66.77 64.77 65.56 66.25 63.14 62.98 62.11 64.89 67.23
60.02 60.77 60.80 59.86 58.79 62.79 67.98 69.91 70.86 71.39 70.71 70.56 70.87 70.27 70.25 70.57 70.16 68.91 68.04 68.81 69.02 68.28 68.96 68.72 68.15 68.09 66.94 66.48 67.08 67.45 67.55 67.26 67.26 66.95 65.06 63.82 64.86 65.55 65.69 62.74 61.68 63.23 65.38
59.77 60.42 61.08 61.59 61.44 59.17 63.19 67.95 68.84 69.88 70.47 70.98 70.50 70.00 69.60 69.38 68.89 68.43 68.31 68.86 67.67 67.12 67.81 67.73 66.79 67.06 66.49 65.96 64.75 65.17 66.30 66.66 66.73 66.30 65.65 64.19 63.36 65.31 64.18 64.10 63.76 64.11 61.74
58.54 58.56 58.96 59.73 61.14 61.54 58.11 62.85 65.67 66.24 67.73 68.72 70.19 70.24 69.49 69.27 68.29 67.70 67.61 67.64 66.79 66.14 66.41 66.73 66.77 65.23 65.13 65.66 62.85 62.43 64.20 65.60 65.14 65.70 65.59 64.11 64.98 64.02 64.45 63.35 64.18 64.12 63.68
55.93 56.55 56.73 57.53 58.84 60.06 60.97 59.78 64.67 66.47 67.10 67.58 68.86 69.46 68.78 68.08 68.08 67.36 67.68 66.74 66.59 66.44 66.15 65.79 64.95 63.25 64.20 65.35 61.30 59.74 57.25 59.67 63.19 64.98 64.58 64.25 64.31 65.30 64.40 64.03 63.12 63.64 64.48
54.05 54.26 54.27 55.43 56.25 57.53 59.48 61.00 61.47 65.93 67.12 66.45 66.66 67.48 67.68 68.33 67.67 67.10 67.18 67.14 66.65 66.92 65.69 65.72 64.53 63.73 61.40 62.74 64.64 60.13 55.23 54.73 57.61 62.14 63.64 63.62 64.73 64.47 64.58 65.03 64.06 63.43 63.43
52.08 53.13 53.52 53.80 54.27 55.20 57.39 58.70 60.32 61.25 63.58 65.70 66.17 66.72 66.25 67.10 68.25 67.61 67.36 67.46 67.61 66.72 65.95 66.23 65.04 65.59 64.54 61.00 62.54 63.45 60.62 60.32 57.29 57.00 61.04 63.19 64.45 63.95 63.42 65.32 64.48 64.83 63.32
50.99 50.92 51.38 51.54 52.08 53.15 53.87 54.22 56.07 59.54 64.41 66.11 66.21 65.96 65.51 65.79 66.78 67.42 67.94 67.60 66.95 66.39 66.11 66.02 65.18 65.75 66.11 64.33 62.01 61.10 61.22 59.41 58.36 58.01 58.02 59.18 61.09 63.12 64.37 63.67 63.45 64.31 64.28
49.16 48.93 48.86 48.42 48.99 50.48 50.19 51.29 52.82 55.37 60.67 64.82 65.70 65.29 64.52 65.17 65.00 66.01 66.92 67.31 67.53 66.00 65.11 65.50 66.67 66.82 65.40 65.55 64.74 63.87 62.15 58.17 57.65 56.50 57.31 57.99 59.78 61.11 61.71 62.32 62.26 62.60 61.77

GFSSE_sfc_wetblb_111.txt.gz
Wetbulb
71.67 75.09 72.86 73.37 73.89 73.88 74.12 74.23 74.30 73.76 74.11 74.30 74.34 74.47 74.56 74.69 74.58 74.57 74.80 74.95 75.13 75.47 75.66 74.99 74.72 74.52 74.43 73.95 73.99 73.80 73.53 73.22 73.38 73.58 73.56 73.43 73.15 73.00 73.18 73.53 72.90 72.10 72.84
73.55 75.61 72.05 72.96 73.59 73.97 74.31 74.15 74.15 74.15 74.08 74.50 74.44 74.44 74.54 74.48 74.52 74.57 74.90 74.71 74.91 75.57 75.79 75.19 74.84 74.48 74.07 74.54 74.62 74.38 73.66 73.10 73.03 73.24 73.75 73.72 72.80 72.85 72.28 72.83 72.83 72.33 72.88
73.14 76.45 74.21 72.36 73.21 73.72 74.21 74.33 74.34 74.47 74.39 74.50 74.47 74.46 74.43 74.56 74.52 74.56 74.59 74.46 74.94 75.57 75.59 74.79 74.84 74.79 74.51 75.03 74.12 73.62 73.15 72.74 72.68 72.99 73.57 72.77 71.66 72.78 72.36 71.91 72.28 72.90 72.78
73.65 76.28 74.94 72.18 72.77 73.25 73.49 74.02 74.38 74.85 74.86 74.58 74.50 74.46 74.65 74.58 74.55 74.68 74.46 74.14 74.95 75.35 75.17 74.23 74.25 74.79 74.97 73.82 72.73 72.72 72.66 72.05 71.97 72.31 73.00 71.69 71.47 72.28 71.94 71.84 71.84 72.52 72.51
74.10 75.52 75.46 71.75 72.05 72.85 73.19 73.80 74.14 74.43 74.37 74.13 74.16 74.49 74.81 74.56 74.63 74.67 74.08 74.01 74.92 75.34 74.82 74.22 74.40 74.75 73.15 72.09 71.81 71.98 72.07 71.40 71.40 71.99 71.77 71.14 71.49 72.37 72.09 71.64 71.80 71.98 71.70
74.00 74.92 71.51 70.96 71.48 72.35 72.85 73.31 73.79 73.86 73.61 73.56 73.84 74.21 74.64 74.64 74.51 74.27 73.67 74.12 74.88 75.42 75.27 74.87 74.77 73.50 71.56 71.21 71.26 71.58 71.30 70.92 70.67 72.19 72.64 72.01 72.22 72.19 72.19 72.15 71.82 71.54 71.26
73.73 75.15 74.87 70.38 71.02 71.96 72.73 72.90 72.95 72.90 73.04 73.36 73.56 73.71 73.94 74.18 74.25 73.71 73.27 73.98 74.45 74.59 74.71 74.61 74.15 72.60 70.99 70.67 70.91 70.95 70.68 70.29 72.00 71.07 68.93 70.90 72.68 72.19 72.24 71.64 71.46 70.99 70.36
73.55 75.24 76.08 71.77 71.35 71.48 71.85 71.76 71.51 71.86 72.20 72.68 73.10 73.30 73.78 73.62 73.43 72.99 73.04 73.52 73.75 73.54 73.63 73.45 72.72 71.57 70.80 70.57 70.66 70.14 69.76 69.44 71.10 70.47 70.03 70.57 71.46 72.13 71.99 71.73 71.09 70.35 70.82
74.74 75.20 76.11 74.76 72.77 70.94 70.50 70.29 70.19 70.78 71.20 72.02 72.25 72.40 72.87 72.36 72.12 72.56 72.64 73.14 73.19 72.89 72.83 72.54 71.84 70.84 70.73 70.34 70.03 69.40 68.69 69.28 71.26 70.34 70.58 70.32 71.43 71.83 71.74 71.52 70.99 70.48 70.15
74.97 75.56 75.84 75.56 74.44 73.93 73.40 70.12 69.82 70.02 70.26 70.74 71.41 71.47 71.29 71.49 71.79 71.85 71.92 71.61 72.63 72.54 72.34 71.87 71.26 70.52 70.12 69.72 69.39 68.46 68.03 68.97 71.26 70.41 70.09 70.37 70.86 71.89 71.67 71.15 70.91 70.70 70.65
73.28 74.56 75.72 75.37 74.44 74.96 74.62 72.82 70.59 70.29 70.33 70.20 70.99 70.61 70.39 74.29 74.43 73.59 71.60 70.86 71.44 71.00 70.99 71.03 70.46 69.54 69.16 69.35 68.84 68.06 68.01 70.91 70.30 69.79 68.89 69.12 70.42 71.50 71.52 71.03 70.58 70.54 70.49
72.17 73.23 73.69 72.93 72.68 73.81 74.21 74.70 73.36 72.88 72.37 72.36 72.41 72.81 73.08 73.51 73.62 72.90 71.49 70.14 70.37 69.62 69.63 69.74 69.53 68.72 68.69 71.01 70.78 68.37 70.49 70.50 69.78 69.30 70.37 68.64 69.66 71.25 71.05 70.16 69.89 70.26 70.03
70.08 73.07 73.13 72.54 72.56 72.33 72.77 74.34 73.77 73.71 73.18 73.13 73.28 73.38 73.06 73.15 73.72 72.90 73.12 72.51 73.09 70.11 72.25 70.84 71.00 71.16 70.93 70.75 69.61 70.57 70.21 70.23 68.88 70.00 70.22 66.98 69.74 71.03 70.63 69.93 69.12 69.86 69.20
66.82 71.54 72.81 73.25 73.52 73.34 73.44 73.40 73.38 72.80 72.98 73.24 73.18 74.83 74.21 72.86 73.58 72.64 71.49 72.12 72.89 72.83 71.73 72.11 71.27 71.00 70.81 71.19 71.51 71.05 71.08 71.84 70.41 70.76 70.04 66.06 66.84 68.37 70.37 69.95 69.38 69.71 69.02
58.88 67.24 71.62 73.00 72.67 73.15 73.35 72.70 72.85 72.61 73.18 72.91 73.13 74.08 73.95 72.00 73.24 72.24 72.34 71.75 72.87 72.08 72.00 71.91 71.13 70.79 70.43 70.35 70.95 70.31 70.36 70.27 70.29 69.85 71.69 65.57 65.75 66.77 69.06 69.11 68.99 68.27 68.70
58.16 58.67 62.40 70.26 72.37 72.68 72.18 72.26 72.19 73.07 72.77 72.37 72.42 72.46 74.18 72.54 72.46 71.61 71.90 71.23 70.63 71.92 71.93 71.46 71.00 70.46 69.80 70.28 70.31 70.29 70.11 69.91 69.77 69.64 69.12 68.41 64.87 65.57 66.90 67.29 67.47 65.18 68.08
57.07 57.84 58.42 62.64 68.52 71.41 71.76 71.65 71.56 71.32 71.90 71.19 71.58 73.09 74.34 72.76 73.44 72.32 71.19 71.31 70.80 71.50 73.23 71.87 71.45 70.94 70.25 69.56 69.01 69.47 70.05 69.44 69.09 68.91 68.89 68.75 66.02 62.41 63.87 65.71 66.26 65.95 66.15
59.30 60.06 60.95 60.05 61.14 67.40 70.69 70.35 70.91 71.07 71.02 70.67 71.32 72.12 73.17 72.47 72.81 73.41 70.62 70.97 71.59 71.42 71.14 71.42 70.78 69.70 68.64 68.83 68.68 68.41 68.45 68.99 68.66 68.76 68.66 68.08 67.40 65.61 62.35 63.43 63.49 63.32 64.73
60.37 61.39 61.76 63.16 62.69 61.53 63.77 67.54 70.71 72.18 71.39 71.21 71.77 71.64 73.15 72.97 72.21 72.88 71.04 70.17 70.67 70.27 70.75 70.25 70.07 69.89 68.40 68.59 68.35 68.48 68.27 67.65 68.16 68.17 67.14 67.53 66.85 65.79 65.53 62.49 62.27 62.39 64.42
60.28 60.95 61.18 61.86 62.73 63.66 63.06 62.93 66.76 68.34 70.25 71.62 71.86 71.92 72.80 71.88 72.17 72.59 71.44 70.64 70.44 69.39 69.55 69.94 69.12 69.02 68.63 67.85 66.61 65.82 67.35 67.88 67.85 67.82 67.15 66.57 66.41 65.68 65.38 64.16 62.94 62.34 60.87
60.01 59.89 59.86 59.89 60.88 61.67 61.72 61.38 60.42 65.46 67.73 69.64 70.63 72.37 73.09 72.11 71.66 71.77 71.02 69.79 69.74 67.67 68.83 67.77 68.27 66.62 66.54 68.18 66.33 65.57 65.26 66.19 66.14 66.40 66.79 66.26 65.64 64.94 64.47 64.69 64.37 63.88 63.41
57.30 57.70 57.60 58.23 59.12 59.69 60.28 61.56 62.31 62.48 65.22 67.11 69.50 70.46 71.93 72.60 71.63 70.73 70.67 69.26 69.69 67.50 67.09 66.65 66.43 65.26 65.88 67.26 63.53 62.62 59.82 62.43 63.94 65.44 66.02 65.70 65.64 65.73 63.67 64.52 63.74 63.86 64.16
55.35 55.46 55.61 56.42 57.14 57.80 58.78 59.60 61.28 62.67 62.94 65.25 67.13 67.46 69.82 71.84 71.90 70.41 68.66 69.74 69.88 67.67 66.02 66.51 65.98 64.95 63.61 65.18 65.55 61.88 57.55 56.79 59.54 63.55 64.65 65.01 65.01 64.89 65.13 65.42 63.97 63.57 64.14
54.15 54.94 54.69 55.06 55.11 55.69 56.99 56.94 57.59 57.97 59.47 61.84 66.32 67.12 68.57 70.16 70.32 70.07 69.89 68.22 70.13 68.05 67.15 66.24 66.12 66.24 65.75 61.48 64.19 64.96 65.03 63.16 58.83 57.98 62.71 64.03 64.67 64.00 65.48 65.22 65.10 64.11 63.81
53.27 53.03 53.35 53.00 53.12 53.59 53.70 54.94 54.73 55.36 57.65 61.07 63.72 67.13 68.23 68.89 69.56 67.37 67.81 68.38 69.14 68.57 68.14 67.26 65.71 66.25 65.96 64.38 63.37 62.97 63.47 62.62 62.72 59.89 58.09 60.60 62.46 64.16 64.38 65.42 65.92 65.47 65.24
51.94 51.46 51.37 50.46 50.02 50.82 50.46 50.64 50.18 50.41 52.69 55.96 59.82 62.74 67.40 67.80 68.62 67.07 66.84 66.40 68.18 68.32 66.68 67.68 67.77 66.55 66.73 65.70 64.96 63.63 61.66 60.53 59.18 60.02 58.84 59.26 59.96 62.05 63.42 64.62 64.86 64.98 65.12

GFSSE_sfc_wetblb_114.txt.gz
Wetbulb
72.69 72.61 72.69 73.68 74.00 74.32 74.51 74.19 73.45 73.70 74.22 74.46 74.35 74.53 74.53 74.75 74.62 74.58 74.68 74.57 75.01 75.77 75.95 75.80 75.65 74.97 73.80 73.31 73.47 73.65 73.33 73.27 73.31 73.62 73.63 73.90 73.43 73.55 73.58 73.43 73.07 71.50 73.09
74.25 72.94 72.13 73.21 73.73 74.40 74.44 74.33 73.65 73.78 74.18 74.54 74.37 74.52 74.72 74.65 74.47 74.75 74.75 74.79 74.96 75.57 75.62 75.42 74.87 74.75 74.41 74.47 74.31 73.88 73.12 72.66 72.77 73.19 73.83 73.43 73.10 73.08 72.83 72.87 72.71 71.72 72.53
74.45 73.70 72.72 72.57 73.27 73.86 74.26 74.33 74.24 74.19 74.47 74.51 74.53 74.47 74.62 74.53 74.45 74.44 74.37 74.39 75.06 75.67 75.77 74.94 74.72 74.61 74.67 74.47 73.94 73.52 72.76 72.44 72.43 72.85 73.25 70.71 70.98 73.01 72.31 72.09 72.05 72.08 72.68
75.08 73.36 73.27 72.37 72.95 73.60 73.89 74.14 74.25 74.37 74.55 74.54 74.53 74.62 74.65 74.40 74.50 74.49 74.11 73.94 74.54 75.57 75.62 74.84 74.74 74.90 74.80 74.23 73.01 72.74 72.45 72.18 71.93 72.27 71.74 71.36 70.67 72.91 72.34 72.60 72.07 72.75 72.65
74.56 75.10 73.74 71.92 72.34 73.09 73.58 73.90 73.96 74.20 74.02 73.99 74.11 74.65 74.65 74.53 74.70 74.62 73.78 73.75 74.70 75.42 75.42 74.16 74.56 74.80 73.63 72.35 71.70 71.91 71.86 71.46 71.28 71.68 70.33 69.12 70.07 72.15 72.51 72.46 72.09 72.03 71.48
74.68 75.32 70.43 71.08 71.95 72.65 73.39 73.82 73.98 73.86 73.22 73.21 73.59 74.24 74.62 74.43 74.60 74.36 73.65 73.90 74.81 75.17 75.10 74.82 74.77 73.65 71.77 71.21 71.04 71.33 71.23 70.91 70.54 70.13 69.90 69.24 69.78 72.63 72.29 72.08 71.58 71.53 71.22
75.42 74.22 72.21 70.40 71.32 72.34 73.27 73.71 73.53 73.06 72.76 72.93 73.37 73.74 74.02 74.27 74.16 73.69 73.14 73.66 74.31 74.68 74.81 74.59 73.88 72.59 70.77 70.65 70.77 70.83 70.46 70.12 70.24 68.96 68.74 65.01 70.08 72.50 72.36 72.25 71.35 71.12 70.74
75.04 75.31 72.48 71.41 71.45 71.70 72.24 72.34 72.22 72.40 72.64 72.60 72.89 73.25 73.78 73.61 73.27 73.18 72.94 73.34 73.31 73.49 73.67 73.35 72.82 72.20 70.71 70.45 70.45 69.89 69.77 69.50 70.10 69.31 65.29 67.14 69.48 72.42 72.24 71.65 71.13 70.81 70.78
76.12 75.71 74.22 72.64 71.79 71.19 70.57 70.66 70.60 71.34 71.90 72.15 72.16 72.45 72.72 72.33 72.28 72.57 72.56 73.06 72.78 72.87 72.64 72.24 71.59 71.22 70.64 70.11 70.00 69.33 68.81 69.08 68.88 68.92 68.26 67.55 70.51 72.23 72.12 71.72 70.92 70.75 70.85
75.53 76.51 75.06 73.58 72.56 72.09 71.47 69.92 69.96 70.53 70.83 71.30 71.77 71.57 71.26 71.59 71.87 71.90 71.85 72.26 72.51 72.09 72.23 72.07 71.20 70.64 70.14 69.51 69.19 68.75 68.31 68.63 68.47 68.70 68.57 68.06 70.35 71.87 71.92 71.64 71.25 70.90 70.46
73.87 74.95 75.69 73.77 73.11 72.93 72.41 71.13 70.17 70.53 70.48 70.51 71.27 71.10 69.87 72.66 72.11 71.89 71.15 70.86 71.47 70.86 70.73 71.02 70.72 69.77 69.12 69.04 68.90 68.40 68.06 68.62 67.99 67.00 68.46 68.17 69.85 71.72 71.89 71.62 70.71 70.55 70.02
71.40 73.04 74.19 73.85 73.21 73.50 72.42 71.84 71.29 71.13 70.85 71.13 71.72 71.76 72.62 72.51 72.61 71.99 71.03 69.93 70.17 70.05 69.81 70.08 69.68 68.87 68.38 68.84 68.60 68.00 68.03 68.46 67.77 66.75 67.48 68.42 69.22 68.46 71.67 71.15 70.21 69.48 68.69
64.09 71.97 72.81 72.08 71.86 71.82 73.00 72.51 71.30 71.35 70.60 70.83 71.28 71.70 71.50 71.75 72.08 71.24 71.24 70.56 70.79 69.68 70.36 69.42 69.26 69.39 68.79 68.34 68.31 68.32 68.19 67.83 67.60 68.02 67.14 68.31 68.89 70.48 71.84 71.00 70.10 69.68 68.81
59.70 70.86 72.25 71.84 71.77 71.30 71.76 72.67 72.48 71.81 71.40 71.13 71.08 71.84 71.10 70.69 70.49 70.97 70.16 70.56 70.48 70.39 69.86 69.62 69.41 69.18 68.74 68.90 68.75 68.74 68.11 67.40 67.01 67.04 66.15 66.72 67.74 70.28 71.28 70.61 70.14 69.09 68.74
62.23 67.23 70.22 71.05 71.42 71.17 71.39 71.89 72.34 71.53 71.65 71.93 71.81 72.15 71.72 70.55 70.52 70.76 69.85 70.37 70.62 70.28 70.05 69.24 69.22 69.26 68.99 68.97 69.07 67.76 67.75 67.80 67.70 67.18 67.91 65.18 65.76 67.81 70.37 70.19 69.58 69.31 68.80
59.43 60.04 66.49 69.80 70.29 71.87 71.45 71.37 71.23 72.32 72.02 71.41 71.42 72.10 72.13 71.41 69.83 70.26 69.75 69.87 70.31 70.52 70.04 69.24 68.29 67.92 67.84 68.08 67.99 67.82 67.43 67.46 67.61 67.51 67.62 64.87 65.36 65.34 67.39 69.56 69.22 67.99 67.72
57.12 59.64 60.97 60.32 64.13 66.39 70.26 70.15 70.44 71.24 71.07 71.18 71.09 71.30 71.20 71.71 70.40 69.87 69.90 68.90 68.64 70.26 69.49 69.09 68.87 68.88 68.23 67.77 66.90 67.21 67.42 67.21 67.19 67.45 66.64 65.98 63.65 62.99 64.20 66.07 67.45 67.64 66.54
59.49 60.70 62.52 62.95 62.18 62.29 62.30 69.63 70.36 69.72 70.22 69.77 70.34 70.64 70.37 71.34 70.30 70.61 69.10 69.01 69.71 68.31 69.79 69.08 68.07 66.35 66.60 66.79 66.03 66.47 66.46 66.61 66.50 66.61 66.37 65.79 64.63 63.78 62.45 63.64 65.16 66.05 65.89
59.49 60.17 61.07 61.92 62.30 62.99 62.85 61.87 63.64 68.42 69.91 69.30 68.98 69.93 69.80 69.82 70.91 69.97 69.67 69.22 68.95 68.99 67.89 68.78 67.78 67.11 65.99 65.41 65.77 65.80 65.71 65.45 65.62 66.91 65.55 65.30 64.41 63.86 63.63 62.15 61.92 62.55 64.05
59.97 60.52 60.65 60.78 61.78 62.31 62.50 63.09 61.30 60.63 67.43 69.55 69.55 69.12 69.57 69.94 69.97 69.88 69.42 69.18 68.53 67.84 67.54 67.61 66.57 66.82 66.05 65.69 66.12 65.08 65.25 65.29 65.29 65.89 64.74 65.62 64.43 63.57 63.68 63.09 61.79 61.36 61.04
59.11 58.47 58.32 58.91 60.29 59.80 59.65 59.34 59.93 59.15 61.28 65.96 68.52 69.44 69.88 69.76 69.78 69.42 68.86 69.18 68.14 67.30 67.02 67.02 66.77 65.54 65.20 65.82 63.59 62.61 63.54 64.48 64.54 64.30 64.66 64.04 64.27 63.81 63.39 62.83 62.82 62.28 61.59
56.11 56.12 56.12 56.10 56.71 56.98 57.32 57.45 58.44 58.97 60.22 61.34 61.51 64.32 68.69 69.58 69.55 69.60 69.01 68.63 68.48 66.97 66.23 66.56 66.56 64.45 64.98 65.43 61.59 60.58 58.49 60.10 62.50 63.67 63.56 63.82 63.19 62.98 63.15 62.47 62.83 62.34 62.59
54.97 54.53 53.93 54.28 54.43 55.11 55.99 55.67 56.51 57.91 59.04 60.17 60.27 61.09 66.27 67.51 69.75 68.71 68.70 68.27 67.63 67.03 65.66 65.63 66.48 64.39 63.18 64.45 64.54 59.73 55.20 54.34 57.95 61.30 62.54 62.80 62.57 62.47 62.89 62.24 62.49 62.47 63.09
53.02 53.67 53.10 53.03 52.65 53.01 52.96 52.47 52.61 52.84 52.86 56.12 57.67 60.03 61.73 65.20 66.22 68.43 67.83 68.22 67.54 67.31 65.61 65.08 66.19 65.49 64.25 62.16 64.27 63.42 60.98 59.40 55.52 54.97 59.79 61.94 62.39 62.12 62.53 62.65 62.62 62.38 62.72
51.75 51.16 51.42 51.28 50.93 50.75 50.40 50.41 49.63 49.81 50.98 52.50 53.46 54.99 57.45 60.87 64.12 67.46 67.64 67.59 67.29 67.47 66.74 65.13 64.86 65.18 64.50 62.90 62.54 62.41 61.78 60.81 59.80 56.82 54.78 57.37 61.29 62.59 62.38 62.76 63.07 62.87 62.53
49.96 49.48 49.53 48.56 48.13 48.34 47.67 47.65 47.19 47.20 47.29 48.18 49.77 51.22 53.75 57.26 61.06 65.25 66.78 67.00 66.52 66.33 66.25 65.86 65.66 65.03 64.33 64.21 62.71 61.93 61.63 59.78 58.75 57.16 55.64 56.29 57.29 59.00 61.58 61.82 62.15 63.27 63.18

GFSSE_sfc_wetblb_117.txt.gz
Wetbulb
70.56 72.21 72.77 73.86 74.23 73.92 73.47 73.06 73.18 73.48 73.92 74.08 74.27 74.40 74.63 74.37 74.14 74.35 74.47 74.68 75.06 75.94 75.92 75.17 75.44 74.77 74.26 73.91 73.90 73.00 72.72 72.78 72.76 73.29 73.40 73.65 73.82 73.50 73.52 73.40 72.57 71.71 73.08
71.42 72.33 72.13 73.28 73.89 74.24 73.76 73.08 73.15 73.59 74.05 74.33 74.38 74.43 74.37 74.23 74.16 74.30 74.13 74.46 75.06 75.79 75.29 75.12 74.82 74.22 73.64 73.80 73.37 72.57 72.39 72.38 72.62 72.70 72.88 73.60 73.47 73.24 72.75 72.77 72.32 71.90 72.57
71.11 72.13 72.52 72.44 73.48 73.91 74.15 73.57 73.54 74.06 74.31 74.36 74.37 74.33 74.30 74.22 74.22 74.09 73.95 73.99 74.70 75.49 75.07 74.64 74.29 74.01 74.27 73.76 73.18 72.52 71.99 72.08 72.11 71.98 72.92 70.78 71.73 73.10 72.31 71.57 72.24 72.09 72.65
71.73 71.24 72.01 72.11 72.92 73.55 73.62 73.60 73.28 74.15 74.39 74.20 74.33 74.43 74.02 74.17 74.07 74.11 73.79 73.74 74.54 75.48 75.27 74.16 74.13 74.52 74.26 73.70 72.73 72.39 71.80 71.75 70.94 71.53 71.63 71.17 71.04 72.90 72.46 72.73 72.25 72.46 72.67
71.63 71.68 72.18 71.62 72.23 73.04 73.38 73.53 73.17 73.42 73.54 73.68 73.86 74.36 74.20 74.17 74.20 74.17 73.38 73.22 74.17 75.53 75.47 74.64 74.44 74.37 73.33 72.42 71.41 71.45 71.43 70.93 70.69 71.08 69.13 68.45 69.07 72.31 72.66 72.77 72.60 72.32 71.67
71.81 72.28 70.60 70.74 71.74 72.70 73.25 73.32 73.21 73.13 72.62 72.87 73.21 73.97 74.09 74.25 74.27 73.76 72.82 73.22 74.44 75.21 75.22 74.72 74.46 73.43 71.89 70.99 70.89 70.71 70.64 70.51 70.09 67.94 68.09 68.00 68.57 71.72 72.09 72.11 71.85 71.62 70.93
71.69 71.07 70.77 70.11 71.14 72.42 73.30 73.30 72.99 72.61 72.11 72.39 72.87 73.28 73.56 73.78 73.90 73.06 72.43 72.91 73.82 74.32 74.30 74.06 73.51 72.17 70.60 70.12 70.21 70.17 70.01 69.76 69.62 66.98 66.67 66.89 66.87 68.55 71.57 71.45 71.71 71.42 70.83
71.54 71.15 70.83 71.36 71.25 71.69 72.41 72.44 72.15 72.03 71.70 71.83 72.33 72.81 73.27 72.99 72.78 72.72 72.42 72.46 73.11 73.35 72.91 73.11 72.46 71.76 70.29 69.88 70.06 69.44 69.07 69.22 69.52 66.56 66.02 65.77 65.19 68.41 71.82 71.19 71.19 70.87 70.48
72.60 70.75 70.43 70.69 71.33 70.81 70.66 70.71 70.69 71.18 71.35 71.44 71.80 71.96 72.37 71.89 71.84 71.99 72.18 72.31 72.72 72.47 72.21 72.31 71.73 71.36 70.40 69.56 69.29 68.69 68.28 68.76 67.94 65.82 67.78 65.81 66.68 68.94 71.30 71.58 71.15 70.80 70.59
71.82 71.77 70.10 69.97 69.77 69.41 69.59 69.77 70.04 70.69 70.80 70.82 71.26 71.18 70.96 71.07 71.47 71.57 71.48 71.76 72.17 72.05 71.85 71.87 71.04 70.59 69.92 69.21 68.85 68.36 67.81 68.01 67.54 67.23 67.45 66.64 67.44 69.95 72.05 71.84 71.36 70.80 70.45
70.31 72.12 71.13 70.02 69.83 69.30 68.98 69.86 70.08 70.73 70.56 70.40 71.03 70.44 69.80 71.28 71.43 71.15 70.69 70.58 71.32 70.47 70.58 70.77 70.41 69.69 68.81 68.54 68.40 68.18 67.90 67.43 67.27 66.75 66.66 67.99 70.10 71.37 71.59 71.38 70.63 70.30 70.39
68.61 70.02 71.30 70.49 69.97 69.91 70.70 69.09 68.60 69.84 69.75 70.18 70.70 70.83 70.79 70.43 70.54 71.26 70.26 69.46 69.98 69.47 69.58 69.72 69.47 68.77 68.24 67.76 67.60 67.97 66.86 67.61 66.89 66.44 66.89 67.96 70.10 71.17 71.57 71.31 70.45 70.21 69.78
66.55 69.84 70.97 71.32 71.04 70.56 70.08 68.99 69.10 68.44 68.17 68.96 69.74 70.13 70.27 70.95 70.65 69.93 69.96 69.76 69.14 69.44 69.27 69.00 68.76 68.42 67.85 67.20 66.80 66.65 66.93 67.00 66.15 66.62 66.84 67.62 68.93 70.26 70.23 71.41 70.89 70.42 69.64
55.51 70.05 70.29 70.40 70.50 70.98 71.52 69.75 68.94 69.00 68.11 68.16 68.62 69.56 69.70 68.26 68.80 69.75 69.40 68.85 68.77 69.05 68.42 68.19 68.28 68.08 67.34 67.47 66.93 67.18 67.02 66.47 65.22 66.48 65.74 65.49 66.78 69.74 71.57 71.17 71.04 70.64 69.39
52.13 68.65 69.44 69.59 69.24 69.75 69.53 70.65 70.93 69.28 69.07 68.97 68.82 69.32 69.47 67.86 68.01 67.91 68.23 68.93 69.04 69.01 68.57 67.70 67.76 67.99 67.58 67.10 67.38 67.04 66.91 66.50 66.04 66.34 64.53 64.48 65.95 68.59 71.01 71.20 70.56 70.25 69.33
53.42 58.53 58.38 66.67 69.32 69.27 67.80 68.83 68.26 69.09 69.55 69.65 69.69 69.64 69.90 69.02 67.73 68.10 67.74 68.08 68.73 68.87 68.74 68.01 67.46 67.46 67.53 66.86 66.93 67.45 66.53 66.34 66.34 66.09 65.48 63.79 63.86 65.60 68.34 70.95 70.90 70.41 69.52
56.12 57.89 58.08 58.31 59.61 60.15 65.60 67.43 68.30 68.28 69.37 69.31 68.61 69.72 70.20 69.82 68.20 67.53 67.42 67.01 68.22 69.29 68.03 68.21 66.66 65.79 65.33 66.37 65.88 65.93 65.93 65.79 66.03 65.97 65.27 63.83 63.30 62.99 64.41 67.31 68.94 69.54 69.59
55.28 56.73 57.90 59.84 59.32 59.61 59.57 60.60 65.95 67.76 67.85 68.12 69.39 69.36 69.45 70.29 69.25 67.60 67.37 67.26 66.37 68.64 68.35 67.81 67.12 65.29 65.16 65.20 64.38 64.58 65.15 65.19 65.29 65.38 64.96 64.40 62.95 63.39 62.60 63.63 65.60 67.20 67.32
55.17 55.47 56.25 57.23 57.46 57.94 58.49 59.59 59.76 60.65 60.79 66.53 67.85 69.06 69.02 68.48 69.43 68.94 67.28 66.89 67.12 66.53 67.69 67.67 66.32 64.87 63.48 63.92 64.28 64.46 64.30 64.30 64.38 65.44 64.77 64.18 63.06 62.12 61.69 61.96 62.66 63.63 65.02
54.09 54.18 54.70 55.91 55.80 56.17 56.66 57.28 58.20 58.17 57.92 60.93 65.89 66.40 67.81 68.64 68.11 68.77 68.48 67.85 66.62 66.20 65.81 66.42 66.22 64.47 64.16 63.93 65.18 64.24 63.45 63.60 63.58 63.29 63.78 64.30 63.29 62.48 62.12 61.54 60.71 60.66 61.81
52.05 52.19 52.37 52.44 52.66 53.29 53.05 52.43 53.56 54.17 56.09 57.86 59.18 61.21 62.47 67.73 68.04 67.63 67.55 66.73 66.91 66.48 66.29 65.10 63.83 64.75 62.76 63.92 62.04 60.63 61.66 61.89 62.20 62.41 63.42 63.40 63.23 62.50 62.32 62.33 60.98 60.66 60.60
50.07 50.23 50.54 50.62 50.77 51.42 51.07 51.58 52.15 52.72 54.41 55.76 58.08 58.57 60.21 60.97 65.24 67.08 67.34 67.05 67.49 66.04 64.39 65.06 63.95 61.40 63.14 64.53 59.89 58.47 57.95 57.50 60.51 61.89 61.88 62.68 62.68 62.59 62.12 61.98 61.28 60.76 60.90
47.85 47.79 48.86 48.86 48.64 49.28 49.36 49.61 49.99 50.83 51.67 52.38 53.36 54.80 56.27 57.51 60.10 64.19 66.83 66.90 66.83 66.53 65.00 64.86 64.31 63.21 62.76 62.36 62.59 59.07 55.24 53.12 55.36 59.14 61.29 62.07 61.76 61.29 61.47 61.80 61.34 61.34 61.39
45.41 46.92 47.15 47.66 47.02 47.83 46.98 46.14 45.39 45.77 46.12 48.19 48.91 50.30 51.35 53.56 55.59 58.14 61.29 65.55 66.28 66.30 65.44 64.82 65.37 64.91 63.95 61.95 60.87 61.20 57.94 56.40 53.08 52.24 57.33 60.77 61.31 61.51 60.65 60.98 61.18 61.45 61.69
44.74 44.44 44.40 44.86 44.93 44.35 43.91 44.07 43.49 43.22 44.50 46.18 47.10 47.11 48.41 50.48 52.38 54.34 57.18 59.82 64.77 65.17 64.93 64.71 63.62 64.75 63.90 62.47 62.15 62.38 60.23 57.88 56.75 54.57 52.71 56.57 59.11 60.33 61.52 61.08 61.37 61.32 61.67
43.25 42.71 42.14 42.08 41.93 42.00 41.70 41.61 41.20 40.37 40.93 41.88 42.70 43.17 44.96 47.59 49.71 51.76 54.77 57.44 61.53 64.81 65.00 64.19 63.74 63.50 64.91 64.51 62.71 61.62 61.25 59.82 58.34 55.47 53.31 54.29 57.60 57.87 61.23 61.33 61.38 61.84 61.55

GFSSE_sfc_wetblb_120.txt.gz
Wetbulb
70.29 72.27 73.01 73.55 73.67 73.44 73.30 73.00 73.00 73.19 73.54 73.83 74.21 74.32 74.42 74.51 74.55 74.62 74.88 75.04 75.41 75.81 75.95 75.55 75.32 74.74 74.16 72.93 72.90 73.01 72.74 72.65 72.91 73.32 73.84 73.72 73.62 73.37 73.19 73.09 72.63 71.57 72.58
71.06 72.45 72.34 73.29 73.61 73.56 73.51 73.18 73.10 73.31 73.74 73.95 74.18 74.02 73.94 74.16 74.17 74.32 74.51 75.09 75.38 75.81 75.09 74.62 74.32 73.92 73.89 73.32 72.61 72.25 72.24 71.98 71.95 72.53 73.54 73.77 73.55 73.03 72.85 72.50 71.94 72.23 72.55
70.99 72.20 72.68 72.56 73.35 73.51 73.47 73.46 73.54 73.80 73.99 73.97 74.04 73.78 73.65 73.82 74.03 73.99 74.08 74.45 75.05 75.46 74.99 74.74 74.34 73.92 73.87 73.20 72.41 71.87 71.87 71.82 71.73 72.10 72.56 71.00 70.95 73.18 72.56 72.41 72.39 72.53 72.70
71.20 71.70 72.14 72.38 72.95 73.30 73.04 73.13 73.43 74.13 74.06 74.06 74.06 73.78 73.62 73.74 73.74 73.53 73.41 73.68 74.65 75.23 74.72 74.42 73.97 73.97 73.74 72.78 72.26 71.53 71.48 71.30 70.98 71.52 70.13 70.23 70.17 71.89 72.06 72.18 72.35 72.29 72.30
70.78 71.54 71.83 71.77 72.27 73.02 73.01 72.80 72.99 73.55 73.50 73.48 73.71 73.90 73.78 73.99 73.95 73.79 73.18 73.45 74.77 75.40 74.89 74.11 74.54 74.29 72.94 71.79 71.16 71.01 71.00 70.82 70.49 70.03 68.35 68.05 68.77 69.23 71.12 71.51 72.45 72.17 71.38
70.31 71.27 70.62 70.87 71.73 72.76 73.14 72.81 72.74 72.77 72.40 72.69 73.08 73.51 73.73 73.91 74.05 73.58 72.74 73.36 74.54 75.44 75.33 74.79 74.37 73.08 71.50 70.69 70.41 70.63 70.38 70.03 69.42 67.39 67.37 69.02 67.84 70.56 70.54 71.05 71.67 71.82 71.12
69.70 70.70 70.56 69.89 71.17 72.40 73.14 72.99 72.57 72.21 71.84 72.22 72.71 72.94 73.30 73.46 73.44 72.87 72.33 72.76 73.61 74.67 74.26 74.01 73.20 71.85 70.61 70.09 70.14 70.01 69.91 69.62 67.61 66.57 66.21 66.59 67.88 68.82 70.55 71.61 71.12 70.70 71.21
69.88 70.26 70.53 71.07 71.18 71.49 72.05 72.10 71.45 71.38 71.44 71.68 72.11 72.35 73.10 72.89 72.39 72.01 72.01 72.09 72.93 72.88 72.58 72.44 71.98 70.88 69.97 69.89 69.70 69.15 68.80 68.89 67.61 66.26 65.61 64.57 67.00 70.28 71.15 71.93 70.71 70.54 71.06
70.45 69.76 69.85 70.25 71.02 70.50 70.28 70.24 70.15 70.69 70.79 70.90 71.15 71.35 71.86 71.43 71.16 71.56 71.82 71.82 72.33 72.14 71.70 71.82 71.21 70.71 69.88 69.54 69.03 68.26 67.80 68.14 66.93 65.63 65.86 65.46 68.14 70.33 70.61 72.08 71.19 70.69 70.82
69.81 69.48 69.33 69.40 69.96 69.94 70.17 69.52 69.65 69.90 69.85 70.10 70.63 70.55 70.26 70.36 70.94 71.07 70.86 71.28 71.67 71.77 71.57 71.56 70.94 70.65 69.80 68.85 68.33 67.62 67.38 67.74 66.81 65.43 65.61 65.72 67.83 69.70 70.61 71.86 71.47 70.84 70.56
70.29 68.99 68.59 68.68 69.00 69.09 69.15 70.30 70.17 70.57 70.03 69.63 70.26 69.92 69.36 70.89 70.91 70.79 70.18 70.18 70.65 70.11 70.40 70.58 69.98 69.42 68.54 68.11 68.00 67.44 67.47 66.99 66.79 66.72 66.09 67.06 67.83 69.43 70.49 71.87 70.97 70.63 70.35
68.29 69.76 69.00 68.37 68.21 68.25 69.71 69.13 69.34 70.35 70.31 70.44 70.74 70.42 71.18 69.86 70.26 70.88 69.98 68.95 69.44 69.04 69.33 69.42 68.99 68.32 67.96 67.53 67.17 67.58 66.47 66.72 66.52 65.92 65.95 66.97 68.71 70.25 71.66 71.54 70.57 70.48 70.20
67.04 68.70 70.44 68.93 68.21 67.94 68.24 67.98 67.62 68.55 68.73 69.43 70.04 70.71 70.21 70.26 69.59 69.92 69.65 69.56 69.20 69.18 69.18 69.09 68.64 68.57 67.55 66.90 66.38 66.06 65.99 66.54 65.75 65.42 66.46 66.53 69.23 71.54 72.09 71.74 70.86 70.71 70.08
49.01 60.18 70.25 69.83 69.58 68.68 68.68 67.62 67.98 67.62 67.53 67.93 69.13 69.61 69.76 69.59 69.04 68.93 69.11 68.68 68.50 69.02 68.07 68.46 68.27 68.14 67.39 67.15 66.41 66.11 66.16 66.25 65.11 65.54 65.04 65.50 66.95 70.49 70.61 71.57 71.51 71.07 70.21
55.38 62.35 66.90 68.43 67.87 69.13 69.06 68.46 67.76 67.67 67.78 67.31 67.53 69.04 69.67 69.25 68.88 69.29 68.79 68.55 68.20 68.43 68.25 67.64 67.60 67.58 67.33 66.92 66.54 66.26 66.14 66.01 65.27 65.72 65.00 64.85 64.94 66.42 69.93 71.12 71.22 70.84 70.53
54.51 56.61 61.02 61.05 62.68 67.24 67.53 68.01 68.46 68.32 67.49 67.69 68.00 68.41 69.47 69.01 68.71 68.14 68.45 68.31 68.14 68.37 68.48 67.92 67.35 67.01 67.04 66.99 66.37 66.37 66.37 66.15 65.38 65.30 64.83 64.83 63.50 65.50 68.52 70.83 71.01 70.89 70.44
55.59 57.22 58.24 58.60 58.64 58.94 62.60 63.88 65.35 67.06 68.30 67.94 68.83 68.64 68.77 68.95 67.76 68.31 67.80 67.48 68.31 68.48 67.89 67.62 66.97 66.88 66.59 66.32 65.70 65.85 65.74 65.72 65.44 65.33 64.76 63.97 63.12 62.70 64.45 67.40 68.38 69.99 70.19
54.26 55.44 56.26 57.76 56.29 56.39 56.98 58.68 59.70 61.58 64.03 64.40 66.27 68.10 69.14 69.24 68.90 67.43 67.21 67.42 67.55 68.13 67.84 67.35 66.48 65.72 65.83 65.44 65.06 64.37 64.66 64.64 64.76 65.05 64.40 63.67 62.81 63.16 62.08 63.62 65.83 67.65 68.71
52.64 53.08 53.07 52.92 52.90 53.53 54.20 55.53 56.36 57.11 57.72 59.13 61.89 65.36 67.75 65.39 67.52 67.65 66.93 67.00 65.92 67.25 67.60 67.26 66.77 66.08 64.74 64.07 64.42 64.02 64.00 64.02 64.12 64.76 63.87 63.34 62.58 61.83 61.89 62.19 63.19 64.13 65.88
50.42 51.07 51.11 51.16 51.16 51.33 51.47 51.84 52.49 53.38 54.33 56.75 58.21 61.38 63.22 65.72 65.23 67.38 67.82 67.71 65.60 65.38 66.37 66.71 66.41 65.83 64.70 64.15 64.36 63.65 62.89 63.23 63.50 63.64 63.72 63.83 62.66 61.38 61.32 60.93 61.08 62.16 62.86
49.15 49.06 49.03 48.75 48.93 48.85 48.67 48.21 48.96 48.63 50.58 52.48 55.23 56.85 57.69 60.15 61.84 62.81 66.64 66.95 66.66 65.56 65.50 65.72 65.92 63.34 62.69 63.13 61.41 59.65 60.04 61.54 61.81 62.39 63.28 62.96 62.35 61.86 60.62 60.40 60.18 59.95 60.71
46.97 47.32 47.29 47.09 46.52 46.46 46.94 46.82 47.22 46.93 49.75 50.73 52.10 51.07 54.02 52.59 54.38 57.42 58.77 62.31 66.10 66.19 65.68 64.21 64.75 62.44 64.09 63.32 61.14 57.48 56.43 58.32 59.91 61.06 61.23 62.42 62.04 62.22 61.52 61.11 60.33 59.88 60.24
44.30 44.61 44.85 44.52 44.51 44.09 44.44 44.81 44.54 45.79 46.32 46.82 46.38 47.52 48.83 49.99 51.81 53.73 55.88 58.88 61.15 65.03 65.01 65.01 64.32 63.40 61.90 62.03 62.36 58.91 53.80 54.27 55.35 58.12 60.65 61.76 61.38 61.29 61.86 61.75 61.00 60.82 60.42
42.18 42.88 42.97 43.00 42.15 42.65 42.41 41.49 40.74 40.90 40.81 42.82 43.82 45.24 45.77 47.35 47.83 50.46 52.41 54.16 56.35 58.84 63.14 64.12 64.49 63.83 63.46 61.06 62.13 62.70 58.70 56.49 53.61 52.74 57.80 61.08 61.13 60.50 60.04 61.07 60.92 60.86 60.50
41.08 40.09 40.60 41.04 40.21 40.24 39.69 39.90 39.07 38.12 39.18 40.56 41.78 41.71 42.59 44.57 46.44 48.14 49.98 51.80 53.57 55.55 58.85 63.10 62.72 63.01 62.89 61.15 60.51 61.91 58.44 57.52 55.38 53.42 51.70 56.98 60.33 60.80 60.84 60.78 60.86 60.72 60.72
39.29 38.68 38.43 37.93 37.65 37.97 37.56 37.58 37.05 36.62 37.05 37.37 38.05 39.01 41.05 42.42 43.59 45.39 47.25 48.86 51.34 53.55 56.68 60.89 63.31 62.41 61.11 60.73 60.76 61.40 60.94 57.67 56.08 54.29 51.99 53.24 55.80 59.30 60.48 60.63 60.29 60.74 60.90

GFSSE_sfc_wetblb_123.txt.gz
Wetbulb
70.00 71.68 72.77 73.36 73.56 73.33 72.95 72.79 72.47 72.81 73.53 74.15 74.38 74.62 74.99 74.94 74.83 74.70 74.87 75.05 75.22 75.63 75.84 75.14 74.29 74.04 73.41 72.20 72.32 72.73 72.65 72.61 72.46 73.59 73.33 73.49 73.19 73.19 72.58 72.87 72.70 71.30 72.51
70.69 72.48 71.99 73.20 73.49 73.42 73.18 72.77 72.75 73.03 73.77 74.08 74.13 74.27 74.31 74.41 74.51 74.60 74.74 75.07 75.29 75.65 75.36 74.91 74.41 74.06 72.96 72.20 71.76 71.80 72.08 72.03 71.90 71.93 72.84 72.59 73.07 72.79 72.62 72.45 72.15 71.50 72.61
70.55 72.33 72.39 72.41 73.19 73.37 73.36 73.11 73.25 73.46 73.82 73.93 73.80 73.92 74.17 74.34 74.40 74.36 74.35 74.71 74.97 75.32 74.99 74.41 74.13 73.89 73.46 72.61 71.34 71.39 71.53 71.48 71.59 71.76 72.42 70.03 69.85 72.42 72.37 71.96 72.27 72.41 72.51
70.96 71.71 72.30 72.16 72.67 73.00 72.92 72.96 73.16 73.93 73.86 73.72 73.63 73.52 73.94 73.96 74.05 74.23 74.18 74.18 74.68 75.19 74.69 74.06 73.78 73.49 73.45 72.31 71.40 71.02 71.09 71.06 70.95 71.08 69.84 69.66 70.25 72.35 71.40 71.56 71.86 72.16 72.20
70.44 71.52 71.86 71.92 72.11 72.63 72.43 72.71 72.88 73.23 73.22 73.36 73.21 73.53 73.63 73.87 73.96 73.89 73.41 73.73 74.80 75.03 74.44 73.86 73.66 73.98 72.56 71.44 70.94 70.53 70.63 70.40 70.24 69.57 68.19 68.06 68.20 70.38 70.54 72.20 72.39 72.25 72.05
69.89 70.79 70.59 70.96 71.79 72.51 72.41 72.45 72.58 72.61 72.23 72.43 72.79 73.14 73.38 73.58 73.73 73.18 72.64 73.50 74.64 74.68 74.56 74.34 74.65 72.94 71.37 70.54 70.36 70.27 70.11 69.79 68.67 66.96 66.85 68.27 66.88 69.32 71.09 72.15 71.51 71.78 71.29
68.96 69.79 70.59 69.84 71.11 72.34 72.62 72.43 72.26 72.05 71.74 71.94 72.49 72.57 73.05 73.53 73.50 72.73 72.38 73.26 74.15 74.61 74.47 74.08 73.25 71.86 70.93 70.16 70.16 69.97 69.44 69.12 67.34 65.93 65.75 67.18 66.45 69.96 70.95 71.92 70.92 71.20 71.22
68.68 69.64 70.31 70.95 71.00 71.46 72.08 71.74 71.09 71.07 71.40 71.54 71.78 72.10 72.60 72.64 72.41 72.29 72.23 72.31 72.94 73.38 72.80 72.39 71.64 71.09 70.38 69.86 69.73 69.05 68.55 68.66 67.30 65.35 65.33 65.21 67.69 70.22 70.47 71.79 70.81 71.02 70.99
69.32 68.96 69.18 70.06 71.11 70.60 70.20 70.25 69.97 70.15 70.62 70.78 70.98 71.31 71.55 71.16 70.92 71.48 71.63 71.77 72.36 72.11 71.70 71.48 71.09 70.12 69.65 69.39 69.03 68.09 67.45 68.40 66.20 65.57 64.89 64.03 66.48 70.09 71.12 72.19 71.34 70.81 70.66
68.28 68.31 68.06 68.29 69.26 69.48 69.95 69.26 69.46 69.59 69.75 69.99 70.51 70.20 70.06 70.23 70.61 70.64 70.57 70.97 71.57 71.55 71.28 71.30 70.69 70.07 69.43 68.60 68.10 67.41 66.96 67.59 66.12 65.43 64.72 65.76 67.36 70.36 71.38 72.08 71.64 71.16 70.80
68.40 67.52 67.43 67.52 67.97 68.35 68.69 69.87 69.91 70.29 69.86 69.37 70.04 69.61 68.69 70.13 70.11 70.08 69.77 69.80 70.47 70.06 70.23 70.59 70.06 69.27 68.53 67.88 67.77 67.27 67.16 66.32 65.85 65.89 65.21 66.80 67.64 70.46 71.39 71.74 71.36 70.90 70.69
67.00 67.36 67.18 67.00 67.25 67.38 69.55 68.94 68.78 69.66 70.05 69.59 69.46 69.23 70.09 69.37 69.12 70.34 69.50 68.69 69.31 69.03 69.27 69.34 69.05 68.31 67.93 66.79 66.61 67.30 66.07 66.03 65.71 65.46 65.53 66.51 68.32 69.55 70.45 71.27 71.15 70.89 70.54
65.98 68.04 67.95 66.98 66.68 66.93 67.77 67.58 68.03 69.73 69.72 69.95 70.62 70.40 70.29 69.71 69.60 69.89 69.05 68.80 69.03 68.87 69.44 68.98 68.47 68.53 67.58 66.41 65.66 65.52 65.60 65.60 65.12 65.03 65.68 66.00 67.93 69.86 71.19 71.70 71.29 71.03 70.47
49.20 53.30 65.53 67.81 67.13 66.43 67.20 66.99 66.95 67.79 67.97 68.57 69.20 69.70 69.26 68.75 68.68 69.09 69.21 68.53 67.85 68.67 69.23 68.67 68.83 69.05 67.83 66.77 65.96 65.35 65.51 65.37 65.28 64.74 64.46 65.39 66.98 70.16 71.24 71.50 71.62 71.15 70.64
56.91 62.65 66.96 68.71 67.09 66.91 66.59 66.93 66.39 67.31 67.72 67.68 68.08 69.11 69.28 68.58 68.26 68.89 68.97 68.47 67.72 67.43 68.15 68.44 68.69 68.22 67.86 66.84 66.23 65.51 65.33 65.31 65.15 65.01 64.15 64.54 65.73 68.36 70.17 70.64 71.06 71.06 70.81
56.03 57.80 59.67 61.11 65.86 68.10 66.86 67.00 66.79 67.29 67.29 66.95 66.98 67.61 68.94 68.69 68.15 68.04 68.67 67.65 67.65 67.22 67.61 67.68 68.03 67.72 67.45 66.93 66.09 65.58 65.45 65.61 65.25 64.86 64.27 63.96 63.35 64.87 66.61 68.55 70.98 71.23 70.55
55.38 56.63 56.58 56.42 56.62 57.67 59.25 60.55 61.46 65.42 67.13 66.97 67.40 68.06 67.81 68.42 67.90 67.20 67.59 67.63 67.81 67.72 67.09 67.31 67.06 67.18 66.82 66.41 65.44 65.31 65.58 65.47 65.09 64.48 64.41 64.12 63.39 62.51 63.58 66.71 68.77 69.97 70.28
53.33 53.00 53.12 54.70 53.38 53.16 54.10 55.62 57.31 57.77 58.83 61.54 63.96 65.21 66.35 67.79 68.31 66.73 66.19 66.60 67.50 65.98 66.50 66.61 67.00 66.68 66.21 65.51 65.17 64.63 65.04 65.11 64.80 64.55 64.55 64.08 63.33 62.90 61.88 63.55 65.80 67.49 69.05
49.86 49.60 49.75 50.30 50.09 50.30 50.43 51.66 52.66 53.38 54.18 56.44 58.07 61.01 61.92 63.43 64.41 63.74 62.97 66.04 65.38 65.60 65.84 66.03 66.05 66.17 65.51 65.13 64.79 64.93 64.22 64.39 64.71 64.97 64.21 63.58 62.96 62.34 61.43 62.02 62.55 63.91 65.95
47.60 48.13 48.32 47.80 47.70 48.01 48.15 48.35 49.68 48.64 49.80 52.64 54.75 55.07 57.69 57.95 59.75 62.71 61.80 61.31 62.66 64.56 64.24 64.80 65.26 65.49 65.16 64.87 64.15 63.67 63.32 64.24 64.36 64.47 64.07 63.98 63.16 62.12 61.58 61.02 61.47 62.29 62.53
46.16 45.89 45.74 44.97 44.92 45.55 45.34 44.94 46.32 44.50 46.60 48.05 51.26 51.03 53.95 52.16 53.59 55.37 58.85 59.92 63.03 62.76 62.40 64.78 65.05 64.22 63.72 62.47 61.09 60.52 60.52 61.18 62.56 63.73 64.02 63.29 62.49 61.87 61.12 60.94 60.39 61.17 62.62
43.13 43.33 43.20 43.15 42.57 42.96 43.54 43.37 43.73 43.68 46.27 46.49 46.43 46.91 49.23 48.56 51.14 51.97 53.61 56.67 59.19 59.94 63.30 63.41 64.51 63.52 62.70 62.57 60.75 58.69 57.90 59.39 60.50 61.42 62.58 62.53 62.36 62.43 61.17 60.68 59.76 59.46 60.73
39.46 40.06 40.80 40.25 40.26 40.58 40.97 41.39 41.50 42.63 42.85 43.36 41.92 42.74 44.42 45.83 47.44 48.48 50.60 52.35 53.41 56.54 57.87 60.01 63.43 62.47 61.38 62.16 63.15 59.73 54.95 55.11 56.52 59.07 61.04 61.99 61.33 61.92 61.89 61.24 60.24 59.73 59.55
39.46 39.38 38.49 39.27 38.69 39.08 39.06 38.34 37.74 37.70 37.03 39.27 39.65 41.21 41.60 43.29 44.96 47.12 48.65 49.37 50.72 52.45 54.35 56.88 61.00 62.60 61.23 58.60 62.07 62.06 60.98 57.86 54.65 53.31 58.83 61.13 61.33 61.51 62.27 62.07 61.01 60.50 60.08
38.43 37.36 36.70 36.98 36.77 37.04 36.45 36.02 35.61 35.22 36.59 37.65 38.24 38.34 39.57 41.67 42.82 43.82 45.85 46.45 47.64 49.60 51.57 53.95 55.98 59.63 62.99 60.87 60.67 59.51 59.57 59.14 58.07 54.65 53.58 57.14 60.42 61.74 62.08 62.30 62.31 61.51 60.60
37.47 36.17 36.29 35.47 34.98 34.94 34.29 33.95 33.38 33.08 33.25 34.11 35.16 36.49 38.40 39.98 41.17 41.98 43.17 43.54 44.32 45.83 47.32 50.17 53.26 55.34 60.86 62.74 61.03 60.06 58.39 57.15 56.47 55.58 54.51 54.65 57.19 59.68 62.04 61.36 61.05 61.28 60.83

GFSSE_sfc_wetblb_126.txt.gz
Wetbulb
68.58 70.11 72.68 73.42 73.46 73.26 72.75 72.38 72.82 73.05 74.15 74.73 74.94 74.77 74.63 74.50 74.37 74.41 74.50 74.81 75.04 75.39 75.70 75.05 74.47 73.77 72.60 72.67 72.61 72.94 73.13 72.43 72.63 73.40 73.72 73.37 72.98 72.95 72.74 72.88 72.45 71.32 72.67
69.32 71.45 71.86 73.04 73.45 73.39 73.00 72.51 72.74 73.45 74.03 74.75 74.76 74.87 74.62 74.58 74.42 74.46 74.63 74.71 75.04 75.49 75.60 74.67 74.40 73.95 72.69 72.04 72.26 72.12 72.42 72.01 72.01 72.62 73.37 73.25 73.05 72.76 72.82 72.45 71.82 71.56 72.55
70.52 71.78 71.86 72.47 73.16 73.33 73.12 72.86 73.06 73.82 74.08 74.31 74.62 74.56 74.61 74.74 74.49 74.45 74.37 74.61 74.82 75.34 75.37 74.50 74.22 73.65 72.63 72.03 71.15 71.56 71.91 71.61 71.48 72.09 73.01 71.07 71.30 72.86 72.58 72.50 72.01 72.30 72.31
71.03 71.47 71.58 72.31 72.83 73.08 72.86 72.92 72.88 73.92 74.11 74.08 74.15 74.29 74.41 74.46 74.53 74.37 74.18 74.13 74.62 75.11 74.67 74.60 74.09 73.63 73.12 71.59 70.66 70.89 71.47 71.17 71.13 71.74 70.58 70.50 71.20 73.12 72.34 72.47 72.01 72.49 72.53
70.30 71.30 71.55 71.88 72.04 72.70 72.61 72.63 72.83 73.18 73.14 73.28 73.44 74.08 74.27 74.39 74.46 74.35 73.69 73.82 74.66 75.00 74.65 74.04 73.92 73.80 72.11 70.98 70.61 70.42 70.82 70.62 70.39 70.22 69.25 69.31 69.72 72.41 72.33 72.06 72.09 72.20 72.01
69.56 70.80 70.52 70.85 71.59 72.15 72.40 72.45 72.54 72.59 72.16 72.34 72.67 73.57 73.97 74.24 74.44 73.88 73.27 73.89 74.84 74.90 74.82 74.37 74.04 72.92 71.10 70.51 70.42 70.15 70.03 69.85 69.42 67.99 67.99 68.28 68.45 71.08 71.38 72.21 71.66 71.77 71.34
68.67 69.59 70.07 70.00 71.01 71.93 72.40 72.46 72.19 71.95 71.59 71.87 72.20 72.59 73.08 73.64 73.65 73.14 72.87 73.51 74.14 74.28 74.03 73.65 73.28 71.93 70.93 70.15 70.06 69.78 69.45 69.04 67.42 67.04 66.61 67.68 67.21 70.12 71.04 72.09 71.50 71.45 71.08
68.39 69.14 69.89 70.96 71.10 71.30 71.53 71.41 71.03 71.26 71.30 71.43 71.66 72.07 72.67 72.54 72.32 72.37 72.38 72.75 73.18 73.11 72.96 72.77 71.87 71.38 70.61 70.06 69.58 68.95 68.51 68.51 67.82 66.28 66.21 66.50 67.51 69.50 71.34 71.46 71.20 71.04 71.08
67.57 68.45 68.74 69.60 70.77 70.43 69.81 70.00 69.69 70.11 70.67 70.63 70.92 70.97 71.41 71.16 71.11 71.61 71.95 72.39 72.60 72.38 71.88 71.70 71.10 70.62 70.29 69.61 69.14 68.10 67.42 68.29 66.68 65.90 65.74 65.43 67.95 69.96 71.00 70.97 70.53 70.93 71.00
67.24 67.06 67.21 67.80 68.81 69.11 69.33 69.22 69.13 69.44 69.44 69.96 70.25 70.05 69.64 69.93 70.60 70.82 70.75 71.13 72.04 71.98 71.49 71.29 70.33 69.78 69.44 68.73 68.06 67.46 66.92 67.84 66.75 65.90 65.54 64.76 66.72 68.82 70.43 71.95 71.51 71.10 70.96
67.51 66.95 66.76 67.08 67.75 68.00 68.36 69.26 69.63 69.90 69.56 69.22 69.80 69.42 68.27 69.17 69.28 69.75 69.63 69.72 70.53 70.05 70.11 70.40 69.84 68.94 68.29 67.86 67.64 67.10 66.99 66.99 66.45 66.11 65.57 65.90 68.13 69.42 70.29 71.29 71.22 70.25 70.75
65.92 66.63 66.56 66.54 66.83 67.05 69.15 68.52 68.36 69.94 70.42 69.20 68.99 68.77 69.20 69.71 68.09 69.46 68.99 68.43 68.97 68.90 69.24 69.17 69.13 68.36 67.98 67.26 66.94 67.33 66.35 66.38 66.11 66.13 65.95 66.41 68.09 69.13 71.07 71.28 71.00 70.75 70.57
60.52 67.22 67.37 66.29 65.86 66.17 67.14 67.36 69.22 69.71 69.70 70.10 69.67 68.93 69.74 69.69 69.81 69.40 68.16 68.23 67.80 68.45 68.63 68.56 68.38 68.25 67.66 66.62 66.10 65.72 65.81 65.59 65.41 65.72 65.98 65.96 67.70 69.80 70.61 71.22 70.73 70.99 70.42
53.71 63.91 64.15 66.22 65.45 65.65 65.99 66.64 67.48 68.61 68.52 68.59 68.97 69.76 69.68 68.55 68.61 68.64 68.62 69.00 67.86 67.93 69.17 69.74 69.40 69.12 68.43 66.35 65.81 65.34 65.61 65.54 65.11 65.27 65.17 65.25 66.37 68.90 70.65 71.52 71.53 70.83 70.63
49.44 58.38 63.28 64.75 66.53 65.20 65.34 65.11 64.81 65.92 67.17 68.11 67.96 68.74 68.34 67.80 67.32 68.42 68.24 68.73 68.57 68.05 69.05 68.76 68.81 68.04 67.73 67.53 66.19 65.59 65.59 65.57 65.37 65.07 64.84 64.24 64.78 67.41 70.32 71.45 71.77 71.48 71.05
57.27 58.05 58.49 61.19 67.42 68.27 67.37 66.78 65.85 64.99 65.22 65.97 66.15 67.33 68.16 68.45 67.93 68.11 67.93 67.98 67.98 66.71 67.98 68.38 67.76 67.54 67.08 67.06 66.70 66.27 65.68 65.62 65.46 65.05 64.96 64.67 63.38 65.47 68.49 70.33 70.64 70.53 71.36
54.19 54.20 54.38 54.93 56.43 58.76 59.59 60.02 61.07 64.43 64.89 64.93 65.20 64.60 66.48 67.96 67.30 67.66 66.56 67.30 66.71 66.78 66.89 67.21 67.69 67.69 66.97 67.10 65.81 66.48 66.11 65.53 65.49 65.14 65.01 64.52 64.21 62.42 63.84 65.96 67.46 69.26 70.74
48.40 48.45 49.31 50.76 50.34 50.68 52.09 54.04 54.70 56.05 57.59 59.59 61.40 62.46 62.59 63.94 65.46 65.54 65.47 65.37 65.85 67.00 66.73 67.25 66.99 66.18 66.83 65.73 65.64 65.60 65.82 65.75 65.30 65.19 64.90 64.75 64.21 63.92 62.54 63.22 65.14 67.11 68.69
46.05 45.63 45.38 45.71 45.84 47.23 48.28 51.12 50.62 51.80 52.45 54.29 55.19 55.53 56.65 57.02 56.63 60.55 63.99 64.59 65.71 65.08 66.08 66.62 66.46 66.27 65.55 65.57 65.46 65.46 65.20 65.07 65.19 65.24 64.58 64.34 64.03 63.90 63.18 62.13 62.62 63.72 65.79
43.04 43.25 43.09 42.75 42.39 43.96 45.55 46.63 47.54 46.71 49.04 51.54 49.60 51.58 51.17 51.87 52.65 53.75 59.06 61.53 61.26 61.29 62.33 64.05 64.12 64.96 65.57 65.34 64.81 64.44 64.57 64.19 64.11 64.66 64.84 64.95 64.06 63.43 63.01 62.56 62.48 62.75 61.99
40.94 40.45 39.96 40.31 39.93 40.53 41.16 41.21 43.77 42.67 46.01 47.31 46.17 48.49 47.80 47.85 49.72 50.31 51.57 54.48 57.56 59.97 60.18 60.63 60.90 60.85 62.38 64.20 62.85 61.55 61.35 62.57 62.82 63.93 63.83 63.92 63.57 63.09 62.59 62.40 62.07 62.41 62.81
37.68 38.27 38.86 38.38 38.47 38.20 38.71 39.37 40.37 41.33 43.69 44.74 42.88 43.93 44.71 45.05 47.03 47.07 48.45 50.80 53.15 54.61 57.00 60.94 59.79 59.11 59.80 61.87 60.94 59.00 57.58 58.41 61.17 62.05 62.07 62.23 62.76 62.70 62.38 62.10 61.51 61.48 62.15
36.60 36.26 37.20 37.10 36.74 36.92 36.91 37.30 37.71 40.00 40.29 41.02 39.39 40.23 41.30 43.15 44.44 46.40 47.23 48.33 49.48 51.42 52.85 55.49 57.11 60.32 58.64 61.44 62.31 60.12 55.10 54.50 56.49 59.60 61.21 61.65 62.48 61.97 62.67 62.04 61.45 61.20 61.23
35.11 36.66 36.22 37.08 36.02 36.17 35.85 34.54 33.76 34.15 34.09 36.85 37.36 38.34 39.25 41.48 43.08 44.40 45.06 46.02 46.36 48.58 49.79 51.94 55.61 57.07 58.90 57.98 59.10 62.37 62.03 58.43 54.67 53.27 57.51 59.49 61.60 61.91 62.73 62.70 61.79 61.36 60.92
37.06 36.13 35.62 35.33 35.46 34.94 34.78 34.03 32.82 32.28 33.19 34.87 35.63 35.90 37.57 39.61 41.11 42.17 43.61 43.77 43.80 45.09 46.14 47.52 49.17 51.68 55.59 56.42 59.86 59.65 60.49 59.63 59.01 55.07 52.29 54.32 57.82 60.05 62.42 63.01 63.25 62.17 61.22
36.62 35.54 35.06 34.29 34.27 34.65 34.29 34.19 33.74 32.98 33.18 33.48 34.85 35.69 37.03 38.04 39.01 40.46 41.65 41.44 42.00 42.34 43.29 44.82 46.27 47.15 49.74 53.61 56.82 59.70 58.70 58.04 56.88 56.30 54.42 53.66 53.99 56.52 59.82 62.54 62.78 62.91 62.85

GFSSE_sfc_wetblb_129.txt.gz
Wetbulb
70.51 72.98 72.68 73.48 73.40 72.92 72.74 72.72 72.99 74.06 74.54 74.51 74.35 74.29 74.41 74.61 74.47 74.33 74.52 74.76 74.88 75.38 75.24 74.83 74.23 73.83 73.54 73.25 73.46 73.45 73.00 72.74 73.44 74.04 73.84 73.54 73.14 73.49 72.89 73.12 72.78 71.98 72.79
71.76 73.20 72.13 73.17 73.36 73.31 72.80 72.73 73.00 73.99 74.86 74.78 74.42 74.29 74.34 74.32 74.32 74.43 74.65 74.57 74.67 75.58 75.73 74.71 74.21 73.19 72.49 72.50 72.55 72.68 72.29 72.19 72.55 73.10 73.76 73.14 73.06 72.94 72.62 72.62 72.00 72.33 72.78
72.44 73.45 73.68 72.52 73.13 73.16 73.10 72.95 73.15 74.10 74.87 75.13 74.72 74.57 74.45 74.40 74.34 74.43 74.39 74.21 74.71 75.48 75.48 74.73 74.28 73.58 72.24 71.99 71.89 72.09 71.97 71.89 72.00 72.50 73.45 73.05 73.01 72.74 72.81 72.23 72.14 72.40 72.58
72.78 73.45 74.00 72.52 72.83 72.99 72.78 72.74 73.12 74.07 74.46 74.77 74.80 74.68 74.49 74.30 74.33 74.35 74.04 73.94 74.70 75.38 75.11 74.24 74.40 73.83 72.76 71.12 70.90 71.35 71.52 71.39 71.40 71.99 72.79 72.74 72.38 72.79 72.34 71.93 71.94 72.26 71.96
72.88 73.47 73.62 72.04 72.19 72.78 72.56 72.62 72.88 73.24 73.38 73.81 74.28 74.62 74.68 74.66 74.63 74.39 73.73 73.74 74.61 75.23 74.24 74.70 74.43 74.19 72.07 70.68 70.11 70.85 71.05 70.78 70.75 71.70 72.46 72.79 72.78 72.32 72.08 71.50 71.87 72.22 71.81
72.48 73.35 71.97 70.92 71.74 72.49 72.68 72.56 72.72 72.74 72.24 72.53 73.35 74.23 74.62 74.68 74.61 74.11 73.46 73.86 74.76 75.08 74.88 75.01 74.35 73.38 71.18 70.35 70.37 70.36 70.26 70.31 69.79 71.78 71.94 71.77 72.08 71.86 71.55 71.92 71.20 71.17 70.78
71.95 73.13 73.32 70.09 71.18 72.06 72.68 72.61 72.37 72.12 71.86 72.02 72.60 73.10 73.78 74.22 74.17 73.59 73.01 73.56 74.10 74.27 74.27 74.07 73.39 71.72 70.78 70.34 70.38 69.86 69.55 69.49 71.66 71.40 71.37 71.61 71.91 70.47 71.36 71.36 71.37 71.18 70.69
71.75 72.31 73.02 71.70 71.05 71.13 71.52 71.75 71.29 71.24 71.24 71.45 71.75 72.21 73.01 73.18 73.01 72.83 72.75 73.16 73.37 73.13 73.00 72.80 72.18 71.22 70.68 70.40 69.80 69.12 68.72 68.70 69.93 70.93 71.15 71.23 70.59 69.36 70.74 71.78 71.05 71.09 70.93
71.88 72.07 72.66 73.45 72.99 70.39 69.57 69.81 69.81 70.49 70.73 70.79 70.96 71.05 71.75 71.65 71.61 72.09 72.32 72.62 72.73 72.30 72.11 72.09 71.45 70.70 70.66 70.12 69.21 68.30 67.77 68.32 71.54 71.23 70.25 70.93 69.14 69.74 71.01 71.88 71.38 70.66 70.46
71.77 71.93 72.10 72.64 73.14 73.59 73.89 69.35 69.03 69.50 69.66 69.88 70.44 70.12 69.94 70.28 70.91 70.95 71.09 71.83 72.23 72.06 72.02 71.70 70.85 70.50 70.12 69.15 68.53 67.52 67.23 67.97 71.29 71.04 70.73 70.39 67.20 70.20 70.82 71.77 71.71 70.98 70.63
71.47 71.97 72.13 71.95 72.32 73.04 73.21 72.47 70.40 70.04 69.71 69.30 70.30 69.60 69.06 72.55 72.89 72.54 70.77 70.40 71.05 70.54 70.69 70.60 69.95 69.34 68.44 68.24 67.95 67.32 67.28 70.90 71.41 71.00 71.04 67.52 67.43 69.15 70.11 71.15 71.46 70.68 71.14
68.93 71.55 72.05 72.10 71.71 71.75 71.34 72.57 72.99 72.89 72.82 72.92 72.77 72.89 72.81 72.86 72.61 71.74 70.79 68.71 69.39 69.28 68.52 68.94 68.76 67.86 68.21 71.25 70.61 68.01 70.32 70.77 70.66 70.46 70.39 66.67 67.82 69.42 70.13 70.85 71.39 70.93 70.46
60.62 69.65 71.51 71.46 71.59 71.43 71.34 71.85 71.75 70.86 70.86 71.67 71.85 72.43 72.37 71.52 71.35 71.53 71.77 71.20 71.88 69.92 72.67 71.46 71.48 71.90 71.92 71.65 71.03 70.68 70.40 70.38 70.17 70.41 69.30 66.29 67.85 69.67 70.20 71.51 71.09 71.10 70.48
54.57 61.50 68.87 70.35 70.76 71.13 71.41 71.26 70.61 70.03 70.34 70.45 71.27 71.87 71.47 72.09 70.92 70.07 69.93 70.60 70.90 71.32 71.36 71.24 71.49 71.61 71.40 71.74 71.40 70.96 70.45 69.89 69.67 70.00 69.40 65.51 66.67 68.54 70.14 70.94 71.09 70.74 70.39
58.26 62.17 62.92 67.24 68.35 69.47 70.35 70.39 70.53 69.31 69.34 69.56 70.16 70.09 70.78 70.76 70.59 70.23 70.26 69.94 70.04 70.36 71.13 70.65 70.21 70.05 70.04 69.94 70.43 70.62 70.21 69.69 69.52 69.42 69.59 65.26 64.98 66.98 69.18 70.69 71.51 71.50 71.28
54.73 54.10 56.48 56.35 59.12 64.61 67.50 68.22 68.47 68.93 69.36 69.51 69.59 69.28 69.64 70.16 70.55 70.55 69.75 69.62 69.14 69.48 68.93 70.97 70.56 69.54 69.75 70.00 69.64 69.01 69.45 69.91 69.86 69.64 69.19 69.45 63.69 64.78 66.87 69.63 71.20 71.65 71.84
50.77 50.77 50.38 52.19 53.07 54.88 57.73 59.91 61.52 63.74 64.72 66.02 65.60 65.65 67.95 69.59 70.62 70.31 69.67 68.97 69.78 69.59 68.45 68.83 69.04 69.85 69.51 68.63 68.26 69.04 68.66 69.46 69.54 69.76 69.17 69.12 68.81 62.65 63.80 66.79 69.05 69.21 70.03
47.82 47.33 47.48 47.69 47.97 49.46 52.31 55.87 58.40 59.15 60.37 59.19 60.40 62.09 62.75 62.78 62.81 67.10 67.53 67.01 67.77 67.84 67.82 67.46 67.70 66.63 67.30 67.86 67.90 67.78 68.24 67.88 68.85 69.67 69.73 68.76 68.63 69.07 65.04 63.27 65.16 66.51 67.46
44.64 44.93 45.38 45.67 45.91 47.35 49.41 53.02 54.22 55.08 56.03 54.56 55.66 56.28 55.14 55.74 56.94 60.09 64.08 66.89 67.15 65.84 66.40 64.99 62.83 65.68 66.27 66.61 66.52 66.96 67.38 67.02 67.92 68.90 69.10 69.01 69.18 69.15 69.34 64.45 62.40 63.32 64.48
43.48 43.74 43.46 43.91 43.71 45.30 47.02 49.25 51.51 50.63 52.30 51.29 50.69 52.15 50.89 51.42 52.89 53.99 57.13 58.36 61.67 64.18 65.23 64.08 62.27 63.77 67.10 67.85 66.91 67.19 67.91 68.08 68.24 67.68 68.04 68.10 68.15 68.69 69.66 68.59 68.27 66.40 61.60
42.19 42.24 42.21 42.14 42.20 42.39 43.01 44.04 46.54 45.89 49.51 50.35 48.05 48.36 48.35 48.64 50.00 51.37 52.84 54.73 57.21 58.97 61.11 62.90 64.45 63.74 62.65 64.96 64.16 64.85 65.40 66.47 66.12 66.12 67.01 67.14 66.68 67.24 67.94 67.81 67.50 67.44 67.40
41.13 41.06 41.21 40.74 40.92 40.78 41.23 41.60 43.08 44.46 47.05 48.48 45.64 46.05 46.22 46.65 48.06 49.34 50.27 51.25 52.71 54.14 56.06 58.77 61.14 61.07 62.70 64.53 62.57 62.61 58.75 62.23 63.23 64.52 65.47 65.71 65.58 66.45 66.54 66.96 66.83 65.86 66.92
40.20 39.88 39.84 40.20 39.83 40.03 40.15 40.82 41.76 43.60 43.92 44.18 42.54 43.15 43.59 45.13 46.62 47.38 47.97 49.27 50.17 51.20 52.04 54.31 56.67 57.50 58.56 62.78 63.48 61.69 57.86 57.97 59.70 62.05 62.52 62.37 62.80 64.43 65.19 65.48 65.51 65.56 66.06
37.88 38.61 38.32 39.14 39.14 39.44 39.65 39.10 38.34 37.51 37.45 38.60 40.00 41.50 42.59 44.06 44.48 45.70 46.78 47.12 47.58 48.36 48.97 50.28 52.23 53.84 56.22 57.63 61.98 63.90 62.34 60.81 56.68 56.27 59.31 60.09 60.84 60.76 62.63 64.24 64.83 65.13 65.65
38.19 37.19 37.27 37.19 37.14 37.54 38.64 38.87 38.24 37.82 38.03 39.26 39.21 39.74 41.29 42.25 42.94 43.84 44.63 44.19 44.74 46.05 47.01 47.81 49.01 50.55 52.40 54.09 56.74 61.87 60.12 59.48 61.48 58.95 56.48 57.10 60.60 61.52 61.90 61.56 63.08 64.92 65.19
38.81 37.96 37.64 36.31 36.70 36.26 36.69 37.54 37.37 36.38 36.13 36.20 37.05 37.38 38.48 39.64 40.28 41.19 41.26 41.75 42.42 42.83 43.57 44.79 45.51 46.19 47.63 49.51 51.41 54.42 59.55 59.58 58.32 58.50 58.03 58.17 58.02 59.04 60.80 61.10 62.05 64.28 65.47

GFSSE_sfc_wetblb_132.txt.gz
Wetbulb
72.22 75.32 73.09 73.32 73.21 73.28 73.35 73.47 74.16 74.35 74.51 74.65 74.42 74.49 74.76 74.85 74.29 74.50 74.79 74.93 75.27 75.67 75.53 74.25 73.98 73.99 73.86 73.67 73.94 73.40 72.97 73.16 74.08 74.14 73.93 73.30 73.49 73.52 73.39 73.23 72.84 72.70 72.81
74.06 75.63 72.32 72.88 73.16 73.31 73.43 73.47 73.91 74.63 74.90 74.70 74.37 74.39 74.41 74.58 74.13 74.40 74.74 74.81 75.27 75.49 75.26 74.31 73.72 73.57 73.27 72.89 73.26 73.01 72.66 72.72 73.24 73.52 73.90 73.84 73.18 73.10 72.95 72.50 72.65 72.36 73.24
74.51 75.40 74.92 72.55 72.80 73.03 73.39 73.51 74.18 75.14 75.13 75.14 74.64 74.43 74.56 74.53 74.29 74.23 74.37 74.28 75.03 75.57 75.52 74.59 74.06 73.03 72.44 72.40 72.40 72.56 72.38 72.45 72.79 73.19 73.60 73.65 73.48 72.82 72.50 71.64 72.42 72.97 72.82
75.07 75.48 75.61 72.71 72.86 72.97 72.92 73.26 73.76 75.07 75.32 75.28 74.81 74.51 74.47 74.47 74.40 74.22 74.09 73.84 74.70 75.49 75.69 74.73 74.43 73.68 72.48 71.72 71.80 71.88 71.95 72.07 72.15 72.81 73.42 72.98 72.73 72.43 72.58 71.69 71.84 72.06 72.60
74.70 75.59 75.49 72.38 72.51 72.74 72.54 72.85 73.13 73.82 74.47 74.80 74.65 74.77 74.68 74.60 74.58 74.44 73.83 73.81 74.64 75.63 75.34 74.64 74.93 74.36 72.09 70.65 70.85 71.21 71.46 71.51 71.51 71.85 73.26 73.26 72.96 72.35 72.31 71.74 71.24 71.80 71.60
75.10 75.31 72.78 71.90 72.31 72.67 72.65 72.67 72.94 72.87 72.99 73.60 74.13 74.75 74.69 74.56 74.68 74.38 73.55 73.91 75.00 75.50 75.09 74.99 74.69 73.79 71.47 70.36 70.34 70.83 70.89 70.82 70.31 73.00 72.69 72.60 72.92 72.13 71.87 72.47 71.76 71.69 71.36
74.27 75.37 75.42 71.11 72.00 72.61 72.89 72.75 72.48 72.35 72.09 72.61 73.42 73.97 74.31 74.60 74.55 73.85 73.32 73.54 74.25 74.71 74.54 74.58 74.09 72.83 71.26 70.56 70.56 70.31 70.14 70.13 72.16 72.71 72.38 72.69 73.06 72.07 71.63 72.06 71.61 70.86 71.02
74.60 75.52 75.42 72.31 71.84 72.15 72.28 72.14 71.77 71.63 71.66 71.77 72.38 73.09 73.84 73.87 73.66 73.48 73.10 73.23 73.58 73.64 73.60 73.30 72.41 71.96 70.86 70.50 70.47 69.58 69.32 69.24 71.16 72.29 72.32 72.60 71.50 71.64 71.86 72.23 71.53 70.82 70.86
75.17 75.68 76.45 75.78 74.33 70.92 70.76 70.73 70.51 70.98 71.16 71.35 71.26 71.74 72.48 72.43 72.42 72.81 72.84 73.09 73.20 72.87 72.71 72.46 71.93 71.02 70.84 70.45 69.78 68.90 68.19 68.85 71.91 72.24 72.11 72.66 70.60 70.48 71.28 72.33 71.67 71.18 70.64
73.59 75.50 75.65 76.15 76.26 76.32 75.89 70.07 69.95 70.22 70.38 70.46 70.79 70.62 70.69 71.23 71.83 71.88 71.52 72.36 72.71 71.77 71.40 72.04 71.49 70.85 70.64 70.00 69.29 68.42 68.00 68.37 71.43 72.04 72.19 72.41 70.20 70.38 70.92 72.33 71.99 71.24 70.76
69.48 72.82 75.02 75.96 76.00 76.34 76.24 74.68 71.11 70.38 70.51 70.20 71.00 70.29 70.15 73.47 73.62 73.53 71.53 70.66 70.96 70.13 70.65 70.96 70.83 69.93 69.68 69.40 68.78 68.24 67.80 71.47 71.92 71.94 71.85 68.06 68.68 70.33 71.14 72.15 71.57 71.20 70.85
60.49 66.29 73.12 75.01 75.50 75.71 74.73 75.28 75.29 75.10 74.76 74.54 74.38 74.40 73.80 73.87 73.82 72.75 71.36 69.70 69.88 68.85 68.56 69.17 69.64 69.08 69.32 71.79 71.69 68.80 71.29 71.52 71.74 71.67 71.68 67.78 68.14 69.65 70.46 71.15 71.07 71.22 70.65
59.39 60.53 67.07 73.07 74.88 75.13 74.77 75.00 74.83 75.33 74.53 74.10 74.68 74.62 74.60 73.51 73.86 73.43 73.29 73.17 73.22 69.93 72.56 70.91 71.67 72.33 71.93 71.97 71.37 71.38 71.18 71.54 71.44 71.20 70.72 66.98 68.08 69.73 70.38 70.80 71.22 71.32 70.64
60.76 64.28 65.86 69.10 71.79 72.92 74.30 73.77 74.42 72.21 72.08 71.89 72.38 73.07 73.20 72.60 72.22 72.79 72.22 73.05 72.40 72.54 72.20 72.75 72.35 72.10 72.13 72.52 72.35 72.01 71.91 71.35 71.05 70.87 70.62 66.63 67.12 69.02 70.18 70.78 71.51 71.17 70.87
58.45 59.63 61.28 62.65 65.17 69.41 69.81 70.53 72.21 71.59 71.21 71.16 71.63 71.24 71.94 71.47 72.02 71.53 71.54 71.21 71.27 72.60 72.55 72.10 71.95 72.12 72.04 72.44 72.23 71.82 71.63 71.65 71.53 70.92 71.00 65.94 65.67 67.63 69.22 70.36 71.00 71.44 71.17
55.86 55.67 56.93 58.26 59.90 62.56 61.63 64.63 68.15 69.61 70.18 70.07 69.77 69.71 70.45 70.94 70.85 70.42 71.26 71.86 71.91 72.02 72.19 72.12 70.90 70.86 71.08 71.47 70.78 70.83 71.32 71.46 71.46 71.57 71.07 70.87 64.60 65.47 67.39 69.08 70.13 71.46 71.85
54.52 54.22 53.55 55.30 57.01 58.63 60.13 61.41 61.17 62.85 63.23 62.53 62.76 61.72 61.52 61.36 61.25 70.21 70.97 70.25 70.74 71.91 72.04 71.39 71.09 70.45 69.86 70.07 69.55 70.26 70.57 71.36 71.19 71.18 71.35 71.32 69.72 63.23 64.19 66.47 68.53 70.05 71.25
51.59 51.60 51.84 52.06 53.58 55.44 57.02 58.31 58.83 60.07 59.66 58.55 59.90 59.38 58.92 58.66 59.52 61.25 65.43 68.84 69.60 70.26 69.49 68.96 69.67 69.28 68.38 69.04 68.60 69.10 70.02 70.56 70.77 71.11 71.13 71.16 70.90 70.13 64.48 63.79 65.67 68.10 68.88
49.66 49.53 49.72 49.98 50.06 52.20 54.93 57.23 57.18 57.92 58.60 58.02 59.01 57.81 57.02 57.85 58.42 59.61 62.87 61.63 61.09 65.91 67.43 68.38 68.28 68.99 67.00 66.79 67.56 68.08 69.12 69.53 69.57 70.10 69.83 70.73 71.25 70.67 70.10 64.70 63.08 64.09 65.83
49.35 49.34 49.30 49.57 49.61 51.07 52.01 54.82 56.54 55.51 56.87 56.65 55.06 54.41 54.69 54.96 55.50 56.73 58.65 59.72 61.22 61.54 64.07 66.21 67.24 67.91 66.56 65.07 65.44 66.40 66.74 68.09 69.71 68.89 69.67 69.44 70.50 70.79 71.16 69.97 68.21 67.50 62.21
48.91 48.40 48.04 47.99 48.40 48.77 49.31 49.47 51.17 50.41 53.80 54.58 52.88 52.71 52.59 52.99 54.03 54.94 55.67 56.75 58.13 58.91 59.66 60.26 61.59 64.32 66.01 65.73 63.32 63.74 62.46 62.09 67.99 68.40 69.07 69.18 69.28 70.17 70.70 70.51 70.42 70.18 67.37
47.69 47.34 47.63 47.33 47.70 47.41 47.98 48.24 48.78 49.59 51.47 51.61 50.89 51.19 51.03 51.12 52.28 52.35 53.15 53.96 55.29 55.68 56.90 59.18 59.79 58.44 61.41 63.93 62.12 62.00 59.01 61.12 65.96 67.03 68.67 68.41 68.92 69.21 69.21 70.02 69.67 70.02 70.05
44.81 45.26 45.37 45.27 45.77 46.24 46.79 47.96 48.48 49.69 49.59 49.16 48.27 48.67 49.11 49.78 50.49 50.96 51.35 52.18 52.87 53.55 53.98 55.76 57.08 57.93 56.53 58.75 62.05 61.05 58.21 57.64 62.06 66.95 65.94 66.90 67.79 67.67 68.21 68.72 68.69 69.13 69.67
45.64 45.92 45.96 45.53 45.11 44.89 45.71 45.39 44.85 45.26 44.69 46.07 46.80 47.31 47.95 48.56 48.19 48.97 49.72 49.59 49.57 51.13 51.83 53.01 54.11 55.07 53.88 53.05 57.10 59.77 62.54 63.73 59.52 59.09 62.76 64.63 66.23 64.67 66.63 66.31 66.21 66.71 66.83
45.75 45.31 45.03 44.85 44.04 43.67 44.22 44.48 44.41 43.55 44.10 45.07 45.70 45.24 46.49 46.89 47.43 46.93 46.42 45.93 46.51 46.97 48.27 47.86 49.61 51.47 53.34 53.79 54.52 55.29 56.59 62.00 64.23 60.73 57.01 60.20 62.05 62.69 64.32 64.30 64.87 65.59 66.45
44.78 44.45 44.50 44.02 43.25 43.48 43.36 43.14 42.77 42.03 41.76 42.01 42.24 42.09 43.11 43.99 45.30 45.95 44.58 43.76 43.32 43.39 44.32 45.19 45.98 47.12 46.71 48.22 51.19 53.53 53.49 53.71 58.00 60.18 58.92 59.68 59.66 62.03 63.33 64.10 65.03 64.79 65.83

GFSSE_sfc_wetblb_135.txt.gz
Wetbulb
74.05 75.01 73.10 73.58 73.88 73.86 74.10 74.12 74.24 74.18 74.37 74.57 74.76 74.90 75.00 74.85 74.68 74.65 74.95 74.94 75.28 75.59 74.93 74.49 74.50 74.70 74.44 73.94 73.79 73.08 72.73 73.47 74.32 73.87 73.75 73.52 73.57 73.32 73.28 73.45 73.00 72.29 73.22
74.88 75.31 72.19 73.03 73.37 73.91 74.18 74.27 74.17 74.40 74.76 74.80 74.76 74.88 74.82 74.76 74.50 74.67 74.82 74.86 75.30 75.87 74.88 74.15 74.12 74.08 73.71 73.74 73.60 73.05 72.38 73.16 73.73 73.82 73.96 73.34 73.60 73.00 72.65 72.11 72.35 72.32 73.18
74.61 76.02 74.43 72.40 73.18 73.53 73.96 74.28 74.60 74.97 75.21 75.00 74.79 74.65 74.84 74.67 74.38 74.50 74.69 74.70 75.32 75.65 74.86 73.97 73.83 73.66 73.10 72.78 72.99 72.67 72.33 72.61 73.33 73.49 73.80 72.56 72.81 72.73 72.13 71.69 72.68 73.00 73.02
75.39 76.20 75.22 72.55 72.84 73.26 73.43 73.75 74.52 75.31 75.50 75.15 74.84 74.78 74.77 74.75 74.36 74.45 74.41 74.26 75.19 75.59 75.47 74.50 73.96 73.06 72.83 72.27 72.12 72.14 72.27 72.32 72.59 72.92 72.94 72.60 72.75 72.68 72.06 71.82 72.14 72.61 72.63
75.07 76.14 75.57 72.62 72.42 72.94 73.06 73.42 74.03 74.84 75.06 74.83 74.68 74.93 74.77 74.77 74.73 74.46 73.95 73.96 74.89 75.82 75.80 74.77 74.38 74.42 72.05 71.18 71.22 71.47 71.72 71.73 71.87 71.66 72.31 72.34 71.90 72.66 72.51 71.79 71.74 72.01 72.06
74.80 76.47 72.70 72.12 72.44 72.56 72.65 72.95 73.27 73.72 73.97 74.19 74.43 74.70 74.88 74.93 74.78 74.44 73.60 73.89 74.74 75.71 75.52 75.09 74.87 73.91 71.61 70.53 70.60 70.96 71.05 71.09 70.67 71.77 71.41 71.96 72.58 72.50 72.53 72.40 72.14 71.94 71.39
73.98 76.61 75.65 71.88 72.31 72.68 72.87 72.90 72.74 72.60 72.87 73.56 74.06 74.49 74.61 74.59 74.49 74.17 73.36 73.57 74.34 75.18 75.08 74.42 74.06 73.24 71.97 70.77 70.41 70.28 70.26 70.36 71.36 70.74 71.30 72.61 72.82 73.23 72.06 72.19 72.12 71.68 71.54
73.06 75.27 76.06 72.68 72.51 72.57 72.67 72.49 72.31 72.05 72.21 72.36 73.11 73.75 74.34 74.27 73.96 73.73 73.41 73.34 73.62 74.07 73.91 73.76 73.12 72.63 71.97 70.87 70.49 69.97 69.83 69.51 70.74 71.82 70.90 71.22 71.04 72.56 71.97 72.21 71.67 71.13 71.27
72.94 74.19 75.80 77.00 73.97 71.68 71.87 71.73 71.49 71.72 71.58 71.71 71.80 72.53 73.31 73.14 72.59 72.94 73.04 73.12 73.30 72.75 73.23 73.24 72.39 71.98 71.44 70.63 70.31 69.60 68.96 69.30 70.57 71.68 71.20 71.02 71.77 72.73 72.19 72.41 71.84 71.28 71.16
69.49 72.50 74.31 76.30 77.21 76.63 75.34 70.41 70.94 71.10 71.01 71.01 71.23 71.31 71.55 72.23 72.55 72.12 72.22 72.09 71.93 72.37 72.13 72.61 72.20 71.71 70.88 70.25 69.98 69.16 68.56 69.02 70.51 70.90 69.82 69.38 71.29 71.96 71.86 72.28 72.74 71.51 71.05
64.76 69.41 72.23 74.46 75.43 77.22 77.17 75.23 71.18 70.87 71.00 71.05 71.19 70.69 70.48 72.93 73.37 73.70 72.14 71.15 71.55 70.68 70.86 71.50 71.23 70.54 69.99 69.99 69.74 69.10 68.47 70.74 70.78 70.84 70.07 69.28 71.36 71.22 71.24 71.86 72.06 71.50 71.19
61.39 63.90 68.55 72.89 74.35 75.64 75.17 76.17 76.34 75.88 75.09 74.40 74.08 74.30 73.45 73.42 72.99 72.71 71.49 69.91 70.60 70.00 70.05 70.25 70.01 69.74 69.91 71.50 70.92 69.03 70.37 70.58 70.59 70.15 71.09 68.49 70.34 70.48 71.03 72.03 71.62 71.43 70.83
62.56 65.98 67.28 69.16 72.89 73.93 73.38 73.75 73.47 73.40 74.66 74.86 75.22 75.08 74.81 74.91 74.13 73.37 74.37 73.63 72.86 70.29 72.19 70.88 71.61 72.37 71.40 70.94 70.23 70.83 70.94 70.28 70.37 69.82 70.60 68.07 69.64 70.00 70.61 71.46 71.53 71.04 71.02
61.21 61.71 62.85 64.30 67.24 69.77 73.03 73.68 74.50 73.72 72.80 72.62 73.29 73.98 74.13 74.54 74.05 73.63 72.85 73.39 73.52 73.24 71.24 71.90 72.01 71.91 71.63 71.71 71.53 72.30 72.01 70.72 69.98 69.70 70.47 67.04 68.46 69.98 70.66 71.08 71.46 71.83 71.23
58.32 58.59 59.98 61.74 63.79 66.65 67.54 67.55 70.53 72.03 71.93 71.35 71.06 70.87 71.25 72.11 72.42 73.25 73.23 72.82 72.53 73.24 72.53 72.23 72.23 71.86 71.57 72.17 71.69 71.66 70.92 71.71 71.44 70.26 70.47 66.13 66.75 68.55 69.96 70.66 70.95 71.59 71.75
57.22 57.06 57.91 58.85 60.79 63.17 64.79 64.28 64.82 64.80 65.06 65.46 64.45 62.34 62.65 62.54 62.63 66.84 71.80 71.96 72.85 72.60 73.27 72.28 71.83 71.16 70.99 71.26 70.70 70.76 71.28 71.98 71.35 71.65 70.98 69.94 65.08 66.40 68.00 70.07 70.77 71.35 72.03
55.96 55.59 55.05 56.28 58.25 60.50 62.51 63.45 63.46 62.51 61.68 61.25 60.50 60.32 60.19 59.69 60.31 61.44 65.08 69.80 70.49 71.44 71.17 70.37 68.34 70.59 71.69 71.06 69.53 70.48 70.53 71.15 70.51 69.98 70.86 70.81 68.79 63.80 64.97 67.17 69.13 70.17 70.88
54.73 54.47 54.53 54.42 55.37 56.97 58.92 60.63 60.71 61.32 60.32 59.80 59.46 59.35 59.17 59.77 60.45 60.95 63.56 65.37 65.00 64.10 68.16 67.67 66.39 64.89 65.70 67.45 67.80 69.60 70.08 70.47 70.12 70.36 70.94 70.62 71.04 70.78 64.77 64.35 65.93 67.96 68.71
53.38 52.91 52.78 53.36 53.28 54.64 56.27 59.41 59.24 59.42 59.13 58.99 58.92 58.21 57.54 58.44 58.43 59.42 61.53 63.12 63.70 64.33 64.73 67.10 67.72 67.94 67.19 67.70 65.90 67.78 69.53 69.46 69.75 69.75 69.29 70.29 70.70 70.88 71.00 64.78 63.25 64.34 66.35
53.04 52.96 52.61 52.20 52.23 53.34 53.87 55.24 56.50 55.64 57.45 57.99 56.11 55.26 55.51 55.41 56.25 57.05 58.65 59.67 60.71 61.67 62.74 63.17 64.04 65.07 67.16 67.15 66.55 66.69 67.80 68.34 69.28 69.73 68.70 69.12 70.13 70.89 70.78 71.04 68.70 66.39 62.92
51.97 51.25 50.76 50.62 51.40 51.42 51.51 51.20 51.90 51.73 54.16 54.20 54.31 54.12 53.95 53.63 54.56 54.74 55.61 56.62 57.65 57.92 58.72 60.05 61.44 61.44 61.57 65.51 63.05 63.47 65.78 67.14 67.08 68.02 69.89 69.24 68.16 69.49 70.65 70.02 70.13 70.06 67.16
50.24 50.11 50.24 50.08 49.94 49.98 50.33 51.17 51.61 51.99 52.51 53.24 52.77 52.87 52.71 52.38 52.84 52.85 53.46 53.86 54.94 55.08 56.25 57.47 58.50 58.40 59.60 61.55 60.55 60.41 58.97 62.49 65.26 66.42 65.78 63.58 62.58 66.92 68.32 69.27 69.43 70.40 70.29
49.24 49.67 49.73 49.78 49.52 49.15 49.62 50.42 50.55 51.58 51.75 50.72 50.40 50.68 50.78 51.54 51.59 51.56 51.38 52.02 51.77 52.30 52.81 54.33 55.51 56.13 55.25 58.25 59.73 58.10 56.68 55.77 60.05 64.77 62.27 63.56 63.12 66.53 68.14 69.23 68.71 69.58 70.29
49.72 50.19 49.44 48.73 48.00 47.93 48.70 48.50 48.06 47.58 46.69 47.93 48.64 49.47 49.44 50.52 49.86 50.46 50.41 49.54 49.05 49.93 49.89 51.00 52.59 52.51 53.36 53.11 56.17 57.54 59.49 59.78 56.04 56.97 63.58 64.60 65.96 66.18 67.33 68.50 68.45 68.69 69.47
48.90 48.54 48.61 48.44 47.46 47.60 47.59 47.07 46.47 45.72 46.18 47.05 47.21 46.56 47.60 47.95 48.60 48.95 48.51 47.14 46.84 46.31 47.15 46.97 48.04 48.65 49.45 49.55 51.21 53.73 55.81 56.70 57.35 58.59 56.55 59.82 63.44 65.68 66.86 67.19 67.53 67.22 67.69
48.24 47.97 47.66 47.42 46.44 46.54 46.01 45.50 45.36 43.71 43.70 43.63 43.72 43.47 44.10 45.09 45.55 46.06 44.58 43.61 42.87 43.20 44.02 43.85 44.71 44.60 44.70 45.85 47.56 49.19 50.40 51.94 52.77 55.90 56.79 58.48 59.56 62.01 65.16 66.37 66.59 65.78 64.65

GFSSE_sfc_wetblb_138.txt.gz
Wetbulb
72.65 72.82 73.14 73.88 74.01 74.39 74.34 73.56 73.56 73.80 74.28 74.60 74.60 74.45 74.39 74.82 74.65 74.55 74.88 74.98 75.15 75.02 75.14 74.94 74.74 74.76 74.40 73.99 73.87 73.52 73.66 74.09 73.96 73.82 73.88 73.99 73.70 73.52 73.27 73.49 72.73 72.01 73.20
74.18 73.42 72.27 73.30 73.72 74.20 74.34 73.84 73.57 73.92 74.44 74.66 74.75 74.73 74.73 74.71 74.49 74.51 74.80 75.01 75.38 75.44 75.11 74.64 74.61 74.76 74.12 74.57 73.56 72.85 73.01 73.28 73.30 73.61 73.78 73.92 73.42 73.25 72.77 72.65 72.83 71.79 73.00
74.42 73.99 72.71 72.77 73.42 73.87 74.30 74.30 74.29 74.55 74.75 74.84 74.68 74.73 74.66 74.61 74.29 74.25 74.59 74.62 75.47 75.57 75.04 74.26 74.00 73.74 73.41 73.59 72.61 72.47 72.68 72.86 72.93 73.33 73.52 71.75 71.54 73.13 72.35 73.05 72.39 72.97 73.02
75.26 74.88 73.86 72.52 73.10 73.47 73.77 74.32 74.55 74.95 74.95 74.77 74.76 74.72 74.78 74.68 74.39 74.38 74.33 74.21 75.18 75.54 75.29 74.02 73.59 73.45 73.10 72.34 72.01 72.09 72.23 72.15 72.24 72.65 71.81 71.60 71.20 72.75 72.23 73.00 73.29 73.31 73.00
75.04 75.62 73.10 72.10 72.65 73.16 73.18 73.90 74.42 74.93 74.84 74.61 74.60 74.77 74.77 74.78 74.55 74.47 74.02 74.05 75.02 75.61 75.49 74.43 74.61 73.95 71.95 71.17 71.21 71.34 71.51 71.51 71.16 71.24 69.59 70.13 68.08 71.44 72.65 72.94 72.79 72.93 71.92
75.53 75.25 71.68 71.81 72.26 72.77 72.94 73.17 73.93 74.28 74.04 73.98 73.96 74.44 74.87 74.84 74.67 74.26 73.69 73.80 74.88 75.48 75.21 75.12 74.92 73.92 71.36 70.19 70.18 70.52 70.57 70.53 70.33 68.42 69.16 70.04 69.86 72.85 72.75 72.79 71.81 71.69 71.47
74.68 75.41 73.46 71.82 72.09 72.35 72.71 72.97 72.94 72.99 73.36 73.68 73.92 74.21 74.51 74.60 74.58 74.04 73.24 73.55 74.24 74.98 75.10 74.51 74.08 73.44 72.11 70.41 70.12 69.90 69.84 69.85 69.40 68.81 70.85 69.25 71.15 72.55 72.80 72.77 72.04 71.59 71.32
73.12 75.77 73.44 72.62 72.57 72.48 72.53 72.20 72.05 72.11 72.42 72.91 73.40 73.85 74.32 74.04 73.80 73.85 73.23 73.09 73.42 73.72 74.09 73.76 72.93 72.79 72.26 71.04 70.27 69.43 69.25 69.08 69.02 68.42 69.94 69.26 71.13 72.42 72.95 72.79 71.61 71.17 71.20
73.84 74.90 75.77 74.52 72.97 71.93 71.55 71.54 71.32 71.54 71.69 71.73 72.30 72.98 73.33 73.19 72.94 73.16 73.20 72.92 73.01 73.12 72.73 73.15 72.52 72.25 71.98 71.07 70.14 69.31 68.76 68.91 67.94 68.10 69.97 69.38 71.18 72.21 72.48 72.64 71.59 71.18 71.06
70.69 74.51 74.00 76.16 74.99 74.19 73.61 70.60 70.88 71.05 71.07 71.13 71.25 71.25 71.64 72.42 72.57 72.37 72.07 72.42 72.43 72.39 72.17 72.44 72.12 71.70 71.59 70.59 69.33 68.94 68.50 68.69 67.54 67.72 68.24 69.95 70.89 72.33 72.40 72.79 71.89 71.49 71.11
66.28 68.04 69.29 70.38 74.19 76.13 76.63 73.67 71.04 71.28 71.26 70.95 70.69 70.47 69.81 71.75 72.35 72.98 71.84 71.24 71.46 71.08 71.01 71.44 71.15 70.82 70.26 69.66 69.25 68.70 68.43 68.29 67.81 68.13 67.73 69.00 71.08 72.95 73.34 72.48 71.44 71.29 70.90
63.78 64.57 64.86 65.73 68.50 71.10 73.39 72.82 74.14 73.57 72.18 72.30 72.25 72.69 71.55 71.71 71.42 71.41 71.10 69.81 70.08 69.82 70.14 70.24 70.12 69.79 69.50 70.17 69.19 68.69 68.49 68.65 68.18 67.92 68.51 69.21 71.22 72.98 72.53 71.81 71.56 71.16 70.69
61.23 61.22 61.83 62.73 65.15 68.97 69.84 71.91 71.90 71.62 71.72 72.79 72.45 72.69 72.79 72.56 72.25 71.71 71.16 70.23 70.35 69.64 70.89 69.76 70.12 70.41 70.50 69.89 69.22 68.91 68.67 68.28 68.02 67.89 68.04 68.40 70.92 72.45 72.01 72.32 71.86 71.62 70.68
58.28 58.64 60.26 61.13 63.05 65.11 68.02 68.07 68.49 70.38 71.65 70.80 69.51 66.69 70.44 71.62 71.55 70.88 70.04 69.70 69.26 69.72 69.96 70.13 69.31 69.70 69.67 70.01 69.81 68.77 68.68 68.27 68.08 67.79 66.80 67.02 68.86 71.06 71.54 71.59 71.88 71.51 70.90
56.28 56.90 57.60 59.59 60.88 63.28 65.01 65.35 66.22 64.75 64.70 64.73 62.86 62.48 62.31 63.01 63.61 65.93 69.42 70.06 69.18 69.75 69.34 68.93 68.85 69.11 69.11 69.45 69.68 68.58 68.90 68.99 67.81 67.83 67.22 65.89 67.40 69.78 71.40 71.42 71.47 71.67 71.73
55.27 54.83 55.85 56.48 58.25 61.38 62.92 64.14 62.90 62.56 62.21 61.65 60.28 59.56 60.59 59.78 60.23 60.91 63.76 66.76 68.26 67.93 69.27 68.60 68.04 67.87 67.30 67.87 67.72 68.66 68.49 68.85 69.11 68.44 68.75 66.06 65.20 67.11 69.12 70.77 71.66 72.03 72.26
54.69 54.70 54.36 55.19 56.83 58.04 59.91 61.25 62.47 61.60 60.83 60.26 58.93 58.50 58.72 58.08 58.73 59.64 61.33 64.64 65.29 64.94 65.30 66.20 65.76 65.61 62.66 59.43 62.24 65.03 67.66 67.83 68.40 68.48 68.39 68.65 65.40 63.81 65.80 68.19 69.27 70.39 71.05
53.36 53.03 53.56 53.34 53.85 55.28 56.69 60.15 59.52 59.46 59.83 59.60 59.32 57.27 56.14 57.36 57.00 56.90 59.90 62.19 62.06 62.85 65.26 65.37 65.77 64.90 60.98 60.78 60.68 60.96 65.90 67.03 67.50 67.98 68.70 68.39 68.06 67.36 63.96 64.98 66.80 68.03 69.09
52.58 52.42 51.99 52.23 52.17 53.99 54.53 55.76 57.16 56.54 56.92 57.16 55.03 54.33 54.60 54.37 55.26 54.74 55.77 57.37 57.88 58.83 60.63 62.49 62.49 62.57 63.44 62.32 61.49 64.09 64.82 65.73 66.45 67.43 67.38 67.87 68.01 67.83 67.78 64.11 63.57 64.75 66.38
52.11 51.51 51.48 51.08 51.07 52.36 52.60 52.69 53.49 53.45 55.11 55.67 53.37 53.30 53.24 52.57 53.22 52.77 53.61 54.22 55.16 55.55 56.08 56.71 57.40 61.17 61.89 62.02 64.30 64.09 64.46 65.22 65.31 65.53 66.41 67.44 67.76 67.90 68.19 67.47 64.69 63.94 62.80
51.41 51.07 50.58 50.34 50.48 50.08 50.08 49.54 50.09 50.03 51.32 52.39 51.48 52.80 51.05 51.56 51.86 50.84 51.00 51.54 52.42 52.14 52.80 54.26 55.56 55.48 56.85 59.77 59.11 60.77 61.87 63.35 63.88 64.87 65.82 66.11 66.60 67.10 67.06 67.69 67.49 65.94 64.49
50.09 50.44 50.30 49.55 49.13 48.91 48.93 49.85 50.38 50.79 51.13 50.91 50.70 51.31 50.06 50.63 50.26 49.83 49.45 49.36 48.91 48.65 49.84 50.26 51.70 52.20 53.35 56.23 56.77 57.25 54.90 57.09 61.14 63.24 63.95 64.34 64.56 66.35 66.61 66.85 66.46 67.37 67.36
49.51 49.31 48.44 47.57 47.21 47.61 47.69 48.05 48.46 49.58 49.15 47.66 47.85 48.13 48.01 49.38 48.78 49.42 48.91 47.72 46.66 47.10 46.76 47.48 48.05 47.72 47.45 50.50 54.16 55.00 52.37 52.10 55.30 58.84 61.20 62.97 63.10 63.04 63.13 63.58 65.57 66.39 67.22
48.89 49.03 48.43 47.64 47.04 47.04 47.03 46.19 45.49 44.16 42.99 44.77 45.28 45.26 46.43 46.84 47.08 47.37 45.59 44.09 44.08 43.68 43.85 44.25 45.90 45.11 45.68 45.27 48.93 52.50 53.53 54.27 51.18 51.47 55.39 57.67 61.68 62.14 61.86 63.70 65.05 65.59 66.45
48.50 47.87 48.44 47.38 46.55 46.17 45.87 45.60 43.89 42.64 43.46 43.93 43.55 42.92 42.73 43.88 44.19 43.79 41.48 41.35 40.60 41.14 41.80 41.64 41.75 41.86 42.66 42.50 43.78 45.53 46.72 48.80 51.55 50.60 47.77 51.18 57.26 61.36 63.04 63.61 64.27 65.11 65.52
47.81 47.79 47.86 46.19 45.05 45.39 44.91 43.96 42.88 41.45 40.75 40.73 39.70 39.05 39.45 40.17 40.27 39.92 39.55 39.51 39.92 39.78 39.69 40.46 40.23 40.86 41.05 41.75 42.40 42.72 43.04 44.33 45.64 47.19 47.85 49.26 50.52 53.83 59.15 61.76 63.29 64.38 65.34

GFSSE_sfc_wetblb_141.txt.gz
Wetbulb
70.33 72.32 73.13 73.86 74.18 73.78 73.21 72.91 72.93 73.30 73.81 74.11 74.26 74.45 74.35 74.27 74.29 74.43 74.54 74.30 74.51 75.03 74.82 74.32 74.78 74.35 73.90 73.95 73.48 73.15 73.35 73.26 73.20 73.76 73.95 74.18 73.43 73.51 73.65 73.61 72.80 72.09 73.40
71.21 72.48 72.42 73.30 73.85 74.04 73.49 73.00 72.99 73.40 74.08 74.36 74.37 74.33 74.31 74.05 73.94 74.25 74.36 74.40 74.59 75.08 74.55 74.35 74.58 74.68 74.35 73.95 72.51 72.16 72.51 72.61 72.65 72.98 73.82 73.78 73.43 72.93 72.64 72.39 72.53 72.38 73.12
71.21 71.89 72.64 72.72 73.43 73.84 73.76 73.30 73.30 73.90 74.27 74.24 74.42 74.33 74.33 74.09 73.88 73.99 73.92 74.33 74.78 74.95 74.40 74.00 74.02 73.75 73.76 73.07 71.81 71.68 71.89 72.06 72.27 72.78 73.20 71.24 71.61 72.76 72.04 72.72 72.63 73.07 72.95
71.78 71.27 72.09 72.51 73.09 73.52 73.65 73.59 73.53 74.08 74.43 74.29 74.25 74.23 74.28 74.23 73.90 73.94 73.73 73.68 74.68 75.14 74.65 73.74 73.74 73.53 73.17 71.90 71.28 71.38 71.37 71.33 71.67 72.10 70.98 71.20 70.94 72.96 72.52 72.85 73.15 72.98 72.85
72.24 72.55 72.00 71.93 72.36 72.94 73.31 73.57 73.56 73.67 73.60 73.64 73.82 74.27 74.53 74.46 74.12 73.94 73.47 73.60 74.72 75.30 74.98 73.74 73.89 73.45 71.72 70.56 70.41 70.60 70.84 70.81 70.53 70.59 69.70 68.39 69.43 72.69 72.64 73.24 72.60 72.72 72.10
72.23 71.48 70.60 71.08 71.82 72.43 72.93 73.52 73.64 73.67 73.19 73.20 73.42 74.06 74.46 74.63 74.34 73.91 73.09 73.47 74.52 75.19 75.47 74.85 74.77 73.17 70.68 69.89 69.81 69.99 69.79 69.74 69.77 67.77 68.33 69.40 64.64 72.49 72.71 72.54 72.19 71.75 71.23
71.92 71.27 71.27 70.59 71.26 72.02 72.60 72.67 72.85 73.11 73.03 73.09 73.33 73.55 73.95 74.27 74.07 73.52 72.89 72.94 73.78 74.44 74.65 74.17 73.65 72.91 71.77 69.79 69.51 69.37 69.02 68.89 68.46 67.51 67.69 69.12 69.39 72.21 72.52 72.52 71.81 71.59 71.19
72.47 71.72 71.68 71.85 71.72 71.37 71.48 71.58 71.49 71.66 72.27 72.72 72.92 73.19 73.61 73.60 73.34 73.27 72.71 72.64 72.71 73.16 73.41 73.10 72.57 72.27 72.05 70.84 69.80 68.93 68.31 68.30 68.54 67.38 68.62 67.58 68.74 71.82 73.26 72.31 71.54 70.87 71.20
71.50 72.25 71.23 71.37 71.76 71.36 70.80 70.47 70.34 70.59 70.93 71.30 71.87 72.42 72.85 72.36 72.20 72.74 72.68 72.35 72.33 72.14 72.30 72.67 72.25 71.70 71.76 71.12 69.80 68.69 67.80 67.92 67.20 66.87 68.04 68.74 70.34 71.82 72.96 71.84 71.70 71.04 71.00
63.68 63.42 63.83 68.83 71.62 70.88 70.19 70.03 70.11 70.16 70.19 70.33 70.76 70.89 70.95 71.11 71.13 72.07 71.91 71.91 71.85 71.78 71.69 71.75 71.73 71.20 71.21 70.66 69.58 68.49 67.78 67.78 66.95 66.49 66.74 68.09 70.54 72.22 72.89 71.99 71.91 71.17 71.05
60.69 59.82 60.73 62.13 65.00 68.11 70.79 71.62 69.53 70.26 70.38 70.07 70.33 70.20 69.21 70.19 71.22 70.64 70.52 70.77 70.92 70.72 70.63 70.95 70.72 70.05 70.01 69.72 69.20 68.23 67.83 67.35 66.62 66.71 66.86 67.90 70.29 73.11 72.81 71.86 71.09 71.01 70.85
56.23 57.53 58.55 59.93 61.85 64.71 69.31 69.27 71.02 70.81 70.05 70.10 70.15 70.20 69.44 69.31 69.30 70.47 69.70 68.62 69.68 69.13 69.75 69.75 69.78 69.42 68.14 70.31 69.41 68.23 67.81 67.56 67.23 67.30 66.43 67.29 70.71 72.61 72.64 71.70 70.81 70.62 70.65
54.69 55.50 56.94 57.91 59.98 62.77 65.37 66.23 66.55 68.69 69.04 69.86 65.42 65.96 69.93 70.46 70.51 70.36 69.65 68.82 69.11 68.75 69.61 69.63 69.76 69.47 69.02 69.68 69.30 67.94 67.96 67.66 67.17 67.01 66.88 67.48 70.27 72.06 72.38 71.62 71.41 71.20 70.58
52.45 52.82 54.09 55.44 56.91 59.71 62.93 64.68 65.18 65.01 64.94 63.06 61.62 61.70 62.20 62.71 62.77 64.14 65.78 67.78 67.51 67.42 68.01 68.01 69.11 69.20 69.27 69.53 69.11 67.78 67.55 67.58 67.60 67.08 65.88 67.13 68.95 71.60 72.24 72.55 71.94 71.70 70.76
50.63 50.99 51.64 53.28 54.07 57.23 60.74 61.29 60.91 61.75 61.47 60.47 58.40 59.23 58.44 59.12 59.60 60.45 61.67 64.40 66.19 64.86 65.62 66.01 66.61 66.77 67.39 67.75 66.14 63.17 63.41 62.89 67.47 67.18 66.02 66.13 67.33 69.62 71.55 72.29 72.26 72.18 71.49
50.52 49.86 50.50 51.28 52.44 54.93 56.76 58.99 58.16 58.35 59.35 58.14 56.32 56.05 57.79 56.92 57.10 57.93 59.96 62.31 64.53 63.72 64.91 65.92 66.23 63.93 63.21 63.62 62.29 63.88 62.32 63.74 67.77 68.07 66.46 66.48 65.10 67.28 69.59 71.16 72.20 72.22 71.96
49.17 49.53 48.94 50.16 50.24 51.14 52.26 55.95 56.01 57.43 57.51 57.27 55.42 54.37 55.32 54.02 54.39 55.21 57.18 60.59 58.51 60.68 61.89 63.98 63.97 64.26 62.38 62.82 61.78 61.97 62.62 64.07 67.04 67.07 67.51 66.39 66.04 63.95 65.50 68.61 70.19 71.00 71.38
47.59 47.89 48.57 49.76 48.50 49.02 49.48 52.20 53.41 54.17 54.32 52.50 51.92 51.80 51.81 53.29 52.86 52.87 53.91 54.01 55.04 56.68 58.48 58.40 59.97 62.65 62.61 60.56 60.12 60.42 61.54 64.19 64.86 65.95 66.70 66.77 66.84 66.91 64.21 63.94 66.04 68.26 69.36
46.34 46.79 46.79 47.14 46.99 47.67 48.16 49.02 49.55 50.17 51.29 50.48 50.56 50.13 50.38 51.68 51.08 50.82 50.50 51.13 52.28 52.69 52.97 53.87 54.82 56.58 59.43 62.12 60.79 59.21 60.04 62.15 63.70 65.99 65.50 66.46 67.02 67.00 66.64 64.02 63.24 64.14 66.06
46.23 46.43 46.83 47.25 46.67 46.66 47.05 47.41 48.41 47.69 48.35 48.59 48.74 48.43 49.09 49.64 49.54 49.17 48.94 49.51 49.30 48.87 49.43 50.12 50.92 52.85 53.82 57.52 60.18 60.94 63.06 63.78 63.87 64.22 64.73 65.99 66.81 67.08 67.01 66.64 64.52 63.94 62.62
46.05 45.72 45.70 45.16 44.91 44.91 44.45 44.43 44.98 45.25 46.33 46.79 47.93 47.23 47.82 47.95 47.84 47.26 47.64 46.65 46.51 46.48 47.20 47.80 47.96 48.20 50.58 51.75 54.79 56.49 58.91 61.31 61.97 63.56 64.52 64.75 64.93 65.81 66.13 66.66 65.99 65.02 64.78
44.77 44.63 43.56 43.37 43.50 43.36 43.26 43.19 44.12 44.51 45.27 44.69 45.62 45.01 46.17 45.74 46.33 44.62 43.09 43.35 43.40 43.24 43.70 43.72 44.56 44.27 47.20 47.81 48.88 50.98 51.30 54.59 57.58 60.71 62.52 63.89 64.16 64.96 65.21 65.95 65.57 65.35 65.84
43.34 42.35 42.69 42.31 42.40 42.79 42.74 42.87 42.34 42.69 42.54 42.55 41.75 42.38 42.23 43.61 42.07 40.99 40.75 40.37 40.28 40.98 40.58 40.97 40.92 41.19 40.74 44.03 44.22 47.24 47.82 48.65 50.63 54.72 56.02 58.99 61.40 61.70 62.74 63.47 64.44 65.19 65.39
42.16 42.53 42.21 42.48 41.72 42.43 42.14 40.56 39.24 38.37 37.55 39.32 39.30 39.73 40.03 40.78 40.06 39.35 39.10 38.47 38.51 39.11 38.84 39.43 40.67 40.55 40.64 39.28 42.30 45.70 45.08 46.25 48.47 47.82 52.37 53.14 54.19 56.85 60.06 61.32 62.00 62.44 63.03
42.20 41.31 40.78 41.50 41.50 41.01 40.29 39.71 38.10 37.06 37.52 37.83 37.70 36.89 37.33 37.86 38.04 37.81 37.67 37.13 37.25 38.10 38.37 38.91 38.25 38.99 39.91 39.94 40.21 40.35 40.91 42.15 44.84 46.89 45.53 48.17 50.72 53.43 56.06 59.69 62.25 63.02 64.22
41.12 40.91 39.84 40.42 40.17 40.32 39.47 38.54 37.13 35.55 35.69 34.99 34.69 34.61 34.89 35.78 36.14 36.59 37.29 37.30 37.25 37.38 37.47 37.74 38.32 38.23 38.14 38.75 39.77 40.50 40.13 39.93 40.61 41.32 41.77 42.36 42.76 47.26 51.29 53.83 54.47 58.19 62.49